<?xml version="1.0" encoding="UTF-8" standalone="no" ?>
<gpx xmlns="http://www.topografix.com/GPX/1/1" xmlns:xsi="http://www.w3.org/2001/XMLSchema-instance" xsi:schemaLocation="http://www.topografix.com/GPX/1/1 http://www.topografix.com/GPX/1/1/gpx.xsd" version="1.1" creator="VisuGPX - https://www.visugpx.com">
  <metadata>
    <name>la batie avançon1</name>
    <desc><![CDATA[avec lionel,mimi,paps,jean-michel,mickey,christian,gruit]]></desc>
  </metadata>
  <trk>
    <name><![CDATA[la batie avançon1_1]]></name>
    <trkseg>
      <trkpt lat="44.57004" lon="6.14731">
        <ele>930.7</ele>
        <time>2020-10-13T08:21:47.606Z</time>
      </trkpt>
      <trkpt lat="44.57004" lon="6.14731">
        <ele>930.7</ele>
        <time>2020-10-13T08:21:47.606Z</time>
      </trkpt>
      <trkpt lat="44.57002" lon="6.14737">
        <ele>931.8</ele>
        <time>2020-10-13T08:21:48.826Z</time>
      </trkpt>
      <trkpt lat="44.56999" lon="6.14743">
        <ele>932.5</ele>
        <time>2020-10-13T08:21:49.977Z</time>
      </trkpt>
      <trkpt lat="44.56996" lon="6.1475">
        <ele>932.7</ele>
        <time>2020-10-13T08:21:51.534Z</time>
      </trkpt>
      <trkpt lat="44.56992" lon="6.14756">
        <ele>933.2</ele>
        <time>2020-10-13T08:21:52.000Z</time>
      </trkpt>
      <trkpt lat="44.56986" lon="6.14765">
        <ele>934.1</ele>
        <time>2020-10-13T08:21:55.357Z</time>
      </trkpt>
      <trkpt lat="44.56978" lon="6.14772">
        <ele>932.4</ele>
        <time>2020-10-13T08:21:58.371Z</time>
      </trkpt>
      <trkpt lat="44.56973" lon="6.14773">
        <ele>933.9</ele>
        <time>2020-10-13T08:21:59.000Z</time>
      </trkpt>
      <trkpt lat="44.56966" lon="6.14773">
        <ele>933.7</ele>
        <time>2020-10-13T08:22:01.000Z</time>
      </trkpt>
      <trkpt lat="44.56961" lon="6.14772">
        <ele>933.3</ele>
        <time>2020-10-13T08:22:03.827Z</time>
      </trkpt>
      <trkpt lat="44.56955" lon="6.14772">
        <ele>933.5</ele>
        <time>2020-10-13T08:22:06.448Z</time>
      </trkpt>
      <trkpt lat="44.56949" lon="6.14771">
        <ele>935.9</ele>
        <time>2020-10-13T08:22:08.000Z</time>
      </trkpt>
      <trkpt lat="44.56942" lon="6.14771">
        <ele>936.2</ele>
        <time>2020-10-13T08:22:10.000Z</time>
      </trkpt>
      <trkpt lat="44.56934" lon="6.1477">
        <ele>937.6</ele>
        <time>2020-10-13T08:22:12.000Z</time>
      </trkpt>
      <trkpt lat="44.56928" lon="6.14769">
        <ele>937.4</ele>
        <time>2020-10-13T08:22:14.000Z</time>
      </trkpt>
      <trkpt lat="44.56922" lon="6.14769">
        <ele>936.8</ele>
        <time>2020-10-13T08:22:16.000Z</time>
      </trkpt>
      <trkpt lat="44.56917" lon="6.14771">
        <ele>936</ele>
        <time>2020-10-13T08:22:18.333Z</time>
      </trkpt>
      <trkpt lat="44.56912" lon="6.14774">
        <ele>935.9</ele>
        <time>2020-10-13T08:22:19.831Z</time>
      </trkpt>
      <trkpt lat="44.56907" lon="6.14777">
        <ele>937.1</ele>
        <time>2020-10-13T08:22:20.000Z</time>
      </trkpt>
      <trkpt lat="44.56896" lon="6.14781">
        <ele>937</ele>
        <time>2020-10-13T08:22:22.000Z</time>
      </trkpt>
      <trkpt lat="44.56891" lon="6.14781">
        <ele>936.2</ele>
        <time>2020-10-13T08:22:23.000Z</time>
      </trkpt>
      <trkpt lat="44.56885" lon="6.14779">
        <ele>935.7</ele>
        <time>2020-10-13T08:22:24.000Z</time>
      </trkpt>
      <trkpt lat="44.56881" lon="6.14778">
        <ele>936.6</ele>
        <time>2020-10-13T08:22:25.000Z</time>
      </trkpt>
      <trkpt lat="44.56876" lon="6.14775">
        <ele>935.7</ele>
        <time>2020-10-13T08:22:26.000Z</time>
      </trkpt>
      <trkpt lat="44.5687" lon="6.14772">
        <ele>935.4</ele>
        <time>2020-10-13T08:22:27.000Z</time>
      </trkpt>
      <trkpt lat="44.56858" lon="6.14766">
        <ele>933.9</ele>
        <time>2020-10-13T08:22:29.000Z</time>
      </trkpt>
      <trkpt lat="44.56851" lon="6.14763">
        <ele>932.6</ele>
        <time>2020-10-13T08:22:30.000Z</time>
      </trkpt>
      <trkpt lat="44.56837" lon="6.14752">
        <ele>931.6</ele>
        <time>2020-10-13T08:22:32.000Z</time>
      </trkpt>
      <trkpt lat="44.5683" lon="6.14747">
        <ele>931.1</ele>
        <time>2020-10-13T08:22:33.000Z</time>
      </trkpt>
      <trkpt lat="44.56815" lon="6.14737">
        <ele>930.6</ele>
        <time>2020-10-13T08:22:35.000Z</time>
      </trkpt>
      <trkpt lat="44.568" lon="6.14734">
        <ele>930.1</ele>
        <time>2020-10-13T08:22:37.000Z</time>
      </trkpt>
      <trkpt lat="44.56795" lon="6.14736">
        <ele>930.4</ele>
        <time>2020-10-13T08:22:38.000Z</time>
      </trkpt>
      <trkpt lat="44.56787" lon="6.14747">
        <ele>929.2</ele>
        <time>2020-10-13T08:22:40.000Z</time>
      </trkpt>
      <trkpt lat="44.56783" lon="6.1476">
        <ele>932.3</ele>
        <time>2020-10-13T08:22:42.000Z</time>
      </trkpt>
      <trkpt lat="44.56781" lon="6.14767">
        <ele>931.3</ele>
        <time>2020-10-13T08:22:43.000Z</time>
      </trkpt>
      <trkpt lat="44.56779" lon="6.14782">
        <ele>930.9</ele>
        <time>2020-10-13T08:22:46.000Z</time>
      </trkpt>
      <trkpt lat="44.56777" lon="6.14792">
        <ele>931.8</ele>
        <time>2020-10-13T08:22:48.000Z</time>
      </trkpt>
      <trkpt lat="44.56776" lon="6.14802">
        <ele>939.3</ele>
        <time>2020-10-13T08:22:51.000Z</time>
      </trkpt>
      <trkpt lat="44.56775" lon="6.14811">
        <ele>939.3</ele>
        <time>2020-10-13T08:22:54.580Z</time>
      </trkpt>
      <trkpt lat="44.56775" lon="6.14819">
        <ele>939.3</ele>
        <time>2020-10-13T08:22:55.000Z</time>
      </trkpt>
      <trkpt lat="44.56773" lon="6.14835">
        <ele>939.3</ele>
        <time>2020-10-13T08:22:58.000Z</time>
      </trkpt>
      <trkpt lat="44.56771" lon="6.14846">
        <ele>939.3</ele>
        <time>2020-10-13T08:23:00.698Z</time>
      </trkpt>
      <trkpt lat="44.5677" lon="6.14852">
        <ele>939.3</ele>
        <time>2020-10-13T08:23:01.000Z</time>
      </trkpt>
      <trkpt lat="44.56768" lon="6.14863">
        <ele>939.3</ele>
        <time>2020-10-13T08:23:03.000Z</time>
      </trkpt>
      <trkpt lat="44.56766" lon="6.14874">
        <ele>939.3</ele>
        <time>2020-10-13T08:23:05.000Z</time>
      </trkpt>
      <trkpt lat="44.56763" lon="6.14892">
        <ele>939.3</ele>
        <time>2020-10-13T08:23:08.000Z</time>
      </trkpt>
      <trkpt lat="44.5676" lon="6.14905">
        <ele>939.3</ele>
        <time>2020-10-13T08:23:09.000Z</time>
      </trkpt>
      <trkpt lat="44.56756" lon="6.14923">
        <ele>939.3</ele>
        <time>2020-10-13T08:23:11.000Z</time>
      </trkpt>
      <trkpt lat="44.56754" lon="6.14935">
        <ele>939.3</ele>
        <time>2020-10-13T08:23:13.894Z</time>
      </trkpt>
      <trkpt lat="44.56748" lon="6.14961">
        <ele>939.3</ele>
        <time>2020-10-13T08:23:18.000Z</time>
      </trkpt>
      <trkpt lat="44.56746" lon="6.14971">
        <ele>939.3</ele>
        <time>2020-10-13T08:23:19.000Z</time>
      </trkpt>
      <trkpt lat="44.56744" lon="6.14981">
        <ele>939.3</ele>
        <time>2020-10-13T08:23:20.000Z</time>
      </trkpt>
      <trkpt lat="44.56742" lon="6.14998">
        <ele>939.3</ele>
        <time>2020-10-13T08:23:22.000Z</time>
      </trkpt>
      <trkpt lat="44.5674" lon="6.15007">
        <ele>939.3</ele>
        <time>2020-10-13T08:23:23.000Z</time>
      </trkpt>
      <trkpt lat="44.56737" lon="6.15015">
        <ele>939.3</ele>
        <time>2020-10-13T08:23:24.000Z</time>
      </trkpt>
      <trkpt lat="44.56731" lon="6.1503">
        <ele>939.3</ele>
        <time>2020-10-13T08:23:26.000Z</time>
      </trkpt>
      <trkpt lat="44.56727" lon="6.15037">
        <ele>939.3</ele>
        <time>2020-10-13T08:23:27.000Z</time>
      </trkpt>
      <trkpt lat="44.56723" lon="6.15043">
        <ele>939.3</ele>
        <time>2020-10-13T08:23:28.000Z</time>
      </trkpt>
      <trkpt lat="44.56715" lon="6.15053">
        <ele>939.3</ele>
        <time>2020-10-13T08:23:30.000Z</time>
      </trkpt>
      <trkpt lat="44.56707" lon="6.15065">
        <ele>939.3</ele>
        <time>2020-10-13T08:23:32.000Z</time>
      </trkpt>
      <trkpt lat="44.56702" lon="6.15072">
        <ele>939.3</ele>
        <time>2020-10-13T08:23:33.000Z</time>
      </trkpt>
      <trkpt lat="44.56698" lon="6.15079">
        <ele>939.3</ele>
        <time>2020-10-13T08:23:34.000Z</time>
      </trkpt>
      <trkpt lat="44.5669" lon="6.1509">
        <ele>939.3</ele>
        <time>2020-10-13T08:23:36.000Z</time>
      </trkpt>
      <trkpt lat="44.56687" lon="6.15096">
        <ele>939.3</ele>
        <time>2020-10-13T08:23:37.000Z</time>
      </trkpt>
      <trkpt lat="44.56683" lon="6.15102">
        <ele>939.3</ele>
        <time>2020-10-13T08:23:38.000Z</time>
      </trkpt>
      <trkpt lat="44.56677" lon="6.15115">
        <ele>939.3</ele>
        <time>2020-10-13T08:23:40.000Z</time>
      </trkpt>
      <trkpt lat="44.56674" lon="6.15122">
        <ele>939.3</ele>
        <time>2020-10-13T08:23:41.000Z</time>
      </trkpt>
      <trkpt lat="44.56672" lon="6.15127">
        <ele>939.3</ele>
        <time>2020-10-13T08:23:42.000Z</time>
      </trkpt>
      <trkpt lat="44.56669" lon="6.15139">
        <ele>939.3</ele>
        <time>2020-10-13T08:23:44.000Z</time>
      </trkpt>
      <trkpt lat="44.56666" lon="6.15146">
        <ele>939.3</ele>
        <time>2020-10-13T08:23:45.000Z</time>
      </trkpt>
      <trkpt lat="44.5666" lon="6.1516">
        <ele>939.3</ele>
        <time>2020-10-13T08:23:47.000Z</time>
      </trkpt>
      <trkpt lat="44.56657" lon="6.15167">
        <ele>939.3</ele>
        <time>2020-10-13T08:23:48.000Z</time>
      </trkpt>
      <trkpt lat="44.56653" lon="6.15174">
        <ele>935.3</ele>
        <time>2020-10-13T08:23:49.000Z</time>
      </trkpt>
      <trkpt lat="44.56649" lon="6.1518">
        <ele>935.4</ele>
        <time>2020-10-13T08:23:52.000Z</time>
      </trkpt>
      <trkpt lat="44.56646" lon="6.15186">
        <ele>934.4</ele>
        <time>2020-10-13T08:23:54.000Z</time>
      </trkpt>
      <trkpt lat="44.56637" lon="6.15196">
        <ele>933.5</ele>
        <time>2020-10-13T08:23:57.000Z</time>
      </trkpt>
      <trkpt lat="44.56632" lon="6.15199">
        <ele>934.3</ele>
        <time>2020-10-13T08:23:59.572Z</time>
      </trkpt>
      <trkpt lat="44.56625" lon="6.15202">
        <ele>934.6</ele>
        <time>2020-10-13T08:24:01.000Z</time>
      </trkpt>
      <trkpt lat="44.56619" lon="6.15205">
        <ele>934.7</ele>
        <time>2020-10-13T08:24:03.532Z</time>
      </trkpt>
      <trkpt lat="44.56615" lon="6.15207">
        <ele>934</ele>
        <time>2020-10-13T08:24:04.000Z</time>
      </trkpt>
      <trkpt lat="44.56607" lon="6.1521">
        <ele>934.4</ele>
        <time>2020-10-13T08:24:06.000Z</time>
      </trkpt>
      <trkpt lat="44.56602" lon="6.1521">
        <ele>934</ele>
        <time>2020-10-13T08:24:07.000Z</time>
      </trkpt>
      <trkpt lat="44.56596" lon="6.15209">
        <ele>936.3</ele>
        <time>2020-10-13T08:24:09.000Z</time>
      </trkpt>
      <trkpt lat="44.56591" lon="6.1521">
        <ele>938.2</ele>
        <time>2020-10-13T08:24:11.000Z</time>
      </trkpt>
      <trkpt lat="44.56586" lon="6.15212">
        <ele>937.8</ele>
        <time>2020-10-13T08:24:13.811Z</time>
      </trkpt>
      <trkpt lat="44.56579" lon="6.15213">
        <ele>937.4</ele>
        <time>2020-10-13T08:24:15.507Z</time>
      </trkpt>
      <trkpt lat="44.56573" lon="6.15213">
        <ele>938.4</ele>
        <time>2020-10-13T08:24:16.000Z</time>
      </trkpt>
      <trkpt lat="44.56568" lon="6.15213">
        <ele>938.2</ele>
        <time>2020-10-13T08:24:18.000Z</time>
      </trkpt>
      <trkpt lat="44.56559" lon="6.15211">
        <ele>938.4</ele>
        <time>2020-10-13T08:24:21.373Z</time>
      </trkpt>
      <trkpt lat="44.56554" lon="6.15208">
        <ele>938.2</ele>
        <time>2020-10-13T08:24:22.886Z</time>
      </trkpt>
      <trkpt lat="44.56551" lon="6.15201">
        <ele>938.7</ele>
        <time>2020-10-13T08:24:24.604Z</time>
      </trkpt>
      <trkpt lat="44.56549" lon="6.15192">
        <ele>938.9</ele>
        <time>2020-10-13T08:24:26.808Z</time>
      </trkpt>
      <trkpt lat="44.56547" lon="6.1518">
        <ele>942.2</ele>
        <time>2020-10-13T08:24:29.000Z</time>
      </trkpt>
      <trkpt lat="44.56545" lon="6.1517">
        <ele>944.2</ele>
        <time>2020-10-13T08:24:31.000Z</time>
      </trkpt>
      <trkpt lat="44.56542" lon="6.15162">
        <ele>944.9</ele>
        <time>2020-10-13T08:24:33.000Z</time>
      </trkpt>
      <trkpt lat="44.5654" lon="6.15153">
        <ele>945.9</ele>
        <time>2020-10-13T08:24:35.000Z</time>
      </trkpt>
      <trkpt lat="44.56535" lon="6.15145">
        <ele>942.7</ele>
        <time>2020-10-13T08:24:37.000Z</time>
      </trkpt>
      <trkpt lat="44.5653" lon="6.15137">
        <ele>942</ele>
        <time>2020-10-13T08:24:40.571Z</time>
      </trkpt>
      <trkpt lat="44.56526" lon="6.15127">
        <ele>940.7</ele>
        <time>2020-10-13T08:24:43.229Z</time>
      </trkpt>
      <trkpt lat="44.56522" lon="6.15121">
        <ele>940</ele>
        <time>2020-10-13T08:24:44.000Z</time>
      </trkpt>
      <trkpt lat="44.56519" lon="6.15113">
        <ele>941.1</ele>
        <time>2020-10-13T08:24:46.000Z</time>
      </trkpt>
      <trkpt lat="44.56515" lon="6.15106">
        <ele>940.9</ele>
        <time>2020-10-13T08:24:48.000Z</time>
      </trkpt>
      <trkpt lat="44.56513" lon="6.151">
        <ele>940.6</ele>
        <time>2020-10-13T08:24:50.412Z</time>
      </trkpt>
      <trkpt lat="44.56511" lon="6.15093">
        <ele>941.3</ele>
        <time>2020-10-13T08:24:51.000Z</time>
      </trkpt>
      <trkpt lat="44.56509" lon="6.15083">
        <ele>941.9</ele>
        <time>2020-10-13T08:24:54.391Z</time>
      </trkpt>
      <trkpt lat="44.56506" lon="6.15074">
        <ele>940.3</ele>
        <time>2020-10-13T08:24:56.000Z</time>
      </trkpt>
      <trkpt lat="44.56501" lon="6.15063">
        <ele>940.2</ele>
        <time>2020-10-13T08:24:59.000Z</time>
      </trkpt>
      <trkpt lat="44.56497" lon="6.15055">
        <ele>940</ele>
        <time>2020-10-13T08:25:01.000Z</time>
      </trkpt>
      <trkpt lat="44.56495" lon="6.15047">
        <ele>940.4</ele>
        <time>2020-10-13T08:25:03.706Z</time>
      </trkpt>
      <trkpt lat="44.56491" lon="6.15034">
        <ele>941.5</ele>
        <time>2020-10-13T08:25:06.000Z</time>
      </trkpt>
      <trkpt lat="44.56489" lon="6.15028">
        <ele>941.7</ele>
        <time>2020-10-13T08:25:08.447Z</time>
      </trkpt>
      <trkpt lat="44.56485" lon="6.15018">
        <ele>941.6</ele>
        <time>2020-10-13T08:25:11.710Z</time>
      </trkpt>
      <trkpt lat="44.56484" lon="6.15011">
        <ele>941.1</ele>
        <time>2020-10-13T08:25:16.000Z</time>
      </trkpt>
      <trkpt lat="44.56482" lon="6.15005">
        <ele>941.6</ele>
        <time>2020-10-13T08:25:19.000Z</time>
      </trkpt>
      <trkpt lat="44.5648" lon="6.14998">
        <ele>941.1</ele>
        <time>2020-10-13T08:25:23.000Z</time>
      </trkpt>
      <trkpt lat="44.56479" lon="6.14991">
        <ele>939.3</ele>
        <time>2020-10-13T08:25:28.570Z</time>
      </trkpt>
      <trkpt lat="44.56476" lon="6.14984">
        <ele>939.9</ele>
        <time>2020-10-13T08:25:32.050Z</time>
      </trkpt>
      <trkpt lat="44.56473" lon="6.14979">
        <ele>940.5</ele>
        <time>2020-10-13T08:25:34.226Z</time>
      </trkpt>
      <trkpt lat="44.5647" lon="6.14972">
        <ele>940</ele>
        <time>2020-10-13T08:25:37.037Z</time>
      </trkpt>
      <trkpt lat="44.56468" lon="6.14963">
        <ele>940.2</ele>
        <time>2020-10-13T08:25:39.692Z</time>
      </trkpt>
      <trkpt lat="44.56466" lon="6.14953">
        <ele>941</ele>
        <time>2020-10-13T08:25:41.000Z</time>
      </trkpt>
      <trkpt lat="44.56463" lon="6.14942">
        <ele>942.4</ele>
        <time>2020-10-13T08:25:44.000Z</time>
      </trkpt>
      <trkpt lat="44.5646" lon="6.14935">
        <ele>941.1</ele>
        <time>2020-10-13T08:25:46.000Z</time>
      </trkpt>
      <trkpt lat="44.56456" lon="6.14928">
        <ele>941</ele>
        <time>2020-10-13T08:25:48.848Z</time>
      </trkpt>
      <trkpt lat="44.56451" lon="6.14918">
        <ele>943.5</ele>
        <time>2020-10-13T08:25:50.000Z</time>
      </trkpt>
      <trkpt lat="44.56449" lon="6.14911">
        <ele>946</ele>
        <time>2020-10-13T08:25:52.061Z</time>
      </trkpt>
      <trkpt lat="44.56449" lon="6.149">
        <ele>948</ele>
        <time>2020-10-13T08:25:53.709Z</time>
      </trkpt>
      <trkpt lat="44.56447" lon="6.14884">
        <ele>949.8</ele>
        <time>2020-10-13T08:25:55.407Z</time>
      </trkpt>
      <trkpt lat="44.56445" lon="6.14877">
        <ele>951.1</ele>
        <time>2020-10-13T08:25:56.000Z</time>
      </trkpt>
      <trkpt lat="44.56437" lon="6.1486">
        <ele>950.4</ele>
        <time>2020-10-13T08:25:58.000Z</time>
      </trkpt>
      <trkpt lat="44.5643" lon="6.14845">
        <ele>948.7</ele>
        <time>2020-10-13T08:26:00.000Z</time>
      </trkpt>
      <trkpt lat="44.56427" lon="6.14838">
        <ele>949.2</ele>
        <time>2020-10-13T08:26:01.000Z</time>
      </trkpt>
      <trkpt lat="44.56421" lon="6.14823">
        <ele>950.2</ele>
        <time>2020-10-13T08:26:03.492Z</time>
      </trkpt>
      <trkpt lat="44.56416" lon="6.1481">
        <ele>950.7</ele>
        <time>2020-10-13T08:26:04.955Z</time>
      </trkpt>
      <trkpt lat="44.56405" lon="6.14774">
        <ele>949.8</ele>
        <time>2020-10-13T08:26:06.411Z</time>
      </trkpt>
      <trkpt lat="44.56401" lon="6.14756">
        <ele>949.1</ele>
        <time>2020-10-13T08:26:07.000Z</time>
      </trkpt>
      <trkpt lat="44.56397" lon="6.1475">
        <ele>949</ele>
        <time>2020-10-13T08:26:09.554Z</time>
      </trkpt>
      <trkpt lat="44.56392" lon="6.14743">
        <ele>952.6</ele>
        <time>2020-10-13T08:26:10.000Z</time>
      </trkpt>
      <trkpt lat="44.56388" lon="6.14736">
        <ele>949.9</ele>
        <time>2020-10-13T08:26:11.000Z</time>
      </trkpt>
      <trkpt lat="44.56383" lon="6.14725">
        <ele>945.8</ele>
        <time>2020-10-13T08:26:13.000Z</time>
      </trkpt>
      <trkpt lat="44.56379" lon="6.14718">
        <ele>946.3</ele>
        <time>2020-10-13T08:26:15.350Z</time>
      </trkpt>
      <trkpt lat="44.56375" lon="6.14713">
        <ele>948.3</ele>
        <time>2020-10-13T08:26:16.560Z</time>
      </trkpt>
      <trkpt lat="44.56369" lon="6.14706">
        <ele>949.7</ele>
        <time>2020-10-13T08:26:17.000Z</time>
      </trkpt>
      <trkpt lat="44.56363" lon="6.14695">
        <ele>949.8</ele>
        <time>2020-10-13T08:26:19.000Z</time>
      </trkpt>
      <trkpt lat="44.5636" lon="6.1468">
        <ele>949</ele>
        <time>2020-10-13T08:26:21.000Z</time>
      </trkpt>
      <trkpt lat="44.5636" lon="6.14666">
        <ele>950</ele>
        <time>2020-10-13T08:26:23.000Z</time>
      </trkpt>
      <trkpt lat="44.5636" lon="6.14652">
        <ele>950</ele>
        <time>2020-10-13T08:26:25.000Z</time>
      </trkpt>
      <trkpt lat="44.56359" lon="6.14644">
        <ele>950</ele>
        <time>2020-10-13T08:26:26.000Z</time>
      </trkpt>
      <trkpt lat="44.56359" lon="6.14637">
        <ele>950.2</ele>
        <time>2020-10-13T08:26:27.000Z</time>
      </trkpt>
      <trkpt lat="44.56359" lon="6.14629">
        <ele>948.7</ele>
        <time>2020-10-13T08:26:28.000Z</time>
      </trkpt>
      <trkpt lat="44.56358" lon="6.14613">
        <ele>949.4</ele>
        <time>2020-10-13T08:26:30.000Z</time>
      </trkpt>
      <trkpt lat="44.56356" lon="6.14597">
        <ele>950.2</ele>
        <time>2020-10-13T08:26:32.000Z</time>
      </trkpt>
      <trkpt lat="44.56356" lon="6.14581">
        <ele>951.2</ele>
        <time>2020-10-13T08:26:34.000Z</time>
      </trkpt>
      <trkpt lat="44.56356" lon="6.14565">
        <ele>952.5</ele>
        <time>2020-10-13T08:26:36.000Z</time>
      </trkpt>
      <trkpt lat="44.56356" lon="6.14548">
        <ele>953.7</ele>
        <time>2020-10-13T08:26:38.000Z</time>
      </trkpt>
      <trkpt lat="44.56356" lon="6.1454">
        <ele>953.2</ele>
        <time>2020-10-13T08:26:39.000Z</time>
      </trkpt>
      <trkpt lat="44.56355" lon="6.14525">
        <ele>954.8</ele>
        <time>2020-10-13T08:26:41.000Z</time>
      </trkpt>
      <trkpt lat="44.56352" lon="6.14519">
        <ele>953.7</ele>
        <time>2020-10-13T08:26:42.000Z</time>
      </trkpt>
      <trkpt lat="44.56345" lon="6.14514">
        <ele>953.9</ele>
        <time>2020-10-13T08:26:44.000Z</time>
      </trkpt>
      <trkpt lat="44.56341" lon="6.14514">
        <ele>953.9</ele>
        <time>2020-10-13T08:26:45.000Z</time>
      </trkpt>
      <trkpt lat="44.56335" lon="6.14514">
        <ele>953.3</ele>
        <time>2020-10-13T08:26:46.000Z</time>
      </trkpt>
      <trkpt lat="44.5633" lon="6.14513">
        <ele>953.1</ele>
        <time>2020-10-13T08:26:47.000Z</time>
      </trkpt>
      <trkpt lat="44.56321" lon="6.14509">
        <ele>952</ele>
        <time>2020-10-13T08:26:49.000Z</time>
      </trkpt>
      <trkpt lat="44.56309" lon="6.14507">
        <ele>951</ele>
        <time>2020-10-13T08:26:52.000Z</time>
      </trkpt>
      <trkpt lat="44.56303" lon="6.14502">
        <ele>951.1</ele>
        <time>2020-10-13T08:26:54.380Z</time>
      </trkpt>
      <trkpt lat="44.56296" lon="6.14499">
        <ele>952.2</ele>
        <time>2020-10-13T08:26:55.000Z</time>
      </trkpt>
      <trkpt lat="44.56289" lon="6.14499">
        <ele>953.1</ele>
        <time>2020-10-13T08:26:57.606Z</time>
      </trkpt>
      <trkpt lat="44.56284" lon="6.14499">
        <ele>952.8</ele>
        <time>2020-10-13T08:26:58.000Z</time>
      </trkpt>
      <trkpt lat="44.56273" lon="6.14499">
        <ele>954</ele>
        <time>2020-10-13T08:27:01.000Z</time>
      </trkpt>
      <trkpt lat="44.56261" lon="6.14502">
        <ele>951.5</ele>
        <time>2020-10-13T08:27:03.000Z</time>
      </trkpt>
      <trkpt lat="44.56255" lon="6.14504">
        <ele>951.7</ele>
        <time>2020-10-13T08:27:04.000Z</time>
      </trkpt>
      <trkpt lat="44.56245" lon="6.14509">
        <ele>953.4</ele>
        <time>2020-10-13T08:27:06.000Z</time>
      </trkpt>
      <trkpt lat="44.5624" lon="6.1451">
        <ele>954.7</ele>
        <time>2020-10-13T08:27:08.358Z</time>
      </trkpt>
      <trkpt lat="44.56236" lon="6.1451">
        <ele>954.6</ele>
        <time>2020-10-13T08:27:09.601Z</time>
      </trkpt>
      <trkpt lat="44.56229" lon="6.14509">
        <ele>954.1</ele>
        <time>2020-10-13T08:27:10.000Z</time>
      </trkpt>
      <trkpt lat="44.56225" lon="6.1451">
        <ele>954.4</ele>
        <time>2020-10-13T08:27:11.000Z</time>
      </trkpt>
      <trkpt lat="44.56214" lon="6.14512">
        <ele>953.7</ele>
        <time>2020-10-13T08:27:14.000Z</time>
      </trkpt>
      <trkpt lat="44.56209" lon="6.14511">
        <ele>954.2</ele>
        <time>2020-10-13T08:27:15.000Z</time>
      </trkpt>
      <trkpt lat="44.56203" lon="6.14511">
        <ele>954.3</ele>
        <time>2020-10-13T08:27:16.000Z</time>
      </trkpt>
      <trkpt lat="44.56197" lon="6.14513">
        <ele>953.7</ele>
        <time>2020-10-13T08:27:17.000Z</time>
      </trkpt>
      <trkpt lat="44.56185" lon="6.14515">
        <ele>953.6</ele>
        <time>2020-10-13T08:27:19.000Z</time>
      </trkpt>
      <trkpt lat="44.56174" lon="6.14514">
        <ele>954</ele>
        <time>2020-10-13T08:27:21.000Z</time>
      </trkpt>
      <trkpt lat="44.56169" lon="6.14512">
        <ele>953.6</ele>
        <time>2020-10-13T08:27:22.000Z</time>
      </trkpt>
      <trkpt lat="44.56159" lon="6.14506">
        <ele>953</ele>
        <time>2020-10-13T08:27:24.000Z</time>
      </trkpt>
      <trkpt lat="44.56149" lon="6.14499">
        <ele>952.6</ele>
        <time>2020-10-13T08:27:26.000Z</time>
      </trkpt>
      <trkpt lat="44.56143" lon="6.14496">
        <ele>952.9</ele>
        <time>2020-10-13T08:27:27.000Z</time>
      </trkpt>
      <trkpt lat="44.56132" lon="6.14489">
        <ele>954</ele>
        <time>2020-10-13T08:27:29.000Z</time>
      </trkpt>
      <trkpt lat="44.56121" lon="6.14483">
        <ele>954.1</ele>
        <time>2020-10-13T08:27:31.000Z</time>
      </trkpt>
      <trkpt lat="44.56115" lon="6.14479">
        <ele>952.2</ele>
        <time>2020-10-13T08:27:32.000Z</time>
      </trkpt>
      <trkpt lat="44.56104" lon="6.14472">
        <ele>951.5</ele>
        <time>2020-10-13T08:27:34.000Z</time>
      </trkpt>
      <trkpt lat="44.56098" lon="6.14469">
        <ele>952.3</ele>
        <time>2020-10-13T08:27:35.000Z</time>
      </trkpt>
      <trkpt lat="44.56092" lon="6.14465">
        <ele>952.8</ele>
        <time>2020-10-13T08:27:36.000Z</time>
      </trkpt>
      <trkpt lat="44.56079" lon="6.14456">
        <ele>952.1</ele>
        <time>2020-10-13T08:27:38.000Z</time>
      </trkpt>
      <trkpt lat="44.56073" lon="6.14452">
        <ele>953.3</ele>
        <time>2020-10-13T08:27:39.000Z</time>
      </trkpt>
      <trkpt lat="44.56059" lon="6.14446">
        <ele>952.2</ele>
        <time>2020-10-13T08:27:41.000Z</time>
      </trkpt>
      <trkpt lat="44.56045" lon="6.14442">
        <ele>949.7</ele>
        <time>2020-10-13T08:27:43.000Z</time>
      </trkpt>
      <trkpt lat="44.56038" lon="6.1444">
        <ele>949.7</ele>
        <time>2020-10-13T08:27:44.000Z</time>
      </trkpt>
      <trkpt lat="44.56031" lon="6.14438">
        <ele>947.5</ele>
        <time>2020-10-13T08:27:45.000Z</time>
      </trkpt>
      <trkpt lat="44.56017" lon="6.14435">
        <ele>946.6</ele>
        <time>2020-10-13T08:27:47.000Z</time>
      </trkpt>
      <trkpt lat="44.56009" lon="6.14434">
        <ele>946.5</ele>
        <time>2020-10-13T08:27:48.000Z</time>
      </trkpt>
      <trkpt lat="44.56002" lon="6.14433">
        <ele>946.7</ele>
        <time>2020-10-13T08:27:49.000Z</time>
      </trkpt>
      <trkpt lat="44.55988" lon="6.14428">
        <ele>945.9</ele>
        <time>2020-10-13T08:27:51.000Z</time>
      </trkpt>
      <trkpt lat="44.55982" lon="6.14424">
        <ele>945.6</ele>
        <time>2020-10-13T08:27:52.000Z</time>
      </trkpt>
      <trkpt lat="44.5597" lon="6.14415">
        <ele>944.7</ele>
        <time>2020-10-13T08:27:54.000Z</time>
      </trkpt>
      <trkpt lat="44.55958" lon="6.14406">
        <ele>942.5</ele>
        <time>2020-10-13T08:27:56.000Z</time>
      </trkpt>
      <trkpt lat="44.55951" lon="6.144">
        <ele>941.8</ele>
        <time>2020-10-13T08:27:57.000Z</time>
      </trkpt>
      <trkpt lat="44.55945" lon="6.14394">
        <ele>942.4</ele>
        <time>2020-10-13T08:27:58.000Z</time>
      </trkpt>
      <trkpt lat="44.55932" lon="6.14383">
        <ele>941.5</ele>
        <time>2020-10-13T08:28:00.000Z</time>
      </trkpt>
      <trkpt lat="44.5592" lon="6.14373">
        <ele>940.8</ele>
        <time>2020-10-13T08:28:02.000Z</time>
      </trkpt>
      <trkpt lat="44.55909" lon="6.14362">
        <ele>942.1</ele>
        <time>2020-10-13T08:28:04.000Z</time>
      </trkpt>
      <trkpt lat="44.55903" lon="6.14356">
        <ele>942.2</ele>
        <time>2020-10-13T08:28:05.000Z</time>
      </trkpt>
      <trkpt lat="44.55893" lon="6.14343">
        <ele>941.6</ele>
        <time>2020-10-13T08:28:07.000Z</time>
      </trkpt>
      <trkpt lat="44.55885" lon="6.1433">
        <ele>941.6</ele>
        <time>2020-10-13T08:28:09.000Z</time>
      </trkpt>
      <trkpt lat="44.55881" lon="6.14324">
        <ele>942.4</ele>
        <time>2020-10-13T08:28:10.000Z</time>
      </trkpt>
      <trkpt lat="44.55873" lon="6.14314">
        <ele>943.8</ele>
        <time>2020-10-13T08:28:12.000Z</time>
      </trkpt>
      <trkpt lat="44.55868" lon="6.1431">
        <ele>943.4</ele>
        <time>2020-10-13T08:28:13.000Z</time>
      </trkpt>
      <trkpt lat="44.55863" lon="6.14305">
        <ele>942.4</ele>
        <time>2020-10-13T08:28:14.000Z</time>
      </trkpt>
      <trkpt lat="44.55854" lon="6.14294">
        <ele>942.4</ele>
        <time>2020-10-13T08:28:16.000Z</time>
      </trkpt>
      <trkpt lat="44.55846" lon="6.14283">
        <ele>941.5</ele>
        <time>2020-10-13T08:28:18.000Z</time>
      </trkpt>
      <trkpt lat="44.55842" lon="6.14278">
        <ele>941</ele>
        <time>2020-10-13T08:28:19.000Z</time>
      </trkpt>
      <trkpt lat="44.55839" lon="6.14272">
        <ele>941.5</ele>
        <time>2020-10-13T08:28:20.000Z</time>
      </trkpt>
      <trkpt lat="44.55836" lon="6.14266">
        <ele>941</ele>
        <time>2020-10-13T08:28:21.000Z</time>
      </trkpt>
      <trkpt lat="44.55829" lon="6.14254">
        <ele>941.5</ele>
        <time>2020-10-13T08:28:23.000Z</time>
      </trkpt>
      <trkpt lat="44.55825" lon="6.14248">
        <ele>941.8</ele>
        <time>2020-10-13T08:28:24.000Z</time>
      </trkpt>
      <trkpt lat="44.55822" lon="6.14242">
        <ele>943.8</ele>
        <time>2020-10-13T08:28:25.000Z</time>
      </trkpt>
      <trkpt lat="44.55814" lon="6.1423">
        <ele>942.9</ele>
        <time>2020-10-13T08:28:27.000Z</time>
      </trkpt>
      <trkpt lat="44.55807" lon="6.14217">
        <ele>944</ele>
        <time>2020-10-13T08:28:29.000Z</time>
      </trkpt>
      <trkpt lat="44.55805" lon="6.14212">
        <ele>943.2</ele>
        <time>2020-10-13T08:28:30.000Z</time>
      </trkpt>
      <trkpt lat="44.55799" lon="6.14202">
        <ele>944.5</ele>
        <time>2020-10-13T08:28:32.000Z</time>
      </trkpt>
      <trkpt lat="44.55793" lon="6.14194">
        <ele>943.9</ele>
        <time>2020-10-13T08:28:34.000Z</time>
      </trkpt>
      <trkpt lat="44.55787" lon="6.14182">
        <ele>943.5</ele>
        <time>2020-10-13T08:28:36.000Z</time>
      </trkpt>
      <trkpt lat="44.55783" lon="6.14176">
        <ele>943.1</ele>
        <time>2020-10-13T08:28:37.000Z</time>
      </trkpt>
      <trkpt lat="44.5578" lon="6.14171">
        <ele>943.1</ele>
        <time>2020-10-13T08:28:38.000Z</time>
      </trkpt>
      <trkpt lat="44.55773" lon="6.14159">
        <ele>943.5</ele>
        <time>2020-10-13T08:28:40.000Z</time>
      </trkpt>
      <trkpt lat="44.55763" lon="6.14145">
        <ele>943.4</ele>
        <time>2020-10-13T08:28:43.000Z</time>
      </trkpt>
      <trkpt lat="44.5576" lon="6.14139">
        <ele>943.4</ele>
        <time>2020-10-13T08:28:44.000Z</time>
      </trkpt>
      <trkpt lat="44.55756" lon="6.14133">
        <ele>942.7</ele>
        <time>2020-10-13T08:28:45.000Z</time>
      </trkpt>
      <trkpt lat="44.55748" lon="6.14121">
        <ele>943.1</ele>
        <time>2020-10-13T08:28:47.000Z</time>
      </trkpt>
      <trkpt lat="44.55744" lon="6.14116">
        <ele>943.4</ele>
        <time>2020-10-13T08:28:48.000Z</time>
      </trkpt>
      <trkpt lat="44.55738" lon="6.1411">
        <ele>942.8</ele>
        <time>2020-10-13T08:28:50.000Z</time>
      </trkpt>
      <trkpt lat="44.55734" lon="6.14107">
        <ele>942.7</ele>
        <time>2020-10-13T08:28:51.000Z</time>
      </trkpt>
      <trkpt lat="44.55727" lon="6.14099">
        <ele>943.3</ele>
        <time>2020-10-13T08:28:53.000Z</time>
      </trkpt>
      <trkpt lat="44.55719" lon="6.14093">
        <ele>945.8</ele>
        <time>2020-10-13T08:28:55.000Z</time>
      </trkpt>
      <trkpt lat="44.55716" lon="6.14088">
        <ele>945.6</ele>
        <time>2020-10-13T08:28:56.000Z</time>
      </trkpt>
      <trkpt lat="44.5571" lon="6.14083">
        <ele>947.5</ele>
        <time>2020-10-13T08:28:58.000Z</time>
      </trkpt>
      <trkpt lat="44.55707" lon="6.14078">
        <ele>947.4</ele>
        <time>2020-10-13T08:29:00.099Z</time>
      </trkpt>
      <trkpt lat="44.55701" lon="6.14072">
        <ele>948.4</ele>
        <time>2020-10-13T08:29:01.000Z</time>
      </trkpt>
      <trkpt lat="44.55695" lon="6.14066">
        <ele>950.6</ele>
        <time>2020-10-13T08:29:03.000Z</time>
      </trkpt>
      <trkpt lat="44.55688" lon="6.14062">
        <ele>947.7</ele>
        <time>2020-10-13T08:29:05.000Z</time>
      </trkpt>
      <trkpt lat="44.55681" lon="6.14056">
        <ele>946.9</ele>
        <time>2020-10-13T08:29:07.000Z</time>
      </trkpt>
      <trkpt lat="44.55673" lon="6.14051">
        <ele>950.6</ele>
        <time>2020-10-13T08:29:09.000Z</time>
      </trkpt>
      <trkpt lat="44.55667" lon="6.14043">
        <ele>943.6</ele>
        <time>2020-10-13T08:29:11.000Z</time>
      </trkpt>
      <trkpt lat="44.55662" lon="6.14033">
        <ele>943.2</ele>
        <time>2020-10-13T08:29:12.000Z</time>
      </trkpt>
      <trkpt lat="44.55654" lon="6.14019">
        <ele>943.9</ele>
        <time>2020-10-13T08:29:14.000Z</time>
      </trkpt>
      <trkpt lat="44.55645" lon="6.14016">
        <ele>944.6</ele>
        <time>2020-10-13T08:29:18.000Z</time>
      </trkpt>
      <trkpt lat="44.55636" lon="6.14011">
        <ele>942.1</ele>
        <time>2020-10-13T08:29:20.000Z</time>
      </trkpt>
      <trkpt lat="44.55629" lon="6.14007">
        <ele>942</ele>
        <time>2020-10-13T08:29:21.000Z</time>
      </trkpt>
      <trkpt lat="44.5562" lon="6.14">
        <ele>941.7</ele>
        <time>2020-10-13T08:29:23.000Z</time>
      </trkpt>
      <trkpt lat="44.55613" lon="6.13994">
        <ele>941.3</ele>
        <time>2020-10-13T08:29:25.000Z</time>
      </trkpt>
      <trkpt lat="44.55606" lon="6.13988">
        <ele>940.3</ele>
        <time>2020-10-13T08:29:27.000Z</time>
      </trkpt>
      <trkpt lat="44.55602" lon="6.13984">
        <ele>940</ele>
        <time>2020-10-13T08:29:28.000Z</time>
      </trkpt>
      <trkpt lat="44.55595" lon="6.13978">
        <ele>939.5</ele>
        <time>2020-10-13T08:29:30.000Z</time>
      </trkpt>
      <trkpt lat="44.55589" lon="6.13971">
        <ele>939.4</ele>
        <time>2020-10-13T08:29:32.000Z</time>
      </trkpt>
      <trkpt lat="44.55584" lon="6.13966">
        <ele>939.1</ele>
        <time>2020-10-13T08:29:34.649Z</time>
      </trkpt>
      <trkpt lat="44.55578" lon="6.13965">
        <ele>938.5</ele>
        <time>2020-10-13T08:29:36.000Z</time>
      </trkpt>
      <trkpt lat="44.55567" lon="6.13947">
        <ele>938.9</ele>
        <time>2020-10-13T08:29:39.000Z</time>
      </trkpt>
      <trkpt lat="44.55562" lon="6.1394">
        <ele>938.9</ele>
        <time>2020-10-13T08:29:40.000Z</time>
      </trkpt>
      <trkpt lat="44.55552" lon="6.13928">
        <ele>936.4</ele>
        <time>2020-10-13T08:29:42.000Z</time>
      </trkpt>
      <trkpt lat="44.55547" lon="6.13922">
        <ele>936.7</ele>
        <time>2020-10-13T08:29:43.000Z</time>
      </trkpt>
      <trkpt lat="44.55542" lon="6.13917">
        <ele>936.2</ele>
        <time>2020-10-13T08:29:44.000Z</time>
      </trkpt>
      <trkpt lat="44.55533" lon="6.13908">
        <ele>938.4</ele>
        <time>2020-10-13T08:29:46.000Z</time>
      </trkpt>
      <trkpt lat="44.55524" lon="6.13901">
        <ele>940.4</ele>
        <time>2020-10-13T08:29:48.000Z</time>
      </trkpt>
      <trkpt lat="44.55519" lon="6.13897">
        <ele>940.7</ele>
        <time>2020-10-13T08:29:49.000Z</time>
      </trkpt>
      <trkpt lat="44.55509" lon="6.13891">
        <ele>939.4</ele>
        <time>2020-10-13T08:29:51.000Z</time>
      </trkpt>
      <trkpt lat="44.55504" lon="6.13887">
        <ele>938.7</ele>
        <time>2020-10-13T08:29:52.000Z</time>
      </trkpt>
      <trkpt lat="44.55494" lon="6.13878">
        <ele>940</ele>
        <time>2020-10-13T08:29:54.000Z</time>
      </trkpt>
      <trkpt lat="44.55491" lon="6.13873">
        <ele>940.3</ele>
        <time>2020-10-13T08:29:55.000Z</time>
      </trkpt>
      <trkpt lat="44.55487" lon="6.13866">
        <ele>940.8</ele>
        <time>2020-10-13T08:29:56.000Z</time>
      </trkpt>
      <trkpt lat="44.5548" lon="6.13853">
        <ele>943.1</ele>
        <time>2020-10-13T08:29:58.000Z</time>
      </trkpt>
      <trkpt lat="44.55477" lon="6.13847">
        <ele>941.6</ele>
        <time>2020-10-13T08:29:59.000Z</time>
      </trkpt>
      <trkpt lat="44.5547" lon="6.13838">
        <ele>941.3</ele>
        <time>2020-10-13T08:30:01.000Z</time>
      </trkpt>
      <trkpt lat="44.55462" lon="6.13829">
        <ele>940.6</ele>
        <time>2020-10-13T08:30:03.000Z</time>
      </trkpt>
      <trkpt lat="44.55457" lon="6.13825">
        <ele>941.3</ele>
        <time>2020-10-13T08:30:04.000Z</time>
      </trkpt>
      <trkpt lat="44.55452" lon="6.13821">
        <ele>941.8</ele>
        <time>2020-10-13T08:30:05.000Z</time>
      </trkpt>
      <trkpt lat="44.55448" lon="6.13817">
        <ele>941.4</ele>
        <time>2020-10-13T08:30:06.000Z</time>
      </trkpt>
      <trkpt lat="44.55437" lon="6.13808">
        <ele>943.5</ele>
        <time>2020-10-13T08:30:08.000Z</time>
      </trkpt>
      <trkpt lat="44.55426" lon="6.13801">
        <ele>947.2</ele>
        <time>2020-10-13T08:30:10.000Z</time>
      </trkpt>
      <trkpt lat="44.55421" lon="6.13799">
        <ele>947.9</ele>
        <time>2020-10-13T08:30:11.000Z</time>
      </trkpt>
      <trkpt lat="44.55411" lon="6.13795">
        <ele>946.7</ele>
        <time>2020-10-13T08:30:13.000Z</time>
      </trkpt>
      <trkpt lat="44.55402" lon="6.1379">
        <ele>947.3</ele>
        <time>2020-10-13T08:30:15.000Z</time>
      </trkpt>
      <trkpt lat="44.55394" lon="6.13786">
        <ele>946.4</ele>
        <time>2020-10-13T08:30:17.000Z</time>
      </trkpt>
      <trkpt lat="44.55384" lon="6.13783">
        <ele>947.6</ele>
        <time>2020-10-13T08:30:20.000Z</time>
      </trkpt>
      <trkpt lat="44.55379" lon="6.13781">
        <ele>947.3</ele>
        <time>2020-10-13T08:30:21.000Z</time>
      </trkpt>
      <trkpt lat="44.55368" lon="6.13779">
        <ele>947.2</ele>
        <time>2020-10-13T08:30:23.000Z</time>
      </trkpt>
      <trkpt lat="44.55357" lon="6.1378">
        <ele>948.4</ele>
        <time>2020-10-13T08:30:25.000Z</time>
      </trkpt>
      <trkpt lat="44.55352" lon="6.13781">
        <ele>948.9</ele>
        <time>2020-10-13T08:30:26.000Z</time>
      </trkpt>
      <trkpt lat="44.55348" lon="6.13783">
        <ele>948.8</ele>
        <time>2020-10-13T08:30:28.047Z</time>
      </trkpt>
      <trkpt lat="44.55339" lon="6.13783">
        <ele>948.7</ele>
        <time>2020-10-13T08:30:29.000Z</time>
      </trkpt>
      <trkpt lat="44.55333" lon="6.13782">
        <ele>948.4</ele>
        <time>2020-10-13T08:30:31.540Z</time>
      </trkpt>
      <trkpt lat="44.55325" lon="6.13785">
        <ele>948.1</ele>
        <time>2020-10-13T08:30:33.000Z</time>
      </trkpt>
      <trkpt lat="44.55317" lon="6.13786">
        <ele>948.8</ele>
        <time>2020-10-13T08:30:35.000Z</time>
      </trkpt>
      <trkpt lat="44.55313" lon="6.13786">
        <ele>948.4</ele>
        <time>2020-10-13T08:30:37.353Z</time>
      </trkpt>
      <trkpt lat="44.55308" lon="6.13786">
        <ele>949.3</ele>
        <time>2020-10-13T08:30:38.751Z</time>
      </trkpt>
      <trkpt lat="44.55297" lon="6.13788">
        <ele>953.3</ele>
        <time>2020-10-13T08:30:41.700Z</time>
      </trkpt>
      <trkpt lat="44.55292" lon="6.13788">
        <ele>952.5</ele>
        <time>2020-10-13T08:30:42.000Z</time>
      </trkpt>
      <trkpt lat="44.55283" lon="6.13789">
        <ele>952.5</ele>
        <time>2020-10-13T08:30:44.000Z</time>
      </trkpt>
      <trkpt lat="44.55276" lon="6.13789">
        <ele>951</ele>
        <time>2020-10-13T08:30:46.000Z</time>
      </trkpt>
      <trkpt lat="44.55267" lon="6.13787">
        <ele>950.3</ele>
        <time>2020-10-13T08:30:48.000Z</time>
      </trkpt>
      <trkpt lat="44.5526" lon="6.13786">
        <ele>949.4</ele>
        <time>2020-10-13T08:30:50.894Z</time>
      </trkpt>
      <trkpt lat="44.55246" lon="6.13781">
        <ele>951.2</ele>
        <time>2020-10-13T08:30:53.000Z</time>
      </trkpt>
      <trkpt lat="44.55241" lon="6.13778">
        <ele>951.3</ele>
        <time>2020-10-13T08:30:54.000Z</time>
      </trkpt>
      <trkpt lat="44.55237" lon="6.13775">
        <ele>952.1</ele>
        <time>2020-10-13T08:30:55.000Z</time>
      </trkpt>
      <trkpt lat="44.55232" lon="6.13773">
        <ele>953.9</ele>
        <time>2020-10-13T08:30:57.237Z</time>
      </trkpt>
      <trkpt lat="44.55227" lon="6.1377">
        <ele>953</ele>
        <time>2020-10-13T08:30:58.614Z</time>
      </trkpt>
      <trkpt lat="44.55219" lon="6.13767">
        <ele>954.1</ele>
        <time>2020-10-13T08:31:00.000Z</time>
      </trkpt>
      <trkpt lat="44.55213" lon="6.13764">
        <ele>953.8</ele>
        <time>2020-10-13T08:31:02.932Z</time>
      </trkpt>
      <trkpt lat="44.55204" lon="6.13756">
        <ele>951.9</ele>
        <time>2020-10-13T08:31:05.000Z</time>
      </trkpt>
      <trkpt lat="44.55197" lon="6.13752">
        <ele>952</ele>
        <time>2020-10-13T08:31:07.957Z</time>
      </trkpt>
      <trkpt lat="44.55188" lon="6.13744">
        <ele>953.4</ele>
        <time>2020-10-13T08:31:10.000Z</time>
      </trkpt>
      <trkpt lat="44.55182" lon="6.13738">
        <ele>954.5</ele>
        <time>2020-10-13T08:31:12.000Z</time>
      </trkpt>
      <trkpt lat="44.55175" lon="6.13732">
        <ele>952.6</ele>
        <time>2020-10-13T08:31:14.000Z</time>
      </trkpt>
      <trkpt lat="44.55164" lon="6.13722">
        <ele>952.6</ele>
        <time>2020-10-13T08:31:17.000Z</time>
      </trkpt>
      <trkpt lat="44.5516" lon="6.13718">
        <ele>952.5</ele>
        <time>2020-10-13T08:31:19.093Z</time>
      </trkpt>
      <trkpt lat="44.55156" lon="6.13715">
        <ele>952.2</ele>
        <time>2020-10-13T08:31:20.192Z</time>
      </trkpt>
      <trkpt lat="44.5515" lon="6.13709">
        <ele>953</ele>
        <time>2020-10-13T08:31:21.831Z</time>
      </trkpt>
      <trkpt lat="44.55146" lon="6.13705">
        <ele>954.4</ele>
        <time>2020-10-13T08:31:23.130Z</time>
      </trkpt>
      <trkpt lat="44.55141" lon="6.137">
        <ele>954.2</ele>
        <time>2020-10-13T08:31:24.431Z</time>
      </trkpt>
      <trkpt lat="44.55133" lon="6.13693">
        <ele>954.4</ele>
        <time>2020-10-13T08:31:26.000Z</time>
      </trkpt>
      <trkpt lat="44.55129" lon="6.13687">
        <ele>954.9</ele>
        <time>2020-10-13T08:31:28.675Z</time>
      </trkpt>
      <trkpt lat="44.55123" lon="6.1368">
        <ele>957.1</ele>
        <time>2020-10-13T08:31:30.000Z</time>
      </trkpt>
      <trkpt lat="44.55119" lon="6.13675">
        <ele>957.9</ele>
        <time>2020-10-13T08:31:32.197Z</time>
      </trkpt>
      <trkpt lat="44.55116" lon="6.13671">
        <ele>958.3</ele>
        <time>2020-10-13T08:31:33.408Z</time>
      </trkpt>
      <trkpt lat="44.55108" lon="6.13663">
        <ele>958.1</ele>
        <time>2020-10-13T08:31:35.000Z</time>
      </trkpt>
      <trkpt lat="44.55104" lon="6.13659">
        <ele>958.1</ele>
        <time>2020-10-13T08:31:37.436Z</time>
      </trkpt>
      <trkpt lat="44.55099" lon="6.13656">
        <ele>956.9</ele>
        <time>2020-10-13T08:31:38.000Z</time>
      </trkpt>
      <trkpt lat="44.55094" lon="6.13652">
        <ele>957.3</ele>
        <time>2020-10-13T08:31:40.533Z</time>
      </trkpt>
      <trkpt lat="44.55089" lon="6.13648">
        <ele>956.6</ele>
        <time>2020-10-13T08:31:41.000Z</time>
      </trkpt>
      <trkpt lat="44.55084" lon="6.13642">
        <ele>956.9</ele>
        <time>2020-10-13T08:31:43.873Z</time>
      </trkpt>
      <trkpt lat="44.5508" lon="6.13638">
        <ele>957.8</ele>
        <time>2020-10-13T08:31:45.573Z</time>
      </trkpt>
      <trkpt lat="44.55075" lon="6.13632">
        <ele>957.2</ele>
        <time>2020-10-13T08:31:46.000Z</time>
      </trkpt>
      <trkpt lat="44.55069" lon="6.1363">
        <ele>957.8</ele>
        <time>2020-10-13T08:31:49.578Z</time>
      </trkpt>
      <trkpt lat="44.55065" lon="6.13626">
        <ele>957.5</ele>
        <time>2020-10-13T08:31:50.919Z</time>
      </trkpt>
      <trkpt lat="44.55057" lon="6.13617">
        <ele>955.2</ele>
        <time>2020-10-13T08:31:53.380Z</time>
      </trkpt>
      <trkpt lat="44.55052" lon="6.13612">
        <ele>955.7</ele>
        <time>2020-10-13T08:31:54.781Z</time>
      </trkpt>
      <trkpt lat="44.55049" lon="6.13607">
        <ele>956.1</ele>
        <time>2020-10-13T08:31:55.000Z</time>
      </trkpt>
      <trkpt lat="44.55042" lon="6.13601">
        <ele>955.3</ele>
        <time>2020-10-13T08:31:57.000Z</time>
      </trkpt>
      <trkpt lat="44.55037" lon="6.13597">
        <ele>955.1</ele>
        <time>2020-10-13T08:31:59.522Z</time>
      </trkpt>
      <trkpt lat="44.55032" lon="6.13592">
        <ele>956.3</ele>
        <time>2020-10-13T08:32:00.000Z</time>
      </trkpt>
      <trkpt lat="44.55019" lon="6.13583">
        <ele>956</ele>
        <time>2020-10-13T08:32:02.000Z</time>
      </trkpt>
      <trkpt lat="44.55014" lon="6.1358">
        <ele>954.8</ele>
        <time>2020-10-13T08:32:03.000Z</time>
      </trkpt>
      <trkpt lat="44.55009" lon="6.13578">
        <ele>955.1</ele>
        <time>2020-10-13T08:32:04.000Z</time>
      </trkpt>
      <trkpt lat="44.55003" lon="6.13574">
        <ele>955.5</ele>
        <time>2020-10-13T08:32:06.546Z</time>
      </trkpt>
      <trkpt lat="44.54997" lon="6.13571">
        <ele>958.5</ele>
        <time>2020-10-13T08:32:07.000Z</time>
      </trkpt>
      <trkpt lat="44.54992" lon="6.13569">
        <ele>959.4</ele>
        <time>2020-10-13T08:32:08.000Z</time>
      </trkpt>
      <trkpt lat="44.54983" lon="6.13562">
        <ele>961.2</ele>
        <time>2020-10-13T08:32:10.000Z</time>
      </trkpt>
      <trkpt lat="44.54979" lon="6.1356">
        <ele>963</ele>
        <time>2020-10-13T08:32:11.000Z</time>
      </trkpt>
      <trkpt lat="44.54972" lon="6.13557">
        <ele>962.4</ele>
        <time>2020-10-13T08:32:13.960Z</time>
      </trkpt>
      <trkpt lat="44.54964" lon="6.13552">
        <ele>963.6</ele>
        <time>2020-10-13T08:32:15.000Z</time>
      </trkpt>
      <trkpt lat="44.54959" lon="6.1355">
        <ele>964.6</ele>
        <time>2020-10-13T08:32:16.000Z</time>
      </trkpt>
      <trkpt lat="44.54948" lon="6.13548">
        <ele>965.1</ele>
        <time>2020-10-13T08:32:18.000Z</time>
      </trkpt>
      <trkpt lat="44.54943" lon="6.13547">
        <ele>965.8</ele>
        <time>2020-10-13T08:32:19.000Z</time>
      </trkpt>
      <trkpt lat="44.54933" lon="6.13543">
        <ele>965.2</ele>
        <time>2020-10-13T08:32:21.000Z</time>
      </trkpt>
      <trkpt lat="44.54923" lon="6.13538">
        <ele>966.9</ele>
        <time>2020-10-13T08:32:23.000Z</time>
      </trkpt>
      <trkpt lat="44.54914" lon="6.13534">
        <ele>968.9</ele>
        <time>2020-10-13T08:32:25.000Z</time>
      </trkpt>
      <trkpt lat="44.54909" lon="6.13533">
        <ele>968.2</ele>
        <time>2020-10-13T08:32:26.000Z</time>
      </trkpt>
      <trkpt lat="44.54901" lon="6.13532">
        <ele>967.9</ele>
        <time>2020-10-13T08:32:28.000Z</time>
      </trkpt>
      <trkpt lat="44.54891" lon="6.13531">
        <ele>966.5</ele>
        <time>2020-10-13T08:32:30.000Z</time>
      </trkpt>
      <trkpt lat="44.54881" lon="6.13531">
        <ele>968</ele>
        <time>2020-10-13T08:32:32.000Z</time>
      </trkpt>
      <trkpt lat="44.54876" lon="6.13531">
        <ele>966.6</ele>
        <time>2020-10-13T08:32:33.000Z</time>
      </trkpt>
      <trkpt lat="44.54866" lon="6.13532">
        <ele>966.6</ele>
        <time>2020-10-13T08:32:35.000Z</time>
      </trkpt>
      <trkpt lat="44.54855" lon="6.1353">
        <ele>966.1</ele>
        <time>2020-10-13T08:32:37.000Z</time>
      </trkpt>
      <trkpt lat="44.54849" lon="6.13531">
        <ele>966.2</ele>
        <time>2020-10-13T08:32:38.000Z</time>
      </trkpt>
      <trkpt lat="44.54842" lon="6.13532">
        <ele>966.4</ele>
        <time>2020-10-13T08:32:39.000Z</time>
      </trkpt>
      <trkpt lat="44.54831" lon="6.13533">
        <ele>965.8</ele>
        <time>2020-10-13T08:32:41.000Z</time>
      </trkpt>
      <trkpt lat="44.54825" lon="6.13534">
        <ele>964.6</ele>
        <time>2020-10-13T08:32:42.000Z</time>
      </trkpt>
      <trkpt lat="44.54812" lon="6.13539">
        <ele>961.9</ele>
        <time>2020-10-13T08:32:44.000Z</time>
      </trkpt>
      <trkpt lat="44.54801" lon="6.13545">
        <ele>962.3</ele>
        <time>2020-10-13T08:32:46.000Z</time>
      </trkpt>
      <trkpt lat="44.54796" lon="6.13549">
        <ele>962.3</ele>
        <time>2020-10-13T08:32:47.000Z</time>
      </trkpt>
      <trkpt lat="44.54791" lon="6.13554">
        <ele>962.5</ele>
        <time>2020-10-13T08:32:48.000Z</time>
      </trkpt>
      <trkpt lat="44.54785" lon="6.13559">
        <ele>963.8</ele>
        <time>2020-10-13T08:32:49.000Z</time>
      </trkpt>
      <trkpt lat="44.54776" lon="6.13574">
        <ele>962.5</ele>
        <time>2020-10-13T08:32:51.000Z</time>
      </trkpt>
      <trkpt lat="44.54771" lon="6.13581">
        <ele>962.3</ele>
        <time>2020-10-13T08:32:52.000Z</time>
      </trkpt>
      <trkpt lat="44.54767" lon="6.13588">
        <ele>962.2</ele>
        <time>2020-10-13T08:32:53.000Z</time>
      </trkpt>
      <trkpt lat="44.54761" lon="6.13597">
        <ele>963</ele>
        <time>2020-10-13T08:32:54.000Z</time>
      </trkpt>
      <trkpt lat="44.5475" lon="6.13615">
        <ele>962.7</ele>
        <time>2020-10-13T08:32:56.000Z</time>
      </trkpt>
      <trkpt lat="44.54743" lon="6.13624">
        <ele>963.2</ele>
        <time>2020-10-13T08:32:57.000Z</time>
      </trkpt>
      <trkpt lat="44.54735" lon="6.13632">
        <ele>962.1</ele>
        <time>2020-10-13T08:32:58.000Z</time>
      </trkpt>
      <trkpt lat="44.54727" lon="6.13637">
        <ele>962.1</ele>
        <time>2020-10-13T08:32:59.000Z</time>
      </trkpt>
      <trkpt lat="44.5471" lon="6.13645">
        <ele>961.7</ele>
        <time>2020-10-13T08:33:01.000Z</time>
      </trkpt>
      <trkpt lat="44.54703" lon="6.13648">
        <ele>962.4</ele>
        <time>2020-10-13T08:33:02.000Z</time>
      </trkpt>
      <trkpt lat="44.54699" lon="6.13643">
        <ele>959.9</ele>
        <time>2020-10-13T08:33:05.000Z</time>
      </trkpt>
      <trkpt lat="44.54694" lon="6.13634">
        <ele>956.2</ele>
        <time>2020-10-13T08:33:07.000Z</time>
      </trkpt>
      <trkpt lat="44.5469" lon="6.1363">
        <ele>955.4</ele>
        <time>2020-10-13T08:33:09.024Z</time>
      </trkpt>
      <trkpt lat="44.54684" lon="6.13625">
        <ele>954.4</ele>
        <time>2020-10-13T08:33:10.000Z</time>
      </trkpt>
      <trkpt lat="44.54677" lon="6.13622">
        <ele>953.9</ele>
        <time>2020-10-13T08:33:12.000Z</time>
      </trkpt>
      <trkpt lat="44.54671" lon="6.13617">
        <ele>952.7</ele>
        <time>2020-10-13T08:33:14.000Z</time>
      </trkpt>
      <trkpt lat="44.54666" lon="6.13613">
        <ele>955.9</ele>
        <time>2020-10-13T08:33:16.000Z</time>
      </trkpt>
      <trkpt lat="44.54662" lon="6.13608">
        <ele>956.9</ele>
        <time>2020-10-13T08:33:18.000Z</time>
      </trkpt>
      <trkpt lat="44.54656" lon="6.13602">
        <ele>957.9</ele>
        <time>2020-10-13T08:33:21.000Z</time>
      </trkpt>
      <trkpt lat="44.54651" lon="6.136">
        <ele>958.9</ele>
        <time>2020-10-13T08:33:23.000Z</time>
      </trkpt>
      <trkpt lat="44.54646" lon="6.13599">
        <ele>959</ele>
        <time>2020-10-13T08:33:26.000Z</time>
      </trkpt>
      <trkpt lat="44.5464" lon="6.13599">
        <ele>956.7</ele>
        <time>2020-10-13T08:33:29.000Z</time>
      </trkpt>
      <trkpt lat="44.54634" lon="6.13596">
        <ele>958.8</ele>
        <time>2020-10-13T08:33:33.000Z</time>
      </trkpt>
      <trkpt lat="44.54629" lon="6.13594">
        <ele>957.1</ele>
        <time>2020-10-13T08:33:37.000Z</time>
      </trkpt>
      <trkpt lat="44.54624" lon="6.13591">
        <ele>957</ele>
        <time>2020-10-13T08:33:41.720Z</time>
      </trkpt>
      <trkpt lat="44.54618" lon="6.13587">
        <ele>957.2</ele>
        <time>2020-10-13T08:33:47.000Z</time>
      </trkpt>
      <trkpt lat="44.54614" lon="6.13582">
        <ele>957.3</ele>
        <time>2020-10-13T08:33:52.000Z</time>
      </trkpt>
      <trkpt lat="44.5461" lon="6.13578">
        <ele>956.7</ele>
        <time>2020-10-13T08:33:56.000Z</time>
      </trkpt>
      <trkpt lat="44.54607" lon="6.13573">
        <ele>957.4</ele>
        <time>2020-10-13T08:33:59.806Z</time>
      </trkpt>
      <trkpt lat="44.54604" lon="6.13566">
        <ele>958.6</ele>
        <time>2020-10-13T08:34:04.000Z</time>
      </trkpt>
      <trkpt lat="44.546" lon="6.1356">
        <ele>958.2</ele>
        <time>2020-10-13T08:34:08.923Z</time>
      </trkpt>
      <trkpt lat="44.54598" lon="6.13554">
        <ele>959.3</ele>
        <time>2020-10-13T08:34:11.000Z</time>
      </trkpt>
      <trkpt lat="44.54595" lon="6.13547">
        <ele>959.2</ele>
        <time>2020-10-13T08:34:15.830Z</time>
      </trkpt>
      <trkpt lat="44.54594" lon="6.13538">
        <ele>960.6</ele>
        <time>2020-10-13T08:34:19.925Z</time>
      </trkpt>
      <trkpt lat="44.54592" lon="6.1353">
        <ele>959.6</ele>
        <time>2020-10-13T08:34:23.485Z</time>
      </trkpt>
      <trkpt lat="44.54591" lon="6.13522">
        <ele>957.3</ele>
        <time>2020-10-13T08:34:26.085Z</time>
      </trkpt>
      <trkpt lat="44.54588" lon="6.13515">
        <ele>958.7</ele>
        <time>2020-10-13T08:34:28.000Z</time>
      </trkpt>
      <trkpt lat="44.54586" lon="6.13509">
        <ele>958.1</ele>
        <time>2020-10-13T08:34:31.821Z</time>
      </trkpt>
      <trkpt lat="44.54584" lon="6.13502">
        <ele>958.6</ele>
        <time>2020-10-13T08:34:34.537Z</time>
      </trkpt>
      <trkpt lat="44.54582" lon="6.13495">
        <ele>960.4</ele>
        <time>2020-10-13T08:34:37.159Z</time>
      </trkpt>
      <trkpt lat="44.54581" lon="6.13484">
        <ele>960.3</ele>
        <time>2020-10-13T08:34:39.000Z</time>
      </trkpt>
      <trkpt lat="44.5458" lon="6.13474">
        <ele>962.2</ele>
        <time>2020-10-13T08:34:42.000Z</time>
      </trkpt>
      <trkpt lat="44.54578" lon="6.13467">
        <ele>997.5</ele>
        <time>2020-10-13T08:34:47.000Z</time>
      </trkpt>
      <trkpt lat="44.54575" lon="6.13459">
        <ele>997.5</ele>
        <time>2020-10-13T08:34:52.000Z</time>
      </trkpt>
      <trkpt lat="44.54573" lon="6.1345">
        <ele>999.1</ele>
        <time>2020-10-13T08:34:56.000Z</time>
      </trkpt>
      <trkpt lat="44.54572" lon="6.13443">
        <ele>999.1</ele>
        <time>2020-10-13T08:34:59.000Z</time>
      </trkpt>
      <trkpt lat="44.5457" lon="6.1343">
        <ele>999.1</ele>
        <time>2020-10-13T08:35:03.000Z</time>
      </trkpt>
      <trkpt lat="44.54569" lon="6.1342">
        <ele>997.5</ele>
        <time>2020-10-13T08:35:09.000Z</time>
      </trkpt>
      <trkpt lat="44.54566" lon="6.13413">
        <ele>997.5</ele>
        <time>2020-10-13T08:35:13.000Z</time>
      </trkpt>
      <trkpt lat="44.54565" lon="6.13406">
        <ele>997.5</ele>
        <time>2020-10-13T08:35:16.000Z</time>
      </trkpt>
      <trkpt lat="44.54562" lon="6.134">
        <ele>998.6</ele>
        <time>2020-10-13T08:35:21.000Z</time>
      </trkpt>
      <trkpt lat="44.5456" lon="6.13394">
        <ele>998.6</ele>
        <time>2020-10-13T08:35:25.267Z</time>
      </trkpt>
      <trkpt lat="44.54558" lon="6.13386">
        <ele>998.6</ele>
        <time>2020-10-13T08:35:28.000Z</time>
      </trkpt>
      <trkpt lat="44.54556" lon="6.13376">
        <ele>998.6</ele>
        <time>2020-10-13T08:35:32.000Z</time>
      </trkpt>
      <trkpt lat="44.54555" lon="6.13367">
        <ele>998.6</ele>
        <time>2020-10-13T08:35:35.000Z</time>
      </trkpt>
      <trkpt lat="44.54553" lon="6.13361">
        <ele>998.6</ele>
        <time>2020-10-13T08:35:38.000Z</time>
      </trkpt>
      <trkpt lat="44.54551" lon="6.13351">
        <ele>998.4</ele>
        <time>2020-10-13T08:35:42.000Z</time>
      </trkpt>
      <trkpt lat="44.54549" lon="6.13335">
        <ele>998.4</ele>
        <time>2020-10-13T08:35:44.000Z</time>
      </trkpt>
      <trkpt lat="44.54546" lon="6.13323">
        <ele>998.4</ele>
        <time>2020-10-13T08:35:46.958Z</time>
      </trkpt>
      <trkpt lat="44.54538" lon="6.1328">
        <ele>998.4</ele>
        <time>2020-10-13T08:35:48.000Z</time>
      </trkpt>
      <trkpt lat="44.54535" lon="6.13267">
        <ele>998.4</ele>
        <time>2020-10-13T08:35:50.000Z</time>
      </trkpt>
      <trkpt lat="44.54532" lon="6.13253">
        <ele>998.4</ele>
        <time>2020-10-13T08:35:53.000Z</time>
      </trkpt>
      <trkpt lat="44.54529" lon="6.13247">
        <ele>998.4</ele>
        <time>2020-10-13T08:35:55.000Z</time>
      </trkpt>
      <trkpt lat="44.54522" lon="6.13238">
        <ele>998.4</ele>
        <time>2020-10-13T08:35:58.000Z</time>
      </trkpt>
      <trkpt lat="44.54517" lon="6.13233">
        <ele>998.4</ele>
        <time>2020-10-13T08:36:00.000Z</time>
      </trkpt>
      <trkpt lat="44.54508" lon="6.13227">
        <ele>1002.7</ele>
        <time>2020-10-13T08:36:03.000Z</time>
      </trkpt>
      <trkpt lat="44.54501" lon="6.13223">
        <ele>1002.7</ele>
        <time>2020-10-13T08:36:06.074Z</time>
      </trkpt>
      <trkpt lat="44.54496" lon="6.13223">
        <ele>1002.7</ele>
        <time>2020-10-13T08:36:07.000Z</time>
      </trkpt>
      <trkpt lat="44.54488" lon="6.13227">
        <ele>1002.7</ele>
        <time>2020-10-13T08:36:09.000Z</time>
      </trkpt>
      <trkpt lat="44.54483" lon="6.13229">
        <ele>1002.7</ele>
        <time>2020-10-13T08:36:10.000Z</time>
      </trkpt>
      <trkpt lat="44.54479" lon="6.13232">
        <ele>1002.7</ele>
        <time>2020-10-13T08:36:11.000Z</time>
      </trkpt>
      <trkpt lat="44.54471" lon="6.13235">
        <ele>1002.7</ele>
        <time>2020-10-13T08:36:13.000Z</time>
      </trkpt>
      <trkpt lat="44.54456" lon="6.13236">
        <ele>1002.7</ele>
        <time>2020-10-13T08:36:16.000Z</time>
      </trkpt>
      <trkpt lat="44.54444" lon="6.13236">
        <ele>1002.7</ele>
        <time>2020-10-13T08:36:18.000Z</time>
      </trkpt>
      <trkpt lat="44.54439" lon="6.13235">
        <ele>1002.7</ele>
        <time>2020-10-13T08:36:19.000Z</time>
      </trkpt>
      <trkpt lat="44.5443" lon="6.13232">
        <ele>1002.7</ele>
        <time>2020-10-13T08:36:21.000Z</time>
      </trkpt>
      <trkpt lat="44.54421" lon="6.13228">
        <ele>1002.7</ele>
        <time>2020-10-13T08:36:23.000Z</time>
      </trkpt>
      <trkpt lat="44.54416" lon="6.13226">
        <ele>1002.7</ele>
        <time>2020-10-13T08:36:24.000Z</time>
      </trkpt>
      <trkpt lat="44.54407" lon="6.13223">
        <ele>1002.7</ele>
        <time>2020-10-13T08:36:26.000Z</time>
      </trkpt>
      <trkpt lat="44.54398" lon="6.13218">
        <ele>1002.7</ele>
        <time>2020-10-13T08:36:28.000Z</time>
      </trkpt>
      <trkpt lat="44.54393" lon="6.13217">
        <ele>1002.7</ele>
        <time>2020-10-13T08:36:29.000Z</time>
      </trkpt>
      <trkpt lat="44.54384" lon="6.13214">
        <ele>1002.7</ele>
        <time>2020-10-13T08:36:31.000Z</time>
      </trkpt>
      <trkpt lat="44.54377" lon="6.13213">
        <ele>1002.7</ele>
        <time>2020-10-13T08:36:33.000Z</time>
      </trkpt>
      <trkpt lat="44.54367" lon="6.13211">
        <ele>1000.2</ele>
        <time>2020-10-13T08:36:35.000Z</time>
      </trkpt>
      <trkpt lat="44.54354" lon="6.1321">
        <ele>1000.2</ele>
        <time>2020-10-13T08:36:38.000Z</time>
      </trkpt>
      <trkpt lat="44.54345" lon="6.13216">
        <ele>1000.2</ele>
        <time>2020-10-13T08:36:41.000Z</time>
      </trkpt>
      <trkpt lat="44.54336" lon="6.13221">
        <ele>1000.2</ele>
        <time>2020-10-13T08:36:43.000Z</time>
      </trkpt>
      <trkpt lat="44.54332" lon="6.13224">
        <ele>1000.2</ele>
        <time>2020-10-13T08:36:44.000Z</time>
      </trkpt>
      <trkpt lat="44.54325" lon="6.13228">
        <ele>1000.2</ele>
        <time>2020-10-13T08:36:46.000Z</time>
      </trkpt>
      <trkpt lat="44.54318" lon="6.13232">
        <ele>1000.2</ele>
        <time>2020-10-13T08:36:50.000Z</time>
      </trkpt>
      <trkpt lat="44.54311" lon="6.13235">
        <ele>1000.2</ele>
        <time>2020-10-13T08:36:51.000Z</time>
      </trkpt>
      <trkpt lat="44.54313" lon="6.13228">
        <ele>1000.2</ele>
        <time>2020-10-13T08:36:54.671Z</time>
      </trkpt>
      <trkpt lat="44.54306" lon="6.13234">
        <ele>1000.2</ele>
        <time>2020-10-13T08:36:55.000Z</time>
      </trkpt>
      <trkpt lat="44.54295" lon="6.13246">
        <ele>1000.2</ele>
        <time>2020-10-13T08:36:57.000Z</time>
      </trkpt>
      <trkpt lat="44.54287" lon="6.13254">
        <ele>1000.2</ele>
        <time>2020-10-13T08:36:59.126Z</time>
      </trkpt>
      <trkpt lat="44.54281" lon="6.13261">
        <ele>1000.2</ele>
        <time>2020-10-13T08:37:00.454Z</time>
      </trkpt>
      <trkpt lat="44.54276" lon="6.13268">
        <ele>1000.2</ele>
        <time>2020-10-13T08:37:01.000Z</time>
      </trkpt>
      <trkpt lat="44.54271" lon="6.13277">
        <ele>1000.2</ele>
        <time>2020-10-13T08:37:03.000Z</time>
      </trkpt>
      <trkpt lat="44.54267" lon="6.13282">
        <ele>1000.2</ele>
        <time>2020-10-13T08:37:04.000Z</time>
      </trkpt>
      <trkpt lat="44.54263" lon="6.13287">
        <ele>1000.2</ele>
        <time>2020-10-13T08:37:05.000Z</time>
      </trkpt>
      <trkpt lat="44.54258" lon="6.13294">
        <ele>1000.2</ele>
        <time>2020-10-13T08:37:07.000Z</time>
      </trkpt>
      <trkpt lat="44.54254" lon="6.13301">
        <ele>1000.2</ele>
        <time>2020-10-13T08:37:09.000Z</time>
      </trkpt>
      <trkpt lat="44.5425" lon="6.13307">
        <ele>1000.2</ele>
        <time>2020-10-13T08:37:11.000Z</time>
      </trkpt>
      <trkpt lat="44.54244" lon="6.13314">
        <ele>1000.2</ele>
        <time>2020-10-13T08:37:13.000Z</time>
      </trkpt>
      <trkpt lat="44.54236" lon="6.13323">
        <ele>1000.2</ele>
        <time>2020-10-13T08:37:16.955Z</time>
      </trkpt>
      <trkpt lat="44.54231" lon="6.13331">
        <ele>1000.2</ele>
        <time>2020-10-13T08:37:18.000Z</time>
      </trkpt>
      <trkpt lat="44.54227" lon="6.13341">
        <ele>1000.2</ele>
        <time>2020-10-13T08:37:20.000Z</time>
      </trkpt>
      <trkpt lat="44.54223" lon="6.13357">
        <ele>1000.2</ele>
        <time>2020-10-13T08:37:22.000Z</time>
      </trkpt>
      <trkpt lat="44.54222" lon="6.13364">
        <ele>1000.2</ele>
        <time>2020-10-13T08:37:23.000Z</time>
      </trkpt>
      <trkpt lat="44.54225" lon="6.13373">
        <ele>1000.2</ele>
        <time>2020-10-13T08:37:25.000Z</time>
      </trkpt>
      <trkpt lat="44.54221" lon="6.13385">
        <ele>1000.2</ele>
        <time>2020-10-13T08:37:28.195Z</time>
      </trkpt>
      <trkpt lat="44.54217" lon="6.13392">
        <ele>1000.2</ele>
        <time>2020-10-13T08:37:29.000Z</time>
      </trkpt>
      <trkpt lat="44.54213" lon="6.13402">
        <ele>1000.2</ele>
        <time>2020-10-13T08:37:31.000Z</time>
      </trkpt>
      <trkpt lat="44.5421" lon="6.13407">
        <ele>1000.2</ele>
        <time>2020-10-13T08:37:32.000Z</time>
      </trkpt>
      <trkpt lat="44.54206" lon="6.13419">
        <ele>1000.2</ele>
        <time>2020-10-13T08:37:34.000Z</time>
      </trkpt>
      <trkpt lat="44.54205" lon="6.13425">
        <ele>1000.2</ele>
        <time>2020-10-13T08:37:35.000Z</time>
      </trkpt>
      <trkpt lat="44.54202" lon="6.13433">
        <ele>998.5</ele>
        <time>2020-10-13T08:37:37.000Z</time>
      </trkpt>
      <trkpt lat="44.54199" lon="6.13445">
        <ele>1000.2</ele>
        <time>2020-10-13T08:37:40.000Z</time>
      </trkpt>
      <trkpt lat="44.54198" lon="6.13454">
        <ele>998.7</ele>
        <time>2020-10-13T08:37:42.000Z</time>
      </trkpt>
      <trkpt lat="44.54198" lon="6.13463">
        <ele>997.7</ele>
        <time>2020-10-13T08:37:44.000Z</time>
      </trkpt>
      <trkpt lat="44.54198" lon="6.13469">
        <ele>997.7</ele>
        <time>2020-10-13T08:37:46.221Z</time>
      </trkpt>
      <trkpt lat="44.542" lon="6.13477">
        <ele>997.6</ele>
        <time>2020-10-13T08:37:47.744Z</time>
      </trkpt>
      <trkpt lat="44.54202" lon="6.13487">
        <ele>998.4</ele>
        <time>2020-10-13T08:37:49.674Z</time>
      </trkpt>
      <trkpt lat="44.54204" lon="6.13493">
        <ele>1000.5</ele>
        <time>2020-10-13T08:37:50.000Z</time>
      </trkpt>
      <trkpt lat="44.54207" lon="6.13504">
        <ele>1000.6</ele>
        <time>2020-10-13T08:37:53.665Z</time>
      </trkpt>
      <trkpt lat="44.54207" lon="6.13517">
        <ele>999.8</ele>
        <time>2020-10-13T08:37:56.094Z</time>
      </trkpt>
      <trkpt lat="44.54207" lon="6.13526">
        <ele>1000.8</ele>
        <time>2020-10-13T08:37:57.000Z</time>
      </trkpt>
      <trkpt lat="44.54207" lon="6.13535">
        <ele>1001.1</ele>
        <time>2020-10-13T08:37:59.852Z</time>
      </trkpt>
      <trkpt lat="44.54208" lon="6.13546">
        <ele>998.2</ele>
        <time>2020-10-13T08:38:01.778Z</time>
      </trkpt>
      <trkpt lat="44.5421" lon="6.13557">
        <ele>997.1</ele>
        <time>2020-10-13T08:38:03.000Z</time>
      </trkpt>
      <trkpt lat="44.54213" lon="6.13563">
        <ele>998.3</ele>
        <time>2020-10-13T08:38:05.618Z</time>
      </trkpt>
      <trkpt lat="44.54221" lon="6.13571">
        <ele>1000.2</ele>
        <time>2020-10-13T08:38:08.900Z</time>
      </trkpt>
      <trkpt lat="44.54227" lon="6.13576">
        <ele>1001.8</ele>
        <time>2020-10-13T08:38:10.000Z</time>
      </trkpt>
      <trkpt lat="44.54235" lon="6.13578">
        <ele>1003.1</ele>
        <time>2020-10-13T08:38:12.000Z</time>
      </trkpt>
      <trkpt lat="44.54246" lon="6.13582">
        <ele>1003.7</ele>
        <time>2020-10-13T08:38:15.000Z</time>
      </trkpt>
      <trkpt lat="44.54253" lon="6.13584">
        <ele>1004</ele>
        <time>2020-10-13T08:38:17.000Z</time>
      </trkpt>
      <trkpt lat="44.54262" lon="6.13587">
        <ele>1004.4</ele>
        <time>2020-10-13T08:38:20.499Z</time>
      </trkpt>
      <trkpt lat="44.54269" lon="6.13589">
        <ele>1005.8</ele>
        <time>2020-10-13T08:38:22.000Z</time>
      </trkpt>
      <trkpt lat="44.54275" lon="6.13591">
        <ele>1006.5</ele>
        <time>2020-10-13T08:38:24.000Z</time>
      </trkpt>
      <trkpt lat="44.54283" lon="6.13593">
        <ele>1007.4</ele>
        <time>2020-10-13T08:38:27.454Z</time>
      </trkpt>
      <trkpt lat="44.5429" lon="6.13597">
        <ele>1006.9</ele>
        <time>2020-10-13T08:38:29.000Z</time>
      </trkpt>
      <trkpt lat="44.54295" lon="6.136">
        <ele>1006.6</ele>
        <time>2020-10-13T08:38:31.761Z</time>
      </trkpt>
      <trkpt lat="44.54302" lon="6.13605">
        <ele>1005.9</ele>
        <time>2020-10-13T08:38:33.000Z</time>
      </trkpt>
      <trkpt lat="44.54308" lon="6.1361">
        <ele>1005.8</ele>
        <time>2020-10-13T08:38:35.000Z</time>
      </trkpt>
      <trkpt lat="44.54315" lon="6.13616">
        <ele>1005.7</ele>
        <time>2020-10-13T08:38:37.965Z</time>
      </trkpt>
      <trkpt lat="44.54322" lon="6.13624">
        <ele>1006.4</ele>
        <time>2020-10-13T08:38:39.000Z</time>
      </trkpt>
      <trkpt lat="44.54327" lon="6.13631">
        <ele>1005.5</ele>
        <time>2020-10-13T08:38:41.000Z</time>
      </trkpt>
      <trkpt lat="44.54331" lon="6.13635">
        <ele>1006.9</ele>
        <time>2020-10-13T08:38:43.240Z</time>
      </trkpt>
      <trkpt lat="44.54335" lon="6.1364">
        <ele>1006.2</ele>
        <time>2020-10-13T08:38:44.835Z</time>
      </trkpt>
      <trkpt lat="44.54346" lon="6.13649">
        <ele>1005.5</ele>
        <time>2020-10-13T08:38:47.000Z</time>
      </trkpt>
      <trkpt lat="44.54352" lon="6.13655">
        <ele>1004.3</ele>
        <time>2020-10-13T08:38:49.000Z</time>
      </trkpt>
      <trkpt lat="44.5436" lon="6.1366">
        <ele>1003.6</ele>
        <time>2020-10-13T08:38:51.987Z</time>
      </trkpt>
      <trkpt lat="44.54366" lon="6.13667">
        <ele>1005.5</ele>
        <time>2020-10-13T08:38:53.000Z</time>
      </trkpt>
      <trkpt lat="44.54376" lon="6.13675">
        <ele>1006</ele>
        <time>2020-10-13T08:38:56.742Z</time>
      </trkpt>
      <trkpt lat="44.5438" lon="6.13678">
        <ele>1006.9</ele>
        <time>2020-10-13T08:38:57.000Z</time>
      </trkpt>
      <trkpt lat="44.54389" lon="6.13683">
        <ele>1006.7</ele>
        <time>2020-10-13T08:38:59.000Z</time>
      </trkpt>
      <trkpt lat="44.54397" lon="6.13687">
        <ele>1007.6</ele>
        <time>2020-10-13T08:39:01.000Z</time>
      </trkpt>
      <trkpt lat="44.54405" lon="6.13691">
        <ele>1008.4</ele>
        <time>2020-10-13T08:39:03.000Z</time>
      </trkpt>
      <trkpt lat="44.54411" lon="6.13694">
        <ele>1007.4</ele>
        <time>2020-10-13T08:39:05.661Z</time>
      </trkpt>
      <trkpt lat="44.54419" lon="6.137">
        <ele>1007.9</ele>
        <time>2020-10-13T08:39:08.403Z</time>
      </trkpt>
      <trkpt lat="44.54423" lon="6.13704">
        <ele>1008.6</ele>
        <time>2020-10-13T08:39:09.000Z</time>
      </trkpt>
      <trkpt lat="44.54429" lon="6.13709">
        <ele>1008.3</ele>
        <time>2020-10-13T08:39:11.826Z</time>
      </trkpt>
      <trkpt lat="44.54435" lon="6.13716">
        <ele>1008</ele>
        <time>2020-10-13T08:39:13.000Z</time>
      </trkpt>
      <trkpt lat="44.54441" lon="6.13722">
        <ele>1006.4</ele>
        <time>2020-10-13T08:39:15.781Z</time>
      </trkpt>
      <trkpt lat="44.54446" lon="6.13728">
        <ele>1007.6</ele>
        <time>2020-10-13T08:39:17.913Z</time>
      </trkpt>
      <trkpt lat="44.54452" lon="6.13736">
        <ele>1008.7</ele>
        <time>2020-10-13T08:39:19.000Z</time>
      </trkpt>
      <trkpt lat="44.54456" lon="6.13744">
        <ele>1008.3</ele>
        <time>2020-10-13T08:39:21.000Z</time>
      </trkpt>
      <trkpt lat="44.5446" lon="6.13752">
        <ele>1007.2</ele>
        <time>2020-10-13T08:39:23.000Z</time>
      </trkpt>
      <trkpt lat="44.54463" lon="6.1376">
        <ele>1008.8</ele>
        <time>2020-10-13T08:39:25.000Z</time>
      </trkpt>
      <trkpt lat="44.54466" lon="6.13769">
        <ele>1008</ele>
        <time>2020-10-13T08:39:27.000Z</time>
      </trkpt>
      <trkpt lat="44.5447" lon="6.1378">
        <ele>1007.2</ele>
        <time>2020-10-13T08:39:30.433Z</time>
      </trkpt>
      <trkpt lat="44.54472" lon="6.13787">
        <ele>1007.1</ele>
        <time>2020-10-13T08:39:31.000Z</time>
      </trkpt>
      <trkpt lat="44.54475" lon="6.138">
        <ele>1007.1</ele>
        <time>2020-10-13T08:39:34.293Z</time>
      </trkpt>
      <trkpt lat="44.54475" lon="6.13809">
        <ele>1008</ele>
        <time>2020-10-13T08:39:35.000Z</time>
      </trkpt>
      <trkpt lat="44.54475" lon="6.13817">
        <ele>1007.7</ele>
        <time>2020-10-13T08:39:37.142Z</time>
      </trkpt>
      <trkpt lat="44.54474" lon="6.13833">
        <ele>1008.2</ele>
        <time>2020-10-13T08:39:38.000Z</time>
      </trkpt>
      <trkpt lat="44.54474" lon="6.1384">
        <ele>1007.4</ele>
        <time>2020-10-13T08:39:39.000Z</time>
      </trkpt>
      <trkpt lat="44.54473" lon="6.13848">
        <ele>1007.2</ele>
        <time>2020-10-13T08:39:40.000Z</time>
      </trkpt>
      <trkpt lat="44.54472" lon="6.13862">
        <ele>1006.5</ele>
        <time>2020-10-13T08:39:42.000Z</time>
      </trkpt>
      <trkpt lat="44.5447" lon="6.13877">
        <ele>1005.3</ele>
        <time>2020-10-13T08:39:44.000Z</time>
      </trkpt>
      <trkpt lat="44.54468" lon="6.13885">
        <ele>1005.2</ele>
        <time>2020-10-13T08:39:45.000Z</time>
      </trkpt>
      <trkpt lat="44.54467" lon="6.13902">
        <ele>1005.6</ele>
        <time>2020-10-13T08:39:47.000Z</time>
      </trkpt>
      <trkpt lat="44.54466" lon="6.13918">
        <ele>1005.5</ele>
        <time>2020-10-13T08:39:49.000Z</time>
      </trkpt>
      <trkpt lat="44.54464" lon="6.13935">
        <ele>1005.3</ele>
        <time>2020-10-13T08:39:52.000Z</time>
      </trkpt>
      <trkpt lat="44.54461" lon="6.13943">
        <ele>1005.7</ele>
        <time>2020-10-13T08:39:54.000Z</time>
      </trkpt>
      <trkpt lat="44.54458" lon="6.13955">
        <ele>1003.4</ele>
        <time>2020-10-13T08:39:58.000Z</time>
      </trkpt>
      <trkpt lat="44.54456" lon="6.13964">
        <ele>1002.7</ele>
        <time>2020-10-13T08:40:00.000Z</time>
      </trkpt>
      <trkpt lat="44.54452" lon="6.13977">
        <ele>1001.8</ele>
        <time>2020-10-13T08:40:03.000Z</time>
      </trkpt>
      <trkpt lat="44.54449" lon="6.13993">
        <ele>1002.3</ele>
        <time>2020-10-13T08:40:06.000Z</time>
      </trkpt>
      <trkpt lat="44.54445" lon="6.14007">
        <ele>998.2</ele>
        <time>2020-10-13T08:40:09.000Z</time>
      </trkpt>
      <trkpt lat="44.54442" lon="6.14021">
        <ele>999.7</ele>
        <time>2020-10-13T08:40:11.000Z</time>
      </trkpt>
      <trkpt lat="44.54439" lon="6.14036">
        <ele>997.9</ele>
        <time>2020-10-13T08:40:13.000Z</time>
      </trkpt>
      <trkpt lat="44.54438" lon="6.14044">
        <ele>997.4</ele>
        <time>2020-10-13T08:40:14.000Z</time>
      </trkpt>
      <trkpt lat="44.54436" lon="6.14056">
        <ele>997.7</ele>
        <time>2020-10-13T08:40:16.000Z</time>
      </trkpt>
      <trkpt lat="44.54436" lon="6.1407">
        <ele>996.8</ele>
        <time>2020-10-13T08:40:18.000Z</time>
      </trkpt>
      <trkpt lat="44.54435" lon="6.14083">
        <ele>996</ele>
        <time>2020-10-13T08:40:20.000Z</time>
      </trkpt>
      <trkpt lat="44.54435" lon="6.1409">
        <ele>996.1</ele>
        <time>2020-10-13T08:40:21.000Z</time>
      </trkpt>
      <trkpt lat="44.54433" lon="6.14103">
        <ele>994.9</ele>
        <time>2020-10-13T08:40:23.000Z</time>
      </trkpt>
      <trkpt lat="44.54432" lon="6.14114">
        <ele>995.2</ele>
        <time>2020-10-13T08:40:25.000Z</time>
      </trkpt>
      <trkpt lat="44.54433" lon="6.14129">
        <ele>995.5</ele>
        <time>2020-10-13T08:40:28.000Z</time>
      </trkpt>
      <trkpt lat="44.54429" lon="6.14142">
        <ele>996</ele>
        <time>2020-10-13T08:40:30.000Z</time>
      </trkpt>
      <trkpt lat="44.54425" lon="6.1415">
        <ele>996.2</ele>
        <time>2020-10-13T08:40:31.000Z</time>
      </trkpt>
      <trkpt lat="44.54421" lon="6.14158">
        <ele>995.9</ele>
        <time>2020-10-13T08:40:32.000Z</time>
      </trkpt>
      <trkpt lat="44.54417" lon="6.14166">
        <ele>995.2</ele>
        <time>2020-10-13T08:40:34.716Z</time>
      </trkpt>
      <trkpt lat="44.54409" lon="6.1418">
        <ele>993.6</ele>
        <time>2020-10-13T08:40:36.000Z</time>
      </trkpt>
      <trkpt lat="44.54406" lon="6.14187">
        <ele>993.8</ele>
        <time>2020-10-13T08:40:37.000Z</time>
      </trkpt>
      <trkpt lat="44.54399" lon="6.14199">
        <ele>993.6</ele>
        <time>2020-10-13T08:40:39.000Z</time>
      </trkpt>
      <trkpt lat="44.54395" lon="6.14206">
        <ele>994.4</ele>
        <time>2020-10-13T08:40:40.000Z</time>
      </trkpt>
      <trkpt lat="44.54392" lon="6.14212">
        <ele>994.2</ele>
        <time>2020-10-13T08:40:41.000Z</time>
      </trkpt>
      <trkpt lat="44.54389" lon="6.14225">
        <ele>995.2</ele>
        <time>2020-10-13T08:40:43.000Z</time>
      </trkpt>
      <trkpt lat="44.54388" lon="6.14232">
        <ele>995.8</ele>
        <time>2020-10-13T08:40:44.000Z</time>
      </trkpt>
      <trkpt lat="44.54387" lon="6.1424">
        <ele>996.3</ele>
        <time>2020-10-13T08:40:45.000Z</time>
      </trkpt>
      <trkpt lat="44.54387" lon="6.14247">
        <ele>996.4</ele>
        <time>2020-10-13T08:40:46.000Z</time>
      </trkpt>
      <trkpt lat="44.54389" lon="6.14258">
        <ele>997.2</ele>
        <time>2020-10-13T08:40:48.000Z</time>
      </trkpt>
      <trkpt lat="44.54389" lon="6.14265">
        <ele>997.7</ele>
        <time>2020-10-13T08:40:49.000Z</time>
      </trkpt>
      <trkpt lat="44.54391" lon="6.14279">
        <ele>994.3</ele>
        <time>2020-10-13T08:40:51.000Z</time>
      </trkpt>
      <trkpt lat="44.54393" lon="6.14287">
        <ele>994.3</ele>
        <time>2020-10-13T08:40:52.000Z</time>
      </trkpt>
      <trkpt lat="44.54396" lon="6.14294">
        <ele>994.5</ele>
        <time>2020-10-13T08:40:53.000Z</time>
      </trkpt>
      <trkpt lat="44.54398" lon="6.14301">
        <ele>994.6</ele>
        <time>2020-10-13T08:40:54.000Z</time>
      </trkpt>
      <trkpt lat="44.54404" lon="6.14312">
        <ele>994.5</ele>
        <time>2020-10-13T08:40:56.000Z</time>
      </trkpt>
      <trkpt lat="44.5441" lon="6.14324">
        <ele>994.6</ele>
        <time>2020-10-13T08:40:58.000Z</time>
      </trkpt>
      <trkpt lat="44.54413" lon="6.1433">
        <ele>993.9</ele>
        <time>2020-10-13T08:40:59.000Z</time>
      </trkpt>
      <trkpt lat="44.54419" lon="6.14341">
        <ele>994.6</ele>
        <time>2020-10-13T08:41:01.000Z</time>
      </trkpt>
      <trkpt lat="44.54424" lon="6.14352">
        <ele>994.6</ele>
        <time>2020-10-13T08:41:03.000Z</time>
      </trkpt>
      <trkpt lat="44.54431" lon="6.14366">
        <ele>996</ele>
        <time>2020-10-13T08:41:06.000Z</time>
      </trkpt>
      <trkpt lat="44.54434" lon="6.14372">
        <ele>995.5</ele>
        <time>2020-10-13T08:41:07.000Z</time>
      </trkpt>
      <trkpt lat="44.5444" lon="6.14384">
        <ele>996.2</ele>
        <time>2020-10-13T08:41:09.000Z</time>
      </trkpt>
      <trkpt lat="44.54443" lon="6.14393">
        <ele>994.9</ele>
        <time>2020-10-13T08:41:11.000Z</time>
      </trkpt>
      <trkpt lat="44.54447" lon="6.14405">
        <ele>996.4</ele>
        <time>2020-10-13T08:41:14.000Z</time>
      </trkpt>
      <trkpt lat="44.54449" lon="6.14412">
        <ele>995.6</ele>
        <time>2020-10-13T08:41:16.000Z</time>
      </trkpt>
      <trkpt lat="44.54453" lon="6.14418">
        <ele>994.7</ele>
        <time>2020-10-13T08:41:20.000Z</time>
      </trkpt>
      <trkpt lat="44.54456" lon="6.14426">
        <ele>995.2</ele>
        <time>2020-10-13T08:41:23.853Z</time>
      </trkpt>
      <trkpt lat="44.54457" lon="6.14435">
        <ele>992.6</ele>
        <time>2020-10-13T08:41:26.867Z</time>
      </trkpt>
      <trkpt lat="44.54453" lon="6.14442">
        <ele>994.7</ele>
        <time>2020-10-13T08:41:30.470Z</time>
      </trkpt>
      <trkpt lat="44.54449" lon="6.14447">
        <ele>995.2</ele>
        <time>2020-10-13T08:41:32.000Z</time>
      </trkpt>
      <trkpt lat="44.54446" lon="6.14453">
        <ele>992.2</ele>
        <time>2020-10-13T08:41:36.000Z</time>
      </trkpt>
      <trkpt lat="44.54443" lon="6.14457">
        <ele>992.6</ele>
        <time>2020-10-13T08:41:40.233Z</time>
      </trkpt>
      <trkpt lat="44.54439" lon="6.14462">
        <ele>993.8</ele>
        <time>2020-10-13T08:41:44.550Z</time>
      </trkpt>
      <trkpt lat="44.54434" lon="6.14461">
        <ele>992.8</ele>
        <time>2020-10-13T08:41:48.736Z</time>
      </trkpt>
      <trkpt lat="44.54429" lon="6.1446">
        <ele>993.5</ele>
        <time>2020-10-13T08:41:50.000Z</time>
      </trkpt>
      <trkpt lat="44.54425" lon="6.1446">
        <ele>993.7</ele>
        <time>2020-10-13T08:41:53.000Z</time>
      </trkpt>
      <trkpt lat="44.54418" lon="6.14462">
        <ele>993.5</ele>
        <time>2020-10-13T08:41:57.000Z</time>
      </trkpt>
      <trkpt lat="44.54413" lon="6.1446">
        <ele>993.5</ele>
        <time>2020-10-13T08:42:02.149Z</time>
      </trkpt>
      <trkpt lat="44.54409" lon="6.1446">
        <ele>993</ele>
        <time>2020-10-13T08:42:04.000Z</time>
      </trkpt>
      <trkpt lat="44.54403" lon="6.14462">
        <ele>996.5</ele>
        <time>2020-10-13T08:42:08.508Z</time>
      </trkpt>
      <trkpt lat="44.54398" lon="6.14464">
        <ele>997.1</ele>
        <time>2020-10-13T08:42:11.117Z</time>
      </trkpt>
      <trkpt lat="44.54394" lon="6.14472">
        <ele>996.9</ele>
        <time>2020-10-13T08:42:15.000Z</time>
      </trkpt>
      <trkpt lat="44.54392" lon="6.14477">
        <ele>1000.2</ele>
        <time>2020-10-13T08:42:18.000Z</time>
      </trkpt>
      <trkpt lat="44.54389" lon="6.14481">
        <ele>1002.9</ele>
        <time>2020-10-13T08:42:21.676Z</time>
      </trkpt>
      <trkpt lat="44.54384" lon="6.14485">
        <ele>1003</ele>
        <time>2020-10-13T08:42:25.000Z</time>
      </trkpt>
      <trkpt lat="44.54379" lon="6.14486">
        <ele>1002.9</ele>
        <time>2020-10-13T08:42:29.593Z</time>
      </trkpt>
      <trkpt lat="44.54375" lon="6.1449">
        <ele>1005.5</ele>
        <time>2020-10-13T08:42:32.459Z</time>
      </trkpt>
      <trkpt lat="44.54374" lon="6.14497">
        <ele>1010.5</ele>
        <time>2020-10-13T08:42:37.000Z</time>
      </trkpt>
      <trkpt lat="44.5437" lon="6.14495">
        <ele>1024.5</ele>
        <time>2020-10-13T08:42:52.000Z</time>
      </trkpt>
      <trkpt lat="44.54365" lon="6.14498">
        <ele>1025</ele>
        <time>2020-10-13T08:42:55.000Z</time>
      </trkpt>
      <trkpt lat="44.54364" lon="6.14507">
        <ele>1033.4</ele>
        <time>2020-10-13T08:45:03.478Z</time>
      </trkpt>
      <trkpt lat="44.54368" lon="6.14518">
        <ele>1029.7</ele>
        <time>2020-10-13T08:45:06.890Z</time>
      </trkpt>
      <trkpt lat="44.54373" lon="6.14528">
        <ele>1028.4</ele>
        <time>2020-10-13T08:45:09.192Z</time>
      </trkpt>
      <trkpt lat="44.54377" lon="6.14535">
        <ele>1027.6</ele>
        <time>2020-10-13T08:45:10.749Z</time>
      </trkpt>
      <trkpt lat="44.5438" lon="6.14541">
        <ele>1026</ele>
        <time>2020-10-13T08:45:11.000Z</time>
      </trkpt>
      <trkpt lat="44.54387" lon="6.14552">
        <ele>1024.7</ele>
        <time>2020-10-13T08:45:14.817Z</time>
      </trkpt>
      <trkpt lat="44.54389" lon="6.1456">
        <ele>1026</ele>
        <time>2020-10-13T08:45:16.176Z</time>
      </trkpt>
      <trkpt lat="44.5439" lon="6.14573">
        <ele>1027.8</ele>
        <time>2020-10-13T08:45:18.409Z</time>
      </trkpt>
      <trkpt lat="44.54392" lon="6.14581">
        <ele>1027.4</ele>
        <time>2020-10-13T08:45:19.000Z</time>
      </trkpt>
      <trkpt lat="44.54393" lon="6.14588">
        <ele>1028</ele>
        <time>2020-10-13T08:45:21.496Z</time>
      </trkpt>
      <trkpt lat="44.54396" lon="6.146">
        <ele>1027.9</ele>
        <time>2020-10-13T08:45:23.000Z</time>
      </trkpt>
      <trkpt lat="44.54397" lon="6.14607">
        <ele>1027.1</ele>
        <time>2020-10-13T08:45:25.772Z</time>
      </trkpt>
      <trkpt lat="44.54398" lon="6.14619">
        <ele>1026.5</ele>
        <time>2020-10-13T08:45:28.552Z</time>
      </trkpt>
      <trkpt lat="44.54399" lon="6.14628">
        <ele>1027.7</ele>
        <time>2020-10-13T08:45:30.000Z</time>
      </trkpt>
      <trkpt lat="44.54402" lon="6.14634">
        <ele>1028</ele>
        <time>2020-10-13T08:45:32.458Z</time>
      </trkpt>
      <trkpt lat="44.54406" lon="6.14644">
        <ele>1027.7</ele>
        <time>2020-10-13T08:45:35.216Z</time>
      </trkpt>
      <trkpt lat="44.54409" lon="6.14653">
        <ele>1028.2</ele>
        <time>2020-10-13T08:45:37.000Z</time>
      </trkpt>
      <trkpt lat="44.54412" lon="6.14662">
        <ele>1030.1</ele>
        <time>2020-10-13T08:45:41.000Z</time>
      </trkpt>
      <trkpt lat="44.54414" lon="6.14671">
        <ele>1030.5</ele>
        <time>2020-10-13T08:45:45.753Z</time>
      </trkpt>
      <trkpt lat="44.54413" lon="6.14678">
        <ele>1033.2</ele>
        <time>2020-10-13T08:45:48.819Z</time>
      </trkpt>
      <trkpt lat="44.54414" lon="6.14685">
        <ele>1031.9</ele>
        <time>2020-10-13T08:45:51.188Z</time>
      </trkpt>
      <trkpt lat="44.54415" lon="6.14693">
        <ele>1032.7</ele>
        <time>2020-10-13T08:45:54.375Z</time>
      </trkpt>
      <trkpt lat="44.54417" lon="6.14702">
        <ele>1031.7</ele>
        <time>2020-10-13T08:45:57.676Z</time>
      </trkpt>
      <trkpt lat="44.5442" lon="6.14712">
        <ele>1031.6</ele>
        <time>2020-10-13T08:46:00.933Z</time>
      </trkpt>
      <trkpt lat="44.54421" lon="6.14721">
        <ele>1035.3</ele>
        <time>2020-10-13T08:46:04.217Z</time>
      </trkpt>
      <trkpt lat="44.54422" lon="6.1473">
        <ele>1036.6</ele>
        <time>2020-10-13T08:46:07.135Z</time>
      </trkpt>
      <trkpt lat="44.54424" lon="6.14737">
        <ele>1036</ele>
        <time>2020-10-13T08:46:08.992Z</time>
      </trkpt>
      <trkpt lat="44.54425" lon="6.14743">
        <ele>1037.6</ele>
        <time>2020-10-13T08:46:10.717Z</time>
      </trkpt>
      <trkpt lat="44.54427" lon="6.14754">
        <ele>1042</ele>
        <time>2020-10-13T08:46:12.000Z</time>
      </trkpt>
      <trkpt lat="44.54429" lon="6.14764">
        <ele>1042.9</ele>
        <time>2020-10-13T08:46:14.101Z</time>
      </trkpt>
      <trkpt lat="44.54431" lon="6.14772">
        <ele>1041.2</ele>
        <time>2020-10-13T08:46:15.282Z</time>
      </trkpt>
      <trkpt lat="44.54434" lon="6.14781">
        <ele>1041.7</ele>
        <time>2020-10-13T08:46:16.677Z</time>
      </trkpt>
      <trkpt lat="44.54435" lon="6.14788">
        <ele>1042</ele>
        <time>2020-10-13T08:46:17.798Z</time>
      </trkpt>
      <trkpt lat="44.54435" lon="6.14797">
        <ele>1043.8</ele>
        <time>2020-10-13T08:46:19.297Z</time>
      </trkpt>
      <trkpt lat="44.54435" lon="6.14804">
        <ele>1044.8</ele>
        <time>2020-10-13T08:46:20.851Z</time>
      </trkpt>
      <trkpt lat="44.54435" lon="6.1481">
        <ele>1045.6</ele>
        <time>2020-10-13T08:46:21.000Z</time>
      </trkpt>
      <trkpt lat="44.54435" lon="6.14817">
        <ele>1044.6</ele>
        <time>2020-10-13T08:46:23.512Z</time>
      </trkpt>
      <trkpt lat="44.54434" lon="6.14826">
        <ele>1045.1</ele>
        <time>2020-10-13T08:46:26.312Z</time>
      </trkpt>
      <trkpt lat="44.54433" lon="6.14833">
        <ele>1044.2</ele>
        <time>2020-10-13T08:46:28.000Z</time>
      </trkpt>
      <trkpt lat="44.54432" lon="6.1484">
        <ele>1044.6</ele>
        <time>2020-10-13T08:46:32.000Z</time>
      </trkpt>
      <trkpt lat="44.54432" lon="6.14847">
        <ele>1043.6</ele>
        <time>2020-10-13T08:46:35.357Z</time>
      </trkpt>
      <trkpt lat="44.54431" lon="6.14854">
        <ele>1044.2</ele>
        <time>2020-10-13T08:46:37.957Z</time>
      </trkpt>
      <trkpt lat="44.54432" lon="6.14861">
        <ele>1043.6</ele>
        <time>2020-10-13T08:46:40.000Z</time>
      </trkpt>
      <trkpt lat="44.5443" lon="6.14868">
        <ele>1042.8</ele>
        <time>2020-10-13T08:46:44.733Z</time>
      </trkpt>
      <trkpt lat="44.5443" lon="6.14876">
        <ele>1048.3</ele>
        <time>2020-10-13T08:46:46.000Z</time>
      </trkpt>
      <trkpt lat="44.54429" lon="6.14885">
        <ele>1050.3</ele>
        <time>2020-10-13T08:46:49.316Z</time>
      </trkpt>
      <trkpt lat="44.54429" lon="6.14896">
        <ele>1049</ele>
        <time>2020-10-13T08:46:51.488Z</time>
      </trkpt>
      <trkpt lat="44.54427" lon="6.14906">
        <ele>1052</ele>
        <time>2020-10-13T08:46:53.931Z</time>
      </trkpt>
      <trkpt lat="44.54426" lon="6.14926">
        <ele>1049.8</ele>
        <time>2020-10-13T08:46:56.510Z</time>
      </trkpt>
      <trkpt lat="44.54426" lon="6.14934">
        <ele>1049.4</ele>
        <time>2020-10-13T08:46:57.770Z</time>
      </trkpt>
      <trkpt lat="44.54426" lon="6.14941">
        <ele>1050.8</ele>
        <time>2020-10-13T08:46:58.000Z</time>
      </trkpt>
      <trkpt lat="44.54426" lon="6.1495">
        <ele>1051.1</ele>
        <time>2020-10-13T08:47:00.290Z</time>
      </trkpt>
      <trkpt lat="44.54426" lon="6.14958">
        <ele>1051.5</ele>
        <time>2020-10-13T08:47:01.589Z</time>
      </trkpt>
      <trkpt lat="44.54426" lon="6.14965">
        <ele>1052</ele>
        <time>2020-10-13T08:47:02.848Z</time>
      </trkpt>
      <trkpt lat="44.54427" lon="6.14979">
        <ele>1050.7</ele>
        <time>2020-10-13T08:47:05.497Z</time>
      </trkpt>
      <trkpt lat="44.54427" lon="6.14987">
        <ele>1051.6</ele>
        <time>2020-10-13T08:47:07.000Z</time>
      </trkpt>
      <trkpt lat="44.54427" lon="6.14995">
        <ele>1052</ele>
        <time>2020-10-13T08:47:10.872Z</time>
      </trkpt>
      <trkpt lat="44.54423" lon="6.14999">
        <ele>1054.6</ele>
        <time>2020-10-13T08:47:16.000Z</time>
      </trkpt>
      <trkpt lat="44.54419" lon="6.15004">
        <ele>1056.5</ele>
        <time>2020-10-13T08:47:24.000Z</time>
      </trkpt>
      <trkpt lat="44.54416" lon="6.1501">
        <ele>1058</ele>
        <time>2020-10-13T08:47:28.812Z</time>
      </trkpt>
      <trkpt lat="44.54412" lon="6.15014">
        <ele>1060.5</ele>
        <time>2020-10-13T08:47:33.000Z</time>
      </trkpt>
      <trkpt lat="44.54408" lon="6.15018">
        <ele>1061.6</ele>
        <time>2020-10-13T08:47:40.489Z</time>
      </trkpt>
      <trkpt lat="44.54402" lon="6.15019">
        <ele>1061</ele>
        <time>2020-10-13T08:47:45.154Z</time>
      </trkpt>
      <trkpt lat="44.54397" lon="6.15018">
        <ele>1058.8</ele>
        <time>2020-10-13T08:47:48.000Z</time>
      </trkpt>
      <trkpt lat="44.54391" lon="6.15018">
        <ele>1059.7</ele>
        <time>2020-10-13T08:47:55.175Z</time>
      </trkpt>
      <trkpt lat="44.54386" lon="6.15016">
        <ele>1057</ele>
        <time>2020-10-13T08:47:58.000Z</time>
      </trkpt>
      <trkpt lat="44.54381" lon="6.15015">
        <ele>1063.1</ele>
        <time>2020-10-13T08:48:03.734Z</time>
      </trkpt>
      <trkpt lat="44.54376" lon="6.15012">
        <ele>1064.8</ele>
        <time>2020-10-13T08:48:07.000Z</time>
      </trkpt>
      <trkpt lat="44.54371" lon="6.1501">
        <ele>1066.6</ele>
        <time>2020-10-13T08:48:10.154Z</time>
      </trkpt>
      <trkpt lat="44.54364" lon="6.15006">
        <ele>1064.2</ele>
        <time>2020-10-13T08:48:13.458Z</time>
      </trkpt>
      <trkpt lat="44.54357" lon="6.15003">
        <ele>1065.8</ele>
        <time>2020-10-13T08:48:15.000Z</time>
      </trkpt>
      <trkpt lat="44.54352" lon="6.15001">
        <ele>1065.9</ele>
        <time>2020-10-13T08:48:17.514Z</time>
      </trkpt>
      <trkpt lat="44.54348" lon="6.14995">
        <ele>1067</ele>
        <time>2020-10-13T08:48:18.537Z</time>
      </trkpt>
      <trkpt lat="44.54341" lon="6.14987">
        <ele>1066.7</ele>
        <time>2020-10-13T08:48:19.996Z</time>
      </trkpt>
      <trkpt lat="44.54322" lon="6.14965">
        <ele>1066.6</ele>
        <time>2020-10-13T08:48:21.452Z</time>
      </trkpt>
      <trkpt lat="44.54316" lon="6.14957">
        <ele>1068.7</ele>
        <time>2020-10-13T08:48:24.000Z</time>
      </trkpt>
      <trkpt lat="44.54312" lon="6.14944">
        <ele>1069</ele>
        <time>2020-10-13T08:48:27.296Z</time>
      </trkpt>
      <trkpt lat="44.5431" lon="6.14939">
        <ele>1071</ele>
        <time>2020-10-13T08:48:28.833Z</time>
      </trkpt>
      <trkpt lat="44.54309" lon="6.14932">
        <ele>1073.3</ele>
        <time>2020-10-13T08:48:29.000Z</time>
      </trkpt>
      <trkpt lat="44.54308" lon="6.14926">
        <ele>1071.6</ele>
        <time>2020-10-13T08:48:31.256Z</time>
      </trkpt>
      <trkpt lat="44.54305" lon="6.1492">
        <ele>1071.5</ele>
        <time>2020-10-13T08:48:33.000Z</time>
      </trkpt>
      <trkpt lat="44.543" lon="6.14922">
        <ele>1072.4</ele>
        <time>2020-10-13T08:48:41.178Z</time>
      </trkpt>
      <trkpt lat="44.54297" lon="6.14928">
        <ele>1073.6</ele>
        <time>2020-10-13T08:48:44.000Z</time>
      </trkpt>
      <trkpt lat="44.54301" lon="6.14939">
        <ele>1073.4</ele>
        <time>2020-10-13T08:48:48.597Z</time>
      </trkpt>
      <trkpt lat="44.54304" lon="6.14944">
        <ele>1073.4</ele>
        <time>2020-10-13T08:48:49.917Z</time>
      </trkpt>
      <trkpt lat="44.54308" lon="6.14951">
        <ele>1073.5</ele>
        <time>2020-10-13T08:48:51.000Z</time>
      </trkpt>
      <trkpt lat="44.54312" lon="6.14959">
        <ele>1073.6</ele>
        <time>2020-10-13T08:48:54.856Z</time>
      </trkpt>
      <trkpt lat="44.54316" lon="6.14968">
        <ele>1073.7</ele>
        <time>2020-10-13T08:48:57.636Z</time>
      </trkpt>
      <trkpt lat="44.54317" lon="6.14975">
        <ele>1073.7</ele>
        <time>2020-10-13T08:49:00.042Z</time>
      </trkpt>
      <trkpt lat="44.54319" lon="6.14985">
        <ele>1073.8</ele>
        <time>2020-10-13T08:49:03.311Z</time>
      </trkpt>
      <trkpt lat="44.5432" lon="6.14992">
        <ele>1073.8</ele>
        <time>2020-10-13T08:49:07.614Z</time>
      </trkpt>
      <trkpt lat="44.54321" lon="6.15">
        <ele>1070.5</ele>
        <time>2020-10-13T08:49:11.000Z</time>
      </trkpt>
      <trkpt lat="44.54321" lon="6.15007">
        <ele>1070.5</ele>
        <time>2020-10-13T08:49:14.857Z</time>
      </trkpt>
      <trkpt lat="44.54321" lon="6.15015">
        <ele>1069</ele>
        <time>2020-10-13T08:49:17.000Z</time>
      </trkpt>
      <trkpt lat="44.5432" lon="6.15022">
        <ele>1067.1</ele>
        <time>2020-10-13T08:49:20.000Z</time>
      </trkpt>
      <trkpt lat="44.54319" lon="6.15029">
        <ele>1066.6</ele>
        <time>2020-10-13T08:49:23.914Z</time>
      </trkpt>
      <trkpt lat="44.54319" lon="6.15036">
        <ele>1065.2</ele>
        <time>2020-10-13T08:49:26.336Z</time>
      </trkpt>
      <trkpt lat="44.54317" lon="6.15044">
        <ele>1065.4</ele>
        <time>2020-10-13T08:49:29.000Z</time>
      </trkpt>
      <trkpt lat="44.54315" lon="6.15052">
        <ele>1064.8</ele>
        <time>2020-10-13T08:49:33.508Z</time>
      </trkpt>
      <trkpt lat="44.54313" lon="6.15062">
        <ele>1064.8</ele>
        <time>2020-10-13T08:49:36.693Z</time>
      </trkpt>
      <trkpt lat="44.54312" lon="6.15069">
        <ele>1065</ele>
        <time>2020-10-13T08:49:38.967Z</time>
      </trkpt>
      <trkpt lat="44.5431" lon="6.15076">
        <ele>1066.8</ele>
        <time>2020-10-13T08:49:41.615Z</time>
      </trkpt>
      <trkpt lat="44.54309" lon="6.15083">
        <ele>1069.4</ele>
        <time>2020-10-13T08:49:43.000Z</time>
      </trkpt>
      <trkpt lat="44.54308" lon="6.1509">
        <ele>1070.3</ele>
        <time>2020-10-13T08:49:45.000Z</time>
      </trkpt>
      <trkpt lat="44.54307" lon="6.15097">
        <ele>1070</ele>
        <time>2020-10-13T08:49:48.253Z</time>
      </trkpt>
      <trkpt lat="44.54307" lon="6.15104">
        <ele>1071</ele>
        <time>2020-10-13T08:49:50.534Z</time>
      </trkpt>
      <trkpt lat="44.54308" lon="6.15113">
        <ele>1069.6</ele>
        <time>2020-10-13T08:49:53.000Z</time>
      </trkpt>
      <trkpt lat="44.5431" lon="6.15122">
        <ele>1070.9</ele>
        <time>2020-10-13T08:49:56.714Z</time>
      </trkpt>
      <trkpt lat="44.54313" lon="6.1513">
        <ele>1073.4</ele>
        <time>2020-10-13T08:49:59.670Z</time>
      </trkpt>
      <trkpt lat="44.54317" lon="6.15137">
        <ele>1077.2</ele>
        <time>2020-10-13T08:50:02.796Z</time>
      </trkpt>
      <trkpt lat="44.5432" lon="6.15145">
        <ele>1079.2</ele>
        <time>2020-10-13T08:50:05.238Z</time>
      </trkpt>
      <trkpt lat="44.54321" lon="6.15154">
        <ele>1079.2</ele>
        <time>2020-10-13T08:50:07.797Z</time>
      </trkpt>
      <trkpt lat="44.54322" lon="6.15167">
        <ele>1079.6</ele>
        <time>2020-10-13T08:50:10.812Z</time>
      </trkpt>
      <trkpt lat="44.54322" lon="6.15176">
        <ele>1079.8</ele>
        <time>2020-10-13T08:50:11.000Z</time>
      </trkpt>
      <trkpt lat="44.54321" lon="6.15189">
        <ele>1079.2</ele>
        <time>2020-10-13T08:50:13.000Z</time>
      </trkpt>
      <trkpt lat="44.54321" lon="6.15196">
        <ele>1080.2</ele>
        <time>2020-10-13T08:50:15.496Z</time>
      </trkpt>
      <trkpt lat="44.54321" lon="6.15207">
        <ele>1081.6</ele>
        <time>2020-10-13T08:50:18.000Z</time>
      </trkpt>
      <trkpt lat="44.54321" lon="6.15216">
        <ele>1084</ele>
        <time>2020-10-13T08:50:22.000Z</time>
      </trkpt>
      <trkpt lat="44.54321" lon="6.15223">
        <ele>1082.8</ele>
        <time>2020-10-13T08:50:25.000Z</time>
      </trkpt>
      <trkpt lat="44.54323" lon="6.1523">
        <ele>1080.5</ele>
        <time>2020-10-13T08:50:30.000Z</time>
      </trkpt>
      <trkpt lat="44.54325" lon="6.15237">
        <ele>1080.3</ele>
        <time>2020-10-13T08:50:34.632Z</time>
      </trkpt>
      <trkpt lat="44.54326" lon="6.15245">
        <ele>1078</ele>
        <time>2020-10-13T08:50:38.000Z</time>
      </trkpt>
      <trkpt lat="44.54328" lon="6.15252">
        <ele>1077.6</ele>
        <time>2020-10-13T08:50:42.000Z</time>
      </trkpt>
      <trkpt lat="44.5433" lon="6.15259">
        <ele>1079.2</ele>
        <time>2020-10-13T08:50:47.915Z</time>
      </trkpt>
      <trkpt lat="44.54333" lon="6.15266">
        <ele>1079.6</ele>
        <time>2020-10-13T08:50:51.328Z</time>
      </trkpt>
      <trkpt lat="44.54335" lon="6.15273">
        <ele>1079.1</ele>
        <time>2020-10-13T08:50:54.000Z</time>
      </trkpt>
      <trkpt lat="44.54337" lon="6.15279">
        <ele>1079.6</ele>
        <time>2020-10-13T08:50:57.609Z</time>
      </trkpt>
      <trkpt lat="44.5434" lon="6.15289">
        <ele>1081.6</ele>
        <time>2020-10-13T08:51:00.555Z</time>
      </trkpt>
      <trkpt lat="44.54342" lon="6.15306">
        <ele>1083.4</ele>
        <time>2020-10-13T08:51:04.000Z</time>
      </trkpt>
      <trkpt lat="44.54343" lon="6.15316">
        <ele>1083.7</ele>
        <time>2020-10-13T08:51:07.609Z</time>
      </trkpt>
      <trkpt lat="44.54345" lon="6.15323">
        <ele>1084.1</ele>
        <time>2020-10-13T08:51:09.935Z</time>
      </trkpt>
      <trkpt lat="44.54347" lon="6.15332">
        <ele>1085.5</ele>
        <time>2020-10-13T08:51:12.411Z</time>
      </trkpt>
      <trkpt lat="44.54349" lon="6.1534">
        <ele>1086.3</ele>
        <time>2020-10-13T08:51:14.674Z</time>
      </trkpt>
      <trkpt lat="44.54352" lon="6.15348">
        <ele>1090.3</ele>
        <time>2020-10-13T08:51:17.432Z</time>
      </trkpt>
      <trkpt lat="44.54356" lon="6.15356">
        <ele>1090.4</ele>
        <time>2020-10-13T08:51:19.000Z</time>
      </trkpt>
      <trkpt lat="44.54361" lon="6.15364">
        <ele>1089.3</ele>
        <time>2020-10-13T08:51:22.000Z</time>
      </trkpt>
      <trkpt lat="44.54366" lon="6.15372">
        <ele>1089.8</ele>
        <time>2020-10-13T08:51:24.000Z</time>
      </trkpt>
      <trkpt lat="44.54368" lon="6.15378">
        <ele>1089</ele>
        <time>2020-10-13T08:51:26.491Z</time>
      </trkpt>
      <trkpt lat="44.54374" lon="6.15387">
        <ele>1088</ele>
        <time>2020-10-13T08:51:29.890Z</time>
      </trkpt>
      <trkpt lat="44.54378" lon="6.15395">
        <ele>1088.8</ele>
        <time>2020-10-13T08:51:32.000Z</time>
      </trkpt>
      <trkpt lat="44.54381" lon="6.15403">
        <ele>1088.6</ele>
        <time>2020-10-13T08:51:35.475Z</time>
      </trkpt>
      <trkpt lat="44.54383" lon="6.1541">
        <ele>1089.1</ele>
        <time>2020-10-13T08:51:37.790Z</time>
      </trkpt>
      <trkpt lat="44.54385" lon="6.15416">
        <ele>1088.7</ele>
        <time>2020-10-13T08:51:40.012Z</time>
      </trkpt>
      <trkpt lat="44.54388" lon="6.15424">
        <ele>1088.7</ele>
        <time>2020-10-13T08:51:43.155Z</time>
      </trkpt>
      <trkpt lat="44.54392" lon="6.1543">
        <ele>1088.7</ele>
        <time>2020-10-13T08:51:47.014Z</time>
      </trkpt>
      <trkpt lat="44.54396" lon="6.15439">
        <ele>1088.7</ele>
        <time>2020-10-13T08:51:52.770Z</time>
      </trkpt>
      <trkpt lat="44.54398" lon="6.15445">
        <ele>1087.2</ele>
        <time>2020-10-13T08:51:57.000Z</time>
      </trkpt>
      <trkpt lat="44.544" lon="6.15453">
        <ele>1090.5</ele>
        <time>2020-10-13T08:52:01.945Z</time>
      </trkpt>
      <trkpt lat="44.54401" lon="6.1546">
        <ele>1090.1</ele>
        <time>2020-10-13T08:52:03.689Z</time>
      </trkpt>
      <trkpt lat="44.54403" lon="6.15469">
        <ele>1091</ele>
        <time>2020-10-13T08:52:05.549Z</time>
      </trkpt>
      <trkpt lat="44.54421" lon="6.15517">
        <ele>1090.5</ele>
        <time>2020-10-13T08:52:09.000Z</time>
      </trkpt>
      <trkpt lat="44.54425" lon="6.15528">
        <ele>1090.1</ele>
        <time>2020-10-13T08:52:11.397Z</time>
      </trkpt>
      <trkpt lat="44.5443" lon="6.1554">
        <ele>1090</ele>
        <time>2020-10-13T08:52:12.000Z</time>
      </trkpt>
      <trkpt lat="44.54436" lon="6.15556">
        <ele>1089.9</ele>
        <time>2020-10-13T08:52:15.000Z</time>
      </trkpt>
      <trkpt lat="44.54437" lon="6.15565">
        <ele>1089.8</ele>
        <time>2020-10-13T08:52:17.698Z</time>
      </trkpt>
      <trkpt lat="44.54441" lon="6.15571">
        <ele>1089.8</ele>
        <time>2020-10-13T08:52:20.551Z</time>
      </trkpt>
      <trkpt lat="44.54442" lon="6.15578">
        <ele>1089.9</ele>
        <time>2020-10-13T08:52:24.000Z</time>
      </trkpt>
      <trkpt lat="44.54448" lon="6.15584">
        <ele>1090.7</ele>
        <time>2020-10-13T08:52:29.000Z</time>
      </trkpt>
      <trkpt lat="44.54452" lon="6.15587">
        <ele>1090.1</ele>
        <time>2020-10-13T08:52:34.000Z</time>
      </trkpt>
      <trkpt lat="44.54457" lon="6.15593">
        <ele>1092.6</ele>
        <time>2020-10-13T08:52:39.000Z</time>
      </trkpt>
      <trkpt lat="44.5446" lon="6.15598">
        <ele>1091.3</ele>
        <time>2020-10-13T08:52:41.556Z</time>
      </trkpt>
      <trkpt lat="44.54464" lon="6.15605">
        <ele>1090.8</ele>
        <time>2020-10-13T08:52:43.143Z</time>
      </trkpt>
      <trkpt lat="44.54468" lon="6.15612">
        <ele>1092.2</ele>
        <time>2020-10-13T08:52:44.000Z</time>
      </trkpt>
      <trkpt lat="44.54472" lon="6.15621">
        <ele>1094.6</ele>
        <time>2020-10-13T08:52:47.000Z</time>
      </trkpt>
      <trkpt lat="44.54475" lon="6.15631">
        <ele>1094.4</ele>
        <time>2020-10-13T08:52:50.000Z</time>
      </trkpt>
      <trkpt lat="44.54477" lon="6.15637">
        <ele>1091.7</ele>
        <time>2020-10-13T08:52:52.671Z</time>
      </trkpt>
      <trkpt lat="44.54479" lon="6.15645">
        <ele>1090.7</ele>
        <time>2020-10-13T08:52:55.743Z</time>
      </trkpt>
      <trkpt lat="44.5448" lon="6.15655">
        <ele>1089.5</ele>
        <time>2020-10-13T08:52:58.000Z</time>
      </trkpt>
      <trkpt lat="44.54481" lon="6.15661">
        <ele>1088.4</ele>
        <time>2020-10-13T08:53:00.965Z</time>
      </trkpt>
      <trkpt lat="44.54482" lon="6.1567">
        <ele>1083.6</ele>
        <time>2020-10-13T08:53:03.000Z</time>
      </trkpt>
      <trkpt lat="44.54483" lon="6.15678">
        <ele>1083</ele>
        <time>2020-10-13T08:53:05.000Z</time>
      </trkpt>
      <trkpt lat="44.54484" lon="6.15685">
        <ele>1077.3</ele>
        <time>2020-10-13T08:53:07.651Z</time>
      </trkpt>
      <trkpt lat="44.54485" lon="6.15694">
        <ele>1081.1</ele>
        <time>2020-10-13T08:53:09.754Z</time>
      </trkpt>
      <trkpt lat="44.54487" lon="6.15705">
        <ele>1085.6</ele>
        <time>2020-10-13T08:53:11.000Z</time>
      </trkpt>
      <trkpt lat="44.54489" lon="6.15713">
        <ele>1087.2</ele>
        <time>2020-10-13T08:53:13.755Z</time>
      </trkpt>
      <trkpt lat="44.54492" lon="6.15745">
        <ele>1087.2</ele>
        <time>2020-10-13T08:53:16.000Z</time>
      </trkpt>
      <trkpt lat="44.54494" lon="6.15765">
        <ele>1091.8</ele>
        <time>2020-10-13T08:53:19.000Z</time>
      </trkpt>
      <trkpt lat="44.54495" lon="6.15781">
        <ele>1093.1</ele>
        <time>2020-10-13T08:53:21.000Z</time>
      </trkpt>
      <trkpt lat="44.54498" lon="6.15792">
        <ele>1095.1</ele>
        <time>2020-10-13T08:53:24.416Z</time>
      </trkpt>
      <trkpt lat="44.545" lon="6.15801">
        <ele>1094.1</ele>
        <time>2020-10-13T08:53:25.584Z</time>
      </trkpt>
      <trkpt lat="44.54501" lon="6.15815">
        <ele>1092.6</ele>
        <time>2020-10-13T08:53:26.000Z</time>
      </trkpt>
      <trkpt lat="44.54503" lon="6.1583">
        <ele>1093.7</ele>
        <time>2020-10-13T08:53:28.797Z</time>
      </trkpt>
      <trkpt lat="44.54506" lon="6.15841">
        <ele>1096.5</ele>
        <time>2020-10-13T08:53:30.000Z</time>
      </trkpt>
      <trkpt lat="44.5451" lon="6.15854">
        <ele>1097.4</ele>
        <time>2020-10-13T08:53:33.865Z</time>
      </trkpt>
      <trkpt lat="44.54513" lon="6.15861">
        <ele>1097.4</ele>
        <time>2020-10-13T08:53:35.512Z</time>
      </trkpt>
      <trkpt lat="44.54515" lon="6.15867">
        <ele>1099.5</ele>
        <time>2020-10-13T08:53:36.000Z</time>
      </trkpt>
      <trkpt lat="44.54519" lon="6.15875">
        <ele>1101.1</ele>
        <time>2020-10-13T08:53:38.821Z</time>
      </trkpt>
      <trkpt lat="44.54522" lon="6.15881">
        <ele>1101.4</ele>
        <time>2020-10-13T08:53:40.604Z</time>
      </trkpt>
      <trkpt lat="44.54524" lon="6.1589">
        <ele>1103.8</ele>
        <time>2020-10-13T08:53:43.000Z</time>
      </trkpt>
      <trkpt lat="44.54528" lon="6.15897">
        <ele>1103.3</ele>
        <time>2020-10-13T08:53:48.608Z</time>
      </trkpt>
      <trkpt lat="44.54532" lon="6.15902">
        <ele>1103.4</ele>
        <time>2020-10-13T08:53:51.561Z</time>
      </trkpt>
      <trkpt lat="44.54537" lon="6.15906">
        <ele>1103.2</ele>
        <time>2020-10-13T08:53:54.197Z</time>
      </trkpt>
      <trkpt lat="44.54541" lon="6.15911">
        <ele>1101.8</ele>
        <time>2020-10-13T08:53:59.000Z</time>
      </trkpt>
      <trkpt lat="44.54545" lon="6.15917">
        <ele>1106.3</ele>
        <time>2020-10-13T08:54:04.000Z</time>
      </trkpt>
      <trkpt lat="44.54549" lon="6.15926">
        <ele>1107.9</ele>
        <time>2020-10-13T08:54:07.000Z</time>
      </trkpt>
      <trkpt lat="44.5455" lon="6.15934">
        <ele>1110</ele>
        <time>2020-10-13T08:54:09.000Z</time>
      </trkpt>
      <trkpt lat="44.54552" lon="6.15948">
        <ele>1112.4</ele>
        <time>2020-10-13T08:54:12.000Z</time>
      </trkpt>
      <trkpt lat="44.54556" lon="6.15988">
        <ele>1111.4</ele>
        <time>2020-10-13T08:54:15.026Z</time>
      </trkpt>
      <trkpt lat="44.54554" lon="6.15999">
        <ele>1110.9</ele>
        <time>2020-10-13T08:54:16.194Z</time>
      </trkpt>
      <trkpt lat="44.54551" lon="6.1601">
        <ele>1110.5</ele>
        <time>2020-10-13T08:54:17.460Z</time>
      </trkpt>
      <trkpt lat="44.54561" lon="6.16072">
        <ele>1105.3</ele>
        <time>2020-10-13T08:54:20.000Z</time>
      </trkpt>
      <trkpt lat="44.54563" lon="6.16085">
        <ele>1106.7</ele>
        <time>2020-10-13T08:54:21.000Z</time>
      </trkpt>
      <trkpt lat="44.54566" lon="6.16108">
        <ele>1108.7</ele>
        <time>2020-10-13T08:54:23.000Z</time>
      </trkpt>
      <trkpt lat="44.54568" lon="6.16129">
        <ele>1110.3</ele>
        <time>2020-10-13T08:54:25.000Z</time>
      </trkpt>
      <trkpt lat="44.5457" lon="6.1615">
        <ele>1111.8</ele>
        <time>2020-10-13T08:54:27.000Z</time>
      </trkpt>
      <trkpt lat="44.54573" lon="6.16156">
        <ele>1110.8</ele>
        <time>2020-10-13T08:54:31.000Z</time>
      </trkpt>
      <trkpt lat="44.54569" lon="6.16149">
        <ele>1109</ele>
        <time>2020-10-13T08:54:43.000Z</time>
      </trkpt>
      <trkpt lat="44.54567" lon="6.16142">
        <ele>1109.1</ele>
        <time>2020-10-13T08:54:46.000Z</time>
      </trkpt>
      <trkpt lat="44.54562" lon="6.16141">
        <ele>1116.6</ele>
        <time>2020-10-13T08:54:59.000Z</time>
      </trkpt>
      <trkpt lat="44.54557" lon="6.16136">
        <ele>1116.4</ele>
        <time>2020-10-13T08:55:04.135Z</time>
      </trkpt>
      <trkpt lat="44.54555" lon="6.16126">
        <ele>1120.2</ele>
        <time>2020-10-13T08:56:57.626Z</time>
      </trkpt>
      <trkpt lat="44.5455" lon="6.16118">
        <ele>1120.4</ele>
        <time>2020-10-13T08:57:00.127Z</time>
      </trkpt>
      <trkpt lat="44.54547" lon="6.16111">
        <ele>1120</ele>
        <time>2020-10-13T08:57:01.488Z</time>
      </trkpt>
      <trkpt lat="44.54544" lon="6.16106">
        <ele>1120.5</ele>
        <time>2020-10-13T08:57:02.000Z</time>
      </trkpt>
      <trkpt lat="44.54541" lon="6.16098">
        <ele>1120.4</ele>
        <time>2020-10-13T08:57:04.811Z</time>
      </trkpt>
      <trkpt lat="44.54538" lon="6.16087">
        <ele>1122.3</ele>
        <time>2020-10-13T08:57:07.074Z</time>
      </trkpt>
      <trkpt lat="44.54535" lon="6.16081">
        <ele>1122</ele>
        <time>2020-10-13T08:57:08.768Z</time>
      </trkpt>
      <trkpt lat="44.54531" lon="6.16072">
        <ele>1124.8</ele>
        <time>2020-10-13T08:57:11.271Z</time>
      </trkpt>
      <trkpt lat="44.54526" lon="6.16064">
        <ele>1124.6</ele>
        <time>2020-10-13T08:57:13.000Z</time>
      </trkpt>
      <trkpt lat="44.54522" lon="6.16056">
        <ele>1126</ele>
        <time>2020-10-13T08:57:16.862Z</time>
      </trkpt>
      <trkpt lat="44.54517" lon="6.16051">
        <ele>1127.9</ele>
        <time>2020-10-13T08:57:18.000Z</time>
      </trkpt>
      <trkpt lat="44.54512" lon="6.16048">
        <ele>1128.9</ele>
        <time>2020-10-13T08:57:20.000Z</time>
      </trkpt>
      <trkpt lat="44.54505" lon="6.16046">
        <ele>1128.6</ele>
        <time>2020-10-13T08:57:23.413Z</time>
      </trkpt>
      <trkpt lat="44.545" lon="6.16041">
        <ele>1128.2</ele>
        <time>2020-10-13T08:57:26.190Z</time>
      </trkpt>
      <trkpt lat="44.54496" lon="6.16036">
        <ele>1128.9</ele>
        <time>2020-10-13T08:57:28.000Z</time>
      </trkpt>
      <trkpt lat="44.54493" lon="6.16031">
        <ele>1128.2</ele>
        <time>2020-10-13T08:57:32.370Z</time>
      </trkpt>
      <trkpt lat="44.54491" lon="6.16025">
        <ele>1125</ele>
        <time>2020-10-13T08:57:34.000Z</time>
      </trkpt>
      <trkpt lat="44.54488" lon="6.16019">
        <ele>1122.6</ele>
        <time>2020-10-13T08:57:38.000Z</time>
      </trkpt>
      <trkpt lat="44.54483" lon="6.16016">
        <ele>1125.6</ele>
        <time>2020-10-13T08:57:42.000Z</time>
      </trkpt>
      <trkpt lat="44.54477" lon="6.16013">
        <ele>1129.6</ele>
        <time>2020-10-13T08:57:46.000Z</time>
      </trkpt>
      <trkpt lat="44.54472" lon="6.1601">
        <ele>1130</ele>
        <time>2020-10-13T08:57:49.603Z</time>
      </trkpt>
      <trkpt lat="44.54464" lon="6.16008">
        <ele>1130.9</ele>
        <time>2020-10-13T08:57:52.629Z</time>
      </trkpt>
      <trkpt lat="44.54457" lon="6.16007">
        <ele>1133.6</ele>
        <time>2020-10-13T08:57:55.544Z</time>
      </trkpt>
      <trkpt lat="44.54452" lon="6.16007">
        <ele>1132.4</ele>
        <time>2020-10-13T08:57:58.629Z</time>
      </trkpt>
      <trkpt lat="44.54447" lon="6.16005">
        <ele>1134.7</ele>
        <time>2020-10-13T08:58:00.000Z</time>
      </trkpt>
      <trkpt lat="44.54443" lon="6.16003">
        <ele>1134.9</ele>
        <time>2020-10-13T08:58:03.286Z</time>
      </trkpt>
      <trkpt lat="44.54437" lon="6.16002">
        <ele>1135.7</ele>
        <time>2020-10-13T08:58:05.000Z</time>
      </trkpt>
      <trkpt lat="44.54432" lon="6.15999">
        <ele>1137.8</ele>
        <time>2020-10-13T08:58:09.644Z</time>
      </trkpt>
      <trkpt lat="44.54425" lon="6.15997">
        <ele>1136</ele>
        <time>2020-10-13T08:58:13.000Z</time>
      </trkpt>
      <trkpt lat="44.54418" lon="6.15993">
        <ele>1137.4</ele>
        <time>2020-10-13T08:58:18.536Z</time>
      </trkpt>
      <trkpt lat="44.54413" lon="6.15993">
        <ele>1136.4</ele>
        <time>2020-10-13T08:58:21.449Z</time>
      </trkpt>
      <trkpt lat="44.54405" lon="6.1599">
        <ele>1136.7</ele>
        <time>2020-10-13T08:58:23.000Z</time>
      </trkpt>
      <trkpt lat="44.544" lon="6.15983">
        <ele>1137.1</ele>
        <time>2020-10-13T08:58:26.508Z</time>
      </trkpt>
      <trkpt lat="44.54396" lon="6.15976">
        <ele>1136.6</ele>
        <time>2020-10-13T08:58:28.000Z</time>
      </trkpt>
      <trkpt lat="44.54394" lon="6.1597">
        <ele>1138.1</ele>
        <time>2020-10-13T08:58:30.547Z</time>
      </trkpt>
      <trkpt lat="44.5439" lon="6.15962">
        <ele>1138.5</ele>
        <time>2020-10-13T08:58:32.000Z</time>
      </trkpt>
      <trkpt lat="44.54386" lon="6.15956">
        <ele>1138.2</ele>
        <time>2020-10-13T08:58:34.446Z</time>
      </trkpt>
      <trkpt lat="44.54381" lon="6.15947">
        <ele>1140</ele>
        <time>2020-10-13T08:58:36.000Z</time>
      </trkpt>
      <trkpt lat="44.54378" lon="6.15942">
        <ele>1140.2</ele>
        <time>2020-10-13T08:58:38.243Z</time>
      </trkpt>
      <trkpt lat="44.54372" lon="6.15934">
        <ele>1142.2</ele>
        <time>2020-10-13T08:58:40.786Z</time>
      </trkpt>
      <trkpt lat="44.54367" lon="6.15929">
        <ele>1142.3</ele>
        <time>2020-10-13T08:58:43.543Z</time>
      </trkpt>
      <trkpt lat="44.54361" lon="6.15925">
        <ele>1141.3</ele>
        <time>2020-10-13T08:58:45.000Z</time>
      </trkpt>
      <trkpt lat="44.54356" lon="6.15919">
        <ele>1141.3</ele>
        <time>2020-10-13T08:58:47.711Z</time>
      </trkpt>
      <trkpt lat="44.5435" lon="6.1591">
        <ele>1139.4</ele>
        <time>2020-10-13T08:58:50.726Z</time>
      </trkpt>
      <trkpt lat="44.54347" lon="6.15902">
        <ele>1139.7</ele>
        <time>2020-10-13T08:58:52.000Z</time>
      </trkpt>
      <trkpt lat="44.54344" lon="6.15897">
        <ele>1139.7</ele>
        <time>2020-10-13T08:58:54.843Z</time>
      </trkpt>
      <trkpt lat="44.5434" lon="6.1589">
        <ele>1139.5</ele>
        <time>2020-10-13T08:58:57.730Z</time>
      </trkpt>
      <trkpt lat="44.54337" lon="6.15883">
        <ele>1139.9</ele>
        <time>2020-10-13T08:59:00.627Z</time>
      </trkpt>
      <trkpt lat="44.54333" lon="6.15877">
        <ele>1140</ele>
        <time>2020-10-13T08:59:03.715Z</time>
      </trkpt>
      <trkpt lat="44.5433" lon="6.1587">
        <ele>1142</ele>
        <time>2020-10-13T08:59:06.788Z</time>
      </trkpt>
      <trkpt lat="44.54327" lon="6.15865">
        <ele>1141.2</ele>
        <time>2020-10-13T08:59:08.973Z</time>
      </trkpt>
      <trkpt lat="44.54322" lon="6.15857">
        <ele>1142.4</ele>
        <time>2020-10-13T08:59:11.000Z</time>
      </trkpt>
      <trkpt lat="44.54318" lon="6.15851">
        <ele>1142.6</ele>
        <time>2020-10-13T08:59:13.910Z</time>
      </trkpt>
      <trkpt lat="44.54311" lon="6.15843">
        <ele>1141.4</ele>
        <time>2020-10-13T08:59:16.770Z</time>
      </trkpt>
      <trkpt lat="44.54289" lon="6.15814">
        <ele>1141.6</ele>
        <time>2020-10-13T08:59:18.287Z</time>
      </trkpt>
      <trkpt lat="44.54286" lon="6.1581">
        <ele>1141.6</ele>
        <time>2020-10-13T08:59:19.903Z</time>
      </trkpt>
      <trkpt lat="44.54282" lon="6.15803">
        <ele>1142.3</ele>
        <time>2020-10-13T08:59:22.000Z</time>
      </trkpt>
      <trkpt lat="44.54276" lon="6.15799">
        <ele>1142.1</ele>
        <time>2020-10-13T08:59:28.662Z</time>
      </trkpt>
      <trkpt lat="44.54272" lon="6.15795">
        <ele>1138.3</ele>
        <time>2020-10-13T08:59:33.000Z</time>
      </trkpt>
      <trkpt lat="44.54268" lon="6.15791">
        <ele>1139.9</ele>
        <time>2020-10-13T08:59:37.553Z</time>
      </trkpt>
      <trkpt lat="44.54263" lon="6.15787">
        <ele>1140.4</ele>
        <time>2020-10-13T08:59:40.000Z</time>
      </trkpt>
      <trkpt lat="44.54258" lon="6.15781">
        <ele>1140.4</ele>
        <time>2020-10-13T08:59:45.000Z</time>
      </trkpt>
      <trkpt lat="44.54255" lon="6.15773">
        <ele>1138.7</ele>
        <time>2020-10-13T08:59:49.000Z</time>
      </trkpt>
      <trkpt lat="44.54251" lon="6.15767">
        <ele>1137.3</ele>
        <time>2020-10-13T08:59:53.000Z</time>
      </trkpt>
      <trkpt lat="44.54247" lon="6.15762">
        <ele>1136.6</ele>
        <time>2020-10-13T08:59:58.127Z</time>
      </trkpt>
      <trkpt lat="44.54243" lon="6.15757">
        <ele>1135.7</ele>
        <time>2020-10-13T09:00:00.745Z</time>
      </trkpt>
      <trkpt lat="44.5424" lon="6.15752">
        <ele>1136.5</ele>
        <time>2020-10-13T09:00:03.723Z</time>
      </trkpt>
      <trkpt lat="44.54237" lon="6.15748">
        <ele>1136.3</ele>
        <time>2020-10-13T09:00:06.304Z</time>
      </trkpt>
      <trkpt lat="44.54231" lon="6.15743">
        <ele>1135.3</ele>
        <time>2020-10-13T09:00:10.000Z</time>
      </trkpt>
      <trkpt lat="44.54227" lon="6.1574">
        <ele>1135.2</ele>
        <time>2020-10-13T09:00:14.627Z</time>
      </trkpt>
      <trkpt lat="44.54223" lon="6.15735">
        <ele>1134</ele>
        <time>2020-10-13T09:00:17.544Z</time>
      </trkpt>
      <trkpt lat="44.54218" lon="6.1573">
        <ele>1131.4</ele>
        <time>2020-10-13T09:00:19.973Z</time>
      </trkpt>
      <trkpt lat="44.54215" lon="6.15725">
        <ele>1131.9</ele>
        <time>2020-10-13T09:00:21.322Z</time>
      </trkpt>
      <trkpt lat="44.54212" lon="6.1572">
        <ele>1132.5</ele>
        <time>2020-10-13T09:00:22.734Z</time>
      </trkpt>
      <trkpt lat="44.54209" lon="6.15715">
        <ele>1133.2</ele>
        <time>2020-10-13T09:00:23.000Z</time>
      </trkpt>
      <trkpt lat="44.54202" lon="6.15704">
        <ele>1133.1</ele>
        <time>2020-10-13T09:00:25.392Z</time>
      </trkpt>
      <trkpt lat="44.54198" lon="6.15699">
        <ele>1134.9</ele>
        <time>2020-10-13T09:00:26.000Z</time>
      </trkpt>
      <trkpt lat="44.54194" lon="6.15694">
        <ele>1134.8</ele>
        <time>2020-10-13T09:00:28.309Z</time>
      </trkpt>
      <trkpt lat="44.54189" lon="6.1569">
        <ele>1136.3</ele>
        <time>2020-10-13T09:00:29.000Z</time>
      </trkpt>
      <trkpt lat="44.54182" lon="6.15682">
        <ele>1139.3</ele>
        <time>2020-10-13T09:00:32.000Z</time>
      </trkpt>
      <trkpt lat="44.5418" lon="6.15674">
        <ele>1139.3</ele>
        <time>2020-10-13T09:00:34.000Z</time>
      </trkpt>
      <trkpt lat="44.54176" lon="6.15667">
        <ele>1139.6</ele>
        <time>2020-10-13T09:00:37.445Z</time>
      </trkpt>
      <trkpt lat="44.54173" lon="6.1566">
        <ele>1140.1</ele>
        <time>2020-10-13T09:00:39.000Z</time>
      </trkpt>
      <trkpt lat="44.54171" lon="6.15653">
        <ele>1140.4</ele>
        <time>2020-10-13T09:00:41.908Z</time>
      </trkpt>
      <trkpt lat="44.54164" lon="6.15645">
        <ele>1139.7</ele>
        <time>2020-10-13T09:00:45.000Z</time>
      </trkpt>
      <trkpt lat="44.54162" lon="6.15636">
        <ele>1139.3</ele>
        <time>2020-10-13T09:00:46.000Z</time>
      </trkpt>
      <trkpt lat="44.54158" lon="6.15623">
        <ele>1138.9</ele>
        <time>2020-10-13T09:00:47.000Z</time>
      </trkpt>
      <trkpt lat="44.54147" lon="6.15596">
        <ele>1137.2</ele>
        <time>2020-10-13T09:00:49.157Z</time>
      </trkpt>
      <trkpt lat="44.5412" lon="6.15543">
        <ele>1135.3</ele>
        <time>2020-10-13T09:00:51.000Z</time>
      </trkpt>
      <trkpt lat="44.54107" lon="6.15519">
        <ele>1139.4</ele>
        <time>2020-10-13T09:00:53.000Z</time>
      </trkpt>
      <trkpt lat="44.54104" lon="6.15513">
        <ele>1139.1</ele>
        <time>2020-10-13T09:00:54.000Z</time>
      </trkpt>
      <trkpt lat="44.54101" lon="6.15506">
        <ele>1144</ele>
        <time>2020-10-13T09:00:56.000Z</time>
      </trkpt>
      <trkpt lat="44.54096" lon="6.15495">
        <ele>1146.2</ele>
        <time>2020-10-13T09:00:59.181Z</time>
      </trkpt>
      <trkpt lat="44.54085" lon="6.1548">
        <ele>1148</ele>
        <time>2020-10-13T09:01:00.000Z</time>
      </trkpt>
      <trkpt lat="44.54087" lon="6.15486">
        <ele>1152.8</ele>
        <time>2020-10-13T09:01:05.000Z</time>
      </trkpt>
      <trkpt lat="44.54074" lon="6.15464">
        <ele>1156.9</ele>
        <time>2020-10-13T09:01:15.000Z</time>
      </trkpt>
      <trkpt lat="44.54069" lon="6.15456">
        <ele>1157.3</ele>
        <time>2020-10-13T09:01:16.000Z</time>
      </trkpt>
      <trkpt lat="44.54066" lon="6.15449">
        <ele>1157</ele>
        <time>2020-10-13T09:01:17.000Z</time>
      </trkpt>
      <trkpt lat="44.54068" lon="6.15443">
        <ele>1152.6</ele>
        <time>2020-10-13T09:02:11.564Z</time>
      </trkpt>
      <trkpt lat="44.54065" lon="6.15437">
        <ele>1160.7</ele>
        <time>2020-10-13T09:02:17.862Z</time>
      </trkpt>
      <trkpt lat="44.54062" lon="6.15433">
        <ele>1159.6</ele>
        <time>2020-10-13T09:02:21.000Z</time>
      </trkpt>
      <trkpt lat="44.54058" lon="6.15427">
        <ele>1162.1</ele>
        <time>2020-10-13T09:02:25.849Z</time>
      </trkpt>
      <trkpt lat="44.54054" lon="6.1542">
        <ele>1160.4</ele>
        <time>2020-10-13T09:02:29.492Z</time>
      </trkpt>
      <trkpt lat="44.54051" lon="6.15414">
        <ele>1159.4</ele>
        <time>2020-10-13T09:02:33.000Z</time>
      </trkpt>
      <trkpt lat="44.54046" lon="6.15407">
        <ele>1160.4</ele>
        <time>2020-10-13T09:02:38.000Z</time>
      </trkpt>
      <trkpt lat="44.54043" lon="6.15402">
        <ele>1159</ele>
        <time>2020-10-13T09:02:41.936Z</time>
      </trkpt>
      <trkpt lat="44.54039" lon="6.15397">
        <ele>1158.5</ele>
        <time>2020-10-13T09:02:45.000Z</time>
      </trkpt>
      <trkpt lat="44.54035" lon="6.15392">
        <ele>1158.6</ele>
        <time>2020-10-13T09:02:48.000Z</time>
      </trkpt>
      <trkpt lat="44.54031" lon="6.15387">
        <ele>1159.3</ele>
        <time>2020-10-13T09:02:51.000Z</time>
      </trkpt>
      <trkpt lat="44.54027" lon="6.15382">
        <ele>1160.2</ele>
        <time>2020-10-13T09:02:55.000Z</time>
      </trkpt>
      <trkpt lat="44.54023" lon="6.15377">
        <ele>1157.3</ele>
        <time>2020-10-13T09:03:00.406Z</time>
      </trkpt>
      <trkpt lat="44.54018" lon="6.15371">
        <ele>1157.8</ele>
        <time>2020-10-13T09:03:05.000Z</time>
      </trkpt>
      <trkpt lat="44.54013" lon="6.15365">
        <ele>1161.4</ele>
        <time>2020-10-13T09:03:10.702Z</time>
      </trkpt>
      <trkpt lat="44.54007" lon="6.15358">
        <ele>1163.8</ele>
        <time>2020-10-13T09:03:14.731Z</time>
      </trkpt>
      <trkpt lat="44.54002" lon="6.1535">
        <ele>1163.4</ele>
        <time>2020-10-13T09:03:17.827Z</time>
      </trkpt>
      <trkpt lat="44.53998" lon="6.1534">
        <ele>1158.2</ele>
        <time>2020-10-13T09:03:21.010Z</time>
      </trkpt>
      <trkpt lat="44.53995" lon="6.15333">
        <ele>1158.2</ele>
        <time>2020-10-13T09:03:23.451Z</time>
      </trkpt>
      <trkpt lat="44.53991" lon="6.15323">
        <ele>1156.2</ele>
        <time>2020-10-13T09:03:26.506Z</time>
      </trkpt>
      <trkpt lat="44.53988" lon="6.15315">
        <ele>1155.8</ele>
        <time>2020-10-13T09:03:27.529Z</time>
      </trkpt>
      <trkpt lat="44.53985" lon="6.15307">
        <ele>1156</ele>
        <time>2020-10-13T09:03:30.603Z</time>
      </trkpt>
      <trkpt lat="44.53982" lon="6.15301">
        <ele>1157.5</ele>
        <time>2020-10-13T09:03:33.088Z</time>
      </trkpt>
      <trkpt lat="44.53979" lon="6.15293">
        <ele>1160</ele>
        <time>2020-10-13T09:03:36.050Z</time>
      </trkpt>
      <trkpt lat="44.53976" lon="6.15286">
        <ele>1160.3</ele>
        <time>2020-10-13T09:03:38.574Z</time>
      </trkpt>
      <trkpt lat="44.53974" lon="6.15279">
        <ele>1159</ele>
        <time>2020-10-13T09:03:40.390Z</time>
      </trkpt>
      <trkpt lat="44.53971" lon="6.15274">
        <ele>1159.9</ele>
        <time>2020-10-13T09:03:42.469Z</time>
      </trkpt>
      <trkpt lat="44.53969" lon="6.15268">
        <ele>1161.5</ele>
        <time>2020-10-13T09:03:44.365Z</time>
      </trkpt>
      <trkpt lat="44.53966" lon="6.15263">
        <ele>1161</ele>
        <time>2020-10-13T09:03:45.000Z</time>
      </trkpt>
      <trkpt lat="44.53961" lon="6.15254">
        <ele>1163.4</ele>
        <time>2020-10-13T09:03:48.000Z</time>
      </trkpt>
      <trkpt lat="44.53957" lon="6.15246">
        <ele>1166.1</ele>
        <time>2020-10-13T09:03:51.000Z</time>
      </trkpt>
      <trkpt lat="44.53954" lon="6.15241">
        <ele>1167.2</ele>
        <time>2020-10-13T09:03:54.582Z</time>
      </trkpt>
      <trkpt lat="44.53951" lon="6.15233">
        <ele>1167.8</ele>
        <time>2020-10-13T09:03:57.000Z</time>
      </trkpt>
      <trkpt lat="44.53948" lon="6.15226">
        <ele>1166.9</ele>
        <time>2020-10-13T09:04:00.000Z</time>
      </trkpt>
      <trkpt lat="44.53947" lon="6.1522">
        <ele>1166.5</ele>
        <time>2020-10-13T09:04:03.907Z</time>
      </trkpt>
      <trkpt lat="44.53943" lon="6.15212">
        <ele>1166.1</ele>
        <time>2020-10-13T09:04:07.866Z</time>
      </trkpt>
      <trkpt lat="44.53939" lon="6.15206">
        <ele>1167.6</ele>
        <time>2020-10-13T09:04:10.000Z</time>
      </trkpt>
      <trkpt lat="44.53935" lon="6.15198">
        <ele>1172</ele>
        <time>2020-10-13T09:04:14.000Z</time>
      </trkpt>
      <trkpt lat="44.53929" lon="6.15177">
        <ele>1173.5</ele>
        <time>2020-10-13T09:04:17.000Z</time>
      </trkpt>
      <trkpt lat="44.53926" lon="6.15169">
        <ele>1173.9</ele>
        <time>2020-10-13T09:04:18.000Z</time>
      </trkpt>
      <trkpt lat="44.53924" lon="6.15159">
        <ele>1172</ele>
        <time>2020-10-13T09:04:19.000Z</time>
      </trkpt>
      <trkpt lat="44.53917" lon="6.15132">
        <ele>1171.7</ele>
        <time>2020-10-13T09:04:21.229Z</time>
      </trkpt>
      <trkpt lat="44.53915" lon="6.1512">
        <ele>1172.4</ele>
        <time>2020-10-13T09:04:22.728Z</time>
      </trkpt>
      <trkpt lat="44.53913" lon="6.15112">
        <ele>1172.1</ele>
        <time>2020-10-13T09:04:23.000Z</time>
      </trkpt>
      <trkpt lat="44.5391" lon="6.15104">
        <ele>1172.9</ele>
        <time>2020-10-13T09:04:25.209Z</time>
      </trkpt>
      <trkpt lat="44.53908" lon="6.15097">
        <ele>1172.1</ele>
        <time>2020-10-13T09:04:27.628Z</time>
      </trkpt>
      <trkpt lat="44.53906" lon="6.15086">
        <ele>1170.7</ele>
        <time>2020-10-13T09:04:30.804Z</time>
      </trkpt>
      <trkpt lat="44.53903" lon="6.15079">
        <ele>1171.2</ele>
        <time>2020-10-13T09:04:34.792Z</time>
      </trkpt>
      <trkpt lat="44.53899" lon="6.15073">
        <ele>1171.4</ele>
        <time>2020-10-13T09:04:37.000Z</time>
      </trkpt>
      <trkpt lat="44.53898" lon="6.15064">
        <ele>1169.7</ele>
        <time>2020-10-13T09:04:43.000Z</time>
      </trkpt>
      <trkpt lat="44.53893" lon="6.15057">
        <ele>1171.4</ele>
        <time>2020-10-13T09:04:48.887Z</time>
      </trkpt>
      <trkpt lat="44.5389" lon="6.15047">
        <ele>1174.7</ele>
        <time>2020-10-13T09:04:52.867Z</time>
      </trkpt>
      <trkpt lat="44.53886" lon="6.15042">
        <ele>1178.3</ele>
        <time>2020-10-13T09:04:55.000Z</time>
      </trkpt>
      <trkpt lat="44.53882" lon="6.15037">
        <ele>1178</ele>
        <time>2020-10-13T09:04:58.000Z</time>
      </trkpt>
      <trkpt lat="44.53878" lon="6.1503">
        <ele>1175.8</ele>
        <time>2020-10-13T09:05:02.728Z</time>
      </trkpt>
      <trkpt lat="44.53874" lon="6.15023">
        <ele>1175.4</ele>
        <time>2020-10-13T09:05:05.769Z</time>
      </trkpt>
      <trkpt lat="44.5387" lon="6.15015">
        <ele>1175.9</ele>
        <time>2020-10-13T09:05:08.635Z</time>
      </trkpt>
      <trkpt lat="44.5387" lon="6.15009">
        <ele>1174.1</ele>
        <time>2020-10-13T09:05:11.827Z</time>
      </trkpt>
      <trkpt lat="44.53868" lon="6.15002">
        <ele>1171.7</ele>
        <time>2020-10-13T09:05:14.147Z</time>
      </trkpt>
      <trkpt lat="44.53865" lon="6.1499">
        <ele>1169.9</ele>
        <time>2020-10-13T09:05:17.828Z</time>
      </trkpt>
      <trkpt lat="44.53858" lon="6.14984">
        <ele>1166.8</ele>
        <time>2020-10-13T09:05:21.628Z</time>
      </trkpt>
      <trkpt lat="44.53856" lon="6.14977">
        <ele>1166.1</ele>
        <time>2020-10-13T09:05:23.000Z</time>
      </trkpt>
      <trkpt lat="44.53855" lon="6.14969">
        <ele>1168.1</ele>
        <time>2020-10-13T09:05:26.000Z</time>
      </trkpt>
      <trkpt lat="44.53855" lon="6.1496">
        <ele>1170.1</ele>
        <time>2020-10-13T09:05:29.998Z</time>
      </trkpt>
      <trkpt lat="44.53853" lon="6.14951">
        <ele>1173</ele>
        <time>2020-10-13T09:05:33.869Z</time>
      </trkpt>
      <trkpt lat="44.53851" lon="6.14945">
        <ele>1173.7</ele>
        <time>2020-10-13T09:05:36.373Z</time>
      </trkpt>
      <trkpt lat="44.53849" lon="6.14938">
        <ele>1177.7</ele>
        <time>2020-10-13T09:05:39.000Z</time>
      </trkpt>
      <trkpt lat="44.53847" lon="6.14931">
        <ele>1179.2</ele>
        <time>2020-10-13T09:05:42.000Z</time>
      </trkpt>
      <trkpt lat="44.53845" lon="6.14924">
        <ele>1179.9</ele>
        <time>2020-10-13T09:05:45.000Z</time>
      </trkpt>
      <trkpt lat="44.53842" lon="6.14913">
        <ele>1179.9</ele>
        <time>2020-10-13T09:05:49.703Z</time>
      </trkpt>
      <trkpt lat="44.53841" lon="6.14906">
        <ele>1181.1</ele>
        <time>2020-10-13T09:05:52.000Z</time>
      </trkpt>
      <trkpt lat="44.53838" lon="6.14899">
        <ele>1180.4</ele>
        <time>2020-10-13T09:05:56.000Z</time>
      </trkpt>
      <trkpt lat="44.53836" lon="6.14893">
        <ele>1177.9</ele>
        <time>2020-10-13T09:06:00.000Z</time>
      </trkpt>
      <trkpt lat="44.53833" lon="6.14887">
        <ele>1175.7</ele>
        <time>2020-10-13T09:06:03.000Z</time>
      </trkpt>
      <trkpt lat="44.5383" lon="6.14881">
        <ele>1177.1</ele>
        <time>2020-10-13T09:06:07.000Z</time>
      </trkpt>
      <trkpt lat="44.53829" lon="6.14874">
        <ele>1177.4</ele>
        <time>2020-10-13T09:06:13.000Z</time>
      </trkpt>
      <trkpt lat="44.53829" lon="6.14867">
        <ele>1179.8</ele>
        <time>2020-10-13T09:06:16.000Z</time>
      </trkpt>
      <trkpt lat="44.53829" lon="6.1486">
        <ele>1178</ele>
        <time>2020-10-13T09:06:19.566Z</time>
      </trkpt>
      <trkpt lat="44.53829" lon="6.14851">
        <ele>1178.7</ele>
        <time>2020-10-13T09:06:22.442Z</time>
      </trkpt>
      <trkpt lat="44.53829" lon="6.14842">
        <ele>1180.2</ele>
        <time>2020-10-13T09:06:24.748Z</time>
      </trkpt>
      <trkpt lat="44.5383" lon="6.14835">
        <ele>1176</ele>
        <time>2020-10-13T09:06:26.000Z</time>
      </trkpt>
      <trkpt lat="44.53831" lon="6.14826">
        <ele>1167.9</ele>
        <time>2020-10-13T09:06:29.328Z</time>
      </trkpt>
      <trkpt lat="44.5383" lon="6.14816">
        <ele>1164.9</ele>
        <time>2020-10-13T09:06:31.000Z</time>
      </trkpt>
      <trkpt lat="44.53827" lon="6.14806">
        <ele>1163.8</ele>
        <time>2020-10-13T09:06:34.000Z</time>
      </trkpt>
      <trkpt lat="44.53827" lon="6.14796">
        <ele>1162.6</ele>
        <time>2020-10-13T09:06:37.284Z</time>
      </trkpt>
      <trkpt lat="44.53828" lon="6.1479">
        <ele>1160.1</ele>
        <time>2020-10-13T09:06:38.000Z</time>
      </trkpt>
      <trkpt lat="44.53827" lon="6.14779">
        <ele>1160.4</ele>
        <time>2020-10-13T09:06:41.711Z</time>
      </trkpt>
      <trkpt lat="44.53826" lon="6.14772">
        <ele>1159.8</ele>
        <time>2020-10-13T09:06:45.000Z</time>
      </trkpt>
      <trkpt lat="44.53826" lon="6.14762">
        <ele>1162</ele>
        <time>2020-10-13T09:06:50.000Z</time>
      </trkpt>
      <trkpt lat="44.53826" lon="6.14755">
        <ele>1165.5</ele>
        <time>2020-10-13T09:06:54.786Z</time>
      </trkpt>
      <trkpt lat="44.53826" lon="6.14749">
        <ele>1168.7</ele>
        <time>2020-10-13T09:06:58.000Z</time>
      </trkpt>
      <trkpt lat="44.53826" lon="6.14736">
        <ele>1168.7</ele>
        <time>2020-10-13T09:07:00.671Z</time>
      </trkpt>
      <trkpt lat="44.53826" lon="6.14724">
        <ele>1169.7</ele>
        <time>2020-10-13T09:07:01.670Z</time>
      </trkpt>
      <trkpt lat="44.53825" lon="6.14716">
        <ele>1172.3</ele>
        <time>2020-10-13T09:07:02.000Z</time>
      </trkpt>
      <trkpt lat="44.53823" lon="6.14703">
        <ele>1171.1</ele>
        <time>2020-10-13T09:07:04.000Z</time>
      </trkpt>
      <trkpt lat="44.53823" lon="6.14684">
        <ele>1171.6</ele>
        <time>2020-10-13T09:07:06.000Z</time>
      </trkpt>
      <trkpt lat="44.53821" lon="6.14671">
        <ele>1171.4</ele>
        <time>2020-10-13T09:07:08.000Z</time>
      </trkpt>
      <trkpt lat="44.53822" lon="6.14663">
        <ele>1169.8</ele>
        <time>2020-10-13T09:07:10.471Z</time>
      </trkpt>
      <trkpt lat="44.53822" lon="6.14655">
        <ele>1167.2</ele>
        <time>2020-10-13T09:07:13.567Z</time>
      </trkpt>
      <trkpt lat="44.53817" lon="6.14652">
        <ele>1166.1</ele>
        <time>2020-10-13T09:07:16.000Z</time>
      </trkpt>
      <trkpt lat="44.53813" lon="6.14647">
        <ele>1165.5</ele>
        <time>2020-10-13T09:07:19.000Z</time>
      </trkpt>
      <trkpt lat="44.53809" lon="6.14645">
        <ele>1167.5</ele>
        <time>2020-10-13T09:07:23.745Z</time>
      </trkpt>
      <trkpt lat="44.53806" lon="6.14639">
        <ele>1167.4</ele>
        <time>2020-10-13T09:07:28.000Z</time>
      </trkpt>
      <trkpt lat="44.53802" lon="6.14636">
        <ele>1166.3</ele>
        <time>2020-10-13T09:07:32.665Z</time>
      </trkpt>
      <trkpt lat="44.53797" lon="6.14631">
        <ele>1164.8</ele>
        <time>2020-10-13T09:07:35.346Z</time>
      </trkpt>
      <trkpt lat="44.53793" lon="6.14625">
        <ele>1164.9</ele>
        <time>2020-10-13T09:07:39.151Z</time>
      </trkpt>
      <trkpt lat="44.5379" lon="6.1462">
        <ele>1161.7</ele>
        <time>2020-10-13T09:07:41.512Z</time>
      </trkpt>
      <trkpt lat="44.53787" lon="6.14607">
        <ele>1159.4</ele>
        <time>2020-10-13T09:07:44.510Z</time>
      </trkpt>
      <trkpt lat="44.53788" lon="6.146">
        <ele>1160.7</ele>
        <time>2020-10-13T09:07:45.000Z</time>
      </trkpt>
      <trkpt lat="44.53786" lon="6.14583">
        <ele>1160.5</ele>
        <time>2020-10-13T09:07:47.000Z</time>
      </trkpt>
      <trkpt lat="44.53782" lon="6.14553">
        <ele>1160.1</ele>
        <time>2020-10-13T09:07:50.245Z</time>
      </trkpt>
      <trkpt lat="44.53779" lon="6.14544">
        <ele>1160</ele>
        <time>2020-10-13T09:07:51.505Z</time>
      </trkpt>
      <trkpt lat="44.5378" lon="6.14534">
        <ele>1156.7</ele>
        <time>2020-10-13T09:07:52.000Z</time>
      </trkpt>
      <trkpt lat="44.53779" lon="6.14521">
        <ele>1155.6</ele>
        <time>2020-10-13T09:07:54.432Z</time>
      </trkpt>
      <trkpt lat="44.53776" lon="6.14511">
        <ele>1155.2</ele>
        <time>2020-10-13T09:07:55.751Z</time>
      </trkpt>
      <trkpt lat="44.53767" lon="6.14475">
        <ele>1152</ele>
        <time>2020-10-13T09:07:58.000Z</time>
      </trkpt>
      <trkpt lat="44.53765" lon="6.14467">
        <ele>1150.8</ele>
        <time>2020-10-13T09:07:59.000Z</time>
      </trkpt>
      <trkpt lat="44.53762" lon="6.14455">
        <ele>1149.4</ele>
        <time>2020-10-13T09:08:01.000Z</time>
      </trkpt>
      <trkpt lat="44.53758" lon="6.14449">
        <ele>1146.9</ele>
        <time>2020-10-13T09:08:03.000Z</time>
      </trkpt>
      <trkpt lat="44.53757" lon="6.14439">
        <ele>1144.9</ele>
        <time>2020-10-13T09:08:06.680Z</time>
      </trkpt>
      <trkpt lat="44.5375" lon="6.14433">
        <ele>1141.7</ele>
        <time>2020-10-13T09:08:08.000Z</time>
      </trkpt>
      <trkpt lat="44.53745" lon="6.14436">
        <ele>1139.6</ele>
        <time>2020-10-13T09:08:11.000Z</time>
      </trkpt>
      <trkpt lat="44.53743" lon="6.14444">
        <ele>1135.2</ele>
        <time>2020-10-13T09:10:08.000Z</time>
      </trkpt>
      <trkpt lat="44.53741" lon="6.1445">
        <ele>1135.5</ele>
        <time>2020-10-13T09:10:10.000Z</time>
      </trkpt>
      <trkpt lat="44.53738" lon="6.14462">
        <ele>1136.6</ele>
        <time>2020-10-13T09:10:13.000Z</time>
      </trkpt>
      <trkpt lat="44.53736" lon="6.1447">
        <ele>1135.5</ele>
        <time>2020-10-13T09:10:15.000Z</time>
      </trkpt>
      <trkpt lat="44.5373" lon="6.14482">
        <ele>1136.1</ele>
        <time>2020-10-13T09:10:18.000Z</time>
      </trkpt>
      <trkpt lat="44.53725" lon="6.14486">
        <ele>1134.5</ele>
        <time>2020-10-13T09:10:21.000Z</time>
      </trkpt>
      <trkpt lat="44.53723" lon="6.14494">
        <ele>1134.8</ele>
        <time>2020-10-13T09:10:23.159Z</time>
      </trkpt>
      <trkpt lat="44.53719" lon="6.14501">
        <ele>1133.7</ele>
        <time>2020-10-13T09:10:24.000Z</time>
      </trkpt>
      <trkpt lat="44.53714" lon="6.1451">
        <ele>1133.7</ele>
        <time>2020-10-13T09:10:26.939Z</time>
      </trkpt>
      <trkpt lat="44.53711" lon="6.14515">
        <ele>1132.2</ele>
        <time>2020-10-13T09:10:28.675Z</time>
      </trkpt>
      <trkpt lat="44.53708" lon="6.14524">
        <ele>1131.6</ele>
        <time>2020-10-13T09:10:30.000Z</time>
      </trkpt>
      <trkpt lat="44.53702" lon="6.14532">
        <ele>1130.9</ele>
        <time>2020-10-13T09:10:33.516Z</time>
      </trkpt>
      <trkpt lat="44.53696" lon="6.14537">
        <ele>1135</ele>
        <time>2020-10-13T09:10:35.000Z</time>
      </trkpt>
      <trkpt lat="44.53687" lon="6.14545">
        <ele>1135.1</ele>
        <time>2020-10-13T09:10:38.000Z</time>
      </trkpt>
      <trkpt lat="44.53682" lon="6.1455">
        <ele>1134.5</ele>
        <time>2020-10-13T09:10:40.000Z</time>
      </trkpt>
      <trkpt lat="44.53676" lon="6.14559">
        <ele>1132.4</ele>
        <time>2020-10-13T09:10:43.000Z</time>
      </trkpt>
      <trkpt lat="44.5367" lon="6.14571">
        <ele>1131</ele>
        <time>2020-10-13T09:10:46.000Z</time>
      </trkpt>
      <trkpt lat="44.53663" lon="6.14591">
        <ele>1132.8</ele>
        <time>2020-10-13T09:10:48.000Z</time>
      </trkpt>
      <trkpt lat="44.5366" lon="6.14599">
        <ele>1132.4</ele>
        <time>2020-10-13T09:10:49.000Z</time>
      </trkpt>
      <trkpt lat="44.53654" lon="6.1461">
        <ele>1132.4</ele>
        <time>2020-10-13T09:10:51.000Z</time>
      </trkpt>
      <trkpt lat="44.53647" lon="6.14625">
        <ele>1131.1</ele>
        <time>2020-10-13T09:10:53.000Z</time>
      </trkpt>
      <trkpt lat="44.53644" lon="6.14633">
        <ele>1130.1</ele>
        <time>2020-10-13T09:10:54.000Z</time>
      </trkpt>
      <trkpt lat="44.53638" lon="6.14648">
        <ele>1128</ele>
        <time>2020-10-13T09:10:56.000Z</time>
      </trkpt>
      <trkpt lat="44.53635" lon="6.14656">
        <ele>1127.5</ele>
        <time>2020-10-13T09:10:57.000Z</time>
      </trkpt>
      <trkpt lat="44.53632" lon="6.14663">
        <ele>1127.6</ele>
        <time>2020-10-13T09:10:58.000Z</time>
      </trkpt>
      <trkpt lat="44.53625" lon="6.14677">
        <ele>1127.6</ele>
        <time>2020-10-13T09:11:00.000Z</time>
      </trkpt>
      <trkpt lat="44.53622" lon="6.14682">
        <ele>1127.9</ele>
        <time>2020-10-13T09:11:01.000Z</time>
      </trkpt>
      <trkpt lat="44.53616" lon="6.14692">
        <ele>1128.2</ele>
        <time>2020-10-13T09:11:03.000Z</time>
      </trkpt>
      <trkpt lat="44.53611" lon="6.14702">
        <ele>1130.8</ele>
        <time>2020-10-13T09:11:05.000Z</time>
      </trkpt>
      <trkpt lat="44.53606" lon="6.14711">
        <ele>1130.6</ele>
        <time>2020-10-13T09:11:07.000Z</time>
      </trkpt>
      <trkpt lat="44.53604" lon="6.14717">
        <ele>1131.6</ele>
        <time>2020-10-13T09:11:09.049Z</time>
      </trkpt>
      <trkpt lat="44.53599" lon="6.14726">
        <ele>1132.2</ele>
        <time>2020-10-13T09:11:10.000Z</time>
      </trkpt>
      <trkpt lat="44.53594" lon="6.14736">
        <ele>1131.4</ele>
        <time>2020-10-13T09:11:12.000Z</time>
      </trkpt>
      <trkpt lat="44.53592" lon="6.14747">
        <ele>1130.8</ele>
        <time>2020-10-13T09:11:14.000Z</time>
      </trkpt>
      <trkpt lat="44.53589" lon="6.1476">
        <ele>1131.6</ele>
        <time>2020-10-13T09:11:16.000Z</time>
      </trkpt>
      <trkpt lat="44.53585" lon="6.14769">
        <ele>1131.6</ele>
        <time>2020-10-13T09:11:18.000Z</time>
      </trkpt>
      <trkpt lat="44.53581" lon="6.14783">
        <ele>1133.8</ele>
        <time>2020-10-13T09:11:21.000Z</time>
      </trkpt>
      <trkpt lat="44.53579" lon="6.14794">
        <ele>1132.4</ele>
        <time>2020-10-13T09:11:23.000Z</time>
      </trkpt>
      <trkpt lat="44.53578" lon="6.14801">
        <ele>1132.6</ele>
        <time>2020-10-13T09:11:24.000Z</time>
      </trkpt>
      <trkpt lat="44.53575" lon="6.14812">
        <ele>1133.6</ele>
        <time>2020-10-13T09:11:26.000Z</time>
      </trkpt>
      <trkpt lat="44.53572" lon="6.14822">
        <ele>1133.3</ele>
        <time>2020-10-13T09:11:28.000Z</time>
      </trkpt>
      <trkpt lat="44.5357" lon="6.1483">
        <ele>1134.1</ele>
        <time>2020-10-13T09:11:30.854Z</time>
      </trkpt>
      <trkpt lat="44.53566" lon="6.14843">
        <ele>1132.5</ele>
        <time>2020-10-13T09:11:33.000Z</time>
      </trkpt>
      <trkpt lat="44.53563" lon="6.1485">
        <ele>1133.4</ele>
        <time>2020-10-13T09:11:35.000Z</time>
      </trkpt>
      <trkpt lat="44.53561" lon="6.14859">
        <ele>1132.4</ele>
        <time>2020-10-13T09:11:37.000Z</time>
      </trkpt>
      <trkpt lat="44.53557" lon="6.14868">
        <ele>1136.2</ele>
        <time>2020-10-13T09:11:39.000Z</time>
      </trkpt>
      <trkpt lat="44.53553" lon="6.14873">
        <ele>1136</ele>
        <time>2020-10-13T09:11:41.000Z</time>
      </trkpt>
      <trkpt lat="44.53549" lon="6.14879">
        <ele>1136</ele>
        <time>2020-10-13T09:11:43.613Z</time>
      </trkpt>
      <trkpt lat="44.53546" lon="6.14886">
        <ele>1135.7</ele>
        <time>2020-10-13T09:11:45.000Z</time>
      </trkpt>
      <trkpt lat="44.53543" lon="6.14893">
        <ele>1137.5</ele>
        <time>2020-10-13T09:11:47.000Z</time>
      </trkpt>
      <trkpt lat="44.5354" lon="6.14899">
        <ele>1137.1</ele>
        <time>2020-10-13T09:11:49.000Z</time>
      </trkpt>
      <trkpt lat="44.53539" lon="6.14906">
        <ele>1133.6</ele>
        <time>2020-10-13T09:11:52.000Z</time>
      </trkpt>
      <trkpt lat="44.53537" lon="6.14914">
        <ele>1135.9</ele>
        <time>2020-10-13T09:11:55.000Z</time>
      </trkpt>
      <trkpt lat="44.53536" lon="6.14921">
        <ele>1137.1</ele>
        <time>2020-10-13T09:11:57.000Z</time>
      </trkpt>
      <trkpt lat="44.53536" lon="6.14929">
        <ele>1138.9</ele>
        <time>2020-10-13T09:12:00.836Z</time>
      </trkpt>
      <trkpt lat="44.53536" lon="6.14938">
        <ele>1138.6</ele>
        <time>2020-10-13T09:12:04.000Z</time>
      </trkpt>
      <trkpt lat="44.53534" lon="6.14945">
        <ele>1140.3</ele>
        <time>2020-10-13T09:12:08.499Z</time>
      </trkpt>
      <trkpt lat="44.53532" lon="6.14951">
        <ele>1140</ele>
        <time>2020-10-13T09:12:11.641Z</time>
      </trkpt>
      <trkpt lat="44.5353" lon="6.14959">
        <ele>1140.8</ele>
        <time>2020-10-13T09:12:15.055Z</time>
      </trkpt>
      <trkpt lat="44.53526" lon="6.14964">
        <ele>1140.4</ele>
        <time>2020-10-13T09:12:17.802Z</time>
      </trkpt>
      <trkpt lat="44.5352" lon="6.14964">
        <ele>1141.9</ele>
        <time>2020-10-13T09:12:20.580Z</time>
      </trkpt>
      <trkpt lat="44.53515" lon="6.14961">
        <ele>1144.4</ele>
        <time>2020-10-13T09:12:22.000Z</time>
      </trkpt>
      <trkpt lat="44.53511" lon="6.14958">
        <ele>1146.6</ele>
        <time>2020-10-13T09:12:25.304Z</time>
      </trkpt>
      <trkpt lat="44.53507" lon="6.14956">
        <ele>1148</ele>
        <time>2020-10-13T09:12:27.940Z</time>
      </trkpt>
      <trkpt lat="44.53501" lon="6.14953">
        <ele>1147</ele>
        <time>2020-10-13T09:12:30.481Z</time>
      </trkpt>
      <trkpt lat="44.53496" lon="6.14952">
        <ele>1148.5</ele>
        <time>2020-10-13T09:12:33.359Z</time>
      </trkpt>
      <trkpt lat="44.53488" lon="6.14949">
        <ele>1149</ele>
        <time>2020-10-13T09:12:37.557Z</time>
      </trkpt>
      <trkpt lat="44.53482" lon="6.14946">
        <ele>1149.7</ele>
        <time>2020-10-13T09:12:40.560Z</time>
      </trkpt>
      <trkpt lat="44.53475" lon="6.14943">
        <ele>1150.7</ele>
        <time>2020-10-13T09:12:43.576Z</time>
      </trkpt>
      <trkpt lat="44.53469" lon="6.14942">
        <ele>1150.4</ele>
        <time>2020-10-13T09:12:46.454Z</time>
      </trkpt>
      <trkpt lat="44.53461" lon="6.14944">
        <ele>1150.9</ele>
        <time>2020-10-13T09:12:50.057Z</time>
      </trkpt>
      <trkpt lat="44.53456" lon="6.14939">
        <ele>1148.7</ele>
        <time>2020-10-13T09:12:54.439Z</time>
      </trkpt>
      <trkpt lat="44.53452" lon="6.14934">
        <ele>1150.4</ele>
        <time>2020-10-13T09:12:58.833Z</time>
      </trkpt>
      <trkpt lat="44.53447" lon="6.14928">
        <ele>1149.9</ele>
        <time>2020-10-13T09:13:03.798Z</time>
      </trkpt>
      <trkpt lat="44.53443" lon="6.14924">
        <ele>1149.3</ele>
        <time>2020-10-13T09:13:08.240Z</time>
      </trkpt>
      <trkpt lat="44.53437" lon="6.14922">
        <ele>1150.4</ele>
        <time>2020-10-13T09:13:13.341Z</time>
      </trkpt>
      <trkpt lat="44.53432" lon="6.14921">
        <ele>1150</ele>
        <time>2020-10-13T09:13:16.215Z</time>
      </trkpt>
      <trkpt lat="44.53426" lon="6.14918">
        <ele>1149.2</ele>
        <time>2020-10-13T09:13:19.000Z</time>
      </trkpt>
      <trkpt lat="44.5342" lon="6.14918">
        <ele>1148.9</ele>
        <time>2020-10-13T09:13:24.660Z</time>
      </trkpt>
      <trkpt lat="44.53414" lon="6.14917">
        <ele>1152.8</ele>
        <time>2020-10-13T09:13:28.538Z</time>
      </trkpt>
      <trkpt lat="44.53408" lon="6.14915">
        <ele>1152</ele>
        <time>2020-10-13T09:13:31.695Z</time>
      </trkpt>
      <trkpt lat="44.53402" lon="6.14913">
        <ele>1154.1</ele>
        <time>2020-10-13T09:13:34.897Z</time>
      </trkpt>
      <trkpt lat="44.53396" lon="6.14913">
        <ele>1155.5</ele>
        <time>2020-10-13T09:13:37.965Z</time>
      </trkpt>
      <trkpt lat="44.53391" lon="6.14911">
        <ele>1155.7</ele>
        <time>2020-10-13T09:13:40.000Z</time>
      </trkpt>
      <trkpt lat="44.53384" lon="6.1491">
        <ele>1156</ele>
        <time>2020-10-13T09:13:44.000Z</time>
      </trkpt>
      <trkpt lat="44.5338" lon="6.14907">
        <ele>1156.6</ele>
        <time>2020-10-13T09:13:49.861Z</time>
      </trkpt>
      <trkpt lat="44.53377" lon="6.149">
        <ele>1158</ele>
        <time>2020-10-13T09:13:53.000Z</time>
      </trkpt>
      <trkpt lat="44.53373" lon="6.14895">
        <ele>1157.1</ele>
        <time>2020-10-13T09:13:57.000Z</time>
      </trkpt>
      <trkpt lat="44.5337" lon="6.14888">
        <ele>1157.9</ele>
        <time>2020-10-13T09:14:00.000Z</time>
      </trkpt>
      <trkpt lat="44.53367" lon="6.14882">
        <ele>1157.1</ele>
        <time>2020-10-13T09:14:03.000Z</time>
      </trkpt>
      <trkpt lat="44.53365" lon="6.14877">
        <ele>1157.3</ele>
        <time>2020-10-13T09:14:06.000Z</time>
      </trkpt>
      <trkpt lat="44.53362" lon="6.14871">
        <ele>1157.1</ele>
        <time>2020-10-13T09:14:10.257Z</time>
      </trkpt>
      <trkpt lat="44.53359" lon="6.14865">
        <ele>1158.1</ele>
        <time>2020-10-13T09:14:13.000Z</time>
      </trkpt>
      <trkpt lat="44.53354" lon="6.14859">
        <ele>1158.3</ele>
        <time>2020-10-13T09:14:18.897Z</time>
      </trkpt>
      <trkpt lat="44.53349" lon="6.14855">
        <ele>1158.1</ele>
        <time>2020-10-13T09:14:22.000Z</time>
      </trkpt>
      <trkpt lat="44.53345" lon="6.14851">
        <ele>1161.9</ele>
        <time>2020-10-13T09:14:25.000Z</time>
      </trkpt>
      <trkpt lat="44.5334" lon="6.14847">
        <ele>1166</ele>
        <time>2020-10-13T09:14:30.000Z</time>
      </trkpt>
      <trkpt lat="44.53335" lon="6.14842">
        <ele>1166.8</ele>
        <time>2020-10-13T09:14:34.000Z</time>
      </trkpt>
      <trkpt lat="44.53333" lon="6.14837">
        <ele>1166.6</ele>
        <time>2020-10-13T09:14:38.000Z</time>
      </trkpt>
      <trkpt lat="44.5333" lon="6.1483">
        <ele>1167.1</ele>
        <time>2020-10-13T09:14:42.000Z</time>
      </trkpt>
      <trkpt lat="44.53327" lon="6.14823">
        <ele>1170.1</ele>
        <time>2020-10-13T09:14:46.000Z</time>
      </trkpt>
      <trkpt lat="44.53323" lon="6.14818">
        <ele>1169.7</ele>
        <time>2020-10-13T09:14:49.824Z</time>
      </trkpt>
      <trkpt lat="44.53318" lon="6.1481">
        <ele>1175.4</ele>
        <time>2020-10-13T09:14:53.000Z</time>
      </trkpt>
      <trkpt lat="44.53313" lon="6.14805">
        <ele>1172.5</ele>
        <time>2020-10-13T09:14:56.420Z</time>
      </trkpt>
      <trkpt lat="44.53307" lon="6.14799">
        <ele>1179.9</ele>
        <time>2020-10-13T09:14:59.059Z</time>
      </trkpt>
      <trkpt lat="44.53302" lon="6.14793">
        <ele>1178.4</ele>
        <time>2020-10-13T09:15:01.383Z</time>
      </trkpt>
      <trkpt lat="44.53298" lon="6.14787">
        <ele>1179.1</ele>
        <time>2020-10-13T09:15:03.157Z</time>
      </trkpt>
      <trkpt lat="44.53293" lon="6.14782">
        <ele>1178.9</ele>
        <time>2020-10-13T09:15:04.000Z</time>
      </trkpt>
      <trkpt lat="44.53288" lon="6.14773">
        <ele>1187</ele>
        <time>2020-10-13T09:15:07.286Z</time>
      </trkpt>
      <trkpt lat="44.53284" lon="6.14767">
        <ele>1190.4</ele>
        <time>2020-10-13T09:15:08.000Z</time>
      </trkpt>
      <trkpt lat="44.53271" lon="6.14748">
        <ele>1192.1</ele>
        <time>2020-10-13T09:15:11.000Z</time>
      </trkpt>
      <trkpt lat="44.53251" lon="6.14726">
        <ele>1195.4</ele>
        <time>2020-10-13T09:15:13.000Z</time>
      </trkpt>
      <trkpt lat="44.53245" lon="6.14721">
        <ele>1194.7</ele>
        <time>2020-10-13T09:15:14.000Z</time>
      </trkpt>
      <trkpt lat="44.53234" lon="6.14711">
        <ele>1195.6</ele>
        <time>2020-10-13T09:15:16.000Z</time>
      </trkpt>
      <trkpt lat="44.53229" lon="6.14708">
        <ele>1196.5</ele>
        <time>2020-10-13T09:15:19.000Z</time>
      </trkpt>
      <trkpt lat="44.53226" lon="6.147">
        <ele>1198.9</ele>
        <time>2020-10-13T09:17:51.000Z</time>
      </trkpt>
      <trkpt lat="44.53224" lon="6.14693">
        <ele>1198.4</ele>
        <time>2020-10-13T09:17:53.290Z</time>
      </trkpt>
      <trkpt lat="44.53222" lon="6.14683">
        <ele>1197.7</ele>
        <time>2020-10-13T09:17:54.000Z</time>
      </trkpt>
      <trkpt lat="44.53216" lon="6.14667">
        <ele>1196.2</ele>
        <time>2020-10-13T09:17:57.000Z</time>
      </trkpt>
      <trkpt lat="44.53211" lon="6.14658">
        <ele>1196.8</ele>
        <time>2020-10-13T09:17:59.000Z</time>
      </trkpt>
      <trkpt lat="44.53208" lon="6.14652">
        <ele>1197.5</ele>
        <time>2020-10-13T09:18:00.000Z</time>
      </trkpt>
      <trkpt lat="44.53206" lon="6.14646">
        <ele>1199.2</ele>
        <time>2020-10-13T09:18:01.000Z</time>
      </trkpt>
      <trkpt lat="44.53201" lon="6.14636">
        <ele>1198.3</ele>
        <time>2020-10-13T09:18:03.000Z</time>
      </trkpt>
      <trkpt lat="44.53199" lon="6.1463">
        <ele>1199.5</ele>
        <time>2020-10-13T09:18:04.000Z</time>
      </trkpt>
      <trkpt lat="44.53196" lon="6.1462">
        <ele>1199.1</ele>
        <time>2020-10-13T09:18:06.000Z</time>
      </trkpt>
      <trkpt lat="44.53193" lon="6.14612">
        <ele>1198.4</ele>
        <time>2020-10-13T09:18:08.000Z</time>
      </trkpt>
      <trkpt lat="44.5319" lon="6.14602">
        <ele>1199.5</ele>
        <time>2020-10-13T09:18:10.000Z</time>
      </trkpt>
      <trkpt lat="44.53187" lon="6.14593">
        <ele>1199.1</ele>
        <time>2020-10-13T09:18:12.000Z</time>
      </trkpt>
      <trkpt lat="44.53183" lon="6.14582">
        <ele>1199.9</ele>
        <time>2020-10-13T09:18:14.000Z</time>
      </trkpt>
      <trkpt lat="44.53181" lon="6.14574">
        <ele>1200.8</ele>
        <time>2020-10-13T09:18:16.439Z</time>
      </trkpt>
      <trkpt lat="44.53179" lon="6.14562">
        <ele>1201.4</ele>
        <time>2020-10-13T09:18:17.000Z</time>
      </trkpt>
      <trkpt lat="44.53178" lon="6.14555">
        <ele>1201.3</ele>
        <time>2020-10-13T09:18:18.000Z</time>
      </trkpt>
      <trkpt lat="44.53176" lon="6.14549">
        <ele>1202.9</ele>
        <time>2020-10-13T09:18:21.000Z</time>
      </trkpt>
      <trkpt lat="44.53172" lon="6.14543">
        <ele>1201.7</ele>
        <time>2020-10-13T09:18:24.820Z</time>
      </trkpt>
      <trkpt lat="44.53172" lon="6.14535">
        <ele>1201.4</ele>
        <time>2020-10-13T09:18:27.520Z</time>
      </trkpt>
      <trkpt lat="44.53168" lon="6.14528">
        <ele>1201.1</ele>
        <time>2020-10-13T09:18:30.258Z</time>
      </trkpt>
      <trkpt lat="44.53164" lon="6.14518">
        <ele>1202.9</ele>
        <time>2020-10-13T09:18:32.000Z</time>
      </trkpt>
      <trkpt lat="44.53161" lon="6.14509">
        <ele>1203.4</ele>
        <time>2020-10-13T09:18:35.000Z</time>
      </trkpt>
      <trkpt lat="44.53158" lon="6.14503">
        <ele>1202.5</ele>
        <time>2020-10-13T09:18:37.499Z</time>
      </trkpt>
      <trkpt lat="44.53153" lon="6.14492">
        <ele>1201.1</ele>
        <time>2020-10-13T09:18:40.598Z</time>
      </trkpt>
      <trkpt lat="44.53149" lon="6.14484">
        <ele>1199.8</ele>
        <time>2020-10-13T09:18:43.421Z</time>
      </trkpt>
      <trkpt lat="44.53142" lon="6.14475">
        <ele>1198.9</ele>
        <time>2020-10-13T09:18:45.000Z</time>
      </trkpt>
      <trkpt lat="44.53138" lon="6.14469">
        <ele>1198.1</ele>
        <time>2020-10-13T09:18:48.000Z</time>
      </trkpt>
      <trkpt lat="44.53134" lon="6.14464">
        <ele>1198.2</ele>
        <time>2020-10-13T09:18:52.780Z</time>
      </trkpt>
      <trkpt lat="44.53131" lon="6.14458">
        <ele>1196.3</ele>
        <time>2020-10-13T09:18:57.642Z</time>
      </trkpt>
      <trkpt lat="44.53128" lon="6.14453">
        <ele>1195.3</ele>
        <time>2020-10-13T09:19:01.380Z</time>
      </trkpt>
      <trkpt lat="44.53124" lon="6.14448">
        <ele>1195.3</ele>
        <time>2020-10-13T09:19:03.000Z</time>
      </trkpt>
      <trkpt lat="44.53122" lon="6.1444">
        <ele>1196.5</ele>
        <time>2020-10-13T09:19:08.156Z</time>
      </trkpt>
      <trkpt lat="44.5312" lon="6.14434">
        <ele>1196.8</ele>
        <time>2020-10-13T09:19:12.000Z</time>
      </trkpt>
      <trkpt lat="44.53119" lon="6.14425">
        <ele>1199.7</ele>
        <time>2020-10-13T09:19:18.314Z</time>
      </trkpt>
      <trkpt lat="44.53118" lon="6.14419">
        <ele>1199.8</ele>
        <time>2020-10-13T09:19:20.000Z</time>
      </trkpt>
      <trkpt lat="44.53115" lon="6.14411">
        <ele>1201.3</ele>
        <time>2020-10-13T09:19:23.000Z</time>
      </trkpt>
      <trkpt lat="44.53113" lon="6.14404">
        <ele>1201.7</ele>
        <time>2020-10-13T09:19:26.720Z</time>
      </trkpt>
      <trkpt lat="44.5311" lon="6.14396">
        <ele>1202.8</ele>
        <time>2020-10-13T09:19:29.361Z</time>
      </trkpt>
      <trkpt lat="44.53107" lon="6.14389">
        <ele>1202.6</ele>
        <time>2020-10-13T09:19:31.000Z</time>
      </trkpt>
      <trkpt lat="44.53105" lon="6.14382">
        <ele>1204.2</ele>
        <time>2020-10-13T09:19:33.000Z</time>
      </trkpt>
      <trkpt lat="44.53102" lon="6.14374">
        <ele>1205.8</ele>
        <time>2020-10-13T09:19:36.661Z</time>
      </trkpt>
      <trkpt lat="44.53099" lon="6.14365">
        <ele>1206.4</ele>
        <time>2020-10-13T09:19:39.835Z</time>
      </trkpt>
      <trkpt lat="44.53097" lon="6.14357">
        <ele>1207.2</ele>
        <time>2020-10-13T09:19:42.455Z</time>
      </trkpt>
      <trkpt lat="44.53094" lon="6.1435">
        <ele>1207.6</ele>
        <time>2020-10-13T09:19:44.000Z</time>
      </trkpt>
      <trkpt lat="44.53091" lon="6.14343">
        <ele>1207.3</ele>
        <time>2020-10-13T09:19:47.643Z</time>
      </trkpt>
      <trkpt lat="44.53089" lon="6.14334">
        <ele>1207.5</ele>
        <time>2020-10-13T09:19:50.326Z</time>
      </trkpt>
      <trkpt lat="44.53086" lon="6.14327">
        <ele>1206.5</ele>
        <time>2020-10-13T09:19:52.000Z</time>
      </trkpt>
      <trkpt lat="44.53082" lon="6.14319">
        <ele>1207.6</ele>
        <time>2020-10-13T09:19:56.237Z</time>
      </trkpt>
      <trkpt lat="44.53079" lon="6.14312">
        <ele>1206.8</ele>
        <time>2020-10-13T09:19:58.000Z</time>
      </trkpt>
      <trkpt lat="44.53074" lon="6.14305">
        <ele>1208.8</ele>
        <time>2020-10-13T09:20:01.000Z</time>
      </trkpt>
      <trkpt lat="44.53069" lon="6.14297">
        <ele>1209</ele>
        <time>2020-10-13T09:20:05.580Z</time>
      </trkpt>
      <trkpt lat="44.53064" lon="6.14292">
        <ele>1209.5</ele>
        <time>2020-10-13T09:20:07.000Z</time>
      </trkpt>
      <trkpt lat="44.5306" lon="6.14288">
        <ele>1209.9</ele>
        <time>2020-10-13T09:20:09.000Z</time>
      </trkpt>
      <trkpt lat="44.53056" lon="6.14283">
        <ele>1209.3</ele>
        <time>2020-10-13T09:20:11.000Z</time>
      </trkpt>
      <trkpt lat="44.53053" lon="6.14277">
        <ele>1213</ele>
        <time>2020-10-13T09:20:14.000Z</time>
      </trkpt>
      <trkpt lat="44.53049" lon="6.14269">
        <ele>1214.3</ele>
        <time>2020-10-13T09:20:18.518Z</time>
      </trkpt>
      <trkpt lat="44.53043" lon="6.14262">
        <ele>1214.5</ele>
        <time>2020-10-13T09:20:21.395Z</time>
      </trkpt>
      <trkpt lat="44.53039" lon="6.14259">
        <ele>1214.9</ele>
        <time>2020-10-13T09:20:22.963Z</time>
      </trkpt>
      <trkpt lat="44.53035" lon="6.14255">
        <ele>1217</ele>
        <time>2020-10-13T09:20:25.403Z</time>
      </trkpt>
      <trkpt lat="44.53029" lon="6.14249">
        <ele>1220.1</ele>
        <time>2020-10-13T09:20:28.599Z</time>
      </trkpt>
      <trkpt lat="44.53021" lon="6.14242">
        <ele>1220</ele>
        <time>2020-10-13T09:20:31.861Z</time>
      </trkpt>
      <trkpt lat="44.53002" lon="6.14222">
        <ele>1224.7</ele>
        <time>2020-10-13T09:20:34.602Z</time>
      </trkpt>
      <trkpt lat="44.52992" lon="6.1421">
        <ele>1224.7</ele>
        <time>2020-10-13T09:20:35.963Z</time>
      </trkpt>
      <trkpt lat="44.52985" lon="6.14201">
        <ele>1227.5</ele>
        <time>2020-10-13T09:20:37.320Z</time>
      </trkpt>
      <trkpt lat="44.52981" lon="6.14198">
        <ele>1228.2</ele>
        <time>2020-10-13T09:20:38.560Z</time>
      </trkpt>
      <trkpt lat="44.52971" lon="6.14193">
        <ele>1229.4</ele>
        <time>2020-10-13T09:20:41.518Z</time>
      </trkpt>
      <trkpt lat="44.52961" lon="6.14188">
        <ele>1228.3</ele>
        <time>2020-10-13T09:20:44.424Z</time>
      </trkpt>
      <trkpt lat="44.52954" lon="6.14185">
        <ele>1228.3</ele>
        <time>2020-10-13T09:20:46.137Z</time>
      </trkpt>
      <trkpt lat="44.5295" lon="6.14183">
        <ele>1228.3</ele>
        <time>2020-10-13T09:20:47.697Z</time>
      </trkpt>
      <trkpt lat="44.52946" lon="6.14178">
        <ele>1229.4</ele>
        <time>2020-10-13T09:20:49.275Z</time>
      </trkpt>
      <trkpt lat="44.52942" lon="6.14173">
        <ele>1228.8</ele>
        <time>2020-10-13T09:20:50.920Z</time>
      </trkpt>
      <trkpt lat="44.52938" lon="6.14168">
        <ele>1228.6</ele>
        <time>2020-10-13T09:20:52.636Z</time>
      </trkpt>
      <trkpt lat="44.52934" lon="6.14164">
        <ele>1227</ele>
        <time>2020-10-13T09:20:54.000Z</time>
      </trkpt>
      <trkpt lat="44.52927" lon="6.1416">
        <ele>1227</ele>
        <time>2020-10-13T09:20:57.758Z</time>
      </trkpt>
      <trkpt lat="44.52923" lon="6.14159">
        <ele>1225.4</ele>
        <time>2020-10-13T09:20:59.543Z</time>
      </trkpt>
      <trkpt lat="44.52918" lon="6.14161">
        <ele>1227.2</ele>
        <time>2020-10-13T09:21:02.261Z</time>
      </trkpt>
      <trkpt lat="44.52912" lon="6.14161">
        <ele>1225.5</ele>
        <time>2020-10-13T09:21:03.000Z</time>
      </trkpt>
      <trkpt lat="44.52907" lon="6.14161">
        <ele>1228.4</ele>
        <time>2020-10-13T09:21:06.813Z</time>
      </trkpt>
      <trkpt lat="44.52901" lon="6.14163">
        <ele>1227.8</ele>
        <time>2020-10-13T09:21:09.236Z</time>
      </trkpt>
      <trkpt lat="44.52895" lon="6.14165">
        <ele>1229.3</ele>
        <time>2020-10-13T09:21:11.000Z</time>
      </trkpt>
      <trkpt lat="44.52889" lon="6.14167">
        <ele>1229.4</ele>
        <time>2020-10-13T09:21:13.000Z</time>
      </trkpt>
      <trkpt lat="44.52882" lon="6.14169">
        <ele>1230.2</ele>
        <time>2020-10-13T09:21:16.659Z</time>
      </trkpt>
      <trkpt lat="44.52875" lon="6.1417">
        <ele>1231.2</ele>
        <time>2020-10-13T09:21:19.899Z</time>
      </trkpt>
      <trkpt lat="44.52869" lon="6.14171">
        <ele>1233.7</ele>
        <time>2020-10-13T09:21:22.420Z</time>
      </trkpt>
      <trkpt lat="44.52864" lon="6.14173">
        <ele>1233.9</ele>
        <time>2020-10-13T09:21:24.000Z</time>
      </trkpt>
      <trkpt lat="44.52859" lon="6.14173">
        <ele>1235.2</ele>
        <time>2020-10-13T09:21:27.603Z</time>
      </trkpt>
      <trkpt lat="44.52854" lon="6.14174">
        <ele>1237</ele>
        <time>2020-10-13T09:21:30.338Z</time>
      </trkpt>
      <trkpt lat="44.52849" lon="6.14173">
        <ele>1238.4</ele>
        <time>2020-10-13T09:21:32.000Z</time>
      </trkpt>
      <trkpt lat="44.52843" lon="6.14171">
        <ele>1238</ele>
        <time>2020-10-13T09:21:35.000Z</time>
      </trkpt>
      <trkpt lat="44.52839" lon="6.1417">
        <ele>1238.5</ele>
        <time>2020-10-13T09:21:38.144Z</time>
      </trkpt>
      <trkpt lat="44.52833" lon="6.14167">
        <ele>1240.5</ele>
        <time>2020-10-13T09:21:40.000Z</time>
      </trkpt>
      <trkpt lat="44.52828" lon="6.14167">
        <ele>1242.2</ele>
        <time>2020-10-13T09:21:43.824Z</time>
      </trkpt>
      <trkpt lat="44.5282" lon="6.14168">
        <ele>1245.6</ele>
        <time>2020-10-13T09:21:47.760Z</time>
      </trkpt>
      <trkpt lat="44.52815" lon="6.14169">
        <ele>1247.7</ele>
        <time>2020-10-13T09:21:49.359Z</time>
      </trkpt>
      <trkpt lat="44.52809" lon="6.14169">
        <ele>1248.5</ele>
        <time>2020-10-13T09:21:50.875Z</time>
      </trkpt>
      <trkpt lat="44.52805" lon="6.14171">
        <ele>1248</ele>
        <time>2020-10-13T09:21:52.317Z</time>
      </trkpt>
      <trkpt lat="44.52799" lon="6.14172">
        <ele>1247.9</ele>
        <time>2020-10-13T09:21:54.798Z</time>
      </trkpt>
      <trkpt lat="44.52795" lon="6.14173">
        <ele>1247.9</ele>
        <time>2020-10-13T09:21:56.000Z</time>
      </trkpt>
      <trkpt lat="44.52788" lon="6.14174">
        <ele>1247.7</ele>
        <time>2020-10-13T09:22:00.659Z</time>
      </trkpt>
      <trkpt lat="44.52782" lon="6.14174">
        <ele>1248.2</ele>
        <time>2020-10-13T09:22:03.636Z</time>
      </trkpt>
      <trkpt lat="44.52777" lon="6.14174">
        <ele>1252</ele>
        <time>2020-10-13T09:22:07.000Z</time>
      </trkpt>
      <trkpt lat="44.52772" lon="6.14173">
        <ele>1253.5</ele>
        <time>2020-10-13T09:22:12.440Z</time>
      </trkpt>
      <trkpt lat="44.52767" lon="6.14167">
        <ele>1257</ele>
        <time>2020-10-13T09:22:16.918Z</time>
      </trkpt>
      <trkpt lat="44.52763" lon="6.1416">
        <ele>1258.3</ele>
        <time>2020-10-13T09:22:21.000Z</time>
      </trkpt>
      <trkpt lat="44.52758" lon="6.14156">
        <ele>1259</ele>
        <time>2020-10-13T09:22:25.000Z</time>
      </trkpt>
      <trkpt lat="44.52754" lon="6.1415">
        <ele>1260.4</ele>
        <time>2020-10-13T09:22:29.000Z</time>
      </trkpt>
      <trkpt lat="44.52751" lon="6.14145">
        <ele>1260</ele>
        <time>2020-10-13T09:22:33.736Z</time>
      </trkpt>
      <trkpt lat="44.52745" lon="6.14138">
        <ele>1259.7</ele>
        <time>2020-10-13T09:22:36.841Z</time>
      </trkpt>
      <trkpt lat="44.5274" lon="6.14131">
        <ele>1261.6</ele>
        <time>2020-10-13T09:22:39.134Z</time>
      </trkpt>
      <trkpt lat="44.52735" lon="6.14123">
        <ele>1262.6</ele>
        <time>2020-10-13T09:22:42.318Z</time>
      </trkpt>
      <trkpt lat="44.5273" lon="6.14118">
        <ele>1263.7</ele>
        <time>2020-10-13T09:22:44.741Z</time>
      </trkpt>
      <trkpt lat="44.52726" lon="6.14111">
        <ele>1265.2</ele>
        <time>2020-10-13T09:22:48.539Z</time>
      </trkpt>
      <trkpt lat="44.52725" lon="6.14104">
        <ele>1264.7</ele>
        <time>2020-10-13T09:22:50.967Z</time>
      </trkpt>
      <trkpt lat="44.52724" lon="6.14097">
        <ele>1267.3</ele>
        <time>2020-10-13T09:22:53.000Z</time>
      </trkpt>
      <trkpt lat="44.52724" lon="6.1409">
        <ele>1267.3</ele>
        <time>2020-10-13T09:22:56.575Z</time>
      </trkpt>
      <trkpt lat="44.5272" lon="6.14077">
        <ele>1268.1</ele>
        <time>2020-10-13T09:22:59.484Z</time>
      </trkpt>
      <trkpt lat="44.52717" lon="6.14071">
        <ele>1267</ele>
        <time>2020-10-13T09:23:01.985Z</time>
      </trkpt>
      <trkpt lat="44.52714" lon="6.14063">
        <ele>1267.5</ele>
        <time>2020-10-13T09:23:05.315Z</time>
      </trkpt>
      <trkpt lat="44.52712" lon="6.14054">
        <ele>1267.9</ele>
        <time>2020-10-13T09:23:10.921Z</time>
      </trkpt>
      <trkpt lat="44.52711" lon="6.14047">
        <ele>1268.2</ele>
        <time>2020-10-13T09:23:14.000Z</time>
      </trkpt>
      <trkpt lat="44.52712" lon="6.14038">
        <ele>1271.3</ele>
        <time>2020-10-13T09:23:17.699Z</time>
      </trkpt>
      <trkpt lat="44.5271" lon="6.1403">
        <ele>1274.7</ele>
        <time>2020-10-13T09:23:20.160Z</time>
      </trkpt>
      <trkpt lat="44.52708" lon="6.14024">
        <ele>1275.2</ele>
        <time>2020-10-13T09:23:22.000Z</time>
      </trkpt>
      <trkpt lat="44.52705" lon="6.14019">
        <ele>1275.4</ele>
        <time>2020-10-13T09:23:25.276Z</time>
      </trkpt>
      <trkpt lat="44.527" lon="6.14013">
        <ele>1273.4</ele>
        <time>2020-10-13T09:23:27.000Z</time>
      </trkpt>
      <trkpt lat="44.52697" lon="6.14009">
        <ele>1275.6</ele>
        <time>2020-10-13T09:23:29.000Z</time>
      </trkpt>
      <trkpt lat="44.52692" lon="6.14003">
        <ele>1275.8</ele>
        <time>2020-10-13T09:23:33.000Z</time>
      </trkpt>
      <trkpt lat="44.52685" lon="6.13997">
        <ele>1276.3</ele>
        <time>2020-10-13T09:23:37.521Z</time>
      </trkpt>
      <trkpt lat="44.52679" lon="6.13991">
        <ele>1274.7</ele>
        <time>2020-10-13T09:23:40.477Z</time>
      </trkpt>
      <trkpt lat="44.52672" lon="6.13986">
        <ele>1275.4</ele>
        <time>2020-10-13T09:23:43.000Z</time>
      </trkpt>
      <trkpt lat="44.52665" lon="6.13982">
        <ele>1275.4</ele>
        <time>2020-10-13T09:23:46.558Z</time>
      </trkpt>
      <trkpt lat="44.52661" lon="6.13979">
        <ele>1275.9</ele>
        <time>2020-10-13T09:23:47.972Z</time>
      </trkpt>
      <trkpt lat="44.52657" lon="6.13973">
        <ele>1276.5</ele>
        <time>2020-10-13T09:23:49.575Z</time>
      </trkpt>
      <trkpt lat="44.52653" lon="6.13967">
        <ele>1275.7</ele>
        <time>2020-10-13T09:23:50.854Z</time>
      </trkpt>
      <trkpt lat="44.5265" lon="6.13962">
        <ele>1275.9</ele>
        <time>2020-10-13T09:23:51.000Z</time>
      </trkpt>
      <trkpt lat="44.52646" lon="6.13952">
        <ele>1277.8</ele>
        <time>2020-10-13T09:23:54.637Z</time>
      </trkpt>
      <trkpt lat="44.52643" lon="6.13945">
        <ele>1280</ele>
        <time>2020-10-13T09:23:56.363Z</time>
      </trkpt>
      <trkpt lat="44.52641" lon="6.13938">
        <ele>1280.2</ele>
        <time>2020-10-13T09:23:57.840Z</time>
      </trkpt>
      <trkpt lat="44.52637" lon="6.13929">
        <ele>1284.2</ele>
        <time>2020-10-13T09:23:59.000Z</time>
      </trkpt>
      <trkpt lat="44.52634" lon="6.13917">
        <ele>1282.6</ele>
        <time>2020-10-13T09:24:02.841Z</time>
      </trkpt>
      <trkpt lat="44.52634" lon="6.13909">
        <ele>1284.7</ele>
        <time>2020-10-13T09:24:04.379Z</time>
      </trkpt>
      <trkpt lat="44.52631" lon="6.13896">
        <ele>1284.4</ele>
        <time>2020-10-13T09:24:06.000Z</time>
      </trkpt>
      <trkpt lat="44.5263" lon="6.13889">
        <ele>1284.5</ele>
        <time>2020-10-13T09:24:08.316Z</time>
      </trkpt>
      <trkpt lat="44.52628" lon="6.13882">
        <ele>1284.5</ele>
        <time>2020-10-13T09:24:09.000Z</time>
      </trkpt>
      <trkpt lat="44.52626" lon="6.13868">
        <ele>1284</ele>
        <time>2020-10-13T09:24:12.000Z</time>
      </trkpt>
      <trkpt lat="44.52624" lon="6.13861">
        <ele>1283.4</ele>
        <time>2020-10-13T09:24:14.279Z</time>
      </trkpt>
      <trkpt lat="44.52613" lon="6.13845">
        <ele>1282.1</ele>
        <time>2020-10-13T09:24:15.000Z</time>
      </trkpt>
      <trkpt lat="44.52605" lon="6.13836">
        <ele>1281.9</ele>
        <time>2020-10-13T09:24:16.000Z</time>
      </trkpt>
      <trkpt lat="44.52588" lon="6.1382">
        <ele>1280.1</ele>
        <time>2020-10-13T09:24:18.000Z</time>
      </trkpt>
      <trkpt lat="44.5258" lon="6.13814">
        <ele>1280.2</ele>
        <time>2020-10-13T09:24:19.000Z</time>
      </trkpt>
      <trkpt lat="44.52572" lon="6.13808">
        <ele>1279.7</ele>
        <time>2020-10-13T09:24:20.000Z</time>
      </trkpt>
      <trkpt lat="44.52566" lon="6.13804">
        <ele>1279.7</ele>
        <time>2020-10-13T09:24:21.000Z</time>
      </trkpt>
      <trkpt lat="44.52561" lon="6.13801">
        <ele>1281.5</ele>
        <time>2020-10-13T09:24:22.000Z</time>
      </trkpt>
      <trkpt lat="44.52553" lon="6.13798">
        <ele>1280.4</ele>
        <time>2020-10-13T09:24:24.751Z</time>
      </trkpt>
      <trkpt lat="44.52549" lon="6.13792">
        <ele>1280.3</ele>
        <time>2020-10-13T09:24:25.000Z</time>
      </trkpt>
      <trkpt lat="44.52543" lon="6.13788">
        <ele>1279.3</ele>
        <time>2020-10-13T09:24:28.491Z</time>
      </trkpt>
      <trkpt lat="44.52537" lon="6.13784">
        <ele>1276.7</ele>
        <time>2020-10-13T09:24:31.192Z</time>
      </trkpt>
      <trkpt lat="44.52529" lon="6.13779">
        <ele>1277.5</ele>
        <time>2020-10-13T09:24:33.000Z</time>
      </trkpt>
      <trkpt lat="44.52521" lon="6.13774">
        <ele>1278.1</ele>
        <time>2020-10-13T09:24:36.000Z</time>
      </trkpt>
      <trkpt lat="44.52515" lon="6.13772">
        <ele>1277.5</ele>
        <time>2020-10-13T09:24:39.000Z</time>
      </trkpt>
      <trkpt lat="44.52511" lon="6.1377">
        <ele>1278.5</ele>
        <time>2020-10-13T09:24:42.000Z</time>
      </trkpt>
      <trkpt lat="44.52506" lon="6.13767">
        <ele>1277.2</ele>
        <time>2020-10-13T09:24:45.000Z</time>
      </trkpt>
      <trkpt lat="44.52501" lon="6.13763">
        <ele>1277.4</ele>
        <time>2020-10-13T09:24:48.000Z</time>
      </trkpt>
      <trkpt lat="44.52494" lon="6.13759">
        <ele>1276.9</ele>
        <time>2020-10-13T09:24:52.975Z</time>
      </trkpt>
      <trkpt lat="44.52487" lon="6.13756">
        <ele>1274.2</ele>
        <time>2020-10-13T09:24:55.000Z</time>
      </trkpt>
      <trkpt lat="44.52483" lon="6.1375">
        <ele>1273.8</ele>
        <time>2020-10-13T09:24:58.851Z</time>
      </trkpt>
      <trkpt lat="44.52479" lon="6.13744">
        <ele>1272.8</ele>
        <time>2020-10-13T09:25:01.000Z</time>
      </trkpt>
      <trkpt lat="44.52474" lon="6.13739">
        <ele>1273.8</ele>
        <time>2020-10-13T09:25:05.599Z</time>
      </trkpt>
      <trkpt lat="44.5247" lon="6.13736">
        <ele>1272.8</ele>
        <time>2020-10-13T09:25:08.182Z</time>
      </trkpt>
      <trkpt lat="44.52465" lon="6.13732">
        <ele>1274.9</ele>
        <time>2020-10-13T09:25:12.869Z</time>
      </trkpt>
      <trkpt lat="44.52458" lon="6.13729">
        <ele>1279.1</ele>
        <time>2020-10-13T09:25:16.000Z</time>
      </trkpt>
      <trkpt lat="44.52451" lon="6.13724">
        <ele>1278.7</ele>
        <time>2020-10-13T09:25:21.611Z</time>
      </trkpt>
      <trkpt lat="44.52447" lon="6.13719">
        <ele>1280.5</ele>
        <time>2020-10-13T09:25:24.034Z</time>
      </trkpt>
      <trkpt lat="44.52446" lon="6.13713">
        <ele>1282.6</ele>
        <time>2020-10-13T09:25:28.258Z</time>
      </trkpt>
      <trkpt lat="44.52444" lon="6.13707">
        <ele>1283.1</ele>
        <time>2020-10-13T09:25:37.118Z</time>
      </trkpt>
      <trkpt lat="44.52445" lon="6.13698">
        <ele>1281.4</ele>
        <time>2020-10-13T09:25:42.832Z</time>
      </trkpt>
      <trkpt lat="44.52445" lon="6.13689">
        <ele>1283.2</ele>
        <time>2020-10-13T09:25:47.000Z</time>
      </trkpt>
      <trkpt lat="44.52443" lon="6.13683">
        <ele>1284.5</ele>
        <time>2020-10-13T09:25:51.414Z</time>
      </trkpt>
      <trkpt lat="44.52441" lon="6.13674">
        <ele>1284.9</ele>
        <time>2020-10-13T09:25:55.116Z</time>
      </trkpt>
      <trkpt lat="44.52441" lon="6.13667">
        <ele>1284.5</ele>
        <time>2020-10-13T09:25:57.636Z</time>
      </trkpt>
      <trkpt lat="44.52439" lon="6.1366">
        <ele>1284.8</ele>
        <time>2020-10-13T09:26:00.000Z</time>
      </trkpt>
      <trkpt lat="44.52436" lon="6.13651">
        <ele>1287.1</ele>
        <time>2020-10-13T09:26:05.000Z</time>
      </trkpt>
      <trkpt lat="44.52434" lon="6.13645">
        <ele>1289</ele>
        <time>2020-10-13T09:26:08.583Z</time>
      </trkpt>
      <trkpt lat="44.52434" lon="6.13636">
        <ele>1290.1</ele>
        <time>2020-10-13T09:26:12.360Z</time>
      </trkpt>
      <trkpt lat="44.52434" lon="6.13629">
        <ele>1290.3</ele>
        <time>2020-10-13T09:26:14.631Z</time>
      </trkpt>
      <trkpt lat="44.52434" lon="6.13621">
        <ele>1290.4</ele>
        <time>2020-10-13T09:26:16.972Z</time>
      </trkpt>
      <trkpt lat="44.52433" lon="6.13614">
        <ele>1293.7</ele>
        <time>2020-10-13T09:26:19.000Z</time>
      </trkpt>
      <trkpt lat="44.52433" lon="6.13605">
        <ele>1295.1</ele>
        <time>2020-10-13T09:26:22.341Z</time>
      </trkpt>
      <trkpt lat="44.5243" lon="6.13599">
        <ele>1299.1</ele>
        <time>2020-10-13T09:26:24.000Z</time>
      </trkpt>
      <trkpt lat="44.5243" lon="6.13591">
        <ele>1304.4</ele>
        <time>2020-10-13T09:26:29.000Z</time>
      </trkpt>
      <trkpt lat="44.5243" lon="6.13585">
        <ele>1302.2</ele>
        <time>2020-10-13T09:26:35.000Z</time>
      </trkpt>
      <trkpt lat="44.52426" lon="6.13588">
        <ele>1304.7</ele>
        <time>2020-10-13T09:26:46.961Z</time>
      </trkpt>
      <trkpt lat="44.52421" lon="6.13591">
        <ele>1305.5</ele>
        <time>2020-10-13T09:26:51.000Z</time>
      </trkpt>
      <trkpt lat="44.52418" lon="6.13599">
        <ele>1305.2</ele>
        <time>2020-10-13T09:26:54.634Z</time>
      </trkpt>
      <trkpt lat="44.52413" lon="6.13608">
        <ele>1304.5</ele>
        <time>2020-10-13T09:26:56.000Z</time>
      </trkpt>
      <trkpt lat="44.52409" lon="6.13614">
        <ele>1303.4</ele>
        <time>2020-10-13T09:26:58.257Z</time>
      </trkpt>
      <trkpt lat="44.52403" lon="6.13621">
        <ele>1303.3</ele>
        <time>2020-10-13T09:26:59.755Z</time>
      </trkpt>
      <trkpt lat="44.52399" lon="6.13626">
        <ele>1302.2</ele>
        <time>2020-10-13T09:27:00.000Z</time>
      </trkpt>
      <trkpt lat="44.52393" lon="6.13635">
        <ele>1303.1</ele>
        <time>2020-10-13T09:27:02.000Z</time>
      </trkpt>
      <trkpt lat="44.52385" lon="6.13644">
        <ele>1305.3</ele>
        <time>2020-10-13T09:27:05.259Z</time>
      </trkpt>
      <trkpt lat="44.52381" lon="6.1365">
        <ele>1305.6</ele>
        <time>2020-10-13T09:27:06.621Z</time>
      </trkpt>
      <trkpt lat="44.52378" lon="6.13655">
        <ele>1307.5</ele>
        <time>2020-10-13T09:27:07.918Z</time>
      </trkpt>
      <trkpt lat="44.52376" lon="6.1366">
        <ele>1308.5</ele>
        <time>2020-10-13T09:27:08.930Z</time>
      </trkpt>
      <trkpt lat="44.52371" lon="6.13671">
        <ele>1309.4</ele>
        <time>2020-10-13T09:27:10.000Z</time>
      </trkpt>
      <trkpt lat="44.52367" lon="6.13678">
        <ele>1309.6</ele>
        <time>2020-10-13T09:27:12.414Z</time>
      </trkpt>
      <trkpt lat="44.52364" lon="6.13685">
        <ele>1311.1</ele>
        <time>2020-10-13T09:27:13.929Z</time>
      </trkpt>
      <trkpt lat="44.5236" lon="6.13691">
        <ele>1311.1</ele>
        <time>2020-10-13T09:27:15.231Z</time>
      </trkpt>
      <trkpt lat="44.52356" lon="6.13697">
        <ele>1310.6</ele>
        <time>2020-10-13T09:27:16.599Z</time>
      </trkpt>
      <trkpt lat="44.52353" lon="6.13704">
        <ele>1310.9</ele>
        <time>2020-10-13T09:27:17.897Z</time>
      </trkpt>
      <trkpt lat="44.52347" lon="6.13716">
        <ele>1311.3</ele>
        <time>2020-10-13T09:27:20.175Z</time>
      </trkpt>
      <trkpt lat="44.52345" lon="6.13723">
        <ele>1310.9</ele>
        <time>2020-10-13T09:27:21.391Z</time>
      </trkpt>
      <trkpt lat="44.52343" lon="6.13731">
        <ele>1310.7</ele>
        <time>2020-10-13T09:27:22.635Z</time>
      </trkpt>
      <trkpt lat="44.52339" lon="6.13741">
        <ele>1312.4</ele>
        <time>2020-10-13T09:27:24.913Z</time>
      </trkpt>
      <trkpt lat="44.52333" lon="6.13761">
        <ele>1312.7</ele>
        <time>2020-10-13T09:27:28.514Z</time>
      </trkpt>
      <trkpt lat="44.52331" lon="6.13769">
        <ele>1314.3</ele>
        <time>2020-10-13T09:27:29.853Z</time>
      </trkpt>
      <trkpt lat="44.52329" lon="6.13775">
        <ele>1315.4</ele>
        <time>2020-10-13T09:27:30.956Z</time>
      </trkpt>
      <trkpt lat="44.52326" lon="6.13784">
        <ele>1317</ele>
        <time>2020-10-13T09:27:32.600Z</time>
      </trkpt>
      <trkpt lat="44.52324" lon="6.13791">
        <ele>1317.1</ele>
        <time>2020-10-13T09:27:33.634Z</time>
      </trkpt>
      <trkpt lat="44.52322" lon="6.13798">
        <ele>1316.6</ele>
        <time>2020-10-13T09:27:34.698Z</time>
      </trkpt>
      <trkpt lat="44.5232" lon="6.13804">
        <ele>1317</ele>
        <time>2020-10-13T09:27:35.000Z</time>
      </trkpt>
      <trkpt lat="44.52316" lon="6.13815">
        <ele>1315.9</ele>
        <time>2020-10-13T09:27:38.515Z</time>
      </trkpt>
      <trkpt lat="44.52314" lon="6.13823">
        <ele>1314.8</ele>
        <time>2020-10-13T09:27:39.000Z</time>
      </trkpt>
      <trkpt lat="44.52312" lon="6.13832">
        <ele>1314.6</ele>
        <time>2020-10-13T09:27:41.493Z</time>
      </trkpt>
      <trkpt lat="44.52307" lon="6.13844">
        <ele>1311.1</ele>
        <time>2020-10-13T09:27:42.000Z</time>
      </trkpt>
      <trkpt lat="44.52307" lon="6.13853">
        <ele>1310.3</ele>
        <time>2020-10-13T09:27:44.000Z</time>
      </trkpt>
      <trkpt lat="44.52301" lon="6.13871">
        <ele>1310.2</ele>
        <time>2020-10-13T09:27:47.000Z</time>
      </trkpt>
      <trkpt lat="44.523" lon="6.13884">
        <ele>1309.5</ele>
        <time>2020-10-13T09:27:50.404Z</time>
      </trkpt>
      <trkpt lat="44.52301" lon="6.13892">
        <ele>1308.8</ele>
        <time>2020-10-13T09:27:51.000Z</time>
      </trkpt>
      <trkpt lat="44.52303" lon="6.1391">
        <ele>1308.9</ele>
        <time>2020-10-13T09:27:53.000Z</time>
      </trkpt>
      <trkpt lat="44.52305" lon="6.13932">
        <ele>1307.8</ele>
        <time>2020-10-13T09:27:55.000Z</time>
      </trkpt>
      <trkpt lat="44.52304" lon="6.13943">
        <ele>1308.2</ele>
        <time>2020-10-13T09:27:56.000Z</time>
      </trkpt>
      <trkpt lat="44.52303" lon="6.13954">
        <ele>1308.7</ele>
        <time>2020-10-13T09:27:57.000Z</time>
      </trkpt>
      <trkpt lat="44.52303" lon="6.13966">
        <ele>1308.2</ele>
        <time>2020-10-13T09:27:58.000Z</time>
      </trkpt>
      <trkpt lat="44.52302" lon="6.13977">
        <ele>1307.4</ele>
        <time>2020-10-13T09:28:00.678Z</time>
      </trkpt>
      <trkpt lat="44.52296" lon="6.13984">
        <ele>1303.3</ele>
        <time>2020-10-13T09:28:01.000Z</time>
      </trkpt>
      <trkpt lat="44.5229" lon="6.13993">
        <ele>1301.8</ele>
        <time>2020-10-13T09:28:02.000Z</time>
      </trkpt>
      <trkpt lat="44.52278" lon="6.14012">
        <ele>1302.1</ele>
        <time>2020-10-13T09:28:04.000Z</time>
      </trkpt>
      <trkpt lat="44.52275" lon="6.14018">
        <ele>1300.9</ele>
        <time>2020-10-13T09:28:05.000Z</time>
      </trkpt>
      <trkpt lat="44.5227" lon="6.14024">
        <ele>1299.5</ele>
        <time>2020-10-13T09:28:06.000Z</time>
      </trkpt>
      <trkpt lat="44.52265" lon="6.1403">
        <ele>1298.3</ele>
        <time>2020-10-13T09:28:07.000Z</time>
      </trkpt>
      <trkpt lat="44.52257" lon="6.1404">
        <ele>1296</ele>
        <time>2020-10-13T09:28:09.000Z</time>
      </trkpt>
      <trkpt lat="44.52251" lon="6.14047">
        <ele>1294.2</ele>
        <time>2020-10-13T09:28:12.000Z</time>
      </trkpt>
      <trkpt lat="44.52249" lon="6.14052">
        <ele>1292.3</ele>
        <time>2020-10-13T09:28:14.153Z</time>
      </trkpt>
      <trkpt lat="44.52244" lon="6.14059">
        <ele>1291.7</ele>
        <time>2020-10-13T09:28:16.000Z</time>
      </trkpt>
      <trkpt lat="44.52239" lon="6.14064">
        <ele>1289.9</ele>
        <time>2020-10-13T09:28:19.570Z</time>
      </trkpt>
      <trkpt lat="44.52235" lon="6.14069">
        <ele>1288</ele>
        <time>2020-10-13T09:28:22.307Z</time>
      </trkpt>
      <trkpt lat="44.5223" lon="6.14075">
        <ele>1287</ele>
        <time>2020-10-13T09:28:25.549Z</time>
      </trkpt>
      <trkpt lat="44.52226" lon="6.1408">
        <ele>1284.6</ele>
        <time>2020-10-13T09:28:30.548Z</time>
      </trkpt>
      <trkpt lat="44.52222" lon="6.14085">
        <ele>1284.3</ele>
        <time>2020-10-13T09:28:38.000Z</time>
      </trkpt>
      <trkpt lat="44.52218" lon="6.1409">
        <ele>1284.3</ele>
        <time>2020-10-13T09:28:46.000Z</time>
      </trkpt>
      <trkpt lat="44.52216" lon="6.14098">
        <ele>1282.1</ele>
        <time>2020-10-13T09:29:00.000Z</time>
      </trkpt>
      <trkpt lat="44.52215" lon="6.14105">
        <ele>1280.4</ele>
        <time>2020-10-13T09:29:05.000Z</time>
      </trkpt>
      <trkpt lat="44.52214" lon="6.14112">
        <ele>1277.2</ele>
        <time>2020-10-13T09:29:09.671Z</time>
      </trkpt>
      <trkpt lat="44.52216" lon="6.14121">
        <ele>1275.6</ele>
        <time>2020-10-13T09:29:12.725Z</time>
      </trkpt>
      <trkpt lat="44.52215" lon="6.14128">
        <ele>1274.7</ele>
        <time>2020-10-13T09:29:15.581Z</time>
      </trkpt>
      <trkpt lat="44.52218" lon="6.14139">
        <ele>1271.6</ele>
        <time>2020-10-13T09:29:18.569Z</time>
      </trkpt>
      <trkpt lat="44.5222" lon="6.14145">
        <ele>1268.9</ele>
        <time>2020-10-13T09:29:19.000Z</time>
      </trkpt>
      <trkpt lat="44.52225" lon="6.14153">
        <ele>1267.8</ele>
        <time>2020-10-13T09:29:22.864Z</time>
      </trkpt>
      <trkpt lat="44.52226" lon="6.14161">
        <ele>1263.8</ele>
        <time>2020-10-13T09:29:25.704Z</time>
      </trkpt>
      <trkpt lat="44.52224" lon="6.1417">
        <ele>1261.6</ele>
        <time>2020-10-13T09:29:28.243Z</time>
      </trkpt>
      <trkpt lat="44.52224" lon="6.14176">
        <ele>1261.6</ele>
        <time>2020-10-13T09:29:29.829Z</time>
      </trkpt>
      <trkpt lat="44.52224" lon="6.14187">
        <ele>1256.8</ele>
        <time>2020-10-13T09:29:31.000Z</time>
      </trkpt>
      <trkpt lat="44.52221" lon="6.14198">
        <ele>1255.3</ele>
        <time>2020-10-13T09:29:33.422Z</time>
      </trkpt>
      <trkpt lat="44.52219" lon="6.14205">
        <ele>1255.3</ele>
        <time>2020-10-13T09:29:34.743Z</time>
      </trkpt>
      <trkpt lat="44.52216" lon="6.1421">
        <ele>1254.7</ele>
        <time>2020-10-13T09:29:35.000Z</time>
      </trkpt>
      <trkpt lat="44.52211" lon="6.14216">
        <ele>1253.5</ele>
        <time>2020-10-13T09:29:37.573Z</time>
      </trkpt>
      <trkpt lat="44.522" lon="6.14222">
        <ele>1254</ele>
        <time>2020-10-13T09:29:38.000Z</time>
      </trkpt>
      <trkpt lat="44.52196" lon="6.14224">
        <ele>1254.2</ele>
        <time>2020-10-13T09:29:39.000Z</time>
      </trkpt>
      <trkpt lat="44.52182" lon="6.14232">
        <ele>1250.6</ele>
        <time>2020-10-13T09:29:41.000Z</time>
      </trkpt>
      <trkpt lat="44.52177" lon="6.14241">
        <ele>1246.3</ele>
        <time>2020-10-13T09:29:44.000Z</time>
      </trkpt>
      <trkpt lat="44.52169" lon="6.14253">
        <ele>1243.8</ele>
        <time>2020-10-13T09:29:46.000Z</time>
      </trkpt>
      <trkpt lat="44.52164" lon="6.1426">
        <ele>1244</ele>
        <time>2020-10-13T09:29:47.000Z</time>
      </trkpt>
      <trkpt lat="44.52153" lon="6.1427">
        <ele>1243.7</ele>
        <time>2020-10-13T09:29:49.000Z</time>
      </trkpt>
      <trkpt lat="44.52148" lon="6.14272">
        <ele>1241.9</ele>
        <time>2020-10-13T09:29:50.000Z</time>
      </trkpt>
      <trkpt lat="44.52142" lon="6.14278">
        <ele>1240.5</ele>
        <time>2020-10-13T09:29:52.000Z</time>
      </trkpt>
      <trkpt lat="44.52131" lon="6.14282">
        <ele>1238.7</ele>
        <time>2020-10-13T09:29:55.000Z</time>
      </trkpt>
      <trkpt lat="44.52125" lon="6.1428">
        <ele>1238.3</ele>
        <time>2020-10-13T09:29:57.000Z</time>
      </trkpt>
      <trkpt lat="44.5212" lon="6.14285">
        <ele>1238.7</ele>
        <time>2020-10-13T09:29:59.000Z</time>
      </trkpt>
      <trkpt lat="44.52116" lon="6.14288">
        <ele>1238.6</ele>
        <time>2020-10-13T09:30:01.000Z</time>
      </trkpt>
      <trkpt lat="44.5211" lon="6.1429">
        <ele>1238.8</ele>
        <time>2020-10-13T09:30:03.000Z</time>
      </trkpt>
      <trkpt lat="44.52103" lon="6.14296">
        <ele>1239.3</ele>
        <time>2020-10-13T09:30:06.402Z</time>
      </trkpt>
      <trkpt lat="44.52096" lon="6.14303">
        <ele>1236.2</ele>
        <time>2020-10-13T09:30:08.920Z</time>
      </trkpt>
      <trkpt lat="44.52089" lon="6.14308">
        <ele>1234</ele>
        <time>2020-10-13T09:30:11.767Z</time>
      </trkpt>
      <trkpt lat="44.52084" lon="6.14309">
        <ele>1233.2</ele>
        <time>2020-10-13T09:30:12.976Z</time>
      </trkpt>
      <trkpt lat="44.52078" lon="6.14312">
        <ele>1233.1</ele>
        <time>2020-10-13T09:30:14.664Z</time>
      </trkpt>
      <trkpt lat="44.52059" lon="6.14313">
        <ele>1230.4</ele>
        <time>2020-10-13T09:30:16.000Z</time>
      </trkpt>
      <trkpt lat="44.52052" lon="6.14315">
        <ele>1229.5</ele>
        <time>2020-10-13T09:30:17.000Z</time>
      </trkpt>
      <trkpt lat="44.52047" lon="6.14316">
        <ele>1230.3</ele>
        <time>2020-10-13T09:30:18.000Z</time>
      </trkpt>
      <trkpt lat="44.52041" lon="6.14316">
        <ele>1230</ele>
        <time>2020-10-13T09:30:19.000Z</time>
      </trkpt>
      <trkpt lat="44.52029" lon="6.14313">
        <ele>1229.1</ele>
        <time>2020-10-13T09:30:21.000Z</time>
      </trkpt>
      <trkpt lat="44.52023" lon="6.14312">
        <ele>1229.4</ele>
        <time>2020-10-13T09:30:22.000Z</time>
      </trkpt>
      <trkpt lat="44.52013" lon="6.14311">
        <ele>1227.4</ele>
        <time>2020-10-13T09:30:24.000Z</time>
      </trkpt>
      <trkpt lat="44.52001" lon="6.14313">
        <ele>1224.1</ele>
        <time>2020-10-13T09:30:27.000Z</time>
      </trkpt>
      <trkpt lat="44.51996" lon="6.14317">
        <ele>1222.8</ele>
        <time>2020-10-13T09:30:28.000Z</time>
      </trkpt>
      <trkpt lat="44.51992" lon="6.14323">
        <ele>1223.3</ele>
        <time>2020-10-13T09:30:29.000Z</time>
      </trkpt>
      <trkpt lat="44.51986" lon="6.14333">
        <ele>1223.9</ele>
        <time>2020-10-13T09:30:31.000Z</time>
      </trkpt>
      <trkpt lat="44.51982" lon="6.14336">
        <ele>1223.8</ele>
        <time>2020-10-13T09:30:32.000Z</time>
      </trkpt>
      <trkpt lat="44.51977" lon="6.1434">
        <ele>1224.3</ele>
        <time>2020-10-13T09:30:33.000Z</time>
      </trkpt>
      <trkpt lat="44.51971" lon="6.14344">
        <ele>1223.6</ele>
        <time>2020-10-13T09:30:34.000Z</time>
      </trkpt>
      <trkpt lat="44.51958" lon="6.14353">
        <ele>1222.7</ele>
        <time>2020-10-13T09:30:36.000Z</time>
      </trkpt>
      <trkpt lat="44.51951" lon="6.14357">
        <ele>1222.3</ele>
        <time>2020-10-13T09:30:37.000Z</time>
      </trkpt>
      <trkpt lat="44.51944" lon="6.14361">
        <ele>1220.4</ele>
        <time>2020-10-13T09:30:38.000Z</time>
      </trkpt>
      <trkpt lat="44.51934" lon="6.14368">
        <ele>1219.3</ele>
        <time>2020-10-13T09:30:40.000Z</time>
      </trkpt>
      <trkpt lat="44.51929" lon="6.1437">
        <ele>1215.9</ele>
        <time>2020-10-13T09:30:43.000Z</time>
      </trkpt>
      <trkpt lat="44.51928" lon="6.14377">
        <ele>1216.1</ele>
        <time>2020-10-13T09:30:49.000Z</time>
      </trkpt>
      <trkpt lat="44.51929" lon="6.14384">
        <ele>1215.2</ele>
        <time>2020-10-13T09:30:53.500Z</time>
      </trkpt>
      <trkpt lat="44.51928" lon="6.14391">
        <ele>1211</ele>
        <time>2020-10-13T09:30:59.000Z</time>
      </trkpt>
      <trkpt lat="44.51924" lon="6.1439">
        <ele>1209.9</ele>
        <time>2020-10-13T09:31:05.000Z</time>
      </trkpt>
      <trkpt lat="44.51923" lon="6.14397">
        <ele>1207.9</ele>
        <time>2020-10-13T09:31:14.000Z</time>
      </trkpt>
      <trkpt lat="44.51919" lon="6.14401">
        <ele>1196.3</ele>
        <time>2020-10-13T09:31:51.778Z</time>
      </trkpt>
      <trkpt lat="44.51916" lon="6.14396">
        <ele>1190.5</ele>
        <time>2020-10-13T09:32:01.000Z</time>
      </trkpt>
      <trkpt lat="44.51915" lon="6.14402">
        <ele>1185.8</ele>
        <time>2020-10-13T09:32:28.000Z</time>
      </trkpt>
      <trkpt lat="44.51913" lon="6.14408">
        <ele>1181.4</ele>
        <time>2020-10-13T09:32:36.000Z</time>
      </trkpt>
      <trkpt lat="44.51908" lon="6.14408">
        <ele>1181.8</ele>
        <time>2020-10-13T09:32:44.960Z</time>
      </trkpt>
      <trkpt lat="44.51904" lon="6.14412">
        <ele>1174.2</ele>
        <time>2020-10-13T09:33:14.373Z</time>
      </trkpt>
      <trkpt lat="44.51901" lon="6.14416">
        <ele>1177.9</ele>
        <time>2020-10-13T09:33:42.000Z</time>
      </trkpt>
      <trkpt lat="44.51894" lon="6.14416">
        <ele>1176.2</ele>
        <time>2020-10-13T09:33:56.500Z</time>
      </trkpt>
      <trkpt lat="44.51889" lon="6.14412">
        <ele>1173.8</ele>
        <time>2020-10-13T09:33:58.000Z</time>
      </trkpt>
      <trkpt lat="44.51886" lon="6.14405">
        <ele>1173.8</ele>
        <time>2020-10-13T09:34:01.581Z</time>
      </trkpt>
      <trkpt lat="44.51882" lon="6.14395">
        <ele>1172.6</ele>
        <time>2020-10-13T09:34:04.256Z</time>
      </trkpt>
      <trkpt lat="44.51873" lon="6.1438">
        <ele>1170.1</ele>
        <time>2020-10-13T09:34:05.000Z</time>
      </trkpt>
      <trkpt lat="44.51867" lon="6.14377">
        <ele>1169.5</ele>
        <time>2020-10-13T09:34:16.000Z</time>
      </trkpt>
      <trkpt lat="44.51864" lon="6.14372">
        <ele>1168.6</ele>
        <time>2020-10-13T09:34:20.000Z</time>
      </trkpt>
      <trkpt lat="44.5186" lon="6.14368">
        <ele>1169.2</ele>
        <time>2020-10-13T09:34:24.000Z</time>
      </trkpt>
      <trkpt lat="44.51855" lon="6.14363">
        <ele>1170.6</ele>
        <time>2020-10-13T09:34:27.000Z</time>
      </trkpt>
      <trkpt lat="44.5185" lon="6.14358">
        <ele>1170.9</ele>
        <time>2020-10-13T09:34:29.000Z</time>
      </trkpt>
      <trkpt lat="44.51854" lon="6.14355">
        <ele>1170</ele>
        <time>2020-10-13T09:36:16.574Z</time>
      </trkpt>
      <trkpt lat="44.51853" lon="6.14342">
        <ele>1171.3</ele>
        <time>2020-10-13T09:36:20.847Z</time>
      </trkpt>
      <trkpt lat="44.5185" lon="6.14335">
        <ele>1171.8</ele>
        <time>2020-10-13T09:36:23.130Z</time>
      </trkpt>
      <trkpt lat="44.5185" lon="6.14326">
        <ele>1174</ele>
        <time>2020-10-13T09:36:25.828Z</time>
      </trkpt>
      <trkpt lat="44.5185" lon="6.1432">
        <ele>1174.1</ele>
        <time>2020-10-13T09:36:27.000Z</time>
      </trkpt>
      <trkpt lat="44.51851" lon="6.14307">
        <ele>1174.8</ele>
        <time>2020-10-13T09:36:30.000Z</time>
      </trkpt>
      <trkpt lat="44.51853" lon="6.14296">
        <ele>1172.8</ele>
        <time>2020-10-13T09:36:32.000Z</time>
      </trkpt>
      <trkpt lat="44.51854" lon="6.14278">
        <ele>1171.1</ele>
        <time>2020-10-13T09:36:35.000Z</time>
      </trkpt>
      <trkpt lat="44.51854" lon="6.14272">
        <ele>1171.8</ele>
        <time>2020-10-13T09:36:36.000Z</time>
      </trkpt>
      <trkpt lat="44.51853" lon="6.14257">
        <ele>1170.8</ele>
        <time>2020-10-13T09:36:39.934Z</time>
      </trkpt>
      <trkpt lat="44.51848" lon="6.1425">
        <ele>1168.5</ele>
        <time>2020-10-13T09:36:42.746Z</time>
      </trkpt>
      <trkpt lat="44.51843" lon="6.14251">
        <ele>1165.9</ele>
        <time>2020-10-13T09:36:45.000Z</time>
      </trkpt>
      <trkpt lat="44.51839" lon="6.14248">
        <ele>1156.9</ele>
        <time>2020-10-13T09:36:51.000Z</time>
      </trkpt>
      <trkpt lat="44.51838" lon="6.14238">
        <ele>1155.6</ele>
        <time>2020-10-13T09:36:56.902Z</time>
      </trkpt>
      <trkpt lat="44.51839" lon="6.1423">
        <ele>1151.9</ele>
        <time>2020-10-13T09:37:03.530Z</time>
      </trkpt>
      <trkpt lat="44.51841" lon="6.14221">
        <ele>1149.5</ele>
        <time>2020-10-13T09:37:06.000Z</time>
      </trkpt>
      <trkpt lat="44.51844" lon="6.14215">
        <ele>1144.7</ele>
        <time>2020-10-13T09:37:12.888Z</time>
      </trkpt>
      <trkpt lat="44.51845" lon="6.14208">
        <ele>1143.8</ele>
        <time>2020-10-13T09:37:16.000Z</time>
      </trkpt>
      <trkpt lat="44.5184" lon="6.14207">
        <ele>1150.5</ele>
        <time>2020-10-13T09:37:21.967Z</time>
      </trkpt>
      <trkpt lat="44.51843" lon="6.14201">
        <ele>1149.8</ele>
        <time>2020-10-13T09:37:24.000Z</time>
      </trkpt>
      <trkpt lat="44.51845" lon="6.14194">
        <ele>1148.9</ele>
        <time>2020-10-13T09:37:29.567Z</time>
      </trkpt>
      <trkpt lat="44.51846" lon="6.14186">
        <ele>1149.6</ele>
        <time>2020-10-13T09:37:33.547Z</time>
      </trkpt>
      <trkpt lat="44.51845" lon="6.14177">
        <ele>1149.6</ele>
        <time>2020-10-13T09:37:35.000Z</time>
      </trkpt>
      <trkpt lat="44.51845" lon="6.14169">
        <ele>1148.7</ele>
        <time>2020-10-13T09:37:38.000Z</time>
      </trkpt>
      <trkpt lat="44.51846" lon="6.1416">
        <ele>1149.3</ele>
        <time>2020-10-13T09:37:42.794Z</time>
      </trkpt>
      <trkpt lat="44.51849" lon="6.14152">
        <ele>1148.8</ele>
        <time>2020-10-13T09:37:46.555Z</time>
      </trkpt>
      <trkpt lat="44.51851" lon="6.14142">
        <ele>1148.6</ele>
        <time>2020-10-13T09:37:48.000Z</time>
      </trkpt>
      <trkpt lat="44.51854" lon="6.14133">
        <ele>1148.5</ele>
        <time>2020-10-13T09:37:51.145Z</time>
      </trkpt>
      <trkpt lat="44.51854" lon="6.14122">
        <ele>1148.8</ele>
        <time>2020-10-13T09:37:54.132Z</time>
      </trkpt>
      <trkpt lat="44.51854" lon="6.14115">
        <ele>1147.9</ele>
        <time>2020-10-13T09:37:56.485Z</time>
      </trkpt>
      <trkpt lat="44.51852" lon="6.14106">
        <ele>1146.7</ele>
        <time>2020-10-13T09:37:59.197Z</time>
      </trkpt>
      <trkpt lat="44.51849" lon="6.14098">
        <ele>1147.1</ele>
        <time>2020-10-13T09:38:01.566Z</time>
      </trkpt>
      <trkpt lat="44.51845" lon="6.14087">
        <ele>1148.2</ele>
        <time>2020-10-13T09:38:05.694Z</time>
      </trkpt>
      <trkpt lat="44.51844" lon="6.14077">
        <ele>1146.1</ele>
        <time>2020-10-13T09:38:08.355Z</time>
      </trkpt>
      <trkpt lat="44.51845" lon="6.14065">
        <ele>1145.1</ele>
        <time>2020-10-13T09:38:10.752Z</time>
      </trkpt>
      <trkpt lat="44.51845" lon="6.14054">
        <ele>1143.9</ele>
        <time>2020-10-13T09:38:12.000Z</time>
      </trkpt>
      <trkpt lat="44.51843" lon="6.14045">
        <ele>1144.5</ele>
        <time>2020-10-13T09:38:15.575Z</time>
      </trkpt>
      <trkpt lat="44.51842" lon="6.14038">
        <ele>1144.5</ele>
        <time>2020-10-13T09:38:17.000Z</time>
      </trkpt>
      <trkpt lat="44.51837" lon="6.14032">
        <ele>1144.7</ele>
        <time>2020-10-13T09:38:21.785Z</time>
      </trkpt>
      <trkpt lat="44.51827" lon="6.14014">
        <ele>1144.3</ele>
        <time>2020-10-13T09:38:23.000Z</time>
      </trkpt>
      <trkpt lat="44.51801" lon="6.13977">
        <ele>1142.6</ele>
        <time>2020-10-13T09:38:25.000Z</time>
      </trkpt>
      <trkpt lat="44.51787" lon="6.13959">
        <ele>1140.8</ele>
        <time>2020-10-13T09:38:26.000Z</time>
      </trkpt>
      <trkpt lat="44.51775" lon="6.13943">
        <ele>1140.4</ele>
        <time>2020-10-13T09:38:27.000Z</time>
      </trkpt>
      <trkpt lat="44.51763" lon="6.13931">
        <ele>1143.1</ele>
        <time>2020-10-13T09:38:28.000Z</time>
      </trkpt>
      <trkpt lat="44.51753" lon="6.13921">
        <ele>1139.6</ele>
        <time>2020-10-13T09:38:29.000Z</time>
      </trkpt>
      <trkpt lat="44.51732" lon="6.13905">
        <ele>1136.7</ele>
        <time>2020-10-13T09:38:31.000Z</time>
      </trkpt>
      <trkpt lat="44.51713" lon="6.13894">
        <ele>1135.3</ele>
        <time>2020-10-13T09:38:33.000Z</time>
      </trkpt>
      <trkpt lat="44.51705" lon="6.13892">
        <ele>1135.2</ele>
        <time>2020-10-13T09:38:34.000Z</time>
      </trkpt>
      <trkpt lat="44.51689" lon="6.13886">
        <ele>1136.2</ele>
        <time>2020-10-13T09:38:36.000Z</time>
      </trkpt>
      <trkpt lat="44.51681" lon="6.13884">
        <ele>1134.9</ele>
        <time>2020-10-13T09:38:37.000Z</time>
      </trkpt>
      <trkpt lat="44.51675" lon="6.13883">
        <ele>1133.3</ele>
        <time>2020-10-13T09:38:38.000Z</time>
      </trkpt>
      <trkpt lat="44.51662" lon="6.13886">
        <ele>1128.6</ele>
        <time>2020-10-13T09:38:40.000Z</time>
      </trkpt>
      <trkpt lat="44.51656" lon="6.13887">
        <ele>1131.1</ele>
        <time>2020-10-13T09:38:41.000Z</time>
      </trkpt>
      <trkpt lat="44.51649" lon="6.13886">
        <ele>1131.1</ele>
        <time>2020-10-13T09:38:43.000Z</time>
      </trkpt>
      <trkpt lat="44.51642" lon="6.13882">
        <ele>1131.2</ele>
        <time>2020-10-13T09:38:45.000Z</time>
      </trkpt>
      <trkpt lat="44.51633" lon="6.13881">
        <ele>1130.7</ele>
        <time>2020-10-13T09:38:48.000Z</time>
      </trkpt>
      <trkpt lat="44.51636" lon="6.13887">
        <ele>1131.3</ele>
        <time>2020-10-13T09:38:51.746Z</time>
      </trkpt>
      <trkpt lat="44.51633" lon="6.13894">
        <ele>1132</ele>
        <time>2020-10-13T09:38:56.309Z</time>
      </trkpt>
      <trkpt lat="44.51625" lon="6.13901">
        <ele>1132.2</ele>
        <time>2020-10-13T09:38:58.793Z</time>
      </trkpt>
      <trkpt lat="44.51608" lon="6.13908">
        <ele>1136.4</ele>
        <time>2020-10-13T09:39:01.000Z</time>
      </trkpt>
      <trkpt lat="44.516" lon="6.13912">
        <ele>1135.1</ele>
        <time>2020-10-13T09:39:03.522Z</time>
      </trkpt>
      <trkpt lat="44.51591" lon="6.13916">
        <ele>1135.1</ele>
        <time>2020-10-13T09:39:04.880Z</time>
      </trkpt>
      <trkpt lat="44.51582" lon="6.13922">
        <ele>1135.2</ele>
        <time>2020-10-13T09:39:06.000Z</time>
      </trkpt>
      <trkpt lat="44.51575" lon="6.13929">
        <ele>1136.1</ele>
        <time>2020-10-13T09:39:08.978Z</time>
      </trkpt>
      <trkpt lat="44.51571" lon="6.13932">
        <ele>1136.5</ele>
        <time>2020-10-13T09:39:10.000Z</time>
      </trkpt>
      <trkpt lat="44.51566" lon="6.13933">
        <ele>1133.8</ele>
        <time>2020-10-13T09:39:12.000Z</time>
      </trkpt>
      <trkpt lat="44.51561" lon="6.13936">
        <ele>1136.6</ele>
        <time>2020-10-13T09:39:16.000Z</time>
      </trkpt>
      <trkpt lat="44.51556" lon="6.1394">
        <ele>1137.1</ele>
        <time>2020-10-13T09:39:25.000Z</time>
      </trkpt>
      <trkpt lat="44.51552" lon="6.13943">
        <ele>1137.1</ele>
        <time>2020-10-13T09:39:28.000Z</time>
      </trkpt>
      <trkpt lat="44.51562" lon="6.13946">
        <ele>1137.6</ele>
        <time>2020-10-13T09:41:02.000Z</time>
      </trkpt>
      <trkpt lat="44.51563" lon="6.13954">
        <ele>1134.3</ele>
        <time>2020-10-13T09:41:06.450Z</time>
      </trkpt>
      <trkpt lat="44.5158" lon="6.13956">
        <ele>1130.1</ele>
        <time>2020-10-13T09:41:09.000Z</time>
      </trkpt>
      <trkpt lat="44.51602" lon="6.13955">
        <ele>1128.2</ele>
        <time>2020-10-13T09:41:11.000Z</time>
      </trkpt>
      <trkpt lat="44.51613" lon="6.13957">
        <ele>1126.9</ele>
        <time>2020-10-13T09:41:12.000Z</time>
      </trkpt>
      <trkpt lat="44.51628" lon="6.13965">
        <ele>1125</ele>
        <time>2020-10-13T09:41:14.000Z</time>
      </trkpt>
      <trkpt lat="44.51636" lon="6.13967">
        <ele>1123.8</ele>
        <time>2020-10-13T09:41:15.000Z</time>
      </trkpt>
      <trkpt lat="44.51641" lon="6.13969">
        <ele>1122.3</ele>
        <time>2020-10-13T09:41:16.000Z</time>
      </trkpt>
      <trkpt lat="44.51643" lon="6.13976">
        <ele>1123.7</ele>
        <time>2020-10-13T09:41:18.784Z</time>
      </trkpt>
      <trkpt lat="44.51647" lon="6.1398">
        <ele>1121.5</ele>
        <time>2020-10-13T09:41:20.363Z</time>
      </trkpt>
      <trkpt lat="44.51664" lon="6.13982">
        <ele>1121.7</ele>
        <time>2020-10-13T09:41:21.000Z</time>
      </trkpt>
      <trkpt lat="44.51677" lon="6.13985">
        <ele>1121.5</ele>
        <time>2020-10-13T09:41:23.000Z</time>
      </trkpt>
      <trkpt lat="44.51683" lon="6.13988">
        <ele>1121.5</ele>
        <time>2020-10-13T09:41:25.813Z</time>
      </trkpt>
      <trkpt lat="44.5169" lon="6.13991">
        <ele>1122.5</ele>
        <time>2020-10-13T09:41:27.459Z</time>
      </trkpt>
      <trkpt lat="44.51696" lon="6.13994">
        <ele>1122.7</ele>
        <time>2020-10-13T09:41:28.815Z</time>
      </trkpt>
      <trkpt lat="44.51703" lon="6.13997">
        <ele>1122.4</ele>
        <time>2020-10-13T09:41:31.010Z</time>
      </trkpt>
      <trkpt lat="44.51708" lon="6.13997">
        <ele>1123.6</ele>
        <time>2020-10-13T09:41:32.288Z</time>
      </trkpt>
      <trkpt lat="44.51714" lon="6.13997">
        <ele>1124</ele>
        <time>2020-10-13T09:41:34.000Z</time>
      </trkpt>
      <trkpt lat="44.51717" lon="6.14003">
        <ele>1121.3</ele>
        <time>2020-10-13T09:41:39.000Z</time>
      </trkpt>
      <trkpt lat="44.51717" lon="6.1401">
        <ele>1119</ele>
        <time>2020-10-13T09:41:44.948Z</time>
      </trkpt>
      <trkpt lat="44.51718" lon="6.14018">
        <ele>1115.9</ele>
        <time>2020-10-13T09:41:49.018Z</time>
      </trkpt>
      <trkpt lat="44.51718" lon="6.14024">
        <ele>1113.6</ele>
        <time>2020-10-13T09:41:52.991Z</time>
      </trkpt>
      <trkpt lat="44.5172" lon="6.1403">
        <ele>1111.1</ele>
        <time>2020-10-13T09:41:56.000Z</time>
      </trkpt>
      <trkpt lat="44.51718" lon="6.14036">
        <ele>1109.4</ele>
        <time>2020-10-13T09:41:59.000Z</time>
      </trkpt>
      <trkpt lat="44.51721" lon="6.14045">
        <ele>1107.3</ele>
        <time>2020-10-13T09:42:03.000Z</time>
      </trkpt>
      <trkpt lat="44.5172" lon="6.14051">
        <ele>1106.4</ele>
        <time>2020-10-13T09:42:08.000Z</time>
      </trkpt>
      <trkpt lat="44.51721" lon="6.14062">
        <ele>1098.4</ele>
        <time>2020-10-13T09:42:13.906Z</time>
      </trkpt>
      <trkpt lat="44.51722" lon="6.14074">
        <ele>1093.6</ele>
        <time>2020-10-13T09:42:16.000Z</time>
      </trkpt>
      <trkpt lat="44.51722" lon="6.14082">
        <ele>1094</ele>
        <time>2020-10-13T09:42:19.617Z</time>
      </trkpt>
      <trkpt lat="44.51721" lon="6.14146">
        <ele>1095.5</ele>
        <time>2020-10-13T09:42:22.000Z</time>
      </trkpt>
      <trkpt lat="44.51721" lon="6.14163">
        <ele>1096.2</ele>
        <time>2020-10-13T09:42:23.000Z</time>
      </trkpt>
      <trkpt lat="44.5172" lon="6.14179">
        <ele>1096.4</ele>
        <time>2020-10-13T09:42:24.000Z</time>
      </trkpt>
      <trkpt lat="44.51719" lon="6.14195">
        <ele>1096.7</ele>
        <time>2020-10-13T09:42:25.000Z</time>
      </trkpt>
      <trkpt lat="44.51716" lon="6.14223">
        <ele>1095.9</ele>
        <time>2020-10-13T09:42:27.000Z</time>
      </trkpt>
      <trkpt lat="44.51715" lon="6.14237">
        <ele>1095.8</ele>
        <time>2020-10-13T09:42:28.000Z</time>
      </trkpt>
      <trkpt lat="44.51712" lon="6.14258">
        <ele>1094</ele>
        <time>2020-10-13T09:42:30.000Z</time>
      </trkpt>
      <trkpt lat="44.51709" lon="6.14267">
        <ele>1094</ele>
        <time>2020-10-13T09:42:31.000Z</time>
      </trkpt>
      <trkpt lat="44.51706" lon="6.14274">
        <ele>1092.9</ele>
        <time>2020-10-13T09:42:32.000Z</time>
      </trkpt>
      <trkpt lat="44.51695" lon="6.14285">
        <ele>1094</ele>
        <time>2020-10-13T09:42:34.000Z</time>
      </trkpt>
      <trkpt lat="44.51689" lon="6.14291">
        <ele>1094.4</ele>
        <time>2020-10-13T09:42:35.000Z</time>
      </trkpt>
      <trkpt lat="44.51684" lon="6.14299">
        <ele>1092.2</ele>
        <time>2020-10-13T09:42:36.000Z</time>
      </trkpt>
      <trkpt lat="44.51679" lon="6.14309">
        <ele>1090.7</ele>
        <time>2020-10-13T09:42:37.000Z</time>
      </trkpt>
      <trkpt lat="44.51671" lon="6.14333">
        <ele>1086.7</ele>
        <time>2020-10-13T09:42:39.000Z</time>
      </trkpt>
      <trkpt lat="44.51663" lon="6.14358">
        <ele>1080.3</ele>
        <time>2020-10-13T09:42:41.000Z</time>
      </trkpt>
      <trkpt lat="44.51658" lon="6.1437">
        <ele>1079.9</ele>
        <time>2020-10-13T09:42:42.000Z</time>
      </trkpt>
      <trkpt lat="44.51647" lon="6.14395">
        <ele>1075.1</ele>
        <time>2020-10-13T09:42:44.000Z</time>
      </trkpt>
      <trkpt lat="44.51645" lon="6.14407">
        <ele>1071.8</ele>
        <time>2020-10-13T09:42:45.000Z</time>
      </trkpt>
      <trkpt lat="44.51646" lon="6.14418">
        <ele>1071.2</ele>
        <time>2020-10-13T09:42:46.000Z</time>
      </trkpt>
      <trkpt lat="44.5165" lon="6.1444">
        <ele>1067.2</ele>
        <time>2020-10-13T09:42:48.000Z</time>
      </trkpt>
      <trkpt lat="44.51651" lon="6.14449">
        <ele>1065.7</ele>
        <time>2020-10-13T09:42:51.000Z</time>
      </trkpt>
      <trkpt lat="44.51648" lon="6.14456">
        <ele>1062.7</ele>
        <time>2020-10-13T09:42:53.000Z</time>
      </trkpt>
      <trkpt lat="44.51641" lon="6.14457">
        <ele>1061.9</ele>
        <time>2020-10-13T09:42:54.000Z</time>
      </trkpt>
      <trkpt lat="44.51622" lon="6.14458">
        <ele>1059.4</ele>
        <time>2020-10-13T09:42:56.000Z</time>
      </trkpt>
      <trkpt lat="44.51603" lon="6.14454">
        <ele>1058.4</ele>
        <time>2020-10-13T09:42:58.000Z</time>
      </trkpt>
      <trkpt lat="44.51584" lon="6.14443">
        <ele>1059.2</ele>
        <time>2020-10-13T09:43:00.000Z</time>
      </trkpt>
      <trkpt lat="44.51575" lon="6.14436">
        <ele>1059.3</ele>
        <time>2020-10-13T09:43:01.000Z</time>
      </trkpt>
      <trkpt lat="44.5156" lon="6.14427">
        <ele>1057.5</ele>
        <time>2020-10-13T09:43:03.000Z</time>
      </trkpt>
      <trkpt lat="44.51554" lon="6.14421">
        <ele>1056.9</ele>
        <time>2020-10-13T09:43:04.000Z</time>
      </trkpt>
      <trkpt lat="44.51542" lon="6.14412">
        <ele>1054.5</ele>
        <time>2020-10-13T09:43:06.000Z</time>
      </trkpt>
      <trkpt lat="44.51543" lon="6.14425">
        <ele>1043.8</ele>
        <time>2020-10-13T09:43:09.000Z</time>
      </trkpt>
      <trkpt lat="44.51545" lon="6.14438">
        <ele>1041</ele>
        <time>2020-10-13T09:43:11.000Z</time>
      </trkpt>
      <trkpt lat="44.51545" lon="6.14447">
        <ele>1037.5</ele>
        <time>2020-10-13T09:43:14.000Z</time>
      </trkpt>
      <trkpt lat="44.5154" lon="6.14451">
        <ele>1038.7</ele>
        <time>2020-10-13T09:43:19.000Z</time>
      </trkpt>
      <trkpt lat="44.51537" lon="6.14458">
        <ele>1035.4</ele>
        <time>2020-10-13T09:43:36.000Z</time>
      </trkpt>
      <trkpt lat="44.51533" lon="6.14463">
        <ele>1036.9</ele>
        <time>2020-10-13T09:43:39.000Z</time>
      </trkpt>
      <trkpt lat="44.51529" lon="6.14468">
        <ele>1029.5</ele>
        <time>2020-10-13T09:43:46.000Z</time>
      </trkpt>
      <trkpt lat="44.51527" lon="6.14474">
        <ele>1031.2</ele>
        <time>2020-10-13T09:43:58.166Z</time>
      </trkpt>
      <trkpt lat="44.51522" lon="6.14481">
        <ele>1027.3</ele>
        <time>2020-10-13T09:44:03.000Z</time>
      </trkpt>
      <trkpt lat="44.51516" lon="6.1449">
        <ele>1024</ele>
        <time>2020-10-13T09:44:05.000Z</time>
      </trkpt>
      <trkpt lat="44.51511" lon="6.14496">
        <ele>1021.1</ele>
        <time>2020-10-13T09:44:07.000Z</time>
      </trkpt>
      <trkpt lat="44.51506" lon="6.14502">
        <ele>1020.6</ele>
        <time>2020-10-13T09:44:09.000Z</time>
      </trkpt>
      <trkpt lat="44.515" lon="6.14508">
        <ele>1016.3</ele>
        <time>2020-10-13T09:44:12.000Z</time>
      </trkpt>
      <trkpt lat="44.51495" lon="6.14516">
        <ele>1011.1</ele>
        <time>2020-10-13T09:44:15.000Z</time>
      </trkpt>
      <trkpt lat="44.51491" lon="6.14521">
        <ele>1010.3</ele>
        <time>2020-10-13T09:44:17.000Z</time>
      </trkpt>
      <trkpt lat="44.51488" lon="6.14528">
        <ele>1008.5</ele>
        <time>2020-10-13T09:44:19.000Z</time>
      </trkpt>
      <trkpt lat="44.51493" lon="6.14545">
        <ele>1006.1</ele>
        <time>2020-10-13T09:44:22.000Z</time>
      </trkpt>
      <trkpt lat="44.51495" lon="6.14551">
        <ele>1004.5</ele>
        <time>2020-10-13T09:44:23.000Z</time>
      </trkpt>
      <trkpt lat="44.51497" lon="6.14563">
        <ele>1000.4</ele>
        <time>2020-10-13T09:44:26.281Z</time>
      </trkpt>
      <trkpt lat="44.515" lon="6.14578">
        <ele>998.3</ele>
        <time>2020-10-13T09:44:27.000Z</time>
      </trkpt>
      <trkpt lat="44.51504" lon="6.1459">
        <ele>997.6</ele>
        <time>2020-10-13T09:44:28.000Z</time>
      </trkpt>
      <trkpt lat="44.51511" lon="6.14612">
        <ele>992.7</ele>
        <time>2020-10-13T09:44:30.000Z</time>
      </trkpt>
      <trkpt lat="44.5152" lon="6.14632">
        <ele>991.2</ele>
        <time>2020-10-13T09:44:32.000Z</time>
      </trkpt>
      <trkpt lat="44.51524" lon="6.14641">
        <ele>991.4</ele>
        <time>2020-10-13T09:44:33.000Z</time>
      </trkpt>
      <trkpt lat="44.51528" lon="6.1465">
        <ele>990.9</ele>
        <time>2020-10-13T09:44:34.000Z</time>
      </trkpt>
      <trkpt lat="44.51532" lon="6.14658">
        <ele>990.7</ele>
        <time>2020-10-13T09:44:35.000Z</time>
      </trkpt>
      <trkpt lat="44.51537" lon="6.14675">
        <ele>990.5</ele>
        <time>2020-10-13T09:44:37.000Z</time>
      </trkpt>
      <trkpt lat="44.51538" lon="6.14684">
        <ele>989.3</ele>
        <time>2020-10-13T09:44:38.000Z</time>
      </trkpt>
      <trkpt lat="44.51538" lon="6.14694">
        <ele>988</ele>
        <time>2020-10-13T09:44:39.000Z</time>
      </trkpt>
      <trkpt lat="44.51534" lon="6.14706">
        <ele>981.2</ele>
        <time>2020-10-13T09:44:41.000Z</time>
      </trkpt>
      <trkpt lat="44.5153" lon="6.14711">
        <ele>977.9</ele>
        <time>2020-10-13T09:44:43.000Z</time>
      </trkpt>
      <trkpt lat="44.51526" lon="6.14719">
        <ele>975.6</ele>
        <time>2020-10-13T09:44:47.590Z</time>
      </trkpt>
      <trkpt lat="44.51523" lon="6.14729">
        <ele>975.3</ele>
        <time>2020-10-13T09:44:49.000Z</time>
      </trkpt>
      <trkpt lat="44.51521" lon="6.14737">
        <ele>977.2</ele>
        <time>2020-10-13T09:44:51.234Z</time>
      </trkpt>
      <trkpt lat="44.5152" lon="6.14745">
        <ele>976.9</ele>
        <time>2020-10-13T09:44:52.454Z</time>
      </trkpt>
      <trkpt lat="44.51521" lon="6.14761">
        <ele>974.9</ele>
        <time>2020-10-13T09:44:53.000Z</time>
      </trkpt>
      <trkpt lat="44.51522" lon="6.14767">
        <ele>973.1</ele>
        <time>2020-10-13T09:44:54.000Z</time>
      </trkpt>
      <trkpt lat="44.5152" lon="6.14778">
        <ele>972.9</ele>
        <time>2020-10-13T09:44:56.734Z</time>
      </trkpt>
      <trkpt lat="44.51519" lon="6.14791">
        <ele>969.1</ele>
        <time>2020-10-13T09:44:59.760Z</time>
      </trkpt>
      <trkpt lat="44.51516" lon="6.14806">
        <ele>963.4</ele>
        <time>2020-10-13T09:45:02.541Z</time>
      </trkpt>
      <trkpt lat="44.51513" lon="6.14816">
        <ele>963.1</ele>
        <time>2020-10-13T09:45:03.956Z</time>
      </trkpt>
      <trkpt lat="44.51512" lon="6.14828">
        <ele>958.9</ele>
        <time>2020-10-13T09:45:05.000Z</time>
      </trkpt>
      <trkpt lat="44.51515" lon="6.14838">
        <ele>956.7</ele>
        <time>2020-10-13T09:45:08.000Z</time>
      </trkpt>
      <trkpt lat="44.51515" lon="6.14845">
        <ele>955.4</ele>
        <time>2020-10-13T09:45:11.000Z</time>
      </trkpt>
      <trkpt lat="44.51513" lon="6.14852">
        <ele>956.4</ele>
        <time>2020-10-13T09:45:17.000Z</time>
      </trkpt>
      <trkpt lat="44.51513" lon="6.1486">
        <ele>952.3</ele>
        <time>2020-10-13T09:45:27.000Z</time>
      </trkpt>
      <trkpt lat="44.51519" lon="6.14857">
        <ele>951</ele>
        <time>2020-10-13T09:46:12.000Z</time>
      </trkpt>
      <trkpt lat="44.51522" lon="6.14845">
        <ele>949.9</ele>
        <time>2020-10-13T09:46:14.000Z</time>
      </trkpt>
      <trkpt lat="44.5153" lon="6.14829">
        <ele>951.7</ele>
        <time>2020-10-13T09:46:16.000Z</time>
      </trkpt>
      <trkpt lat="44.51535" lon="6.14821">
        <ele>951.3</ele>
        <time>2020-10-13T09:46:17.000Z</time>
      </trkpt>
      <trkpt lat="44.51543" lon="6.14804">
        <ele>951.3</ele>
        <time>2020-10-13T09:46:19.000Z</time>
      </trkpt>
      <trkpt lat="44.51547" lon="6.14796">
        <ele>949.2</ele>
        <time>2020-10-13T09:46:20.000Z</time>
      </trkpt>
      <trkpt lat="44.51556" lon="6.14782">
        <ele>950.4</ele>
        <time>2020-10-13T09:46:22.000Z</time>
      </trkpt>
      <trkpt lat="44.5156" lon="6.14775">
        <ele>950.8</ele>
        <time>2020-10-13T09:46:23.000Z</time>
      </trkpt>
      <trkpt lat="44.51567" lon="6.14756">
        <ele>949.1</ele>
        <time>2020-10-13T09:46:25.000Z</time>
      </trkpt>
      <trkpt lat="44.51575" lon="6.14741">
        <ele>948.1</ele>
        <time>2020-10-13T09:46:27.000Z</time>
      </trkpt>
      <trkpt lat="44.51581" lon="6.14743">
        <ele>947</ele>
        <time>2020-10-13T09:46:29.000Z</time>
      </trkpt>
      <trkpt lat="44.51589" lon="6.14753">
        <ele>943.3</ele>
        <time>2020-10-13T09:46:32.000Z</time>
      </trkpt>
      <trkpt lat="44.51591" lon="6.14759">
        <ele>942</ele>
        <time>2020-10-13T09:46:34.029Z</time>
      </trkpt>
      <trkpt lat="44.51594" lon="6.14766">
        <ele>941.4</ele>
        <time>2020-10-13T09:46:35.516Z</time>
      </trkpt>
      <trkpt lat="44.51595" lon="6.14776">
        <ele>939.9</ele>
        <time>2020-10-13T09:46:37.000Z</time>
      </trkpt>
      <trkpt lat="44.51597" lon="6.14788">
        <ele>940.1</ele>
        <time>2020-10-13T09:46:41.000Z</time>
      </trkpt>
      <trkpt lat="44.51599" lon="6.14796">
        <ele>941.6</ele>
        <time>2020-10-13T09:46:44.000Z</time>
      </trkpt>
      <trkpt lat="44.51601" lon="6.14815">
        <ele>941.8</ele>
        <time>2020-10-13T09:46:46.000Z</time>
      </trkpt>
      <trkpt lat="44.51601" lon="6.14823">
        <ele>942.7</ele>
        <time>2020-10-13T09:46:47.000Z</time>
      </trkpt>
      <trkpt lat="44.51601" lon="6.14836">
        <ele>942.9</ele>
        <time>2020-10-13T09:46:49.000Z</time>
      </trkpt>
      <trkpt lat="44.51602" lon="6.14854">
        <ele>943.5</ele>
        <time>2020-10-13T09:46:52.000Z</time>
      </trkpt>
      <trkpt lat="44.51606" lon="6.14867">
        <ele>943.5</ele>
        <time>2020-10-13T09:46:55.815Z</time>
      </trkpt>
      <trkpt lat="44.51611" lon="6.14871">
        <ele>943.8</ele>
        <time>2020-10-13T09:46:57.000Z</time>
      </trkpt>
      <trkpt lat="44.51615" lon="6.14873">
        <ele>944.1</ele>
        <time>2020-10-13T09:46:59.473Z</time>
      </trkpt>
      <trkpt lat="44.5162" lon="6.14873">
        <ele>944.8</ele>
        <time>2020-10-13T09:47:00.000Z</time>
      </trkpt>
      <trkpt lat="44.51625" lon="6.14871">
        <ele>945.3</ele>
        <time>2020-10-13T09:47:02.000Z</time>
      </trkpt>
      <trkpt lat="44.51632" lon="6.14868">
        <ele>946</ele>
        <time>2020-10-13T09:47:06.000Z</time>
      </trkpt>
      <trkpt lat="44.51637" lon="6.14866">
        <ele>945.7</ele>
        <time>2020-10-13T09:47:08.000Z</time>
      </trkpt>
      <trkpt lat="44.51642" lon="6.14864">
        <ele>945.8</ele>
        <time>2020-10-13T09:47:10.814Z</time>
      </trkpt>
      <trkpt lat="44.51648" lon="6.14864">
        <ele>945.7</ele>
        <time>2020-10-13T09:47:12.000Z</time>
      </trkpt>
      <trkpt lat="44.51655" lon="6.14865">
        <ele>948</ele>
        <time>2020-10-13T09:47:15.170Z</time>
      </trkpt>
      <trkpt lat="44.5166" lon="6.14866">
        <ele>947.4</ele>
        <time>2020-10-13T09:47:16.000Z</time>
      </trkpt>
      <trkpt lat="44.51669" lon="6.14869">
        <ele>951.1</ele>
        <time>2020-10-13T09:47:19.775Z</time>
      </trkpt>
      <trkpt lat="44.51679" lon="6.1487">
        <ele>953.5</ele>
        <time>2020-10-13T09:47:22.629Z</time>
      </trkpt>
      <trkpt lat="44.51685" lon="6.14869">
        <ele>952.3</ele>
        <time>2020-10-13T09:47:23.000Z</time>
      </trkpt>
      <trkpt lat="44.51691" lon="6.14868">
        <ele>952</ele>
        <time>2020-10-13T09:47:25.517Z</time>
      </trkpt>
      <trkpt lat="44.51697" lon="6.14867">
        <ele>954.1</ele>
        <time>2020-10-13T09:47:26.000Z</time>
      </trkpt>
      <trkpt lat="44.51709" lon="6.14864">
        <ele>953.1</ele>
        <time>2020-10-13T09:47:29.000Z</time>
      </trkpt>
      <trkpt lat="44.51717" lon="6.14862">
        <ele>952.9</ele>
        <time>2020-10-13T09:47:31.000Z</time>
      </trkpt>
      <trkpt lat="44.51724" lon="6.1486">
        <ele>953.7</ele>
        <time>2020-10-13T09:47:33.712Z</time>
      </trkpt>
      <trkpt lat="44.51734" lon="6.14859">
        <ele>953.2</ele>
        <time>2020-10-13T09:47:34.000Z</time>
      </trkpt>
      <trkpt lat="44.51741" lon="6.14858">
        <ele>953.3</ele>
        <time>2020-10-13T09:47:35.000Z</time>
      </trkpt>
      <trkpt lat="44.51752" lon="6.14865">
        <ele>951.9</ele>
        <time>2020-10-13T09:47:37.000Z</time>
      </trkpt>
      <trkpt lat="44.51756" lon="6.14867">
        <ele>952.9</ele>
        <time>2020-10-13T09:47:39.574Z</time>
      </trkpt>
      <trkpt lat="44.51754" lon="6.14884">
        <ele>950.7</ele>
        <time>2020-10-13T09:47:41.000Z</time>
      </trkpt>
      <trkpt lat="44.51751" lon="6.14893">
        <ele>951.5</ele>
        <time>2020-10-13T09:47:42.000Z</time>
      </trkpt>
      <trkpt lat="44.51749" lon="6.14902">
        <ele>951.5</ele>
        <time>2020-10-13T09:47:43.000Z</time>
      </trkpt>
      <trkpt lat="44.51745" lon="6.14919">
        <ele>953.2</ele>
        <time>2020-10-13T09:47:45.000Z</time>
      </trkpt>
      <trkpt lat="44.51741" lon="6.14937">
        <ele>953.3</ele>
        <time>2020-10-13T09:47:47.000Z</time>
      </trkpt>
      <trkpt lat="44.51742" lon="6.14954">
        <ele>948.2</ele>
        <time>2020-10-13T09:47:49.000Z</time>
      </trkpt>
      <trkpt lat="44.51748" lon="6.14953">
        <ele>947.7</ele>
        <time>2020-10-13T09:47:51.000Z</time>
      </trkpt>
      <trkpt lat="44.5176" lon="6.14954">
        <ele>946.8</ele>
        <time>2020-10-13T09:47:53.000Z</time>
      </trkpt>
      <trkpt lat="44.51766" lon="6.14954">
        <ele>947</ele>
        <time>2020-10-13T09:47:54.000Z</time>
      </trkpt>
      <trkpt lat="44.51781" lon="6.14959">
        <ele>947.2</ele>
        <time>2020-10-13T09:47:56.000Z</time>
      </trkpt>
      <trkpt lat="44.51793" lon="6.14973">
        <ele>946.5</ele>
        <time>2020-10-13T09:47:58.000Z</time>
      </trkpt>
      <trkpt lat="44.51797" lon="6.14981">
        <ele>947.9</ele>
        <time>2020-10-13T09:47:59.000Z</time>
      </trkpt>
      <trkpt lat="44.51799" lon="6.14991">
        <ele>948</ele>
        <time>2020-10-13T09:48:00.000Z</time>
      </trkpt>
      <trkpt lat="44.51794" lon="6.15012">
        <ele>944.9</ele>
        <time>2020-10-13T09:48:02.000Z</time>
      </trkpt>
      <trkpt lat="44.5179" lon="6.1502">
        <ele>944.5</ele>
        <time>2020-10-13T09:48:03.000Z</time>
      </trkpt>
      <trkpt lat="44.51786" lon="6.15027">
        <ele>944.2</ele>
        <time>2020-10-13T09:48:04.000Z</time>
      </trkpt>
      <trkpt lat="44.51785" lon="6.1504">
        <ele>944.1</ele>
        <time>2020-10-13T09:48:06.000Z</time>
      </trkpt>
      <trkpt lat="44.5179" lon="6.15051">
        <ele>944.2</ele>
        <time>2020-10-13T09:48:08.000Z</time>
      </trkpt>
      <trkpt lat="44.51796" lon="6.15062">
        <ele>944.1</ele>
        <time>2020-10-13T09:48:10.000Z</time>
      </trkpt>
      <trkpt lat="44.51803" lon="6.15071">
        <ele>943.8</ele>
        <time>2020-10-13T09:48:12.000Z</time>
      </trkpt>
      <trkpt lat="44.51809" lon="6.15081">
        <ele>941.9</ele>
        <time>2020-10-13T09:48:14.000Z</time>
      </trkpt>
      <trkpt lat="44.51812" lon="6.15087">
        <ele>942</ele>
        <time>2020-10-13T09:48:15.000Z</time>
      </trkpt>
      <trkpt lat="44.51818" lon="6.15099">
        <ele>940.8</ele>
        <time>2020-10-13T09:48:17.000Z</time>
      </trkpt>
      <trkpt lat="44.51822" lon="6.15104">
        <ele>941.1</ele>
        <time>2020-10-13T09:48:18.000Z</time>
      </trkpt>
      <trkpt lat="44.51832" lon="6.15118">
        <ele>940.7</ele>
        <time>2020-10-13T09:48:20.000Z</time>
      </trkpt>
      <trkpt lat="44.51837" lon="6.15123">
        <ele>939.9</ele>
        <time>2020-10-13T09:48:21.000Z</time>
      </trkpt>
      <trkpt lat="44.51844" lon="6.15126">
        <ele>940.7</ele>
        <time>2020-10-13T09:48:22.000Z</time>
      </trkpt>
      <trkpt lat="44.51851" lon="6.15127">
        <ele>939.6</ele>
        <time>2020-10-13T09:48:23.000Z</time>
      </trkpt>
      <trkpt lat="44.51866" lon="6.15125">
        <ele>940.5</ele>
        <time>2020-10-13T09:48:25.000Z</time>
      </trkpt>
      <trkpt lat="44.51872" lon="6.15124">
        <ele>940.8</ele>
        <time>2020-10-13T09:48:26.000Z</time>
      </trkpt>
      <trkpt lat="44.51878" lon="6.15125">
        <ele>941</ele>
        <time>2020-10-13T09:48:27.000Z</time>
      </trkpt>
      <trkpt lat="44.51889" lon="6.15126">
        <ele>941.3</ele>
        <time>2020-10-13T09:48:29.000Z</time>
      </trkpt>
      <trkpt lat="44.51894" lon="6.15125">
        <ele>940.6</ele>
        <time>2020-10-13T09:48:30.000Z</time>
      </trkpt>
      <trkpt lat="44.51902" lon="6.15121">
        <ele>942.5</ele>
        <time>2020-10-13T09:48:33.000Z</time>
      </trkpt>
      <trkpt lat="44.51909" lon="6.1512">
        <ele>944.2</ele>
        <time>2020-10-13T09:48:35.000Z</time>
      </trkpt>
      <trkpt lat="44.51913" lon="6.15122">
        <ele>944.3</ele>
        <time>2020-10-13T09:48:36.000Z</time>
      </trkpt>
      <trkpt lat="44.5192" lon="6.1512">
        <ele>948.9</ele>
        <time>2020-10-13T09:48:39.000Z</time>
      </trkpt>
      <trkpt lat="44.51926" lon="6.15123">
        <ele>950.1</ele>
        <time>2020-10-13T09:48:42.712Z</time>
      </trkpt>
      <trkpt lat="44.5193" lon="6.15125">
        <ele>949.5</ele>
        <time>2020-10-13T09:48:46.046Z</time>
      </trkpt>
      <trkpt lat="44.51935" lon="6.15125">
        <ele>950.3</ele>
        <time>2020-10-13T09:48:49.729Z</time>
      </trkpt>
      <trkpt lat="44.5194" lon="6.15124">
        <ele>953.6</ele>
        <time>2020-10-13T09:48:52.060Z</time>
      </trkpt>
      <trkpt lat="44.51944" lon="6.15122">
        <ele>954.8</ele>
        <time>2020-10-13T09:48:53.647Z</time>
      </trkpt>
      <trkpt lat="44.51952" lon="6.15121">
        <ele>957.7</ele>
        <time>2020-10-13T09:48:55.000Z</time>
      </trkpt>
      <trkpt lat="44.51958" lon="6.1512">
        <ele>957.8</ele>
        <time>2020-10-13T09:48:57.674Z</time>
      </trkpt>
      <trkpt lat="44.51963" lon="6.1512">
        <ele>959</ele>
        <time>2020-10-13T09:48:58.000Z</time>
      </trkpt>
      <trkpt lat="44.51969" lon="6.1512">
        <ele>958.1</ele>
        <time>2020-10-13T09:49:00.000Z</time>
      </trkpt>
      <trkpt lat="44.51975" lon="6.15121">
        <ele>959.3</ele>
        <time>2020-10-13T09:49:02.912Z</time>
      </trkpt>
      <trkpt lat="44.51982" lon="6.15122">
        <ele>961.4</ele>
        <time>2020-10-13T09:49:04.254Z</time>
      </trkpt>
      <trkpt lat="44.51987" lon="6.15123">
        <ele>960.3</ele>
        <time>2020-10-13T09:49:05.749Z</time>
      </trkpt>
      <trkpt lat="44.51993" lon="6.15123">
        <ele>961.7</ele>
        <time>2020-10-13T09:49:07.547Z</time>
      </trkpt>
      <trkpt lat="44.51999" lon="6.15123">
        <ele>962.3</ele>
        <time>2020-10-13T09:49:09.000Z</time>
      </trkpt>
      <trkpt lat="44.52007" lon="6.15126">
        <ele>962.2</ele>
        <time>2020-10-13T09:49:12.249Z</time>
      </trkpt>
      <trkpt lat="44.52013" lon="6.15129">
        <ele>963.8</ele>
        <time>2020-10-13T09:49:13.000Z</time>
      </trkpt>
      <trkpt lat="44.52022" lon="6.15135">
        <ele>963.8</ele>
        <time>2020-10-13T09:49:16.000Z</time>
      </trkpt>
      <trkpt lat="44.52027" lon="6.1514">
        <ele>965.3</ele>
        <time>2020-10-13T09:49:18.000Z</time>
      </trkpt>
      <trkpt lat="44.52031" lon="6.15143">
        <ele>965.5</ele>
        <time>2020-10-13T09:49:20.334Z</time>
      </trkpt>
      <trkpt lat="44.52036" lon="6.15145">
        <ele>967.3</ele>
        <time>2020-10-13T09:49:21.000Z</time>
      </trkpt>
      <trkpt lat="44.52041" lon="6.15148">
        <ele>967.8</ele>
        <time>2020-10-13T09:49:23.946Z</time>
      </trkpt>
      <trkpt lat="44.5205" lon="6.15149">
        <ele>967.6</ele>
        <time>2020-10-13T09:49:26.000Z</time>
      </trkpt>
      <trkpt lat="44.52057" lon="6.15153">
        <ele>967.4</ele>
        <time>2020-10-13T09:49:28.000Z</time>
      </trkpt>
      <trkpt lat="44.52061" lon="6.15156">
        <ele>966.4</ele>
        <time>2020-10-13T09:49:31.366Z</time>
      </trkpt>
      <trkpt lat="44.52067" lon="6.1516">
        <ele>960</ele>
        <time>2020-10-13T09:49:34.000Z</time>
      </trkpt>
      <trkpt lat="44.52073" lon="6.15162">
        <ele>960</ele>
        <time>2020-10-13T09:49:38.927Z</time>
      </trkpt>
      <trkpt lat="44.52079" lon="6.15164">
        <ele>960</ele>
        <time>2020-10-13T09:49:41.000Z</time>
      </trkpt>
      <trkpt lat="44.52086" lon="6.15162">
        <ele>960</ele>
        <time>2020-10-13T09:49:44.652Z</time>
      </trkpt>
      <trkpt lat="44.52091" lon="6.15159">
        <ele>960</ele>
        <time>2020-10-13T09:49:46.000Z</time>
      </trkpt>
      <trkpt lat="44.52095" lon="6.15157">
        <ele>960</ele>
        <time>2020-10-13T09:49:48.729Z</time>
      </trkpt>
      <trkpt lat="44.52103" lon="6.15154">
        <ele>960</ele>
        <time>2020-10-13T09:49:51.131Z</time>
      </trkpt>
      <trkpt lat="44.52108" lon="6.15152">
        <ele>960</ele>
        <time>2020-10-13T09:49:52.728Z</time>
      </trkpt>
      <trkpt lat="44.52114" lon="6.15149">
        <ele>960</ele>
        <time>2020-10-13T09:49:54.393Z</time>
      </trkpt>
      <trkpt lat="44.5212" lon="6.15146">
        <ele>960</ele>
        <time>2020-10-13T09:49:55.000Z</time>
      </trkpt>
      <trkpt lat="44.52124" lon="6.15142">
        <ele>960</ele>
        <time>2020-10-13T09:49:57.071Z</time>
      </trkpt>
      <trkpt lat="44.52128" lon="6.15138">
        <ele>960</ele>
        <time>2020-10-13T09:49:58.000Z</time>
      </trkpt>
      <trkpt lat="44.52135" lon="6.15133">
        <ele>960</ele>
        <time>2020-10-13T09:50:01.953Z</time>
      </trkpt>
      <trkpt lat="44.52162" lon="6.15124">
        <ele>960</ele>
        <time>2020-10-13T09:50:03.000Z</time>
      </trkpt>
      <trkpt lat="44.5217" lon="6.15121">
        <ele>960</ele>
        <time>2020-10-13T09:50:05.000Z</time>
      </trkpt>
      <trkpt lat="44.52176" lon="6.15116">
        <ele>960</ele>
        <time>2020-10-13T09:50:07.000Z</time>
      </trkpt>
      <trkpt lat="44.52187" lon="6.15111">
        <ele>960</ele>
        <time>2020-10-13T09:50:09.784Z</time>
      </trkpt>
      <trkpt lat="44.52201" lon="6.15104">
        <ele>960</ele>
        <time>2020-10-13T09:50:11.638Z</time>
      </trkpt>
      <trkpt lat="44.52206" lon="6.151">
        <ele>960</ele>
        <time>2020-10-13T09:50:12.896Z</time>
      </trkpt>
      <trkpt lat="44.52216" lon="6.15091">
        <ele>960</ele>
        <time>2020-10-13T09:50:15.339Z</time>
      </trkpt>
      <trkpt lat="44.5222" lon="6.15085">
        <ele>960</ele>
        <time>2020-10-13T09:50:16.904Z</time>
      </trkpt>
      <trkpt lat="44.52225" lon="6.15074">
        <ele>960</ele>
        <time>2020-10-13T09:50:19.446Z</time>
      </trkpt>
      <trkpt lat="44.52228" lon="6.15068">
        <ele>960</ele>
        <time>2020-10-13T09:50:20.666Z</time>
      </trkpt>
      <trkpt lat="44.5223" lon="6.15062">
        <ele>960</ele>
        <time>2020-10-13T09:50:21.000Z</time>
      </trkpt>
      <trkpt lat="44.52239" lon="6.15052">
        <ele>960</ele>
        <time>2020-10-13T09:50:24.000Z</time>
      </trkpt>
      <trkpt lat="44.52261" lon="6.15033">
        <ele>960</ele>
        <time>2020-10-13T09:50:27.000Z</time>
      </trkpt>
      <trkpt lat="44.52266" lon="6.15026">
        <ele>960</ele>
        <time>2020-10-13T09:50:28.000Z</time>
      </trkpt>
      <trkpt lat="44.5227" lon="6.15019">
        <ele>960</ele>
        <time>2020-10-13T09:50:29.000Z</time>
      </trkpt>
      <trkpt lat="44.52282" lon="6.15006">
        <ele>960</ele>
        <time>2020-10-13T09:50:31.000Z</time>
      </trkpt>
      <trkpt lat="44.5229" lon="6.1499">
        <ele>960</ele>
        <time>2020-10-13T09:50:33.000Z</time>
      </trkpt>
      <trkpt lat="44.52298" lon="6.14971">
        <ele>960</ele>
        <time>2020-10-13T09:50:35.000Z</time>
      </trkpt>
      <trkpt lat="44.523" lon="6.1496">
        <ele>960</ele>
        <time>2020-10-13T09:50:36.000Z</time>
      </trkpt>
      <trkpt lat="44.52302" lon="6.14949">
        <ele>960</ele>
        <time>2020-10-13T09:50:37.000Z</time>
      </trkpt>
      <trkpt lat="44.52306" lon="6.14935">
        <ele>960</ele>
        <time>2020-10-13T09:50:39.000Z</time>
      </trkpt>
      <trkpt lat="44.52314" lon="6.14916">
        <ele>960</ele>
        <time>2020-10-13T09:50:42.000Z</time>
      </trkpt>
      <trkpt lat="44.52319" lon="6.14912">
        <ele>960</ele>
        <time>2020-10-13T09:50:43.000Z</time>
      </trkpt>
      <trkpt lat="44.52334" lon="6.14913">
        <ele>960</ele>
        <time>2020-10-13T09:50:45.000Z</time>
      </trkpt>
      <trkpt lat="44.52339" lon="6.14916">
        <ele>960</ele>
        <time>2020-10-13T09:50:46.000Z</time>
      </trkpt>
      <trkpt lat="44.52345" lon="6.14925">
        <ele>953.9</ele>
        <time>2020-10-13T09:50:49.000Z</time>
      </trkpt>
      <trkpt lat="44.52348" lon="6.14932">
        <ele>954.8</ele>
        <time>2020-10-13T09:50:51.127Z</time>
      </trkpt>
      <trkpt lat="44.5235" lon="6.14941">
        <ele>953</ele>
        <time>2020-10-13T09:50:52.544Z</time>
      </trkpt>
      <trkpt lat="44.52352" lon="6.14947">
        <ele>953.4</ele>
        <time>2020-10-13T09:50:53.000Z</time>
      </trkpt>
      <trkpt lat="44.52357" lon="6.14957">
        <ele>955.8</ele>
        <time>2020-10-13T09:50:56.000Z</time>
      </trkpt>
      <trkpt lat="44.5236" lon="6.14966">
        <ele>955.5</ele>
        <time>2020-10-13T09:50:58.865Z</time>
      </trkpt>
      <trkpt lat="44.52364" lon="6.14974">
        <ele>952.7</ele>
        <time>2020-10-13T09:51:00.000Z</time>
      </trkpt>
      <trkpt lat="44.52367" lon="6.1498">
        <ele>952.7</ele>
        <time>2020-10-13T09:51:02.298Z</time>
      </trkpt>
      <trkpt lat="44.52369" lon="6.14986">
        <ele>953.7</ele>
        <time>2020-10-13T09:51:03.904Z</time>
      </trkpt>
      <trkpt lat="44.52372" lon="6.14997">
        <ele>954.7</ele>
        <time>2020-10-13T09:51:06.000Z</time>
      </trkpt>
      <trkpt lat="44.52373" lon="6.15006">
        <ele>955.3</ele>
        <time>2020-10-13T09:51:09.639Z</time>
      </trkpt>
      <trkpt lat="44.52377" lon="6.15018">
        <ele>955.8</ele>
        <time>2020-10-13T09:51:11.000Z</time>
      </trkpt>
      <trkpt lat="44.5238" lon="6.15026">
        <ele>955</ele>
        <time>2020-10-13T09:51:14.000Z</time>
      </trkpt>
      <trkpt lat="44.52382" lon="6.15032">
        <ele>956.5</ele>
        <time>2020-10-13T09:51:16.000Z</time>
      </trkpt>
      <trkpt lat="44.52383" lon="6.15043">
        <ele>955.2</ele>
        <time>2020-10-13T09:51:18.000Z</time>
      </trkpt>
      <trkpt lat="44.52381" lon="6.15062">
        <ele>955</ele>
        <time>2020-10-13T09:51:20.000Z</time>
      </trkpt>
      <trkpt lat="44.52378" lon="6.15074">
        <ele>955.3</ele>
        <time>2020-10-13T09:51:21.000Z</time>
      </trkpt>
      <trkpt lat="44.52371" lon="6.15099">
        <ele>953.9</ele>
        <time>2020-10-13T09:51:23.000Z</time>
      </trkpt>
      <trkpt lat="44.52366" lon="6.15122">
        <ele>952.2</ele>
        <time>2020-10-13T09:51:25.000Z</time>
      </trkpt>
      <trkpt lat="44.52362" lon="6.1514">
        <ele>951.8</ele>
        <time>2020-10-13T09:51:27.000Z</time>
      </trkpt>
      <trkpt lat="44.52365" lon="6.15153">
        <ele>951.8</ele>
        <time>2020-10-13T09:51:30.000Z</time>
      </trkpt>
      <trkpt lat="44.52374" lon="6.15149">
        <ele>950.1</ele>
        <time>2020-10-13T09:51:33.503Z</time>
      </trkpt>
      <trkpt lat="44.52379" lon="6.1515">
        <ele>950.4</ele>
        <time>2020-10-13T09:51:34.743Z</time>
      </trkpt>
      <trkpt lat="44.52384" lon="6.15152">
        <ele>950.4</ele>
        <time>2020-10-13T09:51:35.924Z</time>
      </trkpt>
      <trkpt lat="44.52392" lon="6.15156">
        <ele>951.4</ele>
        <time>2020-10-13T09:51:38.008Z</time>
      </trkpt>
      <trkpt lat="44.52397" lon="6.15159">
        <ele>951.7</ele>
        <time>2020-10-13T09:51:39.406Z</time>
      </trkpt>
      <trkpt lat="44.52403" lon="6.15162">
        <ele>951.9</ele>
        <time>2020-10-13T09:51:40.000Z</time>
      </trkpt>
      <trkpt lat="44.5241" lon="6.15165">
        <ele>952.4</ele>
        <time>2020-10-13T09:51:42.000Z</time>
      </trkpt>
      <trkpt lat="44.52417" lon="6.15167">
        <ele>952.6</ele>
        <time>2020-10-13T09:51:44.000Z</time>
      </trkpt>
      <trkpt lat="44.52426" lon="6.15168">
        <ele>953</ele>
        <time>2020-10-13T09:51:47.662Z</time>
      </trkpt>
      <trkpt lat="44.52431" lon="6.15169">
        <ele>951.8</ele>
        <time>2020-10-13T09:51:48.000Z</time>
      </trkpt>
      <trkpt lat="44.52438" lon="6.1517">
        <ele>952.7</ele>
        <time>2020-10-13T09:51:50.657Z</time>
      </trkpt>
      <trkpt lat="44.52443" lon="6.15171">
        <ele>953.8</ele>
        <time>2020-10-13T09:51:51.000Z</time>
      </trkpt>
      <trkpt lat="44.52451" lon="6.15173">
        <ele>954.7</ele>
        <time>2020-10-13T09:51:53.683Z</time>
      </trkpt>
      <trkpt lat="44.52457" lon="6.15175">
        <ele>954.5</ele>
        <time>2020-10-13T09:51:54.000Z</time>
      </trkpt>
      <trkpt lat="44.52466" lon="6.15179">
        <ele>954.6</ele>
        <time>2020-10-13T09:51:56.000Z</time>
      </trkpt>
      <trkpt lat="44.52475" lon="6.15179">
        <ele>954.3</ele>
        <time>2020-10-13T09:51:58.000Z</time>
      </trkpt>
      <trkpt lat="44.52486" lon="6.15179">
        <ele>954.8</ele>
        <time>2020-10-13T09:52:01.000Z</time>
      </trkpt>
      <trkpt lat="44.52498" lon="6.1518">
        <ele>954.6</ele>
        <time>2020-10-13T09:52:04.000Z</time>
      </trkpt>
      <trkpt lat="44.52506" lon="6.1518">
        <ele>955</ele>
        <time>2020-10-13T09:52:06.000Z</time>
      </trkpt>
      <trkpt lat="44.52511" lon="6.1518">
        <ele>956</ele>
        <time>2020-10-13T09:52:07.000Z</time>
      </trkpt>
      <trkpt lat="44.52518" lon="6.15181">
        <ele>955.3</ele>
        <time>2020-10-13T09:52:09.000Z</time>
      </trkpt>
      <trkpt lat="44.52524" lon="6.15184">
        <ele>955.9</ele>
        <time>2020-10-13T09:52:11.000Z</time>
      </trkpt>
      <trkpt lat="44.52527" lon="6.15197">
        <ele>955.4</ele>
        <time>2020-10-13T09:52:14.000Z</time>
      </trkpt>
      <trkpt lat="44.52523" lon="6.15207">
        <ele>956.4</ele>
        <time>2020-10-13T09:52:16.000Z</time>
      </trkpt>
      <trkpt lat="44.52518" lon="6.15213">
        <ele>955.8</ele>
        <time>2020-10-13T09:52:17.000Z</time>
      </trkpt>
      <trkpt lat="44.52505" lon="6.15225">
        <ele>954.9</ele>
        <time>2020-10-13T09:52:19.000Z</time>
      </trkpt>
      <trkpt lat="44.52496" lon="6.15238">
        <ele>954.3</ele>
        <time>2020-10-13T09:52:21.000Z</time>
      </trkpt>
      <trkpt lat="44.52493" lon="6.15244">
        <ele>954.3</ele>
        <time>2020-10-13T09:52:22.000Z</time>
      </trkpt>
      <trkpt lat="44.52491" lon="6.15249">
        <ele>953.7</ele>
        <time>2020-10-13T09:52:23.000Z</time>
      </trkpt>
      <trkpt lat="44.52486" lon="6.15258">
        <ele>953.1</ele>
        <time>2020-10-13T09:52:25.000Z</time>
      </trkpt>
      <trkpt lat="44.52477" lon="6.15267">
        <ele>952.2</ele>
        <time>2020-10-13T09:52:28.000Z</time>
      </trkpt>
      <trkpt lat="44.5247" lon="6.15273">
        <ele>952.6</ele>
        <time>2020-10-13T09:52:30.000Z</time>
      </trkpt>
      <trkpt lat="44.52458" lon="6.15285">
        <ele>951.6</ele>
        <time>2020-10-13T09:52:33.000Z</time>
      </trkpt>
      <trkpt lat="44.52453" lon="6.15291">
        <ele>952.1</ele>
        <time>2020-10-13T09:52:34.000Z</time>
      </trkpt>
      <trkpt lat="44.52441" lon="6.153">
        <ele>952.5</ele>
        <time>2020-10-13T09:52:36.000Z</time>
      </trkpt>
      <trkpt lat="44.52434" lon="6.15307">
        <ele>951.9</ele>
        <time>2020-10-13T09:52:38.000Z</time>
      </trkpt>
      <trkpt lat="44.52424" lon="6.15309">
        <ele>955.7</ele>
        <time>2020-10-13T09:52:41.000Z</time>
      </trkpt>
      <trkpt lat="44.52426" lon="6.153">
        <ele>955.2</ele>
        <time>2020-10-13T09:52:44.490Z</time>
      </trkpt>
      <trkpt lat="44.52419" lon="6.15301">
        <ele>955.4</ele>
        <time>2020-10-13T09:52:46.000Z</time>
      </trkpt>
      <trkpt lat="44.52411" lon="6.15307">
        <ele>955.3</ele>
        <time>2020-10-13T09:52:47.000Z</time>
      </trkpt>
      <trkpt lat="44.52403" lon="6.15314">
        <ele>956.6</ele>
        <time>2020-10-13T09:52:48.000Z</time>
      </trkpt>
      <trkpt lat="44.52389" lon="6.15327">
        <ele>954.6</ele>
        <time>2020-10-13T09:52:50.000Z</time>
      </trkpt>
      <trkpt lat="44.52384" lon="6.15335">
        <ele>954.1</ele>
        <time>2020-10-13T09:52:51.000Z</time>
      </trkpt>
      <trkpt lat="44.52379" lon="6.15342">
        <ele>952.7</ele>
        <time>2020-10-13T09:52:52.000Z</time>
      </trkpt>
      <trkpt lat="44.52368" lon="6.15355">
        <ele>950.7</ele>
        <time>2020-10-13T09:52:54.000Z</time>
      </trkpt>
      <trkpt lat="44.52362" lon="6.15358">
        <ele>950.1</ele>
        <time>2020-10-13T09:52:55.000Z</time>
      </trkpt>
      <trkpt lat="44.52367" lon="6.15362">
        <ele>949.7</ele>
        <time>2020-10-13T09:52:58.000Z</time>
      </trkpt>
      <trkpt lat="44.52359" lon="6.15365">
        <ele>950.8</ele>
        <time>2020-10-13T09:53:01.000Z</time>
      </trkpt>
      <trkpt lat="44.52354" lon="6.15357">
        <ele>946.3</ele>
        <time>2020-10-13T09:53:04.000Z</time>
      </trkpt>
      <trkpt lat="44.52337" lon="6.15374">
        <ele>944.2</ele>
        <time>2020-10-13T09:53:06.000Z</time>
      </trkpt>
      <trkpt lat="44.5233" lon="6.15392">
        <ele>938.1</ele>
        <time>2020-10-13T09:53:07.000Z</time>
      </trkpt>
      <trkpt lat="44.52323" lon="6.15416">
        <ele>934.7</ele>
        <time>2020-10-13T09:53:09.000Z</time>
      </trkpt>
      <trkpt lat="44.5232" lon="6.15427">
        <ele>934.5</ele>
        <time>2020-10-13T09:53:10.000Z</time>
      </trkpt>
      <trkpt lat="44.52314" lon="6.15449">
        <ele>934.2</ele>
        <time>2020-10-13T09:53:12.000Z</time>
      </trkpt>
      <trkpt lat="44.52314" lon="6.1546">
        <ele>933.9</ele>
        <time>2020-10-13T09:53:13.000Z</time>
      </trkpt>
      <trkpt lat="44.52314" lon="6.1547">
        <ele>933.9</ele>
        <time>2020-10-13T09:53:14.000Z</time>
      </trkpt>
      <trkpt lat="44.52316" lon="6.1548">
        <ele>934.8</ele>
        <time>2020-10-13T09:53:15.000Z</time>
      </trkpt>
      <trkpt lat="44.52319" lon="6.15489">
        <ele>934.1</ele>
        <time>2020-10-13T09:53:16.000Z</time>
      </trkpt>
      <trkpt lat="44.52322" lon="6.15495">
        <ele>934.4</ele>
        <time>2020-10-13T09:53:17.000Z</time>
      </trkpt>
      <trkpt lat="44.52328" lon="6.15499">
        <ele>935.3</ele>
        <time>2020-10-13T09:53:19.000Z</time>
      </trkpt>
      <trkpt lat="44.52333" lon="6.15501">
        <ele>935.4</ele>
        <time>2020-10-13T09:53:21.000Z</time>
      </trkpt>
      <trkpt lat="44.5234" lon="6.15505">
        <ele>935.2</ele>
        <time>2020-10-13T09:53:24.000Z</time>
      </trkpt>
      <trkpt lat="44.52345" lon="6.15509">
        <ele>934.6</ele>
        <time>2020-10-13T09:53:26.000Z</time>
      </trkpt>
      <trkpt lat="44.52357" lon="6.15513">
        <ele>934</ele>
        <time>2020-10-13T09:53:29.000Z</time>
      </trkpt>
      <trkpt lat="44.52367" lon="6.15518">
        <ele>934</ele>
        <time>2020-10-13T09:53:31.000Z</time>
      </trkpt>
      <trkpt lat="44.52372" lon="6.1552">
        <ele>933.6</ele>
        <time>2020-10-13T09:53:32.000Z</time>
      </trkpt>
      <trkpt lat="44.52379" lon="6.15523">
        <ele>933.7</ele>
        <time>2020-10-13T09:53:34.000Z</time>
      </trkpt>
      <trkpt lat="44.52385" lon="6.15527">
        <ele>933.8</ele>
        <time>2020-10-13T09:53:36.000Z</time>
      </trkpt>
      <trkpt lat="44.52379" lon="6.15521">
        <ele>931.9</ele>
        <time>2020-10-13T09:53:40.000Z</time>
      </trkpt>
      <trkpt lat="44.52375" lon="6.15521">
        <ele>932.5</ele>
        <time>2020-10-13T09:53:42.615Z</time>
      </trkpt>
      <trkpt lat="44.5237" lon="6.15527">
        <ele>933.4</ele>
        <time>2020-10-13T09:53:44.000Z</time>
      </trkpt>
      <trkpt lat="44.5237" lon="6.15535">
        <ele>934.2</ele>
        <time>2020-10-13T09:53:48.131Z</time>
      </trkpt>
      <trkpt lat="44.5237" lon="6.15542">
        <ele>935.1</ele>
        <time>2020-10-13T09:53:52.636Z</time>
      </trkpt>
      <trkpt lat="44.5237" lon="6.15552">
        <ele>934.1</ele>
        <time>2020-10-13T09:53:53.000Z</time>
      </trkpt>
      <trkpt lat="44.52374" lon="6.15573">
        <ele>934</ele>
        <time>2020-10-13T09:53:55.000Z</time>
      </trkpt>
      <trkpt lat="44.52368" lon="6.1558">
        <ele>934</ele>
        <time>2020-10-13T09:53:57.000Z</time>
      </trkpt>
      <trkpt lat="44.52362" lon="6.15586">
        <ele>934.2</ele>
        <time>2020-10-13T09:53:59.000Z</time>
      </trkpt>
      <trkpt lat="44.52355" lon="6.15589">
        <ele>932.9</ele>
        <time>2020-10-13T09:54:01.000Z</time>
      </trkpt>
      <trkpt lat="44.52358" lon="6.15583">
        <ele>933.1</ele>
        <time>2020-10-13T09:54:04.373Z</time>
      </trkpt>
      <trkpt lat="44.52363" lon="6.15586">
        <ele>928.6</ele>
        <time>2020-10-13T09:54:06.714Z</time>
      </trkpt>
      <trkpt lat="44.52369" lon="6.15593">
        <ele>927.4</ele>
        <time>2020-10-13T09:54:07.000Z</time>
      </trkpt>
      <trkpt lat="44.52374" lon="6.15601">
        <ele>927</ele>
        <time>2020-10-13T09:54:08.000Z</time>
      </trkpt>
      <trkpt lat="44.52371" lon="6.15591">
        <ele>928</ele>
        <time>2020-10-13T09:54:12.219Z</time>
      </trkpt>
      <trkpt lat="44.52375" lon="6.15594">
        <ele>925.8</ele>
        <time>2020-10-13T09:54:16.586Z</time>
      </trkpt>
      <trkpt lat="44.52378" lon="6.156">
        <ele>927.8</ele>
        <time>2020-10-13T09:54:19.701Z</time>
      </trkpt>
      <trkpt lat="44.52382" lon="6.1561">
        <ele>926.7</ele>
        <time>2020-10-13T09:54:24.640Z</time>
      </trkpt>
      <trkpt lat="44.52385" lon="6.15617">
        <ele>926.3</ele>
        <time>2020-10-13T09:54:27.678Z</time>
      </trkpt>
      <trkpt lat="44.52386" lon="6.15624">
        <ele>923.9</ele>
        <time>2020-10-13T09:54:29.000Z</time>
      </trkpt>
      <trkpt lat="44.52385" lon="6.15638">
        <ele>926</ele>
        <time>2020-10-13T09:54:32.000Z</time>
      </trkpt>
      <trkpt lat="44.52383" lon="6.15649">
        <ele>926.1</ele>
        <time>2020-10-13T09:54:34.780Z</time>
      </trkpt>
      <trkpt lat="44.52382" lon="6.15659">
        <ele>925.2</ele>
        <time>2020-10-13T09:54:36.459Z</time>
      </trkpt>
      <trkpt lat="44.52382" lon="6.15671">
        <ele>926.1</ele>
        <time>2020-10-13T09:54:39.742Z</time>
      </trkpt>
      <trkpt lat="44.52384" lon="6.15677">
        <ele>926.2</ele>
        <time>2020-10-13T09:54:41.000Z</time>
      </trkpt>
      <trkpt lat="44.52388" lon="6.15683">
        <ele>926.4</ele>
        <time>2020-10-13T09:54:44.000Z</time>
      </trkpt>
      <trkpt lat="44.52392" lon="6.15689">
        <ele>925.6</ele>
        <time>2020-10-13T09:54:49.218Z</time>
      </trkpt>
      <trkpt lat="44.52394" lon="6.15694">
        <ele>925.9</ele>
        <time>2020-10-13T09:54:50.803Z</time>
      </trkpt>
      <trkpt lat="44.52399" lon="6.15706">
        <ele>930.7</ele>
        <time>2020-10-13T09:54:53.244Z</time>
      </trkpt>
      <trkpt lat="44.52401" lon="6.15712">
        <ele>932.5</ele>
        <time>2020-10-13T09:54:54.644Z</time>
      </trkpt>
      <trkpt lat="44.52403" lon="6.15723">
        <ele>935.5</ele>
        <time>2020-10-13T09:54:56.000Z</time>
      </trkpt>
      <trkpt lat="44.52406" lon="6.15733">
        <ele>936.1</ele>
        <time>2020-10-13T09:54:59.385Z</time>
      </trkpt>
      <trkpt lat="44.52408" lon="6.15743">
        <ele>936</ele>
        <time>2020-10-13T09:55:01.000Z</time>
      </trkpt>
      <trkpt lat="44.52409" lon="6.15749">
        <ele>936.3</ele>
        <time>2020-10-13T09:55:04.405Z</time>
      </trkpt>
      <trkpt lat="44.5241" lon="6.1576">
        <ele>935.8</ele>
        <time>2020-10-13T09:55:07.461Z</time>
      </trkpt>
      <trkpt lat="44.5241" lon="6.15767">
        <ele>934.2</ele>
        <time>2020-10-13T09:55:08.000Z</time>
      </trkpt>
      <trkpt lat="44.52413" lon="6.15774">
        <ele>934.6</ele>
        <time>2020-10-13T09:55:10.598Z</time>
      </trkpt>
      <trkpt lat="44.52417" lon="6.15782">
        <ele>930.7</ele>
        <time>2020-10-13T09:55:13.327Z</time>
      </trkpt>
      <trkpt lat="44.5242" lon="6.15792">
        <ele>929.1</ele>
        <time>2020-10-13T09:55:16.915Z</time>
      </trkpt>
      <trkpt lat="44.52423" lon="6.158">
        <ele>928.4</ele>
        <time>2020-10-13T09:55:19.842Z</time>
      </trkpt>
      <trkpt lat="44.52427" lon="6.15807">
        <ele>929.9</ele>
        <time>2020-10-13T09:55:23.523Z</time>
      </trkpt>
      <trkpt lat="44.5243" lon="6.15813">
        <ele>929</ele>
        <time>2020-10-13T09:55:26.739Z</time>
      </trkpt>
      <trkpt lat="44.52431" lon="6.1582">
        <ele>928.8</ele>
        <time>2020-10-13T09:55:30.009Z</time>
      </trkpt>
      <trkpt lat="44.52431" lon="6.15834">
        <ele>930.1</ele>
        <time>2020-10-13T09:55:32.878Z</time>
      </trkpt>
      <trkpt lat="44.5243" lon="6.15843">
        <ele>930.6</ele>
        <time>2020-10-13T09:55:34.298Z</time>
      </trkpt>
      <trkpt lat="44.52429" lon="6.15853">
        <ele>930.7</ele>
        <time>2020-10-13T09:55:35.945Z</time>
      </trkpt>
      <trkpt lat="44.52425" lon="6.15878">
        <ele>928.1</ele>
        <time>2020-10-13T09:55:37.000Z</time>
      </trkpt>
      <trkpt lat="44.52422" lon="6.15889">
        <ele>927</ele>
        <time>2020-10-13T09:55:39.670Z</time>
      </trkpt>
      <trkpt lat="44.52422" lon="6.15898">
        <ele>924.5</ele>
        <time>2020-10-13T09:55:40.000Z</time>
      </trkpt>
      <trkpt lat="44.52422" lon="6.15907">
        <ele>919.9</ele>
        <time>2020-10-13T09:55:41.000Z</time>
      </trkpt>
      <trkpt lat="44.52423" lon="6.15916">
        <ele>917.4</ele>
        <time>2020-10-13T09:55:42.000Z</time>
      </trkpt>
      <trkpt lat="44.52426" lon="6.15926">
        <ele>916.6</ele>
        <time>2020-10-13T09:55:43.000Z</time>
      </trkpt>
      <trkpt lat="44.52429" lon="6.15937">
        <ele>916.4</ele>
        <time>2020-10-13T09:55:44.000Z</time>
      </trkpt>
      <trkpt lat="44.52434" lon="6.15949">
        <ele>915.2</ele>
        <time>2020-10-13T09:55:45.000Z</time>
      </trkpt>
      <trkpt lat="44.52444" lon="6.15971">
        <ele>916.1</ele>
        <time>2020-10-13T09:55:47.000Z</time>
      </trkpt>
      <trkpt lat="44.52457" lon="6.15986">
        <ele>917.4</ele>
        <time>2020-10-13T09:55:49.000Z</time>
      </trkpt>
      <trkpt lat="44.52462" lon="6.15991">
        <ele>916.9</ele>
        <time>2020-10-13T09:55:50.000Z</time>
      </trkpt>
      <trkpt lat="44.52467" lon="6.15995">
        <ele>916.4</ele>
        <time>2020-10-13T09:55:51.000Z</time>
      </trkpt>
      <trkpt lat="44.52475" lon="6.15998">
        <ele>917.1</ele>
        <time>2020-10-13T09:55:53.000Z</time>
      </trkpt>
      <trkpt lat="44.52482" lon="6.16003">
        <ele>916.9</ele>
        <time>2020-10-13T09:55:55.000Z</time>
      </trkpt>
      <trkpt lat="44.52482" lon="6.16011">
        <ele>912.4</ele>
        <time>2020-10-13T09:55:58.000Z</time>
      </trkpt>
      <trkpt lat="44.52482" lon="6.1602">
        <ele>912.8</ele>
        <time>2020-10-13T09:56:01.880Z</time>
      </trkpt>
      <trkpt lat="44.52482" lon="6.16027">
        <ele>910.1</ele>
        <time>2020-10-13T09:56:04.000Z</time>
      </trkpt>
      <trkpt lat="44.52482" lon="6.16036">
        <ele>909</ele>
        <time>2020-10-13T09:56:07.586Z</time>
      </trkpt>
      <trkpt lat="44.52485" lon="6.1605">
        <ele>907.2</ele>
        <time>2020-10-13T09:56:10.381Z</time>
      </trkpt>
      <trkpt lat="44.52486" lon="6.16058">
        <ele>906.9</ele>
        <time>2020-10-13T09:56:11.000Z</time>
      </trkpt>
      <trkpt lat="44.52482" lon="6.16066">
        <ele>903.7</ele>
        <time>2020-10-13T09:56:14.000Z</time>
      </trkpt>
      <trkpt lat="44.52479" lon="6.16073">
        <ele>904.3</ele>
        <time>2020-10-13T09:56:16.000Z</time>
      </trkpt>
      <trkpt lat="44.52478" lon="6.16083">
        <ele>904.6</ele>
        <time>2020-10-13T09:56:18.000Z</time>
      </trkpt>
      <trkpt lat="44.52478" lon="6.16092">
        <ele>903.7</ele>
        <time>2020-10-13T09:56:20.000Z</time>
      </trkpt>
      <trkpt lat="44.52477" lon="6.16102">
        <ele>902.5</ele>
        <time>2020-10-13T09:56:22.000Z</time>
      </trkpt>
      <trkpt lat="44.52479" lon="6.16117">
        <ele>901.1</ele>
        <time>2020-10-13T09:56:25.000Z</time>
      </trkpt>
      <trkpt lat="44.52481" lon="6.16125">
        <ele>900.6</ele>
        <time>2020-10-13T09:56:29.818Z</time>
      </trkpt>
      <trkpt lat="44.52481" lon="6.16132">
        <ele>901.1</ele>
        <time>2020-10-13T09:56:32.447Z</time>
      </trkpt>
      <trkpt lat="44.5248" lon="6.16143">
        <ele>901.7</ele>
        <time>2020-10-13T09:56:35.285Z</time>
      </trkpt>
      <trkpt lat="44.52477" lon="6.16148">
        <ele>901.7</ele>
        <time>2020-10-13T09:56:37.000Z</time>
      </trkpt>
      <trkpt lat="44.52471" lon="6.16153">
        <ele>900.5</ele>
        <time>2020-10-13T09:56:40.422Z</time>
      </trkpt>
      <trkpt lat="44.52465" lon="6.16157">
        <ele>900.2</ele>
        <time>2020-10-13T09:56:42.625Z</time>
      </trkpt>
      <trkpt lat="44.52457" lon="6.1616">
        <ele>897.5</ele>
        <time>2020-10-13T09:56:45.000Z</time>
      </trkpt>
      <trkpt lat="44.52449" lon="6.16159">
        <ele>896.6</ele>
        <time>2020-10-13T09:56:47.724Z</time>
      </trkpt>
      <trkpt lat="44.52446" lon="6.16166">
        <ele>896.6</ele>
        <time>2020-10-13T09:56:50.801Z</time>
      </trkpt>
      <trkpt lat="44.52441" lon="6.16168">
        <ele>892.8</ele>
        <time>2020-10-13T09:56:52.000Z</time>
      </trkpt>
      <trkpt lat="44.52435" lon="6.1617">
        <ele>893.2</ele>
        <time>2020-10-13T09:56:54.000Z</time>
      </trkpt>
      <trkpt lat="44.52431" lon="6.16174">
        <ele>891.7</ele>
        <time>2020-10-13T09:56:57.402Z</time>
      </trkpt>
      <trkpt lat="44.52424" lon="6.16176">
        <ele>889.4</ele>
        <time>2020-10-13T09:56:59.820Z</time>
      </trkpt>
      <trkpt lat="44.52412" lon="6.16181">
        <ele>884.5</ele>
        <time>2020-10-13T09:57:02.042Z</time>
      </trkpt>
      <trkpt lat="44.52406" lon="6.16185">
        <ele>883.2</ele>
        <time>2020-10-13T09:57:03.301Z</time>
      </trkpt>
      <trkpt lat="44.52399" lon="6.16187">
        <ele>881</ele>
        <time>2020-10-13T09:57:04.663Z</time>
      </trkpt>
      <trkpt lat="44.52388" lon="6.16189">
        <ele>877.5</ele>
        <time>2020-10-13T09:57:06.059Z</time>
      </trkpt>
      <trkpt lat="44.52369" lon="6.16196">
        <ele>876.2</ele>
        <time>2020-10-13T09:57:07.000Z</time>
      </trkpt>
      <trkpt lat="44.52362" lon="6.16198">
        <ele>877.8</ele>
        <time>2020-10-13T09:57:10.049Z</time>
      </trkpt>
      <trkpt lat="44.5235" lon="6.16214">
        <ele>874.4</ele>
        <time>2020-10-13T09:57:12.000Z</time>
      </trkpt>
      <trkpt lat="44.5233" lon="6.16229">
        <ele>870.8</ele>
        <time>2020-10-13T09:57:14.000Z</time>
      </trkpt>
      <trkpt lat="44.5232" lon="6.16234">
        <ele>871.1</ele>
        <time>2020-10-13T09:57:15.000Z</time>
      </trkpt>
      <trkpt lat="44.523" lon="6.16246">
        <ele>870.4</ele>
        <time>2020-10-13T09:57:17.000Z</time>
      </trkpt>
      <trkpt lat="44.52292" lon="6.16255">
        <ele>869.2</ele>
        <time>2020-10-13T09:57:18.000Z</time>
      </trkpt>
      <trkpt lat="44.52284" lon="6.16264">
        <ele>864.5</ele>
        <time>2020-10-13T09:57:19.000Z</time>
      </trkpt>
      <trkpt lat="44.5228" lon="6.16271">
        <ele>862.2</ele>
        <time>2020-10-13T09:57:20.000Z</time>
      </trkpt>
      <trkpt lat="44.52272" lon="6.16284">
        <ele>861.8</ele>
        <time>2020-10-13T09:57:22.000Z</time>
      </trkpt>
      <trkpt lat="44.5226" lon="6.16293">
        <ele>861.6</ele>
        <time>2020-10-13T09:57:24.000Z</time>
      </trkpt>
      <trkpt lat="44.52245" lon="6.16298">
        <ele>861</ele>
        <time>2020-10-13T09:57:26.000Z</time>
      </trkpt>
      <trkpt lat="44.52238" lon="6.163">
        <ele>860.9</ele>
        <time>2020-10-13T09:57:27.000Z</time>
      </trkpt>
      <trkpt lat="44.52222" lon="6.16293">
        <ele>860</ele>
        <time>2020-10-13T09:57:29.000Z</time>
      </trkpt>
      <trkpt lat="44.52216" lon="6.16288">
        <ele>860.6</ele>
        <time>2020-10-13T09:57:30.000Z</time>
      </trkpt>
      <trkpt lat="44.52205" lon="6.16276">
        <ele>860.7</ele>
        <time>2020-10-13T09:57:32.000Z</time>
      </trkpt>
      <trkpt lat="44.52199" lon="6.16271">
        <ele>862.3</ele>
        <time>2020-10-13T09:57:33.000Z</time>
      </trkpt>
      <trkpt lat="44.52188" lon="6.16268">
        <ele>860</ele>
        <time>2020-10-13T09:57:35.000Z</time>
      </trkpt>
      <trkpt lat="44.52175" lon="6.16272">
        <ele>857.4</ele>
        <time>2020-10-13T09:57:37.000Z</time>
      </trkpt>
      <trkpt lat="44.52169" lon="6.16275">
        <ele>856.2</ele>
        <time>2020-10-13T09:57:38.000Z</time>
      </trkpt>
      <trkpt lat="44.52163" lon="6.16276">
        <ele>854.6</ele>
        <time>2020-10-13T09:57:39.000Z</time>
      </trkpt>
      <trkpt lat="44.52151" lon="6.1628">
        <ele>849.7</ele>
        <time>2020-10-13T09:57:41.000Z</time>
      </trkpt>
      <trkpt lat="44.52145" lon="6.16281">
        <ele>845.3</ele>
        <time>2020-10-13T09:57:42.000Z</time>
      </trkpt>
      <trkpt lat="44.52138" lon="6.16285">
        <ele>843.4</ele>
        <time>2020-10-13T09:57:44.000Z</time>
      </trkpt>
      <trkpt lat="44.52137" lon="6.16292">
        <ele>843.2</ele>
        <time>2020-10-13T09:57:45.000Z</time>
      </trkpt>
      <trkpt lat="44.52139" lon="6.16298">
        <ele>843</ele>
        <time>2020-10-13T09:57:46.000Z</time>
      </trkpt>
      <trkpt lat="44.52144" lon="6.16304">
        <ele>841.9</ele>
        <time>2020-10-13T09:57:47.000Z</time>
      </trkpt>
      <trkpt lat="44.52149" lon="6.16309">
        <ele>841.3</ele>
        <time>2020-10-13T09:57:48.000Z</time>
      </trkpt>
      <trkpt lat="44.52153" lon="6.16313">
        <ele>839.6</ele>
        <time>2020-10-13T09:57:49.000Z</time>
      </trkpt>
      <trkpt lat="44.52153" lon="6.16305">
        <ele>839.3</ele>
        <time>2020-10-13T09:57:51.666Z</time>
      </trkpt>
      <trkpt lat="44.52159" lon="6.16307">
        <ele>835.9</ele>
        <time>2020-10-13T09:57:55.898Z</time>
      </trkpt>
      <trkpt lat="44.52154" lon="6.16305">
        <ele>833.1</ele>
        <time>2020-10-13T09:57:59.540Z</time>
      </trkpt>
      <trkpt lat="44.52142" lon="6.16313">
        <ele>828.4</ele>
        <time>2020-10-13T09:58:00.000Z</time>
      </trkpt>
      <trkpt lat="44.52134" lon="6.16319">
        <ele>827</ele>
        <time>2020-10-13T09:58:01.000Z</time>
      </trkpt>
      <trkpt lat="44.52125" lon="6.16326">
        <ele>824.8</ele>
        <time>2020-10-13T09:58:03.000Z</time>
      </trkpt>
      <trkpt lat="44.52119" lon="6.16332">
        <ele>825</ele>
        <time>2020-10-13T09:58:05.000Z</time>
      </trkpt>
      <trkpt lat="44.52109" lon="6.16335">
        <ele>819.9</ele>
        <time>2020-10-13T09:58:08.000Z</time>
      </trkpt>
      <trkpt lat="44.52102" lon="6.16334">
        <ele>818.4</ele>
        <time>2020-10-13T09:58:09.000Z</time>
      </trkpt>
      <trkpt lat="44.52096" lon="6.16335">
        <ele>816.5</ele>
        <time>2020-10-13T09:58:10.000Z</time>
      </trkpt>
      <trkpt lat="44.5209" lon="6.16337">
        <ele>814.2</ele>
        <time>2020-10-13T09:58:11.000Z</time>
      </trkpt>
      <trkpt lat="44.52086" lon="6.16337">
        <ele>812.6</ele>
        <time>2020-10-13T09:58:12.000Z</time>
      </trkpt>
      <trkpt lat="44.52081" lon="6.16335">
        <ele>809.3</ele>
        <time>2020-10-13T09:58:13.000Z</time>
      </trkpt>
      <trkpt lat="44.52074" lon="6.16327">
        <ele>807</ele>
        <time>2020-10-13T09:58:15.000Z</time>
      </trkpt>
      <trkpt lat="44.52065" lon="6.16316">
        <ele>805.5</ele>
        <time>2020-10-13T09:58:18.000Z</time>
      </trkpt>
      <trkpt lat="44.52057" lon="6.16311">
        <ele>805.3</ele>
        <time>2020-10-13T09:58:21.000Z</time>
      </trkpt>
      <trkpt lat="44.52053" lon="6.16312">
        <ele>805.7</ele>
        <time>2020-10-13T09:58:23.000Z</time>
      </trkpt>
      <trkpt lat="44.52048" lon="6.16307">
        <ele>808.9</ele>
        <time>2020-10-13T09:58:26.000Z</time>
      </trkpt>
      <trkpt lat="44.52043" lon="6.16306">
        <ele>811.1</ele>
        <time>2020-10-13T09:58:44.000Z</time>
      </trkpt>
      <trkpt lat="44.52041" lon="6.163">
        <ele>807.1</ele>
        <time>2020-10-13T09:59:43.000Z</time>
      </trkpt>
      <trkpt lat="44.52038" lon="6.16305">
        <ele>806.1</ele>
        <time>2020-10-13T09:59:58.000Z</time>
      </trkpt>
      <trkpt lat="44.52037" lon="6.16312">
        <ele>806.6</ele>
        <time>2020-10-13T10:00:00.651Z</time>
      </trkpt>
      <trkpt lat="44.52033" lon="6.16323">
        <ele>807.3</ele>
        <time>2020-10-13T10:00:01.000Z</time>
      </trkpt>
      <trkpt lat="44.52029" lon="6.16339">
        <ele>807.4</ele>
        <time>2020-10-13T10:00:03.000Z</time>
      </trkpt>
      <trkpt lat="44.52028" lon="6.16348">
        <ele>807.5</ele>
        <time>2020-10-13T10:00:04.000Z</time>
      </trkpt>
      <trkpt lat="44.52026" lon="6.16356">
        <ele>807</ele>
        <time>2020-10-13T10:00:05.000Z</time>
      </trkpt>
      <trkpt lat="44.52025" lon="6.16374">
        <ele>806</ele>
        <time>2020-10-13T10:00:07.000Z</time>
      </trkpt>
      <trkpt lat="44.52028" lon="6.16392">
        <ele>792.9</ele>
        <time>2020-10-13T10:00:09.000Z</time>
      </trkpt>
      <trkpt lat="44.52028" lon="6.16401">
        <ele>793.2</ele>
        <time>2020-10-13T10:00:10.000Z</time>
      </trkpt>
      <trkpt lat="44.52022" lon="6.16424">
        <ele>793.4</ele>
        <time>2020-10-13T10:00:12.000Z</time>
      </trkpt>
      <trkpt lat="44.52019" lon="6.16436">
        <ele>792.4</ele>
        <time>2020-10-13T10:00:13.000Z</time>
      </trkpt>
      <trkpt lat="44.52016" lon="6.16447">
        <ele>792.8</ele>
        <time>2020-10-13T10:00:14.000Z</time>
      </trkpt>
      <trkpt lat="44.52014" lon="6.16459">
        <ele>795.1</ele>
        <time>2020-10-13T10:00:15.000Z</time>
      </trkpt>
      <trkpt lat="44.52009" lon="6.16482">
        <ele>792.4</ele>
        <time>2020-10-13T10:00:17.000Z</time>
      </trkpt>
      <trkpt lat="44.52006" lon="6.16505">
        <ele>793.2</ele>
        <time>2020-10-13T10:00:19.000Z</time>
      </trkpt>
      <trkpt lat="44.52003" lon="6.16519">
        <ele>793.7</ele>
        <time>2020-10-13T10:00:20.000Z</time>
      </trkpt>
      <trkpt lat="44.52" lon="6.16533">
        <ele>793.2</ele>
        <time>2020-10-13T10:00:21.000Z</time>
      </trkpt>
      <trkpt lat="44.51998" lon="6.16548">
        <ele>792.2</ele>
        <time>2020-10-13T10:00:22.000Z</time>
      </trkpt>
      <trkpt lat="44.51994" lon="6.16581">
        <ele>794.5</ele>
        <time>2020-10-13T10:00:24.000Z</time>
      </trkpt>
      <trkpt lat="44.51991" lon="6.16597">
        <ele>794.7</ele>
        <time>2020-10-13T10:00:25.000Z</time>
      </trkpt>
      <trkpt lat="44.51986" lon="6.16628">
        <ele>794.3</ele>
        <time>2020-10-13T10:00:27.000Z</time>
      </trkpt>
      <trkpt lat="44.51981" lon="6.16642">
        <ele>792.8</ele>
        <time>2020-10-13T10:00:28.000Z</time>
      </trkpt>
      <trkpt lat="44.51977" lon="6.16657">
        <ele>792.1</ele>
        <time>2020-10-13T10:00:29.000Z</time>
      </trkpt>
      <trkpt lat="44.51971" lon="6.16684">
        <ele>793</ele>
        <time>2020-10-13T10:00:31.000Z</time>
      </trkpt>
      <trkpt lat="44.51966" lon="6.16713">
        <ele>791.9</ele>
        <time>2020-10-13T10:00:33.000Z</time>
      </trkpt>
      <trkpt lat="44.51963" lon="6.16727">
        <ele>791.8</ele>
        <time>2020-10-13T10:00:34.000Z</time>
      </trkpt>
      <trkpt lat="44.51956" lon="6.16761">
        <ele>790.4</ele>
        <time>2020-10-13T10:00:36.000Z</time>
      </trkpt>
      <trkpt lat="44.51947" lon="6.168">
        <ele>789.7</ele>
        <time>2020-10-13T10:00:38.000Z</time>
      </trkpt>
      <trkpt lat="44.51943" lon="6.16817">
        <ele>789.3</ele>
        <time>2020-10-13T10:00:39.000Z</time>
      </trkpt>
      <trkpt lat="44.51936" lon="6.16851">
        <ele>791.4</ele>
        <time>2020-10-13T10:00:41.000Z</time>
      </trkpt>
      <trkpt lat="44.51928" lon="6.16886">
        <ele>791</ele>
        <time>2020-10-13T10:00:43.000Z</time>
      </trkpt>
      <trkpt lat="44.51925" lon="6.169">
        <ele>790.4</ele>
        <time>2020-10-13T10:00:44.000Z</time>
      </trkpt>
      <trkpt lat="44.51923" lon="6.16913">
        <ele>790.7</ele>
        <time>2020-10-13T10:00:45.000Z</time>
      </trkpt>
      <trkpt lat="44.51918" lon="6.1694">
        <ele>790.1</ele>
        <time>2020-10-13T10:00:47.000Z</time>
      </trkpt>
      <trkpt lat="44.51914" lon="6.1696">
        <ele>788.4</ele>
        <time>2020-10-13T10:00:49.000Z</time>
      </trkpt>
      <trkpt lat="44.51913" lon="6.16967">
        <ele>789.6</ele>
        <time>2020-10-13T10:00:50.000Z</time>
      </trkpt>
      <trkpt lat="44.51909" lon="6.16981">
        <ele>791.8</ele>
        <time>2020-10-13T10:00:52.000Z</time>
      </trkpt>
      <trkpt lat="44.51907" lon="6.16994">
        <ele>790.4</ele>
        <time>2020-10-13T10:00:54.000Z</time>
      </trkpt>
      <trkpt lat="44.51906" lon="6.17002">
        <ele>792</ele>
        <time>2020-10-13T10:00:55.000Z</time>
      </trkpt>
      <trkpt lat="44.51905" lon="6.17009">
        <ele>791.3</ele>
        <time>2020-10-13T10:00:56.000Z</time>
      </trkpt>
      <trkpt lat="44.51903" lon="6.17025">
        <ele>792.3</ele>
        <time>2020-10-13T10:00:58.000Z</time>
      </trkpt>
      <trkpt lat="44.51901" lon="6.17032">
        <ele>791.1</ele>
        <time>2020-10-13T10:00:59.000Z</time>
      </trkpt>
      <trkpt lat="44.51899" lon="6.17046">
        <ele>791.5</ele>
        <time>2020-10-13T10:01:01.000Z</time>
      </trkpt>
      <trkpt lat="44.51895" lon="6.17063">
        <ele>791.2</ele>
        <time>2020-10-13T10:01:04.000Z</time>
      </trkpt>
      <trkpt lat="44.51893" lon="6.17069">
        <ele>791</ele>
        <time>2020-10-13T10:01:05.000Z</time>
      </trkpt>
      <trkpt lat="44.51891" lon="6.17079">
        <ele>790.1</ele>
        <time>2020-10-13T10:01:07.000Z</time>
      </trkpt>
      <trkpt lat="44.51888" lon="6.17089">
        <ele>791</ele>
        <time>2020-10-13T10:01:09.000Z</time>
      </trkpt>
      <trkpt lat="44.51878" lon="6.17094">
        <ele>789.7</ele>
        <time>2020-10-13T10:01:12.000Z</time>
      </trkpt>
      <trkpt lat="44.51875" lon="6.17102">
        <ele>790.8</ele>
        <time>2020-10-13T10:01:14.000Z</time>
      </trkpt>
      <trkpt lat="44.51872" lon="6.17108">
        <ele>791.3</ele>
        <time>2020-10-13T10:01:15.000Z</time>
      </trkpt>
      <trkpt lat="44.51867" lon="6.17104">
        <ele>790.5</ele>
        <time>2020-10-13T10:01:19.754Z</time>
      </trkpt>
      <trkpt lat="44.51867" lon="6.17113">
        <ele>789.3</ele>
        <time>2020-10-13T10:01:21.936Z</time>
      </trkpt>
      <trkpt lat="44.51869" lon="6.1712">
        <ele>790.7</ele>
        <time>2020-10-13T10:01:24.000Z</time>
      </trkpt>
      <trkpt lat="44.51869" lon="6.17128">
        <ele>790</ele>
        <time>2020-10-13T10:01:26.000Z</time>
      </trkpt>
      <trkpt lat="44.5187" lon="6.17136">
        <ele>788.6</ele>
        <time>2020-10-13T10:01:28.000Z</time>
      </trkpt>
      <trkpt lat="44.5187" lon="6.17143">
        <ele>788</ele>
        <time>2020-10-13T10:01:30.000Z</time>
      </trkpt>
      <trkpt lat="44.51869" lon="6.1715">
        <ele>788.9</ele>
        <time>2020-10-13T10:01:33.137Z</time>
      </trkpt>
      <trkpt lat="44.51867" lon="6.17157">
        <ele>788.6</ele>
        <time>2020-10-13T10:01:35.875Z</time>
      </trkpt>
      <trkpt lat="44.51865" lon="6.17167">
        <ele>786.8</ele>
        <time>2020-10-13T10:01:38.000Z</time>
      </trkpt>
      <trkpt lat="44.51863" lon="6.17173">
        <ele>786.2</ele>
        <time>2020-10-13T10:01:41.000Z</time>
      </trkpt>
      <trkpt lat="44.51866" lon="6.17183">
        <ele>786.7</ele>
        <time>2020-10-13T10:01:45.856Z</time>
      </trkpt>
      <trkpt lat="44.51872" lon="6.17188">
        <ele>787.4</ele>
        <time>2020-10-13T10:01:48.496Z</time>
      </trkpt>
      <trkpt lat="44.51877" lon="6.17194">
        <ele>788.4</ele>
        <time>2020-10-13T10:01:50.000Z</time>
      </trkpt>
      <trkpt lat="44.51881" lon="6.17203">
        <ele>787.3</ele>
        <time>2020-10-13T10:01:53.495Z</time>
      </trkpt>
      <trkpt lat="44.51884" lon="6.17209">
        <ele>786.5</ele>
        <time>2020-10-13T10:01:54.000Z</time>
      </trkpt>
      <trkpt lat="44.5189" lon="6.1722">
        <ele>788.1</ele>
        <time>2020-10-13T10:01:57.000Z</time>
      </trkpt>
      <trkpt lat="44.51893" lon="6.17224">
        <ele>789.2</ele>
        <time>2020-10-13T10:01:59.814Z</time>
      </trkpt>
      <trkpt lat="44.519" lon="6.17231">
        <ele>791.2</ele>
        <time>2020-10-13T10:02:03.539Z</time>
      </trkpt>
      <trkpt lat="44.51905" lon="6.17238">
        <ele>791.4</ele>
        <time>2020-10-13T10:02:06.000Z</time>
      </trkpt>
      <trkpt lat="44.51911" lon="6.17246">
        <ele>792.9</ele>
        <time>2020-10-13T10:02:09.000Z</time>
      </trkpt>
      <trkpt lat="44.51916" lon="6.17254">
        <ele>794.6</ele>
        <time>2020-10-13T10:02:12.000Z</time>
      </trkpt>
      <trkpt lat="44.51918" lon="6.1726">
        <ele>793.4</ele>
        <time>2020-10-13T10:02:14.000Z</time>
      </trkpt>
      <trkpt lat="44.51921" lon="6.17268">
        <ele>794.3</ele>
        <time>2020-10-13T10:02:17.000Z</time>
      </trkpt>
      <trkpt lat="44.51923" lon="6.17277">
        <ele>795.9</ele>
        <time>2020-10-13T10:02:20.000Z</time>
      </trkpt>
      <trkpt lat="44.51923" lon="6.17287">
        <ele>797.4</ele>
        <time>2020-10-13T10:02:23.000Z</time>
      </trkpt>
      <trkpt lat="44.51923" lon="6.17293">
        <ele>795.6</ele>
        <time>2020-10-13T10:02:25.000Z</time>
      </trkpt>
      <trkpt lat="44.51923" lon="6.17302">
        <ele>795.9</ele>
        <time>2020-10-13T10:02:28.181Z</time>
      </trkpt>
      <trkpt lat="44.51923" lon="6.17309">
        <ele>796.8</ele>
        <time>2020-10-13T10:02:29.000Z</time>
      </trkpt>
      <trkpt lat="44.51925" lon="6.17316">
        <ele>797.8</ele>
        <time>2020-10-13T10:02:31.000Z</time>
      </trkpt>
      <trkpt lat="44.51929" lon="6.17321">
        <ele>797.7</ele>
        <time>2020-10-13T10:02:33.000Z</time>
      </trkpt>
      <trkpt lat="44.51933" lon="6.17327">
        <ele>798.2</ele>
        <time>2020-10-13T10:02:36.573Z</time>
      </trkpt>
      <trkpt lat="44.51938" lon="6.17331">
        <ele>799</ele>
        <time>2020-10-13T10:02:38.980Z</time>
      </trkpt>
      <trkpt lat="44.51939" lon="6.1734">
        <ele>799.8</ele>
        <time>2020-10-13T10:02:41.851Z</time>
      </trkpt>
      <trkpt lat="44.51938" lon="6.17351">
        <ele>802</ele>
        <time>2020-10-13T10:02:45.554Z</time>
      </trkpt>
      <trkpt lat="44.51937" lon="6.17361">
        <ele>801.8</ele>
        <time>2020-10-13T10:02:48.520Z</time>
      </trkpt>
      <trkpt lat="44.51936" lon="6.17367">
        <ele>800</ele>
        <time>2020-10-13T10:02:49.000Z</time>
      </trkpt>
      <trkpt lat="44.51933" lon="6.17375">
        <ele>800.2</ele>
        <time>2020-10-13T10:02:53.520Z</time>
      </trkpt>
      <trkpt lat="44.51929" lon="6.17379">
        <ele>799.9</ele>
        <time>2020-10-13T10:02:56.000Z</time>
      </trkpt>
      <trkpt lat="44.51925" lon="6.17385">
        <ele>801</ele>
        <time>2020-10-13T10:03:00.942Z</time>
      </trkpt>
      <trkpt lat="44.51923" lon="6.17393">
        <ele>804.4</ele>
        <time>2020-10-13T10:03:05.000Z</time>
      </trkpt>
      <trkpt lat="44.51924" lon="6.17399">
        <ele>805.1</ele>
        <time>2020-10-13T10:03:10.455Z</time>
      </trkpt>
      <trkpt lat="44.51926" lon="6.17406">
        <ele>806.1</ele>
        <time>2020-10-13T10:03:14.294Z</time>
      </trkpt>
      <trkpt lat="44.5193" lon="6.17413">
        <ele>806</ele>
        <time>2020-10-13T10:03:17.000Z</time>
      </trkpt>
      <trkpt lat="44.51934" lon="6.17422">
        <ele>805.3</ele>
        <time>2020-10-13T10:03:20.891Z</time>
      </trkpt>
      <trkpt lat="44.51938" lon="6.17432">
        <ele>809.9</ele>
        <time>2020-10-13T10:03:23.700Z</time>
      </trkpt>
      <trkpt lat="44.51941" lon="6.17441">
        <ele>810.1</ele>
        <time>2020-10-13T10:03:25.977Z</time>
      </trkpt>
      <trkpt lat="44.51944" lon="6.17451">
        <ele>809.5</ele>
        <time>2020-10-13T10:03:28.000Z</time>
      </trkpt>
      <trkpt lat="44.51947" lon="6.1746">
        <ele>808.3</ele>
        <time>2020-10-13T10:03:31.576Z</time>
      </trkpt>
      <trkpt lat="44.51949" lon="6.17473">
        <ele>808.5</ele>
        <time>2020-10-13T10:03:34.673Z</time>
      </trkpt>
      <trkpt lat="44.51949" lon="6.17482">
        <ele>809.1</ele>
        <time>2020-10-13T10:03:35.892Z</time>
      </trkpt>
      <trkpt lat="44.51953" lon="6.17492">
        <ele>810</ele>
        <time>2020-10-13T10:03:38.356Z</time>
      </trkpt>
      <trkpt lat="44.51955" lon="6.17502">
        <ele>810.1</ele>
        <time>2020-10-13T10:03:40.000Z</time>
      </trkpt>
      <trkpt lat="44.51957" lon="6.17511">
        <ele>812.6</ele>
        <time>2020-10-13T10:03:43.000Z</time>
      </trkpt>
      <trkpt lat="44.5196" lon="6.17522">
        <ele>813.7</ele>
        <time>2020-10-13T10:03:46.000Z</time>
      </trkpt>
      <trkpt lat="44.51963" lon="6.1753">
        <ele>815.3</ele>
        <time>2020-10-13T10:03:49.186Z</time>
      </trkpt>
      <trkpt lat="44.51966" lon="6.1754">
        <ele>814.8</ele>
        <time>2020-10-13T10:03:51.000Z</time>
      </trkpt>
      <trkpt lat="44.51968" lon="6.17551">
        <ele>814.6</ele>
        <time>2020-10-13T10:03:54.893Z</time>
      </trkpt>
      <trkpt lat="44.51972" lon="6.17558">
        <ele>814</ele>
        <time>2020-10-13T10:03:56.000Z</time>
      </trkpt>
      <trkpt lat="44.51977" lon="6.17565">
        <ele>814.6</ele>
        <time>2020-10-13T10:03:59.678Z</time>
      </trkpt>
      <trkpt lat="44.51982" lon="6.17572">
        <ele>812.4</ele>
        <time>2020-10-13T10:04:02.514Z</time>
      </trkpt>
      <trkpt lat="44.51988" lon="6.17581">
        <ele>814.8</ele>
        <time>2020-10-13T10:04:05.000Z</time>
      </trkpt>
      <trkpt lat="44.51994" lon="6.1759">
        <ele>815.3</ele>
        <time>2020-10-13T10:04:08.932Z</time>
      </trkpt>
      <trkpt lat="44.51997" lon="6.17597">
        <ele>812</ele>
        <time>2020-10-13T10:04:11.174Z</time>
      </trkpt>
      <trkpt lat="44.51999" lon="6.17606">
        <ele>811.5</ele>
        <time>2020-10-13T10:04:13.000Z</time>
      </trkpt>
      <trkpt lat="44.52" lon="6.17616">
        <ele>816.4</ele>
        <time>2020-10-13T10:04:16.000Z</time>
      </trkpt>
      <trkpt lat="44.52001" lon="6.17624">
        <ele>816.7</ele>
        <time>2020-10-13T10:04:19.480Z</time>
      </trkpt>
      <trkpt lat="44.52001" lon="6.17634">
        <ele>814.9</ele>
        <time>2020-10-13T10:04:22.753Z</time>
      </trkpt>
      <trkpt lat="44.52001" lon="6.17643">
        <ele>813.9</ele>
        <time>2020-10-13T10:04:25.876Z</time>
      </trkpt>
      <trkpt lat="44.52002" lon="6.17649">
        <ele>814.8</ele>
        <time>2020-10-13T10:04:28.142Z</time>
      </trkpt>
      <trkpt lat="44.52004" lon="6.17657">
        <ele>814</ele>
        <time>2020-10-13T10:04:31.116Z</time>
      </trkpt>
      <trkpt lat="44.52006" lon="6.17668">
        <ele>813.1</ele>
        <time>2020-10-13T10:04:33.912Z</time>
      </trkpt>
      <trkpt lat="44.52007" lon="6.17679">
        <ele>812.8</ele>
        <time>2020-10-13T10:04:36.840Z</time>
      </trkpt>
      <trkpt lat="44.52008" lon="6.17687">
        <ele>811.9</ele>
        <time>2020-10-13T10:04:38.000Z</time>
      </trkpt>
      <trkpt lat="44.52011" lon="6.17696">
        <ele>812</ele>
        <time>2020-10-13T10:04:41.920Z</time>
      </trkpt>
      <trkpt lat="44.52013" lon="6.17704">
        <ele>812</ele>
        <time>2020-10-13T10:04:44.679Z</time>
      </trkpt>
      <trkpt lat="44.52015" lon="6.17713">
        <ele>812.7</ele>
        <time>2020-10-13T10:04:48.834Z</time>
      </trkpt>
      <trkpt lat="44.52014" lon="6.1772">
        <ele>812.6</ele>
        <time>2020-10-13T10:04:52.000Z</time>
      </trkpt>
      <trkpt lat="44.52013" lon="6.17728">
        <ele>813.5</ele>
        <time>2020-10-13T10:04:55.000Z</time>
      </trkpt>
      <trkpt lat="44.52014" lon="6.17738">
        <ele>813.3</ele>
        <time>2020-10-13T10:05:01.812Z</time>
      </trkpt>
      <trkpt lat="44.52012" lon="6.17749">
        <ele>814.2</ele>
        <time>2020-10-13T10:05:04.008Z</time>
      </trkpt>
      <trkpt lat="44.5201" lon="6.17759">
        <ele>813.7</ele>
        <time>2020-10-13T10:05:05.899Z</time>
      </trkpt>
      <trkpt lat="44.52007" lon="6.17776">
        <ele>812.2</ele>
        <time>2020-10-13T10:05:08.441Z</time>
      </trkpt>
      <trkpt lat="44.52006" lon="6.17786">
        <ele>814.5</ele>
        <time>2020-10-13T10:05:09.000Z</time>
      </trkpt>
      <trkpt lat="44.52004" lon="6.17793">
        <ele>815.7</ele>
        <time>2020-10-13T10:05:11.080Z</time>
      </trkpt>
      <trkpt lat="44.52001" lon="6.17804">
        <ele>815.2</ele>
        <time>2020-10-13T10:05:12.756Z</time>
      </trkpt>
      <trkpt lat="44.52" lon="6.1781">
        <ele>816.3</ele>
        <time>2020-10-13T10:05:13.000Z</time>
      </trkpt>
      <trkpt lat="44.51998" lon="6.17816">
        <ele>819.6</ele>
        <time>2020-10-13T10:05:15.235Z</time>
      </trkpt>
      <trkpt lat="44.51996" lon="6.17822">
        <ele>820.4</ele>
        <time>2020-10-13T10:05:16.833Z</time>
      </trkpt>
      <trkpt lat="44.51992" lon="6.1783">
        <ele>822.6</ele>
        <time>2020-10-13T10:05:18.000Z</time>
      </trkpt>
      <trkpt lat="44.51988" lon="6.17836">
        <ele>822.5</ele>
        <time>2020-10-13T10:05:20.851Z</time>
      </trkpt>
      <trkpt lat="44.51983" lon="6.17844">
        <ele>820.5</ele>
        <time>2020-10-13T10:05:23.000Z</time>
      </trkpt>
      <trkpt lat="44.51979" lon="6.17848">
        <ele>820.6</ele>
        <time>2020-10-13T10:05:25.773Z</time>
      </trkpt>
      <trkpt lat="44.51976" lon="6.17852">
        <ele>822</ele>
        <time>2020-10-13T10:05:27.000Z</time>
      </trkpt>
      <trkpt lat="44.51972" lon="6.17857">
        <ele>820.8</ele>
        <time>2020-10-13T10:05:29.840Z</time>
      </trkpt>
      <trkpt lat="44.51968" lon="6.17863">
        <ele>820.7</ele>
        <time>2020-10-13T10:05:32.292Z</time>
      </trkpt>
      <trkpt lat="44.51965" lon="6.17869">
        <ele>822.9</ele>
        <time>2020-10-13T10:05:34.000Z</time>
      </trkpt>
      <trkpt lat="44.51962" lon="6.17876">
        <ele>825.8</ele>
        <time>2020-10-13T10:05:37.000Z</time>
      </trkpt>
      <trkpt lat="44.51959" lon="6.17882">
        <ele>827.4</ele>
        <time>2020-10-13T10:05:40.655Z</time>
      </trkpt>
      <trkpt lat="44.51956" lon="6.17889">
        <ele>828.3</ele>
        <time>2020-10-13T10:05:42.000Z</time>
      </trkpt>
      <trkpt lat="44.51954" lon="6.17897">
        <ele>828.3</ele>
        <time>2020-10-13T10:05:45.636Z</time>
      </trkpt>
      <trkpt lat="44.51946" lon="6.17913">
        <ele>830.8</ele>
        <time>2020-10-13T10:05:48.858Z</time>
      </trkpt>
      <trkpt lat="44.51938" lon="6.17933">
        <ele>830.2</ele>
        <time>2020-10-13T10:05:50.000Z</time>
      </trkpt>
      <trkpt lat="44.51935" lon="6.1794">
        <ele>830.4</ele>
        <time>2020-10-13T10:05:51.000Z</time>
      </trkpt>
      <trkpt lat="44.51929" lon="6.17952">
        <ele>831.2</ele>
        <time>2020-10-13T10:05:53.959Z</time>
      </trkpt>
      <trkpt lat="44.51924" lon="6.17961">
        <ele>829.9</ele>
        <time>2020-10-13T10:05:55.756Z</time>
      </trkpt>
      <trkpt lat="44.51919" lon="6.17967">
        <ele>832.6</ele>
        <time>2020-10-13T10:05:56.000Z</time>
      </trkpt>
      <trkpt lat="44.51915" lon="6.17973">
        <ele>834</ele>
        <time>2020-10-13T10:05:58.475Z</time>
      </trkpt>
      <trkpt lat="44.51911" lon="6.17977">
        <ele>838.1</ele>
        <time>2020-10-13T10:05:59.000Z</time>
      </trkpt>
      <trkpt lat="44.51905" lon="6.17983">
        <ele>838.2</ele>
        <time>2020-10-13T10:06:02.000Z</time>
      </trkpt>
      <trkpt lat="44.51903" lon="6.17989">
        <ele>836.1</ele>
        <time>2020-10-13T10:06:07.879Z</time>
      </trkpt>
      <trkpt lat="44.51902" lon="6.17998">
        <ele>838.3</ele>
        <time>2020-10-13T10:06:10.000Z</time>
      </trkpt>
      <trkpt lat="44.51903" lon="6.18006">
        <ele>838.1</ele>
        <time>2020-10-13T10:06:12.000Z</time>
      </trkpt>
      <trkpt lat="44.51901" lon="6.18013">
        <ele>838.2</ele>
        <time>2020-10-13T10:06:18.000Z</time>
      </trkpt>
      <trkpt lat="44.51897" lon="6.18014">
        <ele>843.5</ele>
        <time>2020-10-13T10:06:25.021Z</time>
      </trkpt>
      <trkpt lat="44.51892" lon="6.18016">
        <ele>849.6</ele>
        <time>2020-10-13T10:06:42.000Z</time>
      </trkpt>
      <trkpt lat="44.51896" lon="6.18012">
        <ele>844.7</ele>
        <time>2020-10-13T10:06:54.000Z</time>
      </trkpt>
      <trkpt lat="44.51893" lon="6.18017">
        <ele>847.8</ele>
        <time>2020-10-13T10:07:30.000Z</time>
      </trkpt>
      <trkpt lat="44.51891" lon="6.18024">
        <ele>849</ele>
        <time>2020-10-13T10:07:37.000Z</time>
      </trkpt>
      <trkpt lat="44.51889" lon="6.1803">
        <ele>851.4</ele>
        <time>2020-10-13T10:07:53.000Z</time>
      </trkpt>
      <trkpt lat="44.51891" lon="6.18039">
        <ele>851.6</ele>
        <time>2020-10-13T10:07:58.000Z</time>
      </trkpt>
      <trkpt lat="44.51891" lon="6.18031">
        <ele>851.3</ele>
        <time>2020-10-13T10:08:03.415Z</time>
      </trkpt>
      <trkpt lat="44.5189" lon="6.18024">
        <ele>851.4</ele>
        <time>2020-10-13T10:08:09.596Z</time>
      </trkpt>
      <trkpt lat="44.51895" lon="6.1802">
        <ele>856.2</ele>
        <time>2020-10-13T10:08:19.000Z</time>
      </trkpt>
      <trkpt lat="44.519" lon="6.1802">
        <ele>856.8</ele>
        <time>2020-10-13T10:08:25.000Z</time>
      </trkpt>
      <trkpt lat="44.51906" lon="6.18018">
        <ele>851.5</ele>
        <time>2020-10-13T10:08:31.961Z</time>
      </trkpt>
      <trkpt lat="44.5191" lon="6.18019">
        <ele>849.4</ele>
        <time>2020-10-13T10:08:38.000Z</time>
      </trkpt>
      <trkpt lat="44.51906" lon="6.18015">
        <ele>849.6</ele>
        <time>2020-10-13T10:08:56.000Z</time>
      </trkpt>
      <trkpt lat="44.51901" lon="6.18017">
        <ele>860.8</ele>
        <time>2020-10-13T10:09:40.403Z</time>
      </trkpt>
      <trkpt lat="44.51897" lon="6.18018">
        <ele>860.7</ele>
        <time>2020-10-13T10:09:41.000Z</time>
      </trkpt>
      <trkpt lat="44.51887" lon="6.18019">
        <ele>858</ele>
        <time>2020-10-13T10:09:43.000Z</time>
      </trkpt>
      <trkpt lat="44.51891" lon="6.18015">
        <ele>853.1</ele>
        <time>2020-10-13T10:10:01.000Z</time>
      </trkpt>
      <trkpt lat="44.51894" lon="6.18021">
        <ele>842</ele>
        <time>2020-10-13T10:10:42.000Z</time>
      </trkpt>
      <trkpt lat="44.51898" lon="6.18027">
        <ele>835.4</ele>
        <time>2020-10-13T10:10:45.655Z</time>
      </trkpt>
      <trkpt lat="44.51901" lon="6.18033">
        <ele>839.2</ele>
        <time>2020-10-13T10:10:47.000Z</time>
      </trkpt>
      <trkpt lat="44.51904" lon="6.18042">
        <ele>835.5</ele>
        <time>2020-10-13T10:10:51.797Z</time>
      </trkpt>
      <trkpt lat="44.51906" lon="6.18053">
        <ele>838.7</ele>
        <time>2020-10-13T10:10:53.455Z</time>
      </trkpt>
      <trkpt lat="44.51908" lon="6.18061">
        <ele>838.9</ele>
        <time>2020-10-13T10:10:54.000Z</time>
      </trkpt>
      <trkpt lat="44.5191" lon="6.18068">
        <ele>838.8</ele>
        <time>2020-10-13T10:10:56.054Z</time>
      </trkpt>
      <trkpt lat="44.51913" lon="6.18077">
        <ele>839.7</ele>
        <time>2020-10-13T10:10:57.798Z</time>
      </trkpt>
      <trkpt lat="44.51914" lon="6.18083">
        <ele>840</ele>
        <time>2020-10-13T10:10:58.000Z</time>
      </trkpt>
      <trkpt lat="44.51917" lon="6.1809">
        <ele>841</ele>
        <time>2020-10-13T10:11:00.380Z</time>
      </trkpt>
      <trkpt lat="44.51919" lon="6.18097">
        <ele>841.5</ele>
        <time>2020-10-13T10:11:01.000Z</time>
      </trkpt>
      <trkpt lat="44.51921" lon="6.18106">
        <ele>841.3</ele>
        <time>2020-10-13T10:11:03.753Z</time>
      </trkpt>
      <trkpt lat="44.51923" lon="6.18117">
        <ele>843.8</ele>
        <time>2020-10-13T10:11:06.334Z</time>
      </trkpt>
      <trkpt lat="44.51925" lon="6.18125">
        <ele>841.9</ele>
        <time>2020-10-13T10:11:08.000Z</time>
      </trkpt>
      <trkpt lat="44.51929" lon="6.18134">
        <ele>841.1</ele>
        <time>2020-10-13T10:11:11.000Z</time>
      </trkpt>
      <trkpt lat="44.51932" lon="6.1814">
        <ele>839.5</ele>
        <time>2020-10-13T10:11:13.755Z</time>
      </trkpt>
      <trkpt lat="44.51935" lon="6.18149">
        <ele>838</ele>
        <time>2020-10-13T10:11:16.214Z</time>
      </trkpt>
      <trkpt lat="44.51938" lon="6.18158">
        <ele>840.6</ele>
        <time>2020-10-13T10:11:18.000Z</time>
      </trkpt>
      <trkpt lat="44.5194" lon="6.18164">
        <ele>842.3</ele>
        <time>2020-10-13T10:11:20.580Z</time>
      </trkpt>
      <trkpt lat="44.51943" lon="6.18173">
        <ele>842.7</ele>
        <time>2020-10-13T10:11:22.000Z</time>
      </trkpt>
      <trkpt lat="44.51947" lon="6.18177">
        <ele>843.5</ele>
        <time>2020-10-13T10:11:25.719Z</time>
      </trkpt>
      <trkpt lat="44.51952" lon="6.18179">
        <ele>840.8</ele>
        <time>2020-10-13T10:11:28.834Z</time>
      </trkpt>
      <trkpt lat="44.51959" lon="6.18179">
        <ele>841.9</ele>
        <time>2020-10-13T10:11:32.974Z</time>
      </trkpt>
      <trkpt lat="44.51965" lon="6.1818">
        <ele>842.2</ele>
        <time>2020-10-13T10:11:34.000Z</time>
      </trkpt>
      <trkpt lat="44.51969" lon="6.18182">
        <ele>843</ele>
        <time>2020-10-13T10:11:36.317Z</time>
      </trkpt>
      <trkpt lat="44.51975" lon="6.18184">
        <ele>844.6</ele>
        <time>2020-10-13T10:11:38.000Z</time>
      </trkpt>
      <trkpt lat="44.51983" lon="6.18183">
        <ele>846.3</ele>
        <time>2020-10-13T10:11:41.934Z</time>
      </trkpt>
      <trkpt lat="44.51989" lon="6.18178">
        <ele>849.8</ele>
        <time>2020-10-13T10:11:46.456Z</time>
      </trkpt>
      <trkpt lat="44.51993" lon="6.18172">
        <ele>847.7</ele>
        <time>2020-10-13T10:11:48.000Z</time>
      </trkpt>
      <trkpt lat="44.51996" lon="6.18163">
        <ele>848</ele>
        <time>2020-10-13T10:11:51.000Z</time>
      </trkpt>
      <trkpt lat="44.51997" lon="6.18154">
        <ele>847.1</ele>
        <time>2020-10-13T10:11:54.533Z</time>
      </trkpt>
      <trkpt lat="44.51999" lon="6.18144">
        <ele>846.7</ele>
        <time>2020-10-13T10:11:57.540Z</time>
      </trkpt>
      <trkpt lat="44.52" lon="6.18131">
        <ele>846.2</ele>
        <time>2020-10-13T10:12:00.495Z</time>
      </trkpt>
      <trkpt lat="44.51998" lon="6.18121">
        <ele>845.8</ele>
        <time>2020-10-13T10:12:01.853Z</time>
      </trkpt>
      <trkpt lat="44.51995" lon="6.18098">
        <ele>843.8</ele>
        <time>2020-10-13T10:12:04.823Z</time>
      </trkpt>
      <trkpt lat="44.51994" lon="6.18091">
        <ele>844.3</ele>
        <time>2020-10-13T10:12:05.000Z</time>
      </trkpt>
      <trkpt lat="44.51994" lon="6.18082">
        <ele>846.8</ele>
        <time>2020-10-13T10:12:07.717Z</time>
      </trkpt>
      <trkpt lat="44.51994" lon="6.18073">
        <ele>849</ele>
        <time>2020-10-13T10:12:09.000Z</time>
      </trkpt>
      <trkpt lat="44.51995" lon="6.18064">
        <ele>852.7</ele>
        <time>2020-10-13T10:12:12.461Z</time>
      </trkpt>
      <trkpt lat="44.51999" lon="6.18055">
        <ele>849.1</ele>
        <time>2020-10-13T10:12:15.837Z</time>
      </trkpt>
      <trkpt lat="44.52002" lon="6.18049">
        <ele>848.2</ele>
        <time>2020-10-13T10:12:18.593Z</time>
      </trkpt>
      <trkpt lat="44.52007" lon="6.18045">
        <ele>847.7</ele>
        <time>2020-10-13T10:12:19.000Z</time>
      </trkpt>
      <trkpt lat="44.52015" lon="6.18042">
        <ele>847.8</ele>
        <time>2020-10-13T10:12:21.558Z</time>
      </trkpt>
      <trkpt lat="44.52022" lon="6.18039">
        <ele>847.8</ele>
        <time>2020-10-13T10:12:22.000Z</time>
      </trkpt>
      <trkpt lat="44.52031" lon="6.18036">
        <ele>848.3</ele>
        <time>2020-10-13T10:12:24.615Z</time>
      </trkpt>
      <trkpt lat="44.52037" lon="6.18035">
        <ele>849.1</ele>
        <time>2020-10-13T10:12:25.000Z</time>
      </trkpt>
      <trkpt lat="44.52046" lon="6.18036">
        <ele>849.5</ele>
        <time>2020-10-13T10:12:28.675Z</time>
      </trkpt>
      <trkpt lat="44.52052" lon="6.18038">
        <ele>852</ele>
        <time>2020-10-13T10:12:30.301Z</time>
      </trkpt>
      <trkpt lat="44.52056" lon="6.18041">
        <ele>851.7</ele>
        <time>2020-10-13T10:12:31.936Z</time>
      </trkpt>
      <trkpt lat="44.52061" lon="6.18045">
        <ele>852</ele>
        <time>2020-10-13T10:12:33.753Z</time>
      </trkpt>
      <trkpt lat="44.52068" lon="6.18046">
        <ele>852.5</ele>
        <time>2020-10-13T10:12:36.394Z</time>
      </trkpt>
      <trkpt lat="44.52077" lon="6.18045">
        <ele>856.1</ele>
        <time>2020-10-13T10:12:39.418Z</time>
      </trkpt>
      <trkpt lat="44.52082" lon="6.18045">
        <ele>856</ele>
        <time>2020-10-13T10:12:40.778Z</time>
      </trkpt>
      <trkpt lat="44.52086" lon="6.18045">
        <ele>857.4</ele>
        <time>2020-10-13T10:12:41.000Z</time>
      </trkpt>
      <trkpt lat="44.52091" lon="6.18045">
        <ele>857.4</ele>
        <time>2020-10-13T10:12:43.416Z</time>
      </trkpt>
      <trkpt lat="44.52097" lon="6.18045">
        <ele>856.4</ele>
        <time>2020-10-13T10:12:45.000Z</time>
      </trkpt>
      <trkpt lat="44.52104" lon="6.18045">
        <ele>856.5</ele>
        <time>2020-10-13T10:12:48.933Z</time>
      </trkpt>
      <trkpt lat="44.52108" lon="6.18045">
        <ele>858.4</ele>
        <time>2020-10-13T10:12:51.632Z</time>
      </trkpt>
      <trkpt lat="44.52114" lon="6.18048">
        <ele>861.2</ele>
        <time>2020-10-13T10:12:54.361Z</time>
      </trkpt>
      <trkpt lat="44.52121" lon="6.18051">
        <ele>864.2</ele>
        <time>2020-10-13T10:12:57.197Z</time>
      </trkpt>
      <trkpt lat="44.52127" lon="6.18054">
        <ele>864</ele>
        <time>2020-10-13T10:12:59.000Z</time>
      </trkpt>
      <trkpt lat="44.52133" lon="6.18059">
        <ele>864.9</ele>
        <time>2020-10-13T10:13:02.736Z</time>
      </trkpt>
      <trkpt lat="44.52139" lon="6.18065">
        <ele>863.5</ele>
        <time>2020-10-13T10:13:05.611Z</time>
      </trkpt>
      <trkpt lat="44.52146" lon="6.18065">
        <ele>866</ele>
        <time>2020-10-13T10:13:09.837Z</time>
      </trkpt>
      <trkpt lat="44.52153" lon="6.18059">
        <ele>867.1</ele>
        <time>2020-10-13T10:13:13.481Z</time>
      </trkpt>
      <trkpt lat="44.52158" lon="6.18054">
        <ele>868.2</ele>
        <time>2020-10-13T10:13:15.000Z</time>
      </trkpt>
      <trkpt lat="44.52163" lon="6.18051">
        <ele>868.1</ele>
        <time>2020-10-13T10:13:17.980Z</time>
      </trkpt>
      <trkpt lat="44.52167" lon="6.18049">
        <ele>868.8</ele>
        <time>2020-10-13T10:13:19.535Z</time>
      </trkpt>
      <trkpt lat="44.52176" lon="6.18045">
        <ele>868</ele>
        <time>2020-10-13T10:13:22.339Z</time>
      </trkpt>
      <trkpt lat="44.52183" lon="6.1804">
        <ele>868.9</ele>
        <time>2020-10-13T10:13:24.000Z</time>
      </trkpt>
      <trkpt lat="44.52189" lon="6.18037">
        <ele>869.2</ele>
        <time>2020-10-13T10:13:27.000Z</time>
      </trkpt>
      <trkpt lat="44.52194" lon="6.18037">
        <ele>870.3</ele>
        <time>2020-10-13T10:13:31.677Z</time>
      </trkpt>
      <trkpt lat="44.522" lon="6.18042">
        <ele>870.5</ele>
        <time>2020-10-13T10:13:34.556Z</time>
      </trkpt>
      <trkpt lat="44.52205" lon="6.18047">
        <ele>871.6</ele>
        <time>2020-10-13T10:13:37.352Z</time>
      </trkpt>
      <trkpt lat="44.5221" lon="6.18055">
        <ele>869.1</ele>
        <time>2020-10-13T10:13:40.200Z</time>
      </trkpt>
      <trkpt lat="44.52215" lon="6.18059">
        <ele>868.3</ele>
        <time>2020-10-13T10:13:42.000Z</time>
      </trkpt>
      <trkpt lat="44.52221" lon="6.18065">
        <ele>869.6</ele>
        <time>2020-10-13T10:13:45.000Z</time>
      </trkpt>
      <trkpt lat="44.52222" lon="6.18073">
        <ele>869.5</ele>
        <time>2020-10-13T10:13:48.793Z</time>
      </trkpt>
      <trkpt lat="44.52219" lon="6.18079">
        <ele>869.7</ele>
        <time>2020-10-13T10:13:52.920Z</time>
      </trkpt>
      <trkpt lat="44.52212" lon="6.18075">
        <ele>871.2</ele>
        <time>2020-10-13T10:13:55.697Z</time>
      </trkpt>
      <trkpt lat="44.52208" lon="6.18072">
        <ele>875.6</ele>
        <time>2020-10-13T10:13:57.176Z</time>
      </trkpt>
      <trkpt lat="44.52201" lon="6.18068">
        <ele>878.2</ele>
        <time>2020-10-13T10:13:59.000Z</time>
      </trkpt>
      <trkpt lat="44.52194" lon="6.18067">
        <ele>876.5</ele>
        <time>2020-10-13T10:14:02.657Z</time>
      </trkpt>
      <trkpt lat="44.52189" lon="6.18072">
        <ele>876.2</ele>
        <time>2020-10-13T10:14:05.392Z</time>
      </trkpt>
      <trkpt lat="44.52185" lon="6.1808">
        <ele>876.2</ele>
        <time>2020-10-13T10:14:07.000Z</time>
      </trkpt>
      <trkpt lat="44.52182" lon="6.18089">
        <ele>881.1</ele>
        <time>2020-10-13T10:14:10.779Z</time>
      </trkpt>
      <trkpt lat="44.52178" lon="6.18095">
        <ele>881.6</ele>
        <time>2020-10-13T10:14:14.897Z</time>
      </trkpt>
      <trkpt lat="44.52172" lon="6.18099">
        <ele>885.5</ele>
        <time>2020-10-13T10:14:17.773Z</time>
      </trkpt>
      <trkpt lat="44.52163" lon="6.18101">
        <ele>887.5</ele>
        <time>2020-10-13T10:14:20.713Z</time>
      </trkpt>
      <trkpt lat="44.52156" lon="6.18106">
        <ele>887.2</ele>
        <time>2020-10-13T10:14:23.678Z</time>
      </trkpt>
      <trkpt lat="44.52149" lon="6.18108">
        <ele>892.8</ele>
        <time>2020-10-13T10:14:25.000Z</time>
      </trkpt>
      <trkpt lat="44.52142" lon="6.18108">
        <ele>893</ele>
        <time>2020-10-13T10:14:28.639Z</time>
      </trkpt>
      <trkpt lat="44.52137" lon="6.18108">
        <ele>892.2</ele>
        <time>2020-10-13T10:14:30.924Z</time>
      </trkpt>
      <trkpt lat="44.52132" lon="6.18108">
        <ele>894</ele>
        <time>2020-10-13T10:14:32.000Z</time>
      </trkpt>
      <trkpt lat="44.52124" lon="6.18107">
        <ele>893.6</ele>
        <time>2020-10-13T10:14:35.890Z</time>
      </trkpt>
      <trkpt lat="44.52117" lon="6.18108">
        <ele>892.9</ele>
        <time>2020-10-13T10:14:38.660Z</time>
      </trkpt>
      <trkpt lat="44.52111" lon="6.18108">
        <ele>895.4</ele>
        <time>2020-10-13T10:14:40.000Z</time>
      </trkpt>
      <trkpt lat="44.52104" lon="6.18108">
        <ele>897</ele>
        <time>2020-10-13T10:14:43.432Z</time>
      </trkpt>
      <trkpt lat="44.52097" lon="6.18108">
        <ele>897.2</ele>
        <time>2020-10-13T10:14:45.000Z</time>
      </trkpt>
      <trkpt lat="44.52092" lon="6.18109">
        <ele>897.4</ele>
        <time>2020-10-13T10:14:47.500Z</time>
      </trkpt>
      <trkpt lat="44.52084" lon="6.18112">
        <ele>897</ele>
        <time>2020-10-13T10:14:50.338Z</time>
      </trkpt>
      <trkpt lat="44.52077" lon="6.18111">
        <ele>899.2</ele>
        <time>2020-10-13T10:14:52.000Z</time>
      </trkpt>
      <trkpt lat="44.5207" lon="6.18113">
        <ele>897.6</ele>
        <time>2020-10-13T10:14:55.817Z</time>
      </trkpt>
      <trkpt lat="44.52064" lon="6.18118">
        <ele>898.9</ele>
        <time>2020-10-13T10:14:58.533Z</time>
      </trkpt>
      <trkpt lat="44.52055" lon="6.18119">
        <ele>897.6</ele>
        <time>2020-10-13T10:15:01.252Z</time>
      </trkpt>
      <trkpt lat="44.5205" lon="6.18118">
        <ele>896.6</ele>
        <time>2020-10-13T10:15:02.590Z</time>
      </trkpt>
      <trkpt lat="44.52043" lon="6.18119">
        <ele>897.9</ele>
        <time>2020-10-13T10:15:05.300Z</time>
      </trkpt>
      <trkpt lat="44.52039" lon="6.18129">
        <ele>898.9</ele>
        <time>2020-10-13T10:15:08.396Z</time>
      </trkpt>
      <trkpt lat="44.52044" lon="6.18133">
        <ele>902</ele>
        <time>2020-10-13T10:15:10.000Z</time>
      </trkpt>
      <trkpt lat="44.52052" lon="6.18133">
        <ele>902.1</ele>
        <time>2020-10-13T10:15:13.515Z</time>
      </trkpt>
      <trkpt lat="44.52061" lon="6.18131">
        <ele>902.3</ele>
        <time>2020-10-13T10:15:16.255Z</time>
      </trkpt>
      <trkpt lat="44.52068" lon="6.1813">
        <ele>902.7</ele>
        <time>2020-10-13T10:15:18.813Z</time>
      </trkpt>
      <trkpt lat="44.52073" lon="6.18131">
        <ele>902.6</ele>
        <time>2020-10-13T10:15:20.253Z</time>
      </trkpt>
      <trkpt lat="44.52081" lon="6.18132">
        <ele>902</ele>
        <time>2020-10-13T10:15:23.139Z</time>
      </trkpt>
      <trkpt lat="44.52088" lon="6.18133">
        <ele>902.4</ele>
        <time>2020-10-13T10:15:25.958Z</time>
      </trkpt>
      <trkpt lat="44.52094" lon="6.18136">
        <ele>903.2</ele>
        <time>2020-10-13T10:15:28.716Z</time>
      </trkpt>
      <trkpt lat="44.52101" lon="6.1814">
        <ele>903.3</ele>
        <time>2020-10-13T10:15:31.573Z</time>
      </trkpt>
      <trkpt lat="44.52106" lon="6.18143">
        <ele>903.5</ele>
        <time>2020-10-13T10:15:34.380Z</time>
      </trkpt>
      <trkpt lat="44.52112" lon="6.18145">
        <ele>904.5</ele>
        <time>2020-10-13T10:15:36.000Z</time>
      </trkpt>
      <trkpt lat="44.52118" lon="6.18149">
        <ele>904.3</ele>
        <time>2020-10-13T10:15:39.740Z</time>
      </trkpt>
      <trkpt lat="44.52126" lon="6.1815">
        <ele>905.3</ele>
        <time>2020-10-13T10:15:42.479Z</time>
      </trkpt>
      <trkpt lat="44.52131" lon="6.18152">
        <ele>907.3</ele>
        <time>2020-10-13T10:15:44.000Z</time>
      </trkpt>
      <trkpt lat="44.52138" lon="6.18153">
        <ele>907.8</ele>
        <time>2020-10-13T10:15:47.000Z</time>
      </trkpt>
      <trkpt lat="44.52142" lon="6.18153">
        <ele>907.9</ele>
        <time>2020-10-13T10:15:49.535Z</time>
      </trkpt>
      <trkpt lat="44.5215" lon="6.18154">
        <ele>906.7</ele>
        <time>2020-10-13T10:15:52.360Z</time>
      </trkpt>
      <trkpt lat="44.52158" lon="6.18156">
        <ele>906.1</ele>
        <time>2020-10-13T10:15:55.199Z</time>
      </trkpt>
      <trkpt lat="44.52164" lon="6.18159">
        <ele>904</ele>
        <time>2020-10-13T10:15:57.000Z</time>
      </trkpt>
      <trkpt lat="44.52168" lon="6.18162">
        <ele>903.9</ele>
        <time>2020-10-13T10:15:59.781Z</time>
      </trkpt>
      <trkpt lat="44.52172" lon="6.18166">
        <ele>903.2</ele>
        <time>2020-10-13T10:16:01.000Z</time>
      </trkpt>
      <trkpt lat="44.52177" lon="6.18171">
        <ele>904.6</ele>
        <time>2020-10-13T10:16:04.654Z</time>
      </trkpt>
      <trkpt lat="44.52181" lon="6.18177">
        <ele>902.7</ele>
        <time>2020-10-13T10:16:07.579Z</time>
      </trkpt>
      <trkpt lat="44.52188" lon="6.18181">
        <ele>902.8</ele>
        <time>2020-10-13T10:16:10.377Z</time>
      </trkpt>
      <trkpt lat="44.52193" lon="6.18186">
        <ele>904.5</ele>
        <time>2020-10-13T10:16:12.000Z</time>
      </trkpt>
      <trkpt lat="44.52198" lon="6.18192">
        <ele>907.5</ele>
        <time>2020-10-13T10:16:15.000Z</time>
      </trkpt>
      <trkpt lat="44.52204" lon="6.18199">
        <ele>908</ele>
        <time>2020-10-13T10:16:18.821Z</time>
      </trkpt>
      <trkpt lat="44.5221" lon="6.18204">
        <ele>910.1</ele>
        <time>2020-10-13T10:16:21.539Z</time>
      </trkpt>
      <trkpt lat="44.52217" lon="6.18208">
        <ele>909.6</ele>
        <time>2020-10-13T10:16:23.000Z</time>
      </trkpt>
      <trkpt lat="44.52223" lon="6.18213">
        <ele>910</ele>
        <time>2020-10-13T10:16:26.818Z</time>
      </trkpt>
      <trkpt lat="44.5223" lon="6.18215">
        <ele>909.3</ele>
        <time>2020-10-13T10:16:29.577Z</time>
      </trkpt>
      <trkpt lat="44.52236" lon="6.18215">
        <ele>913.3</ele>
        <time>2020-10-13T10:16:32.216Z</time>
      </trkpt>
      <trkpt lat="44.52242" lon="6.18213">
        <ele>915.3</ele>
        <time>2020-10-13T10:16:34.892Z</time>
      </trkpt>
      <trkpt lat="44.52248" lon="6.18208">
        <ele>919.8</ele>
        <time>2020-10-13T10:16:37.612Z</time>
      </trkpt>
      <trkpt lat="44.52253" lon="6.18204">
        <ele>919.8</ele>
        <time>2020-10-13T10:16:39.000Z</time>
      </trkpt>
      <trkpt lat="44.52258" lon="6.18197">
        <ele>919.6</ele>
        <time>2020-10-13T10:16:42.000Z</time>
      </trkpt>
      <trkpt lat="44.52262" lon="6.18189">
        <ele>920</ele>
        <time>2020-10-13T10:16:45.639Z</time>
      </trkpt>
      <trkpt lat="44.52266" lon="6.18179">
        <ele>920.7</ele>
        <time>2020-10-13T10:16:48.280Z</time>
      </trkpt>
      <trkpt lat="44.5227" lon="6.18172">
        <ele>923</ele>
        <time>2020-10-13T10:16:50.897Z</time>
      </trkpt>
      <trkpt lat="44.52276" lon="6.18166">
        <ele>923.8</ele>
        <time>2020-10-13T10:16:53.440Z</time>
      </trkpt>
      <trkpt lat="44.52281" lon="6.1816">
        <ele>926.6</ele>
        <time>2020-10-13T10:16:55.000Z</time>
      </trkpt>
      <trkpt lat="44.52286" lon="6.18155">
        <ele>927.1</ele>
        <time>2020-10-13T10:16:57.992Z</time>
      </trkpt>
      <trkpt lat="44.52292" lon="6.18148">
        <ele>925.6</ele>
        <time>2020-10-13T10:17:00.652Z</time>
      </trkpt>
      <trkpt lat="44.52299" lon="6.18141">
        <ele>927.5</ele>
        <time>2020-10-13T10:17:03.521Z</time>
      </trkpt>
      <trkpt lat="44.52303" lon="6.18147">
        <ele>927.5</ele>
        <time>2020-10-13T10:17:06.515Z</time>
      </trkpt>
      <trkpt lat="44.52302" lon="6.18157">
        <ele>928.7</ele>
        <time>2020-10-13T10:17:09.273Z</time>
      </trkpt>
      <trkpt lat="44.52297" lon="6.18164">
        <ele>928.4</ele>
        <time>2020-10-13T10:17:11.852Z</time>
      </trkpt>
      <trkpt lat="44.52294" lon="6.18168">
        <ele>929.2</ele>
        <time>2020-10-13T10:17:13.173Z</time>
      </trkpt>
      <trkpt lat="44.52289" lon="6.18178">
        <ele>928.6</ele>
        <time>2020-10-13T10:17:15.752Z</time>
      </trkpt>
      <trkpt lat="44.52287" lon="6.18183">
        <ele>927.4</ele>
        <time>2020-10-13T10:17:17.797Z</time>
      </trkpt>
      <trkpt lat="44.52284" lon="6.18191">
        <ele>927.8</ele>
        <time>2020-10-13T10:17:20.356Z</time>
      </trkpt>
      <trkpt lat="44.52282" lon="6.18199">
        <ele>928.8</ele>
        <time>2020-10-13T10:17:22.837Z</time>
      </trkpt>
      <trkpt lat="44.52282" lon="6.1821">
        <ele>929</ele>
        <time>2020-10-13T10:17:25.000Z</time>
      </trkpt>
      <trkpt lat="44.52281" lon="6.18219">
        <ele>929.5</ele>
        <time>2020-10-13T10:17:28.739Z</time>
      </trkpt>
      <trkpt lat="44.5228" lon="6.18229">
        <ele>932.6</ele>
        <time>2020-10-13T10:17:31.300Z</time>
      </trkpt>
      <trkpt lat="44.52279" lon="6.18239">
        <ele>934.2</ele>
        <time>2020-10-13T10:17:33.919Z</time>
      </trkpt>
      <trkpt lat="44.52277" lon="6.18249">
        <ele>934.3</ele>
        <time>2020-10-13T10:17:36.757Z</time>
      </trkpt>
      <trkpt lat="44.5228" lon="6.18257">
        <ele>934.7</ele>
        <time>2020-10-13T10:17:39.376Z</time>
      </trkpt>
      <trkpt lat="44.52286" lon="6.18264">
        <ele>934.6</ele>
        <time>2020-10-13T10:17:41.982Z</time>
      </trkpt>
      <trkpt lat="44.52292" lon="6.18269">
        <ele>935.8</ele>
        <time>2020-10-13T10:17:44.476Z</time>
      </trkpt>
      <trkpt lat="44.52298" lon="6.18273">
        <ele>936.9</ele>
        <time>2020-10-13T10:17:46.000Z</time>
      </trkpt>
      <trkpt lat="44.52305" lon="6.18275">
        <ele>937</ele>
        <time>2020-10-13T10:17:49.537Z</time>
      </trkpt>
      <trkpt lat="44.52311" lon="6.18278">
        <ele>936.3</ele>
        <time>2020-10-13T10:17:51.937Z</time>
      </trkpt>
      <trkpt lat="44.52321" lon="6.18279">
        <ele>938.5</ele>
        <time>2020-10-13T10:17:54.775Z</time>
      </trkpt>
      <trkpt lat="44.52325" lon="6.18281">
        <ele>938.9</ele>
        <time>2020-10-13T10:17:55.956Z</time>
      </trkpt>
      <trkpt lat="44.52332" lon="6.18288">
        <ele>942.6</ele>
        <time>2020-10-13T10:17:58.714Z</time>
      </trkpt>
      <trkpt lat="44.52336" lon="6.18297">
        <ele>945.7</ele>
        <time>2020-10-13T10:18:00.000Z</time>
      </trkpt>
      <trkpt lat="44.52338" lon="6.18303">
        <ele>946.9</ele>
        <time>2020-10-13T10:18:02.199Z</time>
      </trkpt>
      <trkpt lat="44.52342" lon="6.18313">
        <ele>946.3</ele>
        <time>2020-10-13T10:18:04.321Z</time>
      </trkpt>
      <trkpt lat="44.52345" lon="6.1832">
        <ele>946.5</ele>
        <time>2020-10-13T10:18:05.898Z</time>
      </trkpt>
      <trkpt lat="44.52349" lon="6.18329">
        <ele>946.6</ele>
        <time>2020-10-13T10:18:07.000Z</time>
      </trkpt>
      <trkpt lat="44.52353" lon="6.18337">
        <ele>947.6</ele>
        <time>2020-10-13T10:18:09.000Z</time>
      </trkpt>
      <trkpt lat="44.52357" lon="6.18346">
        <ele>947.2</ele>
        <time>2020-10-13T10:18:12.633Z</time>
      </trkpt>
      <trkpt lat="44.52363" lon="6.18354">
        <ele>947.2</ele>
        <time>2020-10-13T10:18:15.572Z</time>
      </trkpt>
      <trkpt lat="44.52367" lon="6.1836">
        <ele>944.7</ele>
        <time>2020-10-13T10:18:17.000Z</time>
      </trkpt>
      <trkpt lat="44.52373" lon="6.18369">
        <ele>944.9</ele>
        <time>2020-10-13T10:18:21.495Z</time>
      </trkpt>
      <trkpt lat="44.52377" lon="6.18377">
        <ele>947</ele>
        <time>2020-10-13T10:18:24.236Z</time>
      </trkpt>
      <trkpt lat="44.52381" lon="6.18384">
        <ele>949.5</ele>
        <time>2020-10-13T10:18:26.000Z</time>
      </trkpt>
      <trkpt lat="44.52386" lon="6.18392">
        <ele>949.5</ele>
        <time>2020-10-13T10:18:29.722Z</time>
      </trkpt>
      <trkpt lat="44.5239" lon="6.18401">
        <ele>948.4</ele>
        <time>2020-10-13T10:18:32.000Z</time>
      </trkpt>
      <trkpt lat="44.52397" lon="6.18408">
        <ele>948.4</ele>
        <time>2020-10-13T10:18:36.935Z</time>
      </trkpt>
      <trkpt lat="44.52401" lon="6.18411">
        <ele>949.1</ele>
        <time>2020-10-13T10:18:38.720Z</time>
      </trkpt>
      <trkpt lat="44.52404" lon="6.18416">
        <ele>950.8</ele>
        <time>2020-10-13T10:18:39.000Z</time>
      </trkpt>
      <trkpt lat="44.52407" lon="6.18423">
        <ele>950.2</ele>
        <time>2020-10-13T10:18:41.438Z</time>
      </trkpt>
      <trkpt lat="44.52409" lon="6.18429">
        <ele>949.1</ele>
        <time>2020-10-13T10:18:42.000Z</time>
      </trkpt>
      <trkpt lat="44.52414" lon="6.18439">
        <ele>950</ele>
        <time>2020-10-13T10:18:45.892Z</time>
      </trkpt>
      <trkpt lat="44.52417" lon="6.18445">
        <ele>949.4</ele>
        <time>2020-10-13T10:18:47.000Z</time>
      </trkpt>
      <trkpt lat="44.52422" lon="6.18451">
        <ele>952.5</ele>
        <time>2020-10-13T10:18:51.302Z</time>
      </trkpt>
      <trkpt lat="44.52424" lon="6.1846">
        <ele>956</ele>
        <time>2020-10-13T10:18:54.635Z</time>
      </trkpt>
      <trkpt lat="44.52425" lon="6.1847">
        <ele>956.5</ele>
        <time>2020-10-13T10:18:57.000Z</time>
      </trkpt>
      <trkpt lat="44.52426" lon="6.18479">
        <ele>958.4</ele>
        <time>2020-10-13T10:19:00.000Z</time>
      </trkpt>
      <trkpt lat="44.52428" lon="6.18485">
        <ele>957.5</ele>
        <time>2020-10-13T10:19:02.000Z</time>
      </trkpt>
      <trkpt lat="44.52431" lon="6.18493">
        <ele>957.2</ele>
        <time>2020-10-13T10:19:05.660Z</time>
      </trkpt>
      <trkpt lat="44.52436" lon="6.18501">
        <ele>957</ele>
        <time>2020-10-13T10:19:08.981Z</time>
      </trkpt>
      <trkpt lat="44.52442" lon="6.18507">
        <ele>961</ele>
        <time>2020-10-13T10:19:11.000Z</time>
      </trkpt>
      <trkpt lat="44.52447" lon="6.18511">
        <ele>961.1</ele>
        <time>2020-10-13T10:19:13.833Z</time>
      </trkpt>
      <trkpt lat="44.52451" lon="6.18514">
        <ele>962.7</ele>
        <time>2020-10-13T10:19:15.000Z</time>
      </trkpt>
      <trkpt lat="44.52458" lon="6.18519">
        <ele>961.6</ele>
        <time>2020-10-13T10:19:18.595Z</time>
      </trkpt>
      <trkpt lat="44.52463" lon="6.18524">
        <ele>959.2</ele>
        <time>2020-10-13T10:19:20.000Z</time>
      </trkpt>
      <trkpt lat="44.52469" lon="6.18528">
        <ele>957.6</ele>
        <time>2020-10-13T10:19:23.419Z</time>
      </trkpt>
      <trkpt lat="44.52476" lon="6.18526">
        <ele>958.2</ele>
        <time>2020-10-13T10:19:26.860Z</time>
      </trkpt>
      <trkpt lat="44.52475" lon="6.18518">
        <ele>957.2</ele>
        <time>2020-10-13T10:19:30.958Z</time>
      </trkpt>
      <trkpt lat="44.52471" lon="6.18511">
        <ele>958.3</ele>
        <time>2020-10-13T10:19:33.000Z</time>
      </trkpt>
      <trkpt lat="44.52468" lon="6.18503">
        <ele>958.8</ele>
        <time>2020-10-13T10:19:35.000Z</time>
      </trkpt>
      <trkpt lat="44.52467" lon="6.18496">
        <ele>959.3</ele>
        <time>2020-10-13T10:19:39.857Z</time>
      </trkpt>
      <trkpt lat="44.52469" lon="6.18489">
        <ele>963.2</ele>
        <time>2020-10-13T10:19:44.000Z</time>
      </trkpt>
      <trkpt lat="44.52472" lon="6.18479">
        <ele>963.8</ele>
        <time>2020-10-13T10:19:51.000Z</time>
      </trkpt>
      <trkpt lat="44.52475" lon="6.18474">
        <ele>974.3</ele>
        <time>2020-10-13T10:19:55.000Z</time>
      </trkpt>
      <trkpt lat="44.52482" lon="6.18463">
        <ele>974.3</ele>
        <time>2020-10-13T10:19:58.920Z</time>
      </trkpt>
      <trkpt lat="44.52488" lon="6.18455">
        <ele>974.3</ele>
        <time>2020-10-13T10:20:01.717Z</time>
      </trkpt>
      <trkpt lat="44.52497" lon="6.18446">
        <ele>974.3</ele>
        <time>2020-10-13T10:20:04.000Z</time>
      </trkpt>
      <trkpt lat="44.52504" lon="6.18444">
        <ele>974.3</ele>
        <time>2020-10-13T10:20:07.580Z</time>
      </trkpt>
      <trkpt lat="44.5251" lon="6.18448">
        <ele>974.3</ele>
        <time>2020-10-13T10:20:11.936Z</time>
      </trkpt>
      <trkpt lat="44.52512" lon="6.18454">
        <ele>974.3</ele>
        <time>2020-10-13T10:20:15.339Z</time>
      </trkpt>
      <trkpt lat="44.52516" lon="6.18458">
        <ele>974.3</ele>
        <time>2020-10-13T10:20:18.000Z</time>
      </trkpt>
      <trkpt lat="44.52527" lon="6.18458">
        <ele>974.3</ele>
        <time>2020-10-13T10:20:21.000Z</time>
      </trkpt>
      <trkpt lat="44.52533" lon="6.18455">
        <ele>974.3</ele>
        <time>2020-10-13T10:20:23.000Z</time>
      </trkpt>
      <trkpt lat="44.52539" lon="6.18453">
        <ele>974.3</ele>
        <time>2020-10-13T10:20:25.717Z</time>
      </trkpt>
      <trkpt lat="44.52545" lon="6.18452">
        <ele>974.3</ele>
        <time>2020-10-13T10:20:26.000Z</time>
      </trkpt>
      <trkpt lat="44.52552" lon="6.18452">
        <ele>974.3</ele>
        <time>2020-10-13T10:20:28.693Z</time>
      </trkpt>
      <trkpt lat="44.52559" lon="6.18453">
        <ele>974.3</ele>
        <time>2020-10-13T10:20:30.000Z</time>
      </trkpt>
      <trkpt lat="44.52567" lon="6.18459">
        <ele>974.3</ele>
        <time>2020-10-13T10:20:34.000Z</time>
      </trkpt>
      <trkpt lat="44.52572" lon="6.18464">
        <ele>974.3</ele>
        <time>2020-10-13T10:20:38.000Z</time>
      </trkpt>
      <trkpt lat="44.52578" lon="6.18466">
        <ele>974.3</ele>
        <time>2020-10-13T10:20:41.000Z</time>
      </trkpt>
      <trkpt lat="44.52582" lon="6.18467">
        <ele>974.3</ele>
        <time>2020-10-13T10:20:43.000Z</time>
      </trkpt>
      <trkpt lat="44.52588" lon="6.18465">
        <ele>974.3</ele>
        <time>2020-10-13T10:20:45.000Z</time>
      </trkpt>
      <trkpt lat="44.52594" lon="6.1846">
        <ele>974.3</ele>
        <time>2020-10-13T10:20:47.000Z</time>
      </trkpt>
      <trkpt lat="44.52598" lon="6.18453">
        <ele>974.3</ele>
        <time>2020-10-13T10:20:49.000Z</time>
      </trkpt>
      <trkpt lat="44.526" lon="6.18444">
        <ele>975.4</ele>
        <time>2020-10-13T10:20:54.875Z</time>
      </trkpt>
      <trkpt lat="44.52601" lon="6.18438">
        <ele>978.1</ele>
        <time>2020-10-13T10:21:15.000Z</time>
      </trkpt>
      <trkpt lat="44.52605" lon="6.18443">
        <ele>980.3</ele>
        <time>2020-10-13T10:21:40.000Z</time>
      </trkpt>
      <trkpt lat="44.52597" lon="6.18443">
        <ele>971.6</ele>
        <time>2020-10-13T10:25:18.461Z</time>
      </trkpt>
      <trkpt lat="44.5259" lon="6.18449">
        <ele>979.7</ele>
        <time>2020-10-13T10:25:25.000Z</time>
      </trkpt>
      <trkpt lat="44.52585" lon="6.18452">
        <ele>980.1</ele>
        <time>2020-10-13T10:25:31.000Z</time>
      </trkpt>
      <trkpt lat="44.52579" lon="6.18457">
        <ele>976.6</ele>
        <time>2020-10-13T10:25:38.612Z</time>
      </trkpt>
      <trkpt lat="44.52562" lon="6.18473">
        <ele>981.9</ele>
        <time>2020-10-13T10:25:43.568Z</time>
      </trkpt>
      <trkpt lat="44.5255" lon="6.1849">
        <ele>981.9</ele>
        <time>2020-10-13T10:25:46.000Z</time>
      </trkpt>
      <trkpt lat="44.52543" lon="6.18497">
        <ele>986.2</ele>
        <time>2020-10-13T10:25:49.000Z</time>
      </trkpt>
      <trkpt lat="44.5254" lon="6.18503">
        <ele>988.8</ele>
        <time>2020-10-13T10:25:53.623Z</time>
      </trkpt>
      <trkpt lat="44.52538" lon="6.18509">
        <ele>989.3</ele>
        <time>2020-10-13T10:26:04.000Z</time>
      </trkpt>
      <trkpt lat="44.52549" lon="6.18495">
        <ele>989.3</ele>
        <time>2020-10-13T10:26:08.677Z</time>
      </trkpt>
      <trkpt lat="44.52546" lon="6.18503">
        <ele>989.3</ele>
        <time>2020-10-13T10:26:25.000Z</time>
      </trkpt>
      <trkpt lat="44.52539" lon="6.1851">
        <ele>989.3</ele>
        <time>2020-10-13T10:26:37.000Z</time>
      </trkpt>
      <trkpt lat="44.52539" lon="6.18517">
        <ele>989.3</ele>
        <time>2020-10-13T10:29:04.162Z</time>
      </trkpt>
      <trkpt lat="44.52544" lon="6.18521">
        <ele>989.3</ele>
        <time>2020-10-13T10:39:21.332Z</time>
      </trkpt>
      <trkpt lat="44.52538" lon="6.18521">
        <ele>989.3</ele>
        <time>2020-10-13T10:45:44.000Z</time>
      </trkpt>
      <trkpt lat="44.52533" lon="6.18519">
        <ele>989.3</ele>
        <time>2020-10-13T10:45:58.729Z</time>
      </trkpt>
      <trkpt lat="44.52527" lon="6.18519">
        <ele>989.3</ele>
        <time>2020-10-13T10:46:20.000Z</time>
      </trkpt>
      <trkpt lat="44.52532" lon="6.1852">
        <ele>989.3</ele>
        <time>2020-10-13T10:46:47.000Z</time>
      </trkpt>
      <trkpt lat="44.52536" lon="6.18518">
        <ele>989.3</ele>
        <time>2020-10-13T10:46:56.000Z</time>
      </trkpt>
      <trkpt lat="44.5254" lon="6.18517">
        <ele>988.8</ele>
        <time>2020-10-13T10:47:44.071Z</time>
      </trkpt>
      <trkpt lat="44.52545" lon="6.1852">
        <ele>988.8</ele>
        <time>2020-10-13T10:47:53.000Z</time>
      </trkpt>
      <trkpt lat="44.52538" lon="6.18516">
        <ele>989.3</ele>
        <time>2020-10-13T10:49:14.865Z</time>
      </trkpt>
      <trkpt lat="44.52538" lon="6.18523">
        <ele>989.3</ele>
        <time>2020-10-13T10:50:30.602Z</time>
      </trkpt>
      <trkpt lat="44.52537" lon="6.18515">
        <ele>989.3</ele>
        <time>2020-10-13T10:51:34.000Z</time>
      </trkpt>
      <trkpt lat="44.52541" lon="6.18521">
        <ele>989.3</ele>
        <time>2020-10-13T10:51:43.000Z</time>
      </trkpt>
      <trkpt lat="44.52546" lon="6.18519">
        <ele>988.8</ele>
        <time>2020-10-13T10:52:04.000Z</time>
      </trkpt>
      <trkpt lat="44.52541" lon="6.18521">
        <ele>989.3</ele>
        <time>2020-10-13T10:52:07.000Z</time>
      </trkpt>
      <trkpt lat="44.52547" lon="6.18517">
        <ele>989.3</ele>
        <time>2020-10-13T10:53:34.000Z</time>
      </trkpt>
      <trkpt lat="44.52544" lon="6.1851">
        <ele>989.3</ele>
        <time>2020-10-13T10:53:41.209Z</time>
      </trkpt>
      <trkpt lat="44.52541" lon="6.18504">
        <ele>989.3</ele>
        <time>2020-10-13T10:53:46.225Z</time>
      </trkpt>
      <trkpt lat="44.52538" lon="6.185">
        <ele>989.3</ele>
        <time>2020-10-13T10:53:49.000Z</time>
      </trkpt>
      <trkpt lat="44.5254" lon="6.18508">
        <ele>989.3</ele>
        <time>2020-10-13T10:53:56.237Z</time>
      </trkpt>
      <trkpt lat="44.52543" lon="6.18516">
        <ele>989.3</ele>
        <time>2020-10-13T10:54:04.000Z</time>
      </trkpt>
      <trkpt lat="44.52547" lon="6.1852">
        <ele>989.3</ele>
        <time>2020-10-13T10:54:28.000Z</time>
      </trkpt>
      <trkpt lat="44.52542" lon="6.18519">
        <ele>989.3</ele>
        <time>2020-10-13T10:54:41.408Z</time>
      </trkpt>
      <trkpt lat="44.52548" lon="6.18519">
        <ele>989.3</ele>
        <time>2020-10-13T10:55:07.000Z</time>
      </trkpt>
      <trkpt lat="44.52545" lon="6.18514">
        <ele>981.9</ele>
        <time>2020-10-13T10:55:28.000Z</time>
      </trkpt>
      <trkpt lat="44.52544" lon="6.18522">
        <ele>989.3</ele>
        <time>2020-10-13T10:55:34.000Z</time>
      </trkpt>
      <trkpt lat="44.52549" lon="6.1852">
        <ele>988.8</ele>
        <time>2020-10-13T10:55:37.000Z</time>
      </trkpt>
      <trkpt lat="44.52542" lon="6.18521">
        <ele>989.3</ele>
        <time>2020-10-13T10:55:55.000Z</time>
      </trkpt>
      <trkpt lat="44.52536" lon="6.18535">
        <ele>989.3</ele>
        <time>2020-10-13T10:56:24.940Z</time>
      </trkpt>
      <trkpt lat="44.52536" lon="6.18543">
        <ele>989.3</ele>
        <time>2020-10-13T10:56:28.000Z</time>
      </trkpt>
      <trkpt lat="44.52541" lon="6.18546">
        <ele>989.3</ele>
        <time>2020-10-13T10:56:36.758Z</time>
      </trkpt>
      <trkpt lat="44.52545" lon="6.18548">
        <ele>989.3</ele>
        <time>2020-10-13T10:56:43.000Z</time>
      </trkpt>
      <trkpt lat="44.52553" lon="6.18571">
        <ele>989.3</ele>
        <time>2020-10-13T10:56:55.000Z</time>
      </trkpt>
      <trkpt lat="44.52559" lon="6.18594">
        <ele>989.3</ele>
        <time>2020-10-13T10:56:58.000Z</time>
      </trkpt>
      <trkpt lat="44.5256" lon="6.18604">
        <ele>980.2</ele>
        <time>2020-10-13T10:57:19.000Z</time>
      </trkpt>
      <trkpt lat="44.5256" lon="6.18631">
        <ele>977.2</ele>
        <time>2020-10-13T10:57:25.000Z</time>
      </trkpt>
      <trkpt lat="44.52537" lon="6.18703">
        <ele>974.1</ele>
        <time>2020-10-13T10:57:31.000Z</time>
      </trkpt>
      <trkpt lat="44.52535" lon="6.18745">
        <ele>969.3</ele>
        <time>2020-10-13T10:57:34.000Z</time>
      </trkpt>
      <trkpt lat="44.52568" lon="6.1883">
        <ele>958.3</ele>
        <time>2020-10-13T10:57:40.000Z</time>
      </trkpt>
      <trkpt lat="44.52587" lon="6.18869">
        <ele>957.4</ele>
        <time>2020-10-13T10:57:43.000Z</time>
      </trkpt>
      <trkpt lat="44.52627" lon="6.18946">
        <ele>957.8</ele>
        <time>2020-10-13T10:57:49.000Z</time>
      </trkpt>
      <trkpt lat="44.52648" lon="6.18983">
        <ele>957.8</ele>
        <time>2020-10-13T10:57:52.000Z</time>
      </trkpt>
      <trkpt lat="44.52672" lon="6.19019">
        <ele>956.4</ele>
        <time>2020-10-13T10:57:55.000Z</time>
      </trkpt>
      <trkpt lat="44.52699" lon="6.19046">
        <ele>949.1</ele>
        <time>2020-10-13T10:57:58.000Z</time>
      </trkpt>
      <trkpt lat="44.5275" lon="6.1908">
        <ele>947.7</ele>
        <time>2020-10-13T10:58:04.000Z</time>
      </trkpt>
      <trkpt lat="44.52782" lon="6.19094">
        <ele>954.2</ele>
        <time>2020-10-13T10:58:10.000Z</time>
      </trkpt>
      <trkpt lat="44.52797" lon="6.19101">
        <ele>953.8</ele>
        <time>2020-10-13T10:58:13.000Z</time>
      </trkpt>
      <trkpt lat="44.5281" lon="6.19109">
        <ele>952.2</ele>
        <time>2020-10-13T10:58:16.000Z</time>
      </trkpt>
      <trkpt lat="44.52822" lon="6.19121">
        <ele>950</ele>
        <time>2020-10-13T10:58:19.000Z</time>
      </trkpt>
      <trkpt lat="44.52845" lon="6.19151">
        <ele>954.6</ele>
        <time>2020-10-13T10:58:25.000Z</time>
      </trkpt>
      <trkpt lat="44.52871" lon="6.19184">
        <ele>955.8</ele>
        <time>2020-10-13T10:58:31.000Z</time>
      </trkpt>
      <trkpt lat="44.52881" lon="6.19178">
        <ele>956.2</ele>
        <time>2020-10-13T10:58:37.000Z</time>
      </trkpt>
      <trkpt lat="44.529" lon="6.19238">
        <ele>954.6</ele>
        <time>2020-10-13T10:58:43.000Z</time>
      </trkpt>
      <trkpt lat="44.52908" lon="6.19259">
        <ele>954</ele>
        <time>2020-10-13T10:58:46.000Z</time>
      </trkpt>
      <trkpt lat="44.52909" lon="6.1927">
        <ele>954.3</ele>
        <time>2020-10-13T10:58:49.000Z</time>
      </trkpt>
      <trkpt lat="44.52906" lon="6.1929">
        <ele>953.3</ele>
        <time>2020-10-13T10:58:52.000Z</time>
      </trkpt>
      <trkpt lat="44.52906" lon="6.19345">
        <ele>953.4</ele>
        <time>2020-10-13T10:58:58.000Z</time>
      </trkpt>
      <trkpt lat="44.52901" lon="6.19324">
        <ele>955.3</ele>
        <time>2020-10-13T10:59:01.000Z</time>
      </trkpt>
      <trkpt lat="44.52897" lon="6.19308">
        <ele>955.1</ele>
        <time>2020-10-13T10:59:07.453Z</time>
      </trkpt>
      <trkpt lat="44.52911" lon="6.19316">
        <ele>960.8</ele>
        <time>2020-10-13T10:59:10.000Z</time>
      </trkpt>
      <trkpt lat="44.52917" lon="6.19339">
        <ele>961.1</ele>
        <time>2020-10-13T10:59:14.155Z</time>
      </trkpt>
      <trkpt lat="44.52916" lon="6.19359">
        <ele>958.3</ele>
        <time>2020-10-13T10:59:17.919Z</time>
      </trkpt>
      <trkpt lat="44.52912" lon="6.19379">
        <ele>957.5</ele>
        <time>2020-10-13T10:59:22.531Z</time>
      </trkpt>
      <trkpt lat="44.52934" lon="6.19429">
        <ele>960.2</ele>
        <time>2020-10-13T10:59:25.000Z</time>
      </trkpt>
      <trkpt lat="44.52954" lon="6.19462">
        <ele>965.3</ele>
        <time>2020-10-13T10:59:29.193Z</time>
      </trkpt>
      <trkpt lat="44.52971" lon="6.19484">
        <ele>964.2</ele>
        <time>2020-10-13T10:59:34.201Z</time>
      </trkpt>
      <trkpt lat="44.52978" lon="6.19498">
        <ele>963</ele>
        <time>2020-10-13T10:59:37.000Z</time>
      </trkpt>
      <trkpt lat="44.52982" lon="6.19508">
        <ele>964</ele>
        <time>2020-10-13T10:59:40.000Z</time>
      </trkpt>
      <trkpt lat="44.52985" lon="6.19518">
        <ele>962.7</ele>
        <time>2020-10-13T10:59:44.225Z</time>
      </trkpt>
      <trkpt lat="44.52992" lon="6.19534">
        <ele>964.1</ele>
        <time>2020-10-13T10:59:49.240Z</time>
      </trkpt>
      <trkpt lat="44.52998" lon="6.19547">
        <ele>965.8</ele>
        <time>2020-10-13T10:59:52.000Z</time>
      </trkpt>
      <trkpt lat="44.53002" lon="6.19552">
        <ele>967.9</ele>
        <time>2020-10-13T10:59:55.000Z</time>
      </trkpt>
      <trkpt lat="44.53007" lon="6.19556">
        <ele>965.1</ele>
        <time>2020-10-13T10:59:59.277Z</time>
      </trkpt>
      <trkpt lat="44.53016" lon="6.19566">
        <ele>966</ele>
        <time>2020-10-13T11:00:04.296Z</time>
      </trkpt>
      <trkpt lat="44.53023" lon="6.19574">
        <ele>969.4</ele>
        <time>2020-10-13T11:00:07.000Z</time>
      </trkpt>
      <trkpt lat="44.53029" lon="6.19587">
        <ele>971.3</ele>
        <time>2020-10-13T11:00:13.000Z</time>
      </trkpt>
      <trkpt lat="44.53031" lon="6.19596">
        <ele>972.4</ele>
        <time>2020-10-13T11:00:16.000Z</time>
      </trkpt>
      <trkpt lat="44.53033" lon="6.19615">
        <ele>972</ele>
        <time>2020-10-13T11:00:22.000Z</time>
      </trkpt>
      <trkpt lat="44.53034" lon="6.19625">
        <ele>968.6</ele>
        <time>2020-10-13T11:00:25.000Z</time>
      </trkpt>
      <trkpt lat="44.53034" lon="6.19634">
        <ele>968.3</ele>
        <time>2020-10-13T11:00:29.358Z</time>
      </trkpt>
      <trkpt lat="44.53035" lon="6.19651">
        <ele>967.9</ele>
        <time>2020-10-13T11:00:34.365Z</time>
      </trkpt>
      <trkpt lat="44.53035" lon="6.19667">
        <ele>965.2</ele>
        <time>2020-10-13T11:00:37.000Z</time>
      </trkpt>
      <trkpt lat="44.5304" lon="6.19674">
        <ele>965.3</ele>
        <time>2020-10-13T11:00:40.000Z</time>
      </trkpt>
      <trkpt lat="44.5304" lon="6.19648">
        <ele>963.3</ele>
        <time>2020-10-13T11:00:44.397Z</time>
      </trkpt>
      <trkpt lat="44.53047" lon="6.19653">
        <ele>961.3</ele>
        <time>2020-10-13T11:00:52.000Z</time>
      </trkpt>
      <trkpt lat="44.53062" lon="6.19687">
        <ele>965.8</ele>
        <time>2020-10-13T11:00:58.456Z</time>
      </trkpt>
      <trkpt lat="44.53069" lon="6.19727">
        <ele>968.4</ele>
        <time>2020-10-13T11:01:01.000Z</time>
      </trkpt>
      <trkpt lat="44.53075" lon="6.19762">
        <ele>970</ele>
        <time>2020-10-13T11:01:04.000Z</time>
      </trkpt>
      <trkpt lat="44.53082" lon="6.19796">
        <ele>973.1</ele>
        <time>2020-10-13T11:01:07.000Z</time>
      </trkpt>
      <trkpt lat="44.53099" lon="6.1985">
        <ele>967.4</ele>
        <time>2020-10-13T11:01:13.000Z</time>
      </trkpt>
      <trkpt lat="44.53095" lon="6.19888">
        <ele>966.1</ele>
        <time>2020-10-13T11:01:19.177Z</time>
      </trkpt>
      <trkpt lat="44.53092" lon="6.19908">
        <ele>967.7</ele>
        <time>2020-10-13T11:01:22.460Z</time>
      </trkpt>
      <trkpt lat="44.53095" lon="6.19942">
        <ele>968.4</ele>
        <time>2020-10-13T11:01:25.000Z</time>
      </trkpt>
      <trkpt lat="44.53096" lon="6.1997">
        <ele>971.1</ele>
        <time>2020-10-13T11:01:28.000Z</time>
      </trkpt>
      <trkpt lat="44.53095" lon="6.19995">
        <ele>973</ele>
        <time>2020-10-13T11:01:31.000Z</time>
      </trkpt>
      <trkpt lat="44.53091" lon="6.20035">
        <ele>974.2</ele>
        <time>2020-10-13T11:01:37.000Z</time>
      </trkpt>
      <trkpt lat="44.53089" lon="6.20058">
        <ele>975.5</ele>
        <time>2020-10-13T11:01:41.037Z</time>
      </trkpt>
      <trkpt lat="44.53085" lon="6.20077">
        <ele>973.6</ele>
        <time>2020-10-13T11:01:46.045Z</time>
      </trkpt>
      <trkpt lat="44.53092" lon="6.20077">
        <ele>971.5</ele>
        <time>2020-10-13T11:01:49.445Z</time>
      </trkpt>
      <trkpt lat="44.53094" lon="6.20064">
        <ele>970</ele>
        <time>2020-10-13T11:01:52.000Z</time>
      </trkpt>
      <trkpt lat="44.5309" lon="6.20055">
        <ele>971</ele>
        <time>2020-10-13T11:01:57.198Z</time>
      </trkpt>
      <trkpt lat="44.53088" lon="6.20048">
        <ele>977.8</ele>
        <time>2020-10-13T11:02:00.274Z</time>
      </trkpt>
      <trkpt lat="44.53092" lon="6.20037">
        <ele>977.5</ele>
        <time>2020-10-13T11:02:04.442Z</time>
      </trkpt>
      <trkpt lat="44.53105" lon="6.20048">
        <ele>975.7</ele>
        <time>2020-10-13T11:02:07.000Z</time>
      </trkpt>
      <trkpt lat="44.53112" lon="6.20066">
        <ele>976.5</ele>
        <time>2020-10-13T11:02:11.260Z</time>
      </trkpt>
      <trkpt lat="44.53116" lon="6.20085">
        <ele>979.4</ele>
        <time>2020-10-13T11:02:15.656Z</time>
      </trkpt>
      <trkpt lat="44.53117" lon="6.20098">
        <ele>986.9</ele>
        <time>2020-10-13T11:02:19.000Z</time>
      </trkpt>
      <trkpt lat="44.53119" lon="6.20109">
        <ele>989.1</ele>
        <time>2020-10-13T11:02:22.000Z</time>
      </trkpt>
      <trkpt lat="44.53123" lon="6.20118">
        <ele>991.1</ele>
        <time>2020-10-13T11:02:26.143Z</time>
      </trkpt>
      <trkpt lat="44.53131" lon="6.20125">
        <ele>993.7</ele>
        <time>2020-10-13T11:02:30.314Z</time>
      </trkpt>
      <trkpt lat="44.53141" lon="6.20125">
        <ele>992.9</ele>
        <time>2020-10-13T11:02:34.466Z</time>
      </trkpt>
      <trkpt lat="44.53149" lon="6.20125">
        <ele>992.5</ele>
        <time>2020-10-13T11:02:37.000Z</time>
      </trkpt>
      <trkpt lat="44.53159" lon="6.20127">
        <ele>995.9</ele>
        <time>2020-10-13T11:02:43.000Z</time>
      </trkpt>
      <trkpt lat="44.53169" lon="6.20135">
        <ele>992.6</ele>
        <time>2020-10-13T11:02:49.000Z</time>
      </trkpt>
      <trkpt lat="44.53175" lon="6.2014">
        <ele>992.1</ele>
        <time>2020-10-13T11:02:52.000Z</time>
      </trkpt>
      <trkpt lat="44.53182" lon="6.20138">
        <ele>998.6</ele>
        <time>2020-10-13T11:03:00.919Z</time>
      </trkpt>
      <trkpt lat="44.53186" lon="6.20132">
        <ele>997.6</ele>
        <time>2020-10-13T11:03:04.000Z</time>
      </trkpt>
      <trkpt lat="44.53199" lon="6.20131">
        <ele>999.3</ele>
        <time>2020-10-13T11:03:13.000Z</time>
      </trkpt>
      <trkpt lat="44.53232" lon="6.20141">
        <ele>999.3</ele>
        <time>2020-10-13T11:03:17.267Z</time>
      </trkpt>
      <trkpt lat="44.53289" lon="6.20185">
        <ele>999.3</ele>
        <time>2020-10-13T11:03:22.000Z</time>
      </trkpt>
      <trkpt lat="44.53314" lon="6.20218">
        <ele>999.3</ele>
        <time>2020-10-13T11:03:25.000Z</time>
      </trkpt>
      <trkpt lat="44.5335" lon="6.20284">
        <ele>999.3</ele>
        <time>2020-10-13T11:03:31.000Z</time>
      </trkpt>
      <trkpt lat="44.53365" lon="6.20313">
        <ele>999.3</ele>
        <time>2020-10-13T11:03:34.000Z</time>
      </trkpt>
      <trkpt lat="44.53383" lon="6.20341">
        <ele>999.3</ele>
        <time>2020-10-13T11:03:37.000Z</time>
      </trkpt>
      <trkpt lat="44.53401" lon="6.20374">
        <ele>999.3</ele>
        <time>2020-10-13T11:03:40.000Z</time>
      </trkpt>
      <trkpt lat="44.53432" lon="6.20455">
        <ele>999.3</ele>
        <time>2020-10-13T11:03:46.000Z</time>
      </trkpt>
      <trkpt lat="44.53467" lon="6.20547">
        <ele>999.3</ele>
        <time>2020-10-13T11:03:52.000Z</time>
      </trkpt>
      <trkpt lat="44.53508" lon="6.20622">
        <ele>999.3</ele>
        <time>2020-10-13T11:03:58.000Z</time>
      </trkpt>
      <trkpt lat="44.53542" lon="6.20671">
        <ele>999.3</ele>
        <time>2020-10-13T11:04:04.000Z</time>
      </trkpt>
      <trkpt lat="44.53564" lon="6.20705">
        <ele>980.3</ele>
        <time>2020-10-13T11:04:10.000Z</time>
      </trkpt>
      <trkpt lat="44.53572" lon="6.20714">
        <ele>977.2</ele>
        <time>2020-10-13T11:04:13.000Z</time>
      </trkpt>
      <trkpt lat="44.53574" lon="6.2072">
        <ele>976.8</ele>
        <time>2020-10-13T11:04:16.000Z</time>
      </trkpt>
      <trkpt lat="44.53576" lon="6.20734">
        <ele>971.6</ele>
        <time>2020-10-13T11:04:22.000Z</time>
      </trkpt>
      <trkpt lat="44.53579" lon="6.20747">
        <ele>971</ele>
        <time>2020-10-13T11:04:25.000Z</time>
      </trkpt>
      <trkpt lat="44.53584" lon="6.20765">
        <ele>969.6</ele>
        <time>2020-10-13T11:04:29.139Z</time>
      </trkpt>
      <trkpt lat="44.53597" lon="6.20789">
        <ele>966.8</ele>
        <time>2020-10-13T11:04:34.154Z</time>
      </trkpt>
      <trkpt lat="44.53606" lon="6.20809">
        <ele>965.1</ele>
        <time>2020-10-13T11:04:37.000Z</time>
      </trkpt>
      <trkpt lat="44.53611" lon="6.20819">
        <ele>965.3</ele>
        <time>2020-10-13T11:04:40.000Z</time>
      </trkpt>
      <trkpt lat="44.53617" lon="6.20828">
        <ele>967.5</ele>
        <time>2020-10-13T11:04:44.173Z</time>
      </trkpt>
      <trkpt lat="44.53622" lon="6.20837">
        <ele>967</ele>
        <time>2020-10-13T11:04:49.180Z</time>
      </trkpt>
      <trkpt lat="44.53626" lon="6.20849">
        <ele>973.1</ele>
        <time>2020-10-13T11:04:52.000Z</time>
      </trkpt>
      <trkpt lat="44.53616" lon="6.20844">
        <ele>974</ele>
        <time>2020-10-13T11:04:59.217Z</time>
      </trkpt>
      <trkpt lat="44.53626" lon="6.20879">
        <ele>972.5</ele>
        <time>2020-10-13T11:05:07.000Z</time>
      </trkpt>
      <trkpt lat="44.53634" lon="6.20878">
        <ele>971.7</ele>
        <time>2020-10-13T11:05:13.442Z</time>
      </trkpt>
      <trkpt lat="44.53641" lon="6.20886">
        <ele>973.6</ele>
        <time>2020-10-13T11:05:16.000Z</time>
      </trkpt>
      <trkpt lat="44.53645" lon="6.20898">
        <ele>973.1</ele>
        <time>2020-10-13T11:05:20.334Z</time>
      </trkpt>
      <trkpt lat="44.53644" lon="6.20914">
        <ele>973.2</ele>
        <time>2020-10-13T11:05:24.428Z</time>
      </trkpt>
      <trkpt lat="44.53641" lon="6.20927">
        <ele>971.1</ele>
        <time>2020-10-13T11:05:28.478Z</time>
      </trkpt>
      <trkpt lat="44.53639" lon="6.20936">
        <ele>974.2</ele>
        <time>2020-10-13T11:05:31.000Z</time>
      </trkpt>
      <trkpt lat="44.53637" lon="6.20951">
        <ele>973.2</ele>
        <time>2020-10-13T11:05:39.244Z</time>
      </trkpt>
      <trkpt lat="44.53638" lon="6.20962">
        <ele>972.2</ele>
        <time>2020-10-13T11:05:43.459Z</time>
      </trkpt>
      <trkpt lat="44.53637" lon="6.20984">
        <ele>980.6</ele>
        <time>2020-10-13T11:05:52.000Z</time>
      </trkpt>
      <trkpt lat="44.53638" lon="6.21003">
        <ele>980.8</ele>
        <time>2020-10-13T11:05:58.443Z</time>
      </trkpt>
      <trkpt lat="44.53637" lon="6.21014">
        <ele>982.4</ele>
        <time>2020-10-13T11:06:01.000Z</time>
      </trkpt>
      <trkpt lat="44.53636" lon="6.21022">
        <ele>980.1</ele>
        <time>2020-10-13T11:06:05.145Z</time>
      </trkpt>
      <trkpt lat="44.53635" lon="6.21034">
        <ele>981.3</ele>
        <time>2020-10-13T11:06:09.418Z</time>
      </trkpt>
      <trkpt lat="44.53629" lon="6.21036">
        <ele>980.2</ele>
        <time>2020-10-13T11:06:13.473Z</time>
      </trkpt>
      <trkpt lat="44.53625" lon="6.21038">
        <ele>981.2</ele>
        <time>2020-10-13T11:06:16.000Z</time>
      </trkpt>
      <trkpt lat="44.53621" lon="6.21046">
        <ele>984.5</ele>
        <time>2020-10-13T11:06:22.000Z</time>
      </trkpt>
      <trkpt lat="44.53622" lon="6.21053">
        <ele>987.6</ele>
        <time>2020-10-13T11:06:25.000Z</time>
      </trkpt>
      <trkpt lat="44.53619" lon="6.21059">
        <ele>987.6</ele>
        <time>2020-10-13T11:06:29.070Z</time>
      </trkpt>
      <trkpt lat="44.53614" lon="6.21067">
        <ele>989.7</ele>
        <time>2020-10-13T11:06:33.429Z</time>
      </trkpt>
      <trkpt lat="44.53604" lon="6.21094">
        <ele>986.6</ele>
        <time>2020-10-13T11:06:37.000Z</time>
      </trkpt>
      <trkpt lat="44.53608" lon="6.21123">
        <ele>986.4</ele>
        <time>2020-10-13T11:06:43.482Z</time>
      </trkpt>
      <trkpt lat="44.53592" lon="6.21152">
        <ele>986.8</ele>
        <time>2020-10-13T11:06:46.000Z</time>
      </trkpt>
      <trkpt lat="44.53576" lon="6.21167">
        <ele>989.7</ele>
        <time>2020-10-13T11:06:50.088Z</time>
      </trkpt>
      <trkpt lat="44.53571" lon="6.21179">
        <ele>986.4</ele>
        <time>2020-10-13T11:06:54.325Z</time>
      </trkpt>
      <trkpt lat="44.53561" lon="6.21184">
        <ele>985.1</ele>
        <time>2020-10-13T11:06:58.461Z</time>
      </trkpt>
      <trkpt lat="44.53555" lon="6.21189">
        <ele>983.6</ele>
        <time>2020-10-13T11:07:01.610Z</time>
      </trkpt>
      <trkpt lat="44.53549" lon="6.212">
        <ele>982.8</ele>
        <time>2020-10-13T11:07:07.000Z</time>
      </trkpt>
      <trkpt lat="44.53542" lon="6.21209">
        <ele>982.7</ele>
        <time>2020-10-13T11:07:14.746Z</time>
      </trkpt>
      <trkpt lat="44.53535" lon="6.21215">
        <ele>983.2</ele>
        <time>2020-10-13T11:07:18.434Z</time>
      </trkpt>
      <trkpt lat="44.53531" lon="6.21222">
        <ele>983.6</ele>
        <time>2020-10-13T11:07:22.000Z</time>
      </trkpt>
      <trkpt lat="44.53527" lon="6.2123">
        <ele>984</ele>
        <time>2020-10-13T11:07:28.483Z</time>
      </trkpt>
      <trkpt lat="44.53512" lon="6.21256">
        <ele>987.9</ele>
        <time>2020-10-13T11:07:31.000Z</time>
      </trkpt>
      <trkpt lat="44.53499" lon="6.21273">
        <ele>989.7</ele>
        <time>2020-10-13T11:07:35.529Z</time>
      </trkpt>
      <trkpt lat="44.5349" lon="6.2129">
        <ele>989.2</ele>
        <time>2020-10-13T11:07:38.872Z</time>
      </trkpt>
      <trkpt lat="44.53482" lon="6.2131">
        <ele>988.1</ele>
        <time>2020-10-13T11:07:43.460Z</time>
      </trkpt>
      <trkpt lat="44.53477" lon="6.21328">
        <ele>990.5</ele>
        <time>2020-10-13T11:07:46.000Z</time>
      </trkpt>
      <trkpt lat="44.53475" lon="6.21338">
        <ele>992.6</ele>
        <time>2020-10-13T11:07:50.425Z</time>
      </trkpt>
      <trkpt lat="44.53474" lon="6.21346">
        <ele>994.4</ele>
        <time>2020-10-13T11:07:54.125Z</time>
      </trkpt>
      <trkpt lat="44.53473" lon="6.21354">
        <ele>994.2</ele>
        <time>2020-10-13T11:07:58.435Z</time>
      </trkpt>
      <trkpt lat="44.53471" lon="6.21361">
        <ele>995.9</ele>
        <time>2020-10-13T11:08:01.000Z</time>
      </trkpt>
      <trkpt lat="44.53469" lon="6.21367">
        <ele>991.7</ele>
        <time>2020-10-13T11:08:05.409Z</time>
      </trkpt>
      <trkpt lat="44.53467" lon="6.21373">
        <ele>991.9</ele>
        <time>2020-10-13T11:08:09.031Z</time>
      </trkpt>
      <trkpt lat="44.53462" lon="6.21383">
        <ele>994</ele>
        <time>2020-10-13T11:08:13.000Z</time>
      </trkpt>
      <trkpt lat="44.53459" lon="6.2139">
        <ele>991.9</ele>
        <time>2020-10-13T11:08:16.000Z</time>
      </trkpt>
      <trkpt lat="44.53455" lon="6.21397">
        <ele>990.5</ele>
        <time>2020-10-13T11:08:20.451Z</time>
      </trkpt>
      <trkpt lat="44.5345" lon="6.21403">
        <ele>987.9</ele>
        <time>2020-10-13T11:08:24.668Z</time>
      </trkpt>
      <trkpt lat="44.53434" lon="6.21423">
        <ele>982.6</ele>
        <time>2020-10-13T11:08:28.000Z</time>
      </trkpt>
      <trkpt lat="44.53426" lon="6.2143">
        <ele>978.6</ele>
        <time>2020-10-13T11:08:33.467Z</time>
      </trkpt>
      <trkpt lat="44.53439" lon="6.21432">
        <ele>975.1</ele>
        <time>2020-10-13T11:08:46.000Z</time>
      </trkpt>
      <trkpt lat="44.53444" lon="6.21435">
        <ele>975</ele>
        <time>2020-10-13T11:08:50.765Z</time>
      </trkpt>
      <trkpt lat="44.5345" lon="6.21436">
        <ele>974</ele>
        <time>2020-10-13T11:08:54.027Z</time>
      </trkpt>
      <trkpt lat="44.53455" lon="6.21438">
        <ele>974.5</ele>
        <time>2020-10-13T11:08:58.444Z</time>
      </trkpt>
      <trkpt lat="44.53449" lon="6.21437">
        <ele>978.7</ele>
        <time>2020-10-13T11:09:01.000Z</time>
      </trkpt>
      <trkpt lat="44.53445" lon="6.21437">
        <ele>974.5</ele>
        <time>2020-10-13T11:09:20.527Z</time>
      </trkpt>
      <trkpt lat="44.53444" lon="6.21429">
        <ele>971.6</ele>
        <time>2020-10-13T11:09:24.595Z</time>
      </trkpt>
      <trkpt lat="44.53443" lon="6.2142">
        <ele>970</ele>
        <time>2020-10-13T11:09:28.482Z</time>
      </trkpt>
      <trkpt lat="44.5345" lon="6.21431">
        <ele>966.8</ele>
        <time>2020-10-13T11:09:31.000Z</time>
      </trkpt>
      <trkpt lat="44.53456" lon="6.21441">
        <ele>965.2</ele>
        <time>2020-10-13T11:09:37.000Z</time>
      </trkpt>
      <trkpt lat="44.53464" lon="6.21437">
        <ele>961.5</ele>
        <time>2020-10-13T11:09:46.000Z</time>
      </trkpt>
      <trkpt lat="44.53469" lon="6.21437">
        <ele>961</ele>
        <time>2020-10-13T11:09:50.266Z</time>
      </trkpt>
      <trkpt lat="44.53478" lon="6.21443">
        <ele>961.2</ele>
        <time>2020-10-13T11:09:54.205Z</time>
      </trkpt>
      <trkpt lat="44.53494" lon="6.21425">
        <ele>961</ele>
        <time>2020-10-13T11:09:58.000Z</time>
      </trkpt>
      <trkpt lat="44.53505" lon="6.2141">
        <ele>962.9</ele>
        <time>2020-10-13T11:10:01.000Z</time>
      </trkpt>
      <trkpt lat="44.53538" lon="6.21373">
        <ele>968</ele>
        <time>2020-10-13T11:10:07.000Z</time>
      </trkpt>
      <trkpt lat="44.53564" lon="6.2135">
        <ele>980.6</ele>
        <time>2020-10-13T11:10:13.000Z</time>
      </trkpt>
      <trkpt lat="44.53593" lon="6.21331">
        <ele>978</ele>
        <time>2020-10-13T11:10:16.000Z</time>
      </trkpt>
      <trkpt lat="44.5363" lon="6.21295">
        <ele>977.1</ele>
        <time>2020-10-13T11:10:22.000Z</time>
      </trkpt>
      <trkpt lat="44.53645" lon="6.21277">
        <ele>978.7</ele>
        <time>2020-10-13T11:10:28.450Z</time>
      </trkpt>
      <trkpt lat="44.53658" lon="6.21273">
        <ele>976</ele>
        <time>2020-10-13T11:10:31.000Z</time>
      </trkpt>
      <trkpt lat="44.53689" lon="6.21279">
        <ele>974.3</ele>
        <time>2020-10-13T11:10:37.000Z</time>
      </trkpt>
      <trkpt lat="44.53669" lon="6.2129">
        <ele>973.5</ele>
        <time>2020-10-13T11:10:42.573Z</time>
      </trkpt>
      <trkpt lat="44.53662" lon="6.21292">
        <ele>969.5</ele>
        <time>2020-10-13T11:10:46.000Z</time>
      </trkpt>
      <trkpt lat="44.53667" lon="6.21284">
        <ele>967.9</ele>
        <time>2020-10-13T11:10:55.000Z</time>
      </trkpt>
      <trkpt lat="44.53689" lon="6.21266">
        <ele>967.8</ele>
        <time>2020-10-13T11:11:01.000Z</time>
      </trkpt>
      <trkpt lat="44.53715" lon="6.2125">
        <ele>967.8</ele>
        <time>2020-10-13T11:11:04.000Z</time>
      </trkpt>
      <trkpt lat="44.53725" lon="6.21244">
        <ele>967.9</ele>
        <time>2020-10-13T11:11:08.201Z</time>
      </trkpt>
      <trkpt lat="44.53726" lon="6.21238">
        <ele>954.7</ele>
        <time>2020-10-13T11:12:14.233Z</time>
      </trkpt>
      <trkpt lat="44.53728" lon="6.21244">
        <ele>948.1</ele>
        <time>2020-10-13T11:12:33.294Z</time>
      </trkpt>
      <trkpt lat="44.53733" lon="6.2124">
        <ele>932.4</ele>
        <time>2020-10-13T11:12:52.460Z</time>
      </trkpt>
      <trkpt lat="44.53736" lon="6.21235">
        <ele>931.1</ele>
        <time>2020-10-13T11:12:55.000Z</time>
      </trkpt>
      <trkpt lat="44.53741" lon="6.21232">
        <ele>929.5</ele>
        <time>2020-10-13T11:13:01.000Z</time>
      </trkpt>
      <trkpt lat="44.53747" lon="6.21237">
        <ele>928.2</ele>
        <time>2020-10-13T11:13:08.524Z</time>
      </trkpt>
      <trkpt lat="44.53755" lon="6.21238">
        <ele>933</ele>
        <time>2020-10-13T11:13:16.000Z</time>
      </trkpt>
      <trkpt lat="44.53759" lon="6.21233">
        <ele>935.1</ele>
        <time>2020-10-13T11:13:19.000Z</time>
      </trkpt>
      <trkpt lat="44.53765" lon="6.21228">
        <ele>934</ele>
        <time>2020-10-13T11:13:23.564Z</time>
      </trkpt>
      <trkpt lat="44.53769" lon="6.21226">
        <ele>932.6</ele>
        <time>2020-10-13T11:13:31.374Z</time>
      </trkpt>
      <trkpt lat="44.53776" lon="6.21228">
        <ele>927.5</ele>
        <time>2020-10-13T11:13:37.000Z</time>
      </trkpt>
      <trkpt lat="44.53783" lon="6.21215">
        <ele>929.1</ele>
        <time>2020-10-13T11:13:44.573Z</time>
      </trkpt>
      <trkpt lat="44.53788" lon="6.21214">
        <ele>927</ele>
        <time>2020-10-13T11:13:47.753Z</time>
      </trkpt>
      <trkpt lat="44.53793" lon="6.21211">
        <ele>926</ele>
        <time>2020-10-13T11:13:55.000Z</time>
      </trkpt>
      <trkpt lat="44.53804" lon="6.21192">
        <ele>927.7</ele>
        <time>2020-10-13T11:13:59.060Z</time>
      </trkpt>
      <trkpt lat="44.53805" lon="6.21186">
        <ele>925.7</ele>
        <time>2020-10-13T11:14:01.000Z</time>
      </trkpt>
      <trkpt lat="44.53832" lon="6.21144">
        <ele>922.9</ele>
        <time>2020-10-13T11:14:07.515Z</time>
      </trkpt>
      <trkpt lat="44.5387" lon="6.21105">
        <ele>922.9</ele>
        <time>2020-10-13T11:14:10.000Z</time>
      </trkpt>
      <trkpt lat="44.53921" lon="6.21048">
        <ele>921.3</ele>
        <time>2020-10-13T11:14:16.000Z</time>
      </trkpt>
      <trkpt lat="44.5394" lon="6.21014">
        <ele>920.5</ele>
        <time>2020-10-13T11:14:22.000Z</time>
      </trkpt>
      <trkpt lat="44.53948" lon="6.20994">
        <ele>922.9</ele>
        <time>2020-10-13T11:14:25.000Z</time>
      </trkpt>
      <trkpt lat="44.53953" lon="6.20992">
        <ele>913.1</ele>
        <time>2020-10-13T11:14:31.000Z</time>
      </trkpt>
      <trkpt lat="44.53991" lon="6.20998">
        <ele>911.3</ele>
        <time>2020-10-13T11:14:37.000Z</time>
      </trkpt>
      <trkpt lat="44.53999" lon="6.21011">
        <ele>909</ele>
        <time>2020-10-13T11:14:40.000Z</time>
      </trkpt>
      <trkpt lat="44.5399" lon="6.21026">
        <ele>907.3</ele>
        <time>2020-10-13T11:14:45.112Z</time>
      </trkpt>
      <trkpt lat="44.53998" lon="6.21023">
        <ele>899.2</ele>
        <time>2020-10-13T11:15:04.483Z</time>
      </trkpt>
      <trkpt lat="44.54004" lon="6.21018">
        <ele>895</ele>
        <time>2020-10-13T11:15:07.000Z</time>
      </trkpt>
      <trkpt lat="44.5401" lon="6.21013">
        <ele>897.9</ele>
        <time>2020-10-13T11:15:11.175Z</time>
      </trkpt>
      <trkpt lat="44.54017" lon="6.21008">
        <ele>895.4</ele>
        <time>2020-10-13T11:15:15.070Z</time>
      </trkpt>
      <trkpt lat="44.54025" lon="6.21007">
        <ele>892.7</ele>
        <time>2020-10-13T11:15:19.459Z</time>
      </trkpt>
      <trkpt lat="44.54035" lon="6.21007">
        <ele>885.4</ele>
        <time>2020-10-13T11:15:22.000Z</time>
      </trkpt>
      <trkpt lat="44.5404" lon="6.2101">
        <ele>880.8</ele>
        <time>2020-10-13T11:15:26.219Z</time>
      </trkpt>
      <trkpt lat="44.54046" lon="6.21012">
        <ele>880.8</ele>
        <time>2020-10-13T11:15:29.713Z</time>
      </trkpt>
      <trkpt lat="44.54051" lon="6.2101">
        <ele>879.6</ele>
        <time>2020-10-13T11:15:34.000Z</time>
      </trkpt>
      <trkpt lat="44.54059" lon="6.2101">
        <ele>875.9</ele>
        <time>2020-10-13T11:15:41.451Z</time>
      </trkpt>
      <trkpt lat="44.54066" lon="6.21006">
        <ele>876.4</ele>
        <time>2020-10-13T11:15:45.449Z</time>
      </trkpt>
      <trkpt lat="44.54072" lon="6.21003">
        <ele>874</ele>
        <time>2020-10-13T11:15:52.000Z</time>
      </trkpt>
      <trkpt lat="44.54078" lon="6.20999">
        <ele>876.3</ele>
        <time>2020-10-13T11:16:00.456Z</time>
      </trkpt>
      <trkpt lat="44.5408" lon="6.2099">
        <ele>877.8</ele>
        <time>2020-10-13T11:16:04.000Z</time>
      </trkpt>
      <trkpt lat="44.54088" lon="6.20989">
        <ele>877.9</ele>
        <time>2020-10-13T11:16:11.351Z</time>
      </trkpt>
      <trkpt lat="44.54092" lon="6.20992">
        <ele>875.1</ele>
        <time>2020-10-13T11:16:15.474Z</time>
      </trkpt>
      <trkpt lat="44.54097" lon="6.21">
        <ele>867.8</ele>
        <time>2020-10-13T11:16:19.000Z</time>
      </trkpt>
      <trkpt lat="44.541" lon="6.21006">
        <ele>867.2</ele>
        <time>2020-10-13T11:16:25.474Z</time>
      </trkpt>
      <trkpt lat="44.54101" lon="6.21016">
        <ele>855.2</ele>
        <time>2020-10-13T11:16:34.000Z</time>
      </trkpt>
      <trkpt lat="44.54106" lon="6.21014">
        <ele>850.8</ele>
        <time>2020-10-13T11:16:43.947Z</time>
      </trkpt>
      <trkpt lat="44.54113" lon="6.21007">
        <ele>852.1</ele>
        <time>2020-10-13T11:16:49.000Z</time>
      </trkpt>
      <trkpt lat="44.54121" lon="6.20999">
        <ele>853.5</ele>
        <time>2020-10-13T11:16:55.447Z</time>
      </trkpt>
      <trkpt lat="44.54145" lon="6.20996">
        <ele>854.3</ele>
        <time>2020-10-13T11:16:58.000Z</time>
      </trkpt>
      <trkpt lat="44.54163" lon="6.20981">
        <ele>855.4</ele>
        <time>2020-10-13T11:17:04.000Z</time>
      </trkpt>
      <trkpt lat="44.54186" lon="6.2098">
        <ele>857</ele>
        <time>2020-10-13T11:17:08.474Z</time>
      </trkpt>
      <trkpt lat="44.54198" lon="6.20978">
        <ele>856.9</ele>
        <time>2020-10-13T11:17:11.564Z</time>
      </trkpt>
      <trkpt lat="44.54205" lon="6.20969">
        <ele>856.5</ele>
        <time>2020-10-13T11:17:15.434Z</time>
      </trkpt>
      <trkpt lat="44.54212" lon="6.20972">
        <ele>852.5</ele>
        <time>2020-10-13T11:17:19.000Z</time>
      </trkpt>
      <trkpt lat="44.54218" lon="6.20975">
        <ele>850.2</ele>
        <time>2020-10-13T11:17:25.000Z</time>
      </trkpt>
      <trkpt lat="44.54223" lon="6.20976">
        <ele>848.9</ele>
        <time>2020-10-13T11:17:28.000Z</time>
      </trkpt>
      <trkpt lat="44.54231" lon="6.20975">
        <ele>850</ele>
        <time>2020-10-13T11:17:35.912Z</time>
      </trkpt>
      <trkpt lat="44.54237" lon="6.20958">
        <ele>840.5</ele>
        <time>2020-10-13T11:17:40.467Z</time>
      </trkpt>
      <trkpt lat="44.54242" lon="6.20948">
        <ele>842.5</ele>
        <time>2020-10-13T11:17:43.000Z</time>
      </trkpt>
      <trkpt lat="44.54245" lon="6.20941">
        <ele>842.2</ele>
        <time>2020-10-13T11:17:47.529Z</time>
      </trkpt>
      <trkpt lat="44.54246" lon="6.20932">
        <ele>841.4</ele>
        <time>2020-10-13T11:17:51.034Z</time>
      </trkpt>
      <trkpt lat="44.54246" lon="6.20924">
        <ele>842</ele>
        <time>2020-10-13T11:17:55.445Z</time>
      </trkpt>
      <trkpt lat="44.54262" lon="6.20917">
        <ele>840.1</ele>
        <time>2020-10-13T11:17:58.000Z</time>
      </trkpt>
      <trkpt lat="44.54293" lon="6.20901">
        <ele>839.9</ele>
        <time>2020-10-13T11:18:02.413Z</time>
      </trkpt>
      <trkpt lat="44.54311" lon="6.20881">
        <ele>838.3</ele>
        <time>2020-10-13T11:18:05.630Z</time>
      </trkpt>
      <trkpt lat="44.54323" lon="6.20863">
        <ele>837.5</ele>
        <time>2020-10-13T11:18:07.000Z</time>
      </trkpt>
      <trkpt lat="44.54336" lon="6.20843">
        <ele>829.9</ele>
        <time>2020-10-13T11:18:13.000Z</time>
      </trkpt>
      <trkpt lat="44.54345" lon="6.20839">
        <ele>829.1</ele>
        <time>2020-10-13T11:18:16.000Z</time>
      </trkpt>
      <trkpt lat="44.54343" lon="6.2083">
        <ele>828.1</ele>
        <time>2020-10-13T11:18:25.000Z</time>
      </trkpt>
      <trkpt lat="44.54348" lon="6.20816">
        <ele>828</ele>
        <time>2020-10-13T11:18:28.000Z</time>
      </trkpt>
      <trkpt lat="44.5436" lon="6.2078">
        <ele>828</ele>
        <time>2020-10-13T11:18:34.000Z</time>
      </trkpt>
      <trkpt lat="44.54369" lon="6.20783">
        <ele>831.1</ele>
        <time>2020-10-13T11:18:55.000Z</time>
      </trkpt>
      <trkpt lat="44.54363" lon="6.2078">
        <ele>831.4</ele>
        <time>2020-10-13T11:18:58.000Z</time>
      </trkpt>
      <trkpt lat="44.54363" lon="6.20761">
        <ele>829.2</ele>
        <time>2020-10-13T11:19:07.167Z</time>
      </trkpt>
      <trkpt lat="44.54399" lon="6.20772">
        <ele>822.4</ele>
        <time>2020-10-13T11:19:10.000Z</time>
      </trkpt>
      <trkpt lat="44.5443" lon="6.20802">
        <ele>823.8</ele>
        <time>2020-10-13T11:19:13.000Z</time>
      </trkpt>
      <trkpt lat="44.54456" lon="6.20836">
        <ele>824.9</ele>
        <time>2020-10-13T11:19:17.149Z</time>
      </trkpt>
      <trkpt lat="44.54472" lon="6.20854">
        <ele>826</ele>
        <time>2020-10-13T11:19:21.332Z</time>
      </trkpt>
      <trkpt lat="44.54473" lon="6.20835">
        <ele>826.6</ele>
        <time>2020-10-13T11:19:25.441Z</time>
      </trkpt>
      <trkpt lat="44.54478" lon="6.20831">
        <ele>828.3</ele>
        <time>2020-10-13T11:19:32.194Z</time>
      </trkpt>
      <trkpt lat="44.54537" lon="6.20862">
        <ele>823.9</ele>
        <time>2020-10-13T11:19:37.000Z</time>
      </trkpt>
      <trkpt lat="44.54566" lon="6.20879">
        <ele>824.8</ele>
        <time>2020-10-13T11:19:40.000Z</time>
      </trkpt>
      <trkpt lat="44.54593" lon="6.20893">
        <ele>820.3</ele>
        <time>2020-10-13T11:19:46.000Z</time>
      </trkpt>
      <trkpt lat="44.54603" lon="6.20888">
        <ele>820.3</ele>
        <time>2020-10-13T11:19:52.000Z</time>
      </trkpt>
      <trkpt lat="44.54618" lon="6.20888">
        <ele>821.9</ele>
        <time>2020-10-13T11:19:58.000Z</time>
      </trkpt>
      <trkpt lat="44.54625" lon="6.20886">
        <ele>821.3</ele>
        <time>2020-10-13T11:20:01.000Z</time>
      </trkpt>
      <trkpt lat="44.5463" lon="6.20885">
        <ele>814.9</ele>
        <time>2020-10-13T11:20:07.000Z</time>
      </trkpt>
      <trkpt lat="44.54635" lon="6.20884">
        <ele>816.6</ele>
        <time>2020-10-13T11:20:13.448Z</time>
      </trkpt>
      <trkpt lat="44.54677" lon="6.20881">
        <ele>811.1</ele>
        <time>2020-10-13T11:20:16.000Z</time>
      </trkpt>
      <trkpt lat="44.54698" lon="6.20885">
        <ele>813.8</ele>
        <time>2020-10-13T11:20:19.000Z</time>
      </trkpt>
      <trkpt lat="44.54719" lon="6.20889">
        <ele>815.5</ele>
        <time>2020-10-13T11:20:23.127Z</time>
      </trkpt>
      <trkpt lat="44.5474" lon="6.20893">
        <ele>817.8</ele>
        <time>2020-10-13T11:20:28.147Z</time>
      </trkpt>
      <trkpt lat="44.54758" lon="6.20886">
        <ele>822.8</ele>
        <time>2020-10-13T11:20:31.000Z</time>
      </trkpt>
      <trkpt lat="44.54757" lon="6.20879">
        <ele>824.4</ele>
        <time>2020-10-13T11:20:34.000Z</time>
      </trkpt>
      <trkpt lat="44.54746" lon="6.2087">
        <ele>820.7</ele>
        <time>2020-10-13T11:20:40.000Z</time>
      </trkpt>
      <trkpt lat="44.54794" lon="6.2085">
        <ele>821.5</ele>
        <time>2020-10-13T11:20:46.000Z</time>
      </trkpt>
      <trkpt lat="44.54814" lon="6.20842">
        <ele>823.1</ele>
        <time>2020-10-13T11:20:49.000Z</time>
      </trkpt>
      <trkpt lat="44.54838" lon="6.20844">
        <ele>826</ele>
        <time>2020-10-13T11:20:53.229Z</time>
      </trkpt>
      <trkpt lat="44.5486" lon="6.20848">
        <ele>827.3</ele>
        <time>2020-10-13T11:20:58.246Z</time>
      </trkpt>
      <trkpt lat="44.54877" lon="6.20852">
        <ele>827.5</ele>
        <time>2020-10-13T11:21:01.000Z</time>
      </trkpt>
      <trkpt lat="44.54902" lon="6.20845">
        <ele>829.2</ele>
        <time>2020-10-13T11:21:07.000Z</time>
      </trkpt>
      <trkpt lat="44.54913" lon="6.20838">
        <ele>830.5</ele>
        <time>2020-10-13T11:21:10.000Z</time>
      </trkpt>
      <trkpt lat="44.54937" lon="6.20834">
        <ele>831.5</ele>
        <time>2020-10-13T11:21:16.000Z</time>
      </trkpt>
      <trkpt lat="44.54953" lon="6.20834">
        <ele>831.6</ele>
        <time>2020-10-13T11:21:19.000Z</time>
      </trkpt>
      <trkpt lat="44.54968" lon="6.20834">
        <ele>833.1</ele>
        <time>2020-10-13T11:21:23.317Z</time>
      </trkpt>
      <trkpt lat="44.54988" lon="6.20831">
        <ele>832.6</ele>
        <time>2020-10-13T11:21:28.338Z</time>
      </trkpt>
      <trkpt lat="44.55003" lon="6.20822">
        <ele>832.7</ele>
        <time>2020-10-13T11:21:31.000Z</time>
      </trkpt>
      <trkpt lat="44.55011" lon="6.20811">
        <ele>833.2</ele>
        <time>2020-10-13T11:21:34.000Z</time>
      </trkpt>
      <trkpt lat="44.55029" lon="6.20791">
        <ele>830.8</ele>
        <time>2020-10-13T11:21:40.393Z</time>
      </trkpt>
      <trkpt lat="44.55044" lon="6.20783">
        <ele>830.5</ele>
        <time>2020-10-13T11:21:43.000Z</time>
      </trkpt>
      <trkpt lat="44.55067" lon="6.20775">
        <ele>832.3</ele>
        <time>2020-10-13T11:21:49.000Z</time>
      </trkpt>
      <trkpt lat="44.55088" lon="6.20756">
        <ele>835.2</ele>
        <time>2020-10-13T11:21:55.000Z</time>
      </trkpt>
      <trkpt lat="44.55106" lon="6.20729">
        <ele>833.9</ele>
        <time>2020-10-13T11:22:01.000Z</time>
      </trkpt>
      <trkpt lat="44.55133" lon="6.20716">
        <ele>835.3</ele>
        <time>2020-10-13T11:22:07.000Z</time>
      </trkpt>
      <trkpt lat="44.55148" lon="6.20715">
        <ele>834.5</ele>
        <time>2020-10-13T11:22:10.000Z</time>
      </trkpt>
      <trkpt lat="44.55158" lon="6.20713">
        <ele>836.5</ele>
        <time>2020-10-13T11:22:13.000Z</time>
      </trkpt>
      <trkpt lat="44.55169" lon="6.20711">
        <ele>834.3</ele>
        <time>2020-10-13T11:22:16.000Z</time>
      </trkpt>
      <trkpt lat="44.55196" lon="6.20716">
        <ele>836.5</ele>
        <time>2020-10-13T11:22:22.000Z</time>
      </trkpt>
      <trkpt lat="44.55222" lon="6.20708">
        <ele>836.3</ele>
        <time>2020-10-13T11:22:28.000Z</time>
      </trkpt>
      <trkpt lat="44.55228" lon="6.20713">
        <ele>838.2</ele>
        <time>2020-10-13T11:22:31.000Z</time>
      </trkpt>
      <trkpt lat="44.55227" lon="6.20727">
        <ele>836.5</ele>
        <time>2020-10-13T11:22:37.000Z</time>
      </trkpt>
      <trkpt lat="44.55258" lon="6.20688">
        <ele>839.2</ele>
        <time>2020-10-13T11:22:44.122Z</time>
      </trkpt>
      <trkpt lat="44.55256" lon="6.20697">
        <ele>837.8</ele>
        <time>2020-10-13T11:22:47.898Z</time>
      </trkpt>
      <trkpt lat="44.5525" lon="6.20713">
        <ele>837.3</ele>
        <time>2020-10-13T11:22:52.461Z</time>
      </trkpt>
      <trkpt lat="44.55275" lon="6.20702">
        <ele>836.3</ele>
        <time>2020-10-13T11:22:55.000Z</time>
      </trkpt>
      <trkpt lat="44.55293" lon="6.20695">
        <ele>837.6</ele>
        <time>2020-10-13T11:22:59.170Z</time>
      </trkpt>
      <trkpt lat="44.55301" lon="6.2071">
        <ele>836.3</ele>
        <time>2020-10-13T11:23:04.180Z</time>
      </trkpt>
      <trkpt lat="44.55307" lon="6.20709">
        <ele>839.2</ele>
        <time>2020-10-13T11:23:07.000Z</time>
      </trkpt>
      <trkpt lat="44.55318" lon="6.20697">
        <ele>839.8</ele>
        <time>2020-10-13T11:23:10.000Z</time>
      </trkpt>
      <trkpt lat="44.55327" lon="6.20689">
        <ele>840.7</ele>
        <time>2020-10-13T11:23:14.200Z</time>
      </trkpt>
      <trkpt lat="44.55341" lon="6.20682">
        <ele>841.3</ele>
        <time>2020-10-13T11:23:19.211Z</time>
      </trkpt>
      <trkpt lat="44.55375" lon="6.20676">
        <ele>842.3</ele>
        <time>2020-10-13T11:23:22.000Z</time>
      </trkpt>
      <trkpt lat="44.55399" lon="6.20675">
        <ele>844.4</ele>
        <time>2020-10-13T11:23:25.000Z</time>
      </trkpt>
      <trkpt lat="44.55407" lon="6.20676">
        <ele>841.8</ele>
        <time>2020-10-13T11:23:29.402Z</time>
      </trkpt>
      <trkpt lat="44.55419" lon="6.20681">
        <ele>844.2</ele>
        <time>2020-10-13T11:23:33.451Z</time>
      </trkpt>
      <trkpt lat="44.5544" lon="6.2068">
        <ele>844.1</ele>
        <time>2020-10-13T11:23:37.000Z</time>
      </trkpt>
      <trkpt lat="44.55478" lon="6.20675">
        <ele>845.8</ele>
        <time>2020-10-13T11:23:43.000Z</time>
      </trkpt>
      <trkpt lat="44.55475" lon="6.2068">
        <ele>845</ele>
        <time>2020-10-13T11:23:46.000Z</time>
      </trkpt>
      <trkpt lat="44.55493" lon="6.20675">
        <ele>843.5</ele>
        <time>2020-10-13T11:23:54.306Z</time>
      </trkpt>
      <trkpt lat="44.55487" lon="6.20674">
        <ele>844.9</ele>
        <time>2020-10-13T11:23:58.425Z</time>
      </trkpt>
      <trkpt lat="44.55509" lon="6.20683">
        <ele>846.2</ele>
        <time>2020-10-13T11:24:07.161Z</time>
      </trkpt>
      <trkpt lat="44.55542" lon="6.20713">
        <ele>847.3</ele>
        <time>2020-10-13T11:24:10.000Z</time>
      </trkpt>
      <trkpt lat="44.55572" lon="6.2074">
        <ele>849.5</ele>
        <time>2020-10-13T11:24:14.505Z</time>
      </trkpt>
      <trkpt lat="44.55587" lon="6.20764">
        <ele>848.5</ele>
        <time>2020-10-13T11:24:18.466Z</time>
      </trkpt>
      <trkpt lat="44.55599" lon="6.20778">
        <ele>848.1</ele>
        <time>2020-10-13T11:24:22.000Z</time>
      </trkpt>
      <trkpt lat="44.55609" lon="6.20787">
        <ele>848.5</ele>
        <time>2020-10-13T11:24:28.456Z</time>
      </trkpt>
      <trkpt lat="44.55614" lon="6.20794">
        <ele>854.4</ele>
        <time>2020-10-13T11:24:31.000Z</time>
      </trkpt>
      <trkpt lat="44.55625" lon="6.20803">
        <ele>855.5</ele>
        <time>2020-10-13T11:24:39.388Z</time>
      </trkpt>
      <trkpt lat="44.55631" lon="6.20814">
        <ele>857.4</ele>
        <time>2020-10-13T11:24:43.446Z</time>
      </trkpt>
      <trkpt lat="44.5566" lon="6.20845">
        <ele>856.9</ele>
        <time>2020-10-13T11:24:46.000Z</time>
      </trkpt>
      <trkpt lat="44.55674" lon="6.20873">
        <ele>859.2</ele>
        <time>2020-10-13T11:24:52.000Z</time>
      </trkpt>
      <trkpt lat="44.55685" lon="6.20883">
        <ele>859.7</ele>
        <time>2020-10-13T11:24:58.456Z</time>
      </trkpt>
      <trkpt lat="44.55692" lon="6.20901">
        <ele>860.9</ele>
        <time>2020-10-13T11:25:01.000Z</time>
      </trkpt>
      <trkpt lat="44.55704" lon="6.20925">
        <ele>865.9</ele>
        <time>2020-10-13T11:25:07.000Z</time>
      </trkpt>
      <trkpt lat="44.55714" lon="6.20948">
        <ele>864.1</ele>
        <time>2020-10-13T11:25:10.000Z</time>
      </trkpt>
      <trkpt lat="44.55719" lon="6.2096">
        <ele>865.1</ele>
        <time>2020-10-13T11:25:14.509Z</time>
      </trkpt>
      <trkpt lat="44.55713" lon="6.20952">
        <ele>865.5</ele>
        <time>2020-10-13T11:25:18.461Z</time>
      </trkpt>
      <trkpt lat="44.55712" lon="6.20969">
        <ele>870.3</ele>
        <time>2020-10-13T11:25:22.066Z</time>
      </trkpt>
      <trkpt lat="44.55712" lon="6.20986">
        <ele>871.4</ele>
        <time>2020-10-13T11:25:25.710Z</time>
      </trkpt>
      <trkpt lat="44.55759" lon="6.21015">
        <ele>871.5</ele>
        <time>2020-10-13T11:25:28.000Z</time>
      </trkpt>
      <trkpt lat="44.55778" lon="6.21034">
        <ele>869.2</ele>
        <time>2020-10-13T11:25:33.546Z</time>
      </trkpt>
      <trkpt lat="44.55774" lon="6.21044">
        <ele>868.3</ele>
        <time>2020-10-13T11:25:37.357Z</time>
      </trkpt>
      <trkpt lat="44.55778" lon="6.21036">
        <ele>869.6</ele>
        <time>2020-10-13T11:25:40.000Z</time>
      </trkpt>
      <trkpt lat="44.55791" lon="6.21031">
        <ele>874.1</ele>
        <time>2020-10-13T11:25:44.720Z</time>
      </trkpt>
      <trkpt lat="44.5581" lon="6.2103">
        <ele>873.2</ele>
        <time>2020-10-13T11:25:49.217Z</time>
      </trkpt>
      <trkpt lat="44.55821" lon="6.21038">
        <ele>875.9</ele>
        <time>2020-10-13T11:25:52.400Z</time>
      </trkpt>
      <trkpt lat="44.55846" lon="6.21059">
        <ele>877</ele>
        <time>2020-10-13T11:25:55.854Z</time>
      </trkpt>
      <trkpt lat="44.55863" lon="6.21072">
        <ele>875.9</ele>
        <time>2020-10-13T11:25:58.000Z</time>
      </trkpt>
      <trkpt lat="44.55875" lon="6.21079">
        <ele>876.3</ele>
        <time>2020-10-13T11:26:01.000Z</time>
      </trkpt>
      <trkpt lat="44.55886" lon="6.21083">
        <ele>877.4</ele>
        <time>2020-10-13T11:26:05.774Z</time>
      </trkpt>
      <trkpt lat="44.55893" lon="6.21087">
        <ele>877</ele>
        <time>2020-10-13T11:26:08.891Z</time>
      </trkpt>
      <trkpt lat="44.559" lon="6.21091">
        <ele>878.7</ele>
        <time>2020-10-13T11:26:11.997Z</time>
      </trkpt>
      <trkpt lat="44.5591" lon="6.21097">
        <ele>878.8</ele>
        <time>2020-10-13T11:26:16.353Z</time>
      </trkpt>
      <trkpt lat="44.55917" lon="6.211">
        <ele>878.3</ele>
        <time>2020-10-13T11:26:19.639Z</time>
      </trkpt>
      <trkpt lat="44.55921" lon="6.21099">
        <ele>879.2</ele>
        <time>2020-10-13T11:26:22.735Z</time>
      </trkpt>
      <trkpt lat="44.55928" lon="6.21095">
        <ele>880.2</ele>
        <time>2020-10-13T11:26:25.920Z</time>
      </trkpt>
      <trkpt lat="44.55935" lon="6.21095">
        <ele>880.5</ele>
        <time>2020-10-13T11:26:29.213Z</time>
      </trkpt>
      <trkpt lat="44.55946" lon="6.21099">
        <ele>883.6</ele>
        <time>2020-10-13T11:26:32.517Z</time>
      </trkpt>
      <trkpt lat="44.55957" lon="6.21105">
        <ele>883.6</ele>
        <time>2020-10-13T11:26:36.535Z</time>
      </trkpt>
      <trkpt lat="44.55971" lon="6.21103">
        <ele>879.9</ele>
        <time>2020-10-13T11:26:39.879Z</time>
      </trkpt>
      <trkpt lat="44.55987" lon="6.21105">
        <ele>880.5</ele>
        <time>2020-10-13T11:26:43.459Z</time>
      </trkpt>
      <trkpt lat="44.55998" lon="6.21115">
        <ele>884.8</ele>
        <time>2020-10-13T11:26:46.000Z</time>
      </trkpt>
      <trkpt lat="44.56014" lon="6.21119">
        <ele>885.5</ele>
        <time>2020-10-13T11:26:50.318Z</time>
      </trkpt>
      <trkpt lat="44.56023" lon="6.21108">
        <ele>886.8</ele>
        <time>2020-10-13T11:26:53.960Z</time>
      </trkpt>
      <trkpt lat="44.56028" lon="6.21101">
        <ele>887</ele>
        <time>2020-10-13T11:26:57.819Z</time>
      </trkpt>
      <trkpt lat="44.56033" lon="6.21096">
        <ele>886.7</ele>
        <time>2020-10-13T11:27:00.895Z</time>
      </trkpt>
      <trkpt lat="44.56038" lon="6.2109">
        <ele>886.3</ele>
        <time>2020-10-13T11:27:03.961Z</time>
      </trkpt>
      <trkpt lat="44.56044" lon="6.21084">
        <ele>886.6</ele>
        <time>2020-10-13T11:27:10.896Z</time>
      </trkpt>
      <trkpt lat="44.56047" lon="6.21076">
        <ele>887.4</ele>
        <time>2020-10-13T11:27:16.000Z</time>
      </trkpt>
      <trkpt lat="44.56052" lon="6.21063">
        <ele>887.5</ele>
        <time>2020-10-13T11:27:28.476Z</time>
      </trkpt>
      <trkpt lat="44.56059" lon="6.21005">
        <ele>889</ele>
        <time>2020-10-13T11:27:31.000Z</time>
      </trkpt>
      <trkpt lat="44.56057" lon="6.20959">
        <ele>887.4</ele>
        <time>2020-10-13T11:27:35.792Z</time>
      </trkpt>
      <trkpt lat="44.56056" lon="6.20935">
        <ele>884.6</ele>
        <time>2020-10-13T11:27:39.038Z</time>
      </trkpt>
      <trkpt lat="44.56057" lon="6.20905">
        <ele>887.9</ele>
        <time>2020-10-13T11:27:43.443Z</time>
      </trkpt>
      <trkpt lat="44.56058" lon="6.2089">
        <ele>886.8</ele>
        <time>2020-10-13T11:27:46.988Z</time>
      </trkpt>
      <trkpt lat="44.56059" lon="6.20879">
        <ele>891.2</ele>
        <time>2020-10-13T11:27:50.754Z</time>
      </trkpt>
      <trkpt lat="44.56061" lon="6.20873">
        <ele>890.7</ele>
        <time>2020-10-13T11:27:54.280Z</time>
      </trkpt>
      <trkpt lat="44.56063" lon="6.20864">
        <ele>892.3</ele>
        <time>2020-10-13T11:27:58.475Z</time>
      </trkpt>
      <trkpt lat="44.56068" lon="6.20858">
        <ele>892.1</ele>
        <time>2020-10-13T11:28:01.000Z</time>
      </trkpt>
      <trkpt lat="44.56073" lon="6.20852">
        <ele>892.1</ele>
        <time>2020-10-13T11:28:05.517Z</time>
      </trkpt>
      <trkpt lat="44.56079" lon="6.20842">
        <ele>895</ele>
        <time>2020-10-13T11:28:08.796Z</time>
      </trkpt>
      <trkpt lat="44.56084" lon="6.20835">
        <ele>895</ele>
        <time>2020-10-13T11:28:12.197Z</time>
      </trkpt>
      <trkpt lat="44.56092" lon="6.20823">
        <ele>898.2</ele>
        <time>2020-10-13T11:28:16.077Z</time>
      </trkpt>
      <trkpt lat="44.56099" lon="6.20814">
        <ele>895.7</ele>
        <time>2020-10-13T11:28:19.500Z</time>
      </trkpt>
      <trkpt lat="44.56103" lon="6.20806">
        <ele>900</ele>
        <time>2020-10-13T11:28:22.000Z</time>
      </trkpt>
      <trkpt lat="44.56111" lon="6.20792">
        <ele>898.1</ele>
        <time>2020-10-13T11:28:28.465Z</time>
      </trkpt>
      <trkpt lat="44.56116" lon="6.20778">
        <ele>902.7</ele>
        <time>2020-10-13T11:28:31.000Z</time>
      </trkpt>
      <trkpt lat="44.56119" lon="6.20771">
        <ele>903.3</ele>
        <time>2020-10-13T11:28:35.154Z</time>
      </trkpt>
      <trkpt lat="44.56124" lon="6.20761">
        <ele>902.1</ele>
        <time>2020-10-13T11:28:38.878Z</time>
      </trkpt>
      <trkpt lat="44.56127" lon="6.20751">
        <ele>900.5</ele>
        <time>2020-10-13T11:28:43.498Z</time>
      </trkpt>
      <trkpt lat="44.56134" lon="6.20726">
        <ele>904</ele>
        <time>2020-10-13T11:28:46.000Z</time>
      </trkpt>
      <trkpt lat="44.56145" lon="6.20678">
        <ele>904.2</ele>
        <time>2020-10-13T11:28:52.503Z</time>
      </trkpt>
      <trkpt lat="44.56162" lon="6.20645">
        <ele>904.4</ele>
        <time>2020-10-13T11:28:55.000Z</time>
      </trkpt>
      <trkpt lat="44.56168" lon="6.2063">
        <ele>905.5</ele>
        <time>2020-10-13T11:28:59.801Z</time>
      </trkpt>
      <trkpt lat="44.56186" lon="6.20646">
        <ele>905.2</ele>
        <time>2020-10-13T11:29:06.233Z</time>
      </trkpt>
      <trkpt lat="44.56196" lon="6.20645">
        <ele>904.6</ele>
        <time>2020-10-13T11:29:09.583Z</time>
      </trkpt>
      <trkpt lat="44.56204" lon="6.2063">
        <ele>904.6</ele>
        <time>2020-10-13T11:29:13.622Z</time>
      </trkpt>
      <trkpt lat="44.5621" lon="6.20589">
        <ele>899.9</ele>
        <time>2020-10-13T11:29:16.000Z</time>
      </trkpt>
      <trkpt lat="44.56221" lon="6.20494">
        <ele>899.6</ele>
        <time>2020-10-13T11:29:22.000Z</time>
      </trkpt>
      <trkpt lat="44.5622" lon="6.20477">
        <ele>902.5</ele>
        <time>2020-10-13T11:29:26.890Z</time>
      </trkpt>
      <trkpt lat="44.56218" lon="6.20467">
        <ele>902.8</ele>
        <time>2020-10-13T11:29:29.934Z</time>
      </trkpt>
      <trkpt lat="44.56212" lon="6.20458">
        <ele>901.6</ele>
        <time>2020-10-13T11:29:34.450Z</time>
      </trkpt>
      <trkpt lat="44.56208" lon="6.20444">
        <ele>902.7</ele>
        <time>2020-10-13T11:29:37.000Z</time>
      </trkpt>
      <trkpt lat="44.56206" lon="6.20433">
        <ele>902.7</ele>
        <time>2020-10-13T11:29:41.136Z</time>
      </trkpt>
      <trkpt lat="44.56208" lon="6.20393">
        <ele>903.8</ele>
        <time>2020-10-13T11:29:46.000Z</time>
      </trkpt>
      <trkpt lat="44.56204" lon="6.20408">
        <ele>903</ele>
        <time>2020-10-13T11:29:49.000Z</time>
      </trkpt>
      <trkpt lat="44.56189" lon="6.20396">
        <ele>886.8</ele>
        <time>2020-10-13T11:29:55.000Z</time>
      </trkpt>
      <trkpt lat="44.56178" lon="6.20366">
        <ele>881.4</ele>
        <time>2020-10-13T11:29:58.000Z</time>
      </trkpt>
      <trkpt lat="44.56161" lon="6.20344">
        <ele>881</ele>
        <time>2020-10-13T11:30:01.000Z</time>
      </trkpt>
      <trkpt lat="44.56146" lon="6.20324">
        <ele>880.5</ele>
        <time>2020-10-13T11:30:04.000Z</time>
      </trkpt>
      <trkpt lat="44.56146" lon="6.20288">
        <ele>881.8</ele>
        <time>2020-10-13T11:30:08.105Z</time>
      </trkpt>
      <trkpt lat="44.56161" lon="6.20252">
        <ele>884.7</ele>
        <time>2020-10-13T11:30:13.116Z</time>
      </trkpt>
      <trkpt lat="44.56165" lon="6.20222">
        <ele>882.5</ele>
        <time>2020-10-13T11:30:16.000Z</time>
      </trkpt>
      <trkpt lat="44.56175" lon="6.20213">
        <ele>883.8</ele>
        <time>2020-10-13T11:30:22.000Z</time>
      </trkpt>
      <trkpt lat="44.56168" lon="6.20249">
        <ele>883.4</ele>
        <time>2020-10-13T11:30:28.451Z</time>
      </trkpt>
      <trkpt lat="44.56161" lon="6.20229">
        <ele>883.5</ele>
        <time>2020-10-13T11:30:31.000Z</time>
      </trkpt>
      <trkpt lat="44.56167" lon="6.20212">
        <ele>885.2</ele>
        <time>2020-10-13T11:30:35.196Z</time>
      </trkpt>
      <trkpt lat="44.56174" lon="6.20192">
        <ele>885.3</ele>
        <time>2020-10-13T11:30:38.877Z</time>
      </trkpt>
      <trkpt lat="44.5618" lon="6.20173">
        <ele>887.5</ele>
        <time>2020-10-13T11:30:43.469Z</time>
      </trkpt>
      <trkpt lat="44.56186" lon="6.20152">
        <ele>891.6</ele>
        <time>2020-10-13T11:30:46.000Z</time>
      </trkpt>
      <trkpt lat="44.56186" lon="6.20143">
        <ele>892.8</ele>
        <time>2020-10-13T11:30:50.738Z</time>
      </trkpt>
      <trkpt lat="44.5618" lon="6.2015">
        <ele>893.7</ele>
        <time>2020-10-13T11:30:54.121Z</time>
      </trkpt>
      <trkpt lat="44.56179" lon="6.20135">
        <ele>894.3</ele>
        <time>2020-10-13T11:30:58.468Z</time>
      </trkpt>
      <trkpt lat="44.56199" lon="6.20091">
        <ele>893.9</ele>
        <time>2020-10-13T11:31:01.000Z</time>
      </trkpt>
      <trkpt lat="44.56213" lon="6.20056">
        <ele>892.6</ele>
        <time>2020-10-13T11:31:05.176Z</time>
      </trkpt>
      <trkpt lat="44.56224" lon="6.20023">
        <ele>896.1</ele>
        <time>2020-10-13T11:31:09.303Z</time>
      </trkpt>
      <trkpt lat="44.5623" lon="6.2">
        <ele>894.6</ele>
        <time>2020-10-13T11:31:13.460Z</time>
      </trkpt>
      <trkpt lat="44.56234" lon="6.19984">
        <ele>895.8</ele>
        <time>2020-10-13T11:31:16.000Z</time>
      </trkpt>
      <trkpt lat="44.56235" lon="6.19973">
        <ele>898.4</ele>
        <time>2020-10-13T11:31:20.201Z</time>
      </trkpt>
      <trkpt lat="44.56239" lon="6.19958">
        <ele>899.9</ele>
        <time>2020-10-13T11:31:24.463Z</time>
      </trkpt>
      <trkpt lat="44.56241" lon="6.1994">
        <ele>898.3</ele>
        <time>2020-10-13T11:31:28.000Z</time>
      </trkpt>
      <trkpt lat="44.56239" lon="6.1993">
        <ele>898.2</ele>
        <time>2020-10-13T11:31:31.000Z</time>
      </trkpt>
      <trkpt lat="44.56243" lon="6.19918">
        <ele>903.2</ele>
        <time>2020-10-13T11:31:37.000Z</time>
      </trkpt>
      <trkpt lat="44.56255" lon="6.19876">
        <ele>902</ele>
        <time>2020-10-13T11:31:46.000Z</time>
      </trkpt>
      <trkpt lat="44.56262" lon="6.19846">
        <ele>903.8</ele>
        <time>2020-10-13T11:31:50.335Z</time>
      </trkpt>
      <trkpt lat="44.56277" lon="6.19809">
        <ele>905.5</ele>
        <time>2020-10-13T11:31:55.316Z</time>
      </trkpt>
      <trkpt lat="44.56295" lon="6.1977">
        <ele>909.1</ele>
        <time>2020-10-13T11:31:58.000Z</time>
      </trkpt>
      <trkpt lat="44.56303" lon="6.19747">
        <ele>908.1</ele>
        <time>2020-10-13T11:32:01.000Z</time>
      </trkpt>
      <trkpt lat="44.56309" lon="6.19728">
        <ele>907.8</ele>
        <time>2020-10-13T11:32:05.362Z</time>
      </trkpt>
      <trkpt lat="44.56311" lon="6.19698">
        <ele>908.6</ele>
        <time>2020-10-13T11:32:10.373Z</time>
      </trkpt>
      <trkpt lat="44.56312" lon="6.19681">
        <ele>909</ele>
        <time>2020-10-13T11:32:13.000Z</time>
      </trkpt>
      <trkpt lat="44.56318" lon="6.1968">
        <ele>908.1</ele>
        <time>2020-10-13T11:32:18.240Z</time>
      </trkpt>
      <trkpt lat="44.56327" lon="6.19666">
        <ele>908.9</ele>
        <time>2020-10-13T11:32:21.404Z</time>
      </trkpt>
      <trkpt lat="44.56331" lon="6.19676">
        <ele>910.7</ele>
        <time>2020-10-13T11:32:25.000Z</time>
      </trkpt>
      <trkpt lat="44.56321" lon="6.19686">
        <ele>909.9</ele>
        <time>2020-10-13T11:32:31.000Z</time>
      </trkpt>
      <trkpt lat="44.56329" lon="6.19659">
        <ele>910</ele>
        <time>2020-10-13T11:32:40.000Z</time>
      </trkpt>
      <trkpt lat="44.56349" lon="6.19609">
        <ele>910.3</ele>
        <time>2020-10-13T11:32:46.000Z</time>
      </trkpt>
      <trkpt lat="44.56361" lon="6.19583">
        <ele>910.7</ele>
        <time>2020-10-13T11:32:49.000Z</time>
      </trkpt>
      <trkpt lat="44.56375" lon="6.19552">
        <ele>911.3</ele>
        <time>2020-10-13T11:32:53.110Z</time>
      </trkpt>
      <trkpt lat="44.56385" lon="6.19543">
        <ele>913.6</ele>
        <time>2020-10-13T11:32:56.635Z</time>
      </trkpt>
      <trkpt lat="44.56399" lon="6.19533">
        <ele>913.9</ele>
        <time>2020-10-13T11:33:01.459Z</time>
      </trkpt>
      <trkpt lat="44.56406" lon="6.19497">
        <ele>915.6</ele>
        <time>2020-10-13T11:33:04.000Z</time>
      </trkpt>
      <trkpt lat="44.56418" lon="6.19455">
        <ele>916</ele>
        <time>2020-10-13T11:33:09.175Z</time>
      </trkpt>
      <trkpt lat="44.56428" lon="6.19417">
        <ele>915.4</ele>
        <time>2020-10-13T11:33:13.000Z</time>
      </trkpt>
      <trkpt lat="44.56438" lon="6.19394">
        <ele>918.2</ele>
        <time>2020-10-13T11:33:19.439Z</time>
      </trkpt>
      <trkpt lat="44.56446" lon="6.19383">
        <ele>919.8</ele>
        <time>2020-10-13T11:33:22.000Z</time>
      </trkpt>
      <trkpt lat="44.56452" lon="6.19381">
        <ele>920.5</ele>
        <time>2020-10-13T11:33:26.114Z</time>
      </trkpt>
      <trkpt lat="44.56461" lon="6.19371">
        <ele>920.4</ele>
        <time>2020-10-13T11:33:31.187Z</time>
      </trkpt>
      <trkpt lat="44.56463" lon="6.19362">
        <ele>920.6</ele>
        <time>2020-10-13T11:33:34.479Z</time>
      </trkpt>
      <trkpt lat="44.56471" lon="6.19302">
        <ele>917.6</ele>
        <time>2020-10-13T11:33:37.000Z</time>
      </trkpt>
      <trkpt lat="44.5648" lon="6.1927">
        <ele>914.8</ele>
        <time>2020-10-13T11:33:40.000Z</time>
      </trkpt>
      <trkpt lat="44.56488" lon="6.19253">
        <ele>917.8</ele>
        <time>2020-10-13T11:33:43.000Z</time>
      </trkpt>
      <trkpt lat="44.5651" lon="6.19211">
        <ele>914.8</ele>
        <time>2020-10-13T11:33:49.000Z</time>
      </trkpt>
      <trkpt lat="44.56528" lon="6.19169">
        <ele>912.6</ele>
        <time>2020-10-13T11:33:55.000Z</time>
      </trkpt>
      <trkpt lat="44.56538" lon="6.19146">
        <ele>912.5</ele>
        <time>2020-10-13T11:33:58.000Z</time>
      </trkpt>
      <trkpt lat="44.56547" lon="6.19129">
        <ele>912.8</ele>
        <time>2020-10-13T11:34:01.000Z</time>
      </trkpt>
      <trkpt lat="44.56552" lon="6.19113">
        <ele>914.3</ele>
        <time>2020-10-13T11:34:04.000Z</time>
      </trkpt>
      <trkpt lat="44.56554" lon="6.19091">
        <ele>916.1</ele>
        <time>2020-10-13T11:34:07.000Z</time>
      </trkpt>
      <trkpt lat="44.5655" lon="6.19067">
        <ele>915.4</ele>
        <time>2020-10-13T11:34:11.103Z</time>
      </trkpt>
      <trkpt lat="44.5655" lon="6.19041">
        <ele>915.4</ele>
        <time>2020-10-13T11:34:16.112Z</time>
      </trkpt>
      <trkpt lat="44.56552" lon="6.19025">
        <ele>920</ele>
        <time>2020-10-13T11:34:19.464Z</time>
      </trkpt>
      <trkpt lat="44.56552" lon="6.18996">
        <ele>923.8</ele>
        <time>2020-10-13T11:34:22.000Z</time>
      </trkpt>
      <trkpt lat="44.56553" lon="6.18974">
        <ele>921.4</ele>
        <time>2020-10-13T11:34:25.000Z</time>
      </trkpt>
      <trkpt lat="44.56552" lon="6.18953">
        <ele>919.6</ele>
        <time>2020-10-13T11:34:31.212Z</time>
      </trkpt>
      <trkpt lat="44.56549" lon="6.18944">
        <ele>917.8</ele>
        <time>2020-10-13T11:34:34.481Z</time>
      </trkpt>
      <trkpt lat="44.56552" lon="6.18937">
        <ele>916.8</ele>
        <time>2020-10-13T11:34:41.579Z</time>
      </trkpt>
      <trkpt lat="44.5655" lon="6.18928">
        <ele>916.8</ele>
        <time>2020-10-13T11:34:45.435Z</time>
      </trkpt>
      <trkpt lat="44.56548" lon="6.1892">
        <ele>916.8</ele>
        <time>2020-10-13T11:34:49.000Z</time>
      </trkpt>
      <trkpt lat="44.56552" lon="6.18915">
        <ele>917.3</ele>
        <time>2020-10-13T11:34:55.477Z</time>
      </trkpt>
      <trkpt lat="44.56562" lon="6.1889">
        <ele>921</ele>
        <time>2020-10-13T11:34:58.000Z</time>
      </trkpt>
      <trkpt lat="44.5657" lon="6.18887">
        <ele>921.3</ele>
        <time>2020-10-13T11:35:03.009Z</time>
      </trkpt>
      <trkpt lat="44.56582" lon="6.1886">
        <ele>922.7</ele>
        <time>2020-10-13T11:35:07.458Z</time>
      </trkpt>
      <trkpt lat="44.56584" lon="6.18808">
        <ele>922.7</ele>
        <time>2020-10-13T11:35:10.000Z</time>
      </trkpt>
      <trkpt lat="44.56579" lon="6.1878">
        <ele>923.8</ele>
        <time>2020-10-13T11:35:14.218Z</time>
      </trkpt>
      <trkpt lat="44.56574" lon="6.18758">
        <ele>923.3</ele>
        <time>2020-10-13T11:35:18.482Z</time>
      </trkpt>
      <trkpt lat="44.56574" lon="6.18697">
        <ele>924.5</ele>
        <time>2020-10-13T11:35:22.000Z</time>
      </trkpt>
      <trkpt lat="44.56578" lon="6.18683">
        <ele>924.5</ele>
        <time>2020-10-13T11:35:28.000Z</time>
      </trkpt>
      <trkpt lat="44.56566" lon="6.18696">
        <ele>925.3</ele>
        <time>2020-10-13T11:35:34.467Z</time>
      </trkpt>
      <trkpt lat="44.5657" lon="6.18689">
        <ele>929.3</ele>
        <time>2020-10-13T11:35:37.000Z</time>
      </trkpt>
      <trkpt lat="44.56575" lon="6.18679">
        <ele>935.7</ele>
        <time>2020-10-13T11:35:41.132Z</time>
      </trkpt>
      <trkpt lat="44.56584" lon="6.18634">
        <ele>935.8</ele>
        <time>2020-10-13T11:35:44.452Z</time>
      </trkpt>
      <trkpt lat="44.56599" lon="6.1862">
        <ele>935.6</ele>
        <time>2020-10-13T11:35:49.490Z</time>
      </trkpt>
      <trkpt lat="44.56599" lon="6.18557">
        <ele>936.4</ele>
        <time>2020-10-13T11:35:52.000Z</time>
      </trkpt>
      <trkpt lat="44.56599" lon="6.18542">
        <ele>936.9</ele>
        <time>2020-10-13T11:35:55.000Z</time>
      </trkpt>
      <trkpt lat="44.56593" lon="6.1853">
        <ele>939.4</ele>
        <time>2020-10-13T11:36:04.519Z</time>
      </trkpt>
      <trkpt lat="44.56582" lon="6.18463">
        <ele>938.5</ele>
        <time>2020-10-13T11:36:07.000Z</time>
      </trkpt>
      <trkpt lat="44.56584" lon="6.18444">
        <ele>938.6</ele>
        <time>2020-10-13T11:36:10.000Z</time>
      </trkpt>
      <trkpt lat="44.56579" lon="6.18413">
        <ele>938.6</ele>
        <time>2020-10-13T11:36:16.465Z</time>
      </trkpt>
      <trkpt lat="44.56573" lon="6.184">
        <ele>943.4</ele>
        <time>2020-10-13T11:36:19.000Z</time>
      </trkpt>
      <trkpt lat="44.5657" lon="6.18392">
        <ele>944.1</ele>
        <time>2020-10-13T11:36:23.102Z</time>
      </trkpt>
      <trkpt lat="44.56567" lon="6.18383">
        <ele>945.7</ele>
        <time>2020-10-13T11:36:26.844Z</time>
      </trkpt>
      <trkpt lat="44.56564" lon="6.18373">
        <ele>947.4</ele>
        <time>2020-10-13T11:36:31.458Z</time>
      </trkpt>
      <trkpt lat="44.5656" lon="6.18365">
        <ele>948</ele>
        <time>2020-10-13T11:36:34.000Z</time>
      </trkpt>
      <trkpt lat="44.56557" lon="6.18357">
        <ele>948.1</ele>
        <time>2020-10-13T11:36:38.386Z</time>
      </trkpt>
      <trkpt lat="44.56554" lon="6.18346">
        <ele>947.7</ele>
        <time>2020-10-13T11:36:42.449Z</time>
      </trkpt>
      <trkpt lat="44.5655" lon="6.18336">
        <ele>948</ele>
        <time>2020-10-13T11:36:46.000Z</time>
      </trkpt>
      <trkpt lat="44.56544" lon="6.18309">
        <ele>947.6</ele>
        <time>2020-10-13T11:36:49.000Z</time>
      </trkpt>
      <trkpt lat="44.5654" lon="6.18289">
        <ele>950.8</ele>
        <time>2020-10-13T11:36:53.417Z</time>
      </trkpt>
      <trkpt lat="44.56536" lon="6.18284">
        <ele>952.9</ele>
        <time>2020-10-13T11:36:57.505Z</time>
      </trkpt>
      <trkpt lat="44.56519" lon="6.18236">
        <ele>956.2</ele>
        <time>2020-10-13T11:37:01.000Z</time>
      </trkpt>
      <trkpt lat="44.56499" lon="6.1813">
        <ele>957.5</ele>
        <time>2020-10-13T11:37:07.000Z</time>
      </trkpt>
      <trkpt lat="44.56498" lon="6.18123">
        <ele>959.4</ele>
        <time>2020-10-13T11:37:13.488Z</time>
      </trkpt>
      <trkpt lat="44.56487" lon="6.18106">
        <ele>961.3</ele>
        <time>2020-10-13T11:37:16.000Z</time>
      </trkpt>
      <trkpt lat="44.56485" lon="6.18094">
        <ele>962</ele>
        <time>2020-10-13T11:37:20.072Z</time>
      </trkpt>
      <trkpt lat="44.56487" lon="6.18066">
        <ele>965.2</ele>
        <time>2020-10-13T11:37:24.247Z</time>
      </trkpt>
      <trkpt lat="44.56479" lon="6.17997">
        <ele>963.1</ele>
        <time>2020-10-13T11:37:28.000Z</time>
      </trkpt>
      <trkpt lat="44.5648" lon="6.17973">
        <ele>962.9</ele>
        <time>2020-10-13T11:37:31.000Z</time>
      </trkpt>
      <trkpt lat="44.56476" lon="6.17952">
        <ele>961.9</ele>
        <time>2020-10-13T11:37:35.538Z</time>
      </trkpt>
      <trkpt lat="44.56465" lon="6.179">
        <ele>955.4</ele>
        <time>2020-10-13T11:37:40.000Z</time>
      </trkpt>
      <trkpt lat="44.56454" lon="6.17873">
        <ele>958.8</ele>
        <time>2020-10-13T11:37:43.000Z</time>
      </trkpt>
      <trkpt lat="44.56447" lon="6.17852">
        <ele>958.2</ele>
        <time>2020-10-13T11:37:46.000Z</time>
      </trkpt>
      <trkpt lat="44.56441" lon="6.17829">
        <ele>955.3</ele>
        <time>2020-10-13T11:37:51.119Z</time>
      </trkpt>
      <trkpt lat="44.56433" lon="6.17818">
        <ele>955.6</ele>
        <time>2020-10-13T11:37:55.463Z</time>
      </trkpt>
      <trkpt lat="44.56426" lon="6.17774">
        <ele>957</ele>
        <time>2020-10-13T11:37:58.000Z</time>
      </trkpt>
      <trkpt lat="44.56419" lon="6.1775">
        <ele>956</ele>
        <time>2020-10-13T11:38:01.000Z</time>
      </trkpt>
      <trkpt lat="44.56417" lon="6.17725">
        <ele>957.5</ele>
        <time>2020-10-13T11:38:04.000Z</time>
      </trkpt>
      <trkpt lat="44.56414" lon="6.17677">
        <ele>956.1</ele>
        <time>2020-10-13T11:38:10.000Z</time>
      </trkpt>
      <trkpt lat="44.56405" lon="6.17626">
        <ele>956</ele>
        <time>2020-10-13T11:38:16.000Z</time>
      </trkpt>
      <trkpt lat="44.564" lon="6.17572">
        <ele>958.2</ele>
        <time>2020-10-13T11:38:22.000Z</time>
      </trkpt>
      <trkpt lat="44.56398" lon="6.17549">
        <ele>961.3</ele>
        <time>2020-10-13T11:38:25.000Z</time>
      </trkpt>
      <trkpt lat="44.56398" lon="6.17511">
        <ele>962.8</ele>
        <time>2020-10-13T11:38:31.000Z</time>
      </trkpt>
      <trkpt lat="44.56395" lon="6.17467">
        <ele>960.9</ele>
        <time>2020-10-13T11:38:37.000Z</time>
      </trkpt>
      <trkpt lat="44.56391" lon="6.17422">
        <ele>959.9</ele>
        <time>2020-10-13T11:38:43.000Z</time>
      </trkpt>
      <trkpt lat="44.56377" lon="6.1738">
        <ele>957.5</ele>
        <time>2020-10-13T11:38:49.000Z</time>
      </trkpt>
      <trkpt lat="44.5637" lon="6.17358">
        <ele>956.8</ele>
        <time>2020-10-13T11:38:55.158Z</time>
      </trkpt>
      <trkpt lat="44.56362" lon="6.17349">
        <ele>956.1</ele>
        <time>2020-10-13T11:38:58.474Z</time>
      </trkpt>
      <trkpt lat="44.56348" lon="6.17328">
        <ele>961</ele>
        <time>2020-10-13T11:39:01.000Z</time>
      </trkpt>
      <trkpt lat="44.56323" lon="6.17297">
        <ele>958.3</ele>
        <time>2020-10-13T11:39:07.000Z</time>
      </trkpt>
      <trkpt lat="44.56312" lon="6.17261">
        <ele>957.7</ele>
        <time>2020-10-13T11:39:11.175Z</time>
      </trkpt>
      <trkpt lat="44.56301" lon="6.17222">
        <ele>955.2</ele>
        <time>2020-10-13T11:39:16.000Z</time>
      </trkpt>
      <trkpt lat="44.56298" lon="6.17198">
        <ele>954.7</ele>
        <time>2020-10-13T11:39:19.000Z</time>
      </trkpt>
      <trkpt lat="44.5629" lon="6.17129">
        <ele>954.3</ele>
        <time>2020-10-13T11:39:25.000Z</time>
      </trkpt>
      <trkpt lat="44.5631" lon="6.17059">
        <ele>950.5</ele>
        <time>2020-10-13T11:39:31.000Z</time>
      </trkpt>
      <trkpt lat="44.56323" lon="6.17026">
        <ele>950.6</ele>
        <time>2020-10-13T11:39:34.000Z</time>
      </trkpt>
      <trkpt lat="44.56339" lon="6.16978">
        <ele>946.9</ele>
        <time>2020-10-13T11:39:40.000Z</time>
      </trkpt>
      <trkpt lat="44.56346" lon="6.16952">
        <ele>947</ele>
        <time>2020-10-13T11:39:43.000Z</time>
      </trkpt>
      <trkpt lat="44.56351" lon="6.16891">
        <ele>946.9</ele>
        <time>2020-10-13T11:39:49.000Z</time>
      </trkpt>
      <trkpt lat="44.56347" lon="6.1686">
        <ele>946.6</ele>
        <time>2020-10-13T11:39:52.000Z</time>
      </trkpt>
      <trkpt lat="44.56348" lon="6.16807">
        <ele>946.2</ele>
        <time>2020-10-13T11:39:58.000Z</time>
      </trkpt>
      <trkpt lat="44.5636" lon="6.16771">
        <ele>945.1</ele>
        <time>2020-10-13T11:40:04.000Z</time>
      </trkpt>
      <trkpt lat="44.56368" lon="6.16748">
        <ele>944.6</ele>
        <time>2020-10-13T11:40:07.000Z</time>
      </trkpt>
      <trkpt lat="44.56373" lon="6.16728">
        <ele>947.8</ele>
        <time>2020-10-13T11:40:10.000Z</time>
      </trkpt>
      <trkpt lat="44.56377" lon="6.16706">
        <ele>946.9</ele>
        <time>2020-10-13T11:40:16.124Z</time>
      </trkpt>
      <trkpt lat="44.5638" lon="6.16671">
        <ele>943.6</ele>
        <time>2020-10-13T11:40:19.000Z</time>
      </trkpt>
      <trkpt lat="44.56386" lon="6.16645">
        <ele>941.7</ele>
        <time>2020-10-13T11:40:22.000Z</time>
      </trkpt>
      <trkpt lat="44.56391" lon="6.16582">
        <ele>939.9</ele>
        <time>2020-10-13T11:40:28.000Z</time>
      </trkpt>
      <trkpt lat="44.56395" lon="6.16547">
        <ele>940.6</ele>
        <time>2020-10-13T11:40:32.179Z</time>
      </trkpt>
      <trkpt lat="44.56394" lon="6.16494">
        <ele>941.1</ele>
        <time>2020-10-13T11:40:37.000Z</time>
      </trkpt>
      <trkpt lat="44.56389" lon="6.16479">
        <ele>940.7</ele>
        <time>2020-10-13T11:40:40.000Z</time>
      </trkpt>
      <trkpt lat="44.56388" lon="6.16423">
        <ele>942.8</ele>
        <time>2020-10-13T11:40:46.000Z</time>
      </trkpt>
      <trkpt lat="44.56412" lon="6.16378">
        <ele>947.4</ele>
        <time>2020-10-13T11:40:52.000Z</time>
      </trkpt>
      <trkpt lat="44.56425" lon="6.16354">
        <ele>945.1</ele>
        <time>2020-10-13T11:40:55.000Z</time>
      </trkpt>
      <trkpt lat="44.56444" lon="6.16289">
        <ele>941.2</ele>
        <time>2020-10-13T11:41:01.000Z</time>
      </trkpt>
      <trkpt lat="44.56453" lon="6.1626">
        <ele>940.6</ele>
        <time>2020-10-13T11:41:07.204Z</time>
      </trkpt>
      <trkpt lat="44.56459" lon="6.16255">
        <ele>939.9</ele>
        <time>2020-10-13T11:41:10.471Z</time>
      </trkpt>
      <trkpt lat="44.56456" lon="6.16264">
        <ele>939.8</ele>
        <time>2020-10-13T11:41:13.000Z</time>
      </trkpt>
      <trkpt lat="44.565" lon="6.16212">
        <ele>944.6</ele>
        <time>2020-10-13T11:41:22.000Z</time>
      </trkpt>
      <trkpt lat="44.56519" lon="6.16183">
        <ele>945.7</ele>
        <time>2020-10-13T11:41:25.000Z</time>
      </trkpt>
      <trkpt lat="44.56534" lon="6.16166">
        <ele>944.7</ele>
        <time>2020-10-13T11:41:28.000Z</time>
      </trkpt>
      <trkpt lat="44.56542" lon="6.16166">
        <ele>944.2</ele>
        <time>2020-10-13T11:41:34.121Z</time>
      </trkpt>
      <trkpt lat="44.56567" lon="6.16136">
        <ele>939.6</ele>
        <time>2020-10-13T11:41:37.000Z</time>
      </trkpt>
      <trkpt lat="44.56588" lon="6.16065">
        <ele>941.5</ele>
        <time>2020-10-13T11:41:43.000Z</time>
      </trkpt>
      <trkpt lat="44.56593" lon="6.1603">
        <ele>940</ele>
        <time>2020-10-13T11:41:46.000Z</time>
      </trkpt>
      <trkpt lat="44.56595" lon="6.15971">
        <ele>941.3</ele>
        <time>2020-10-13T11:41:52.000Z</time>
      </trkpt>
      <trkpt lat="44.56599" lon="6.15922">
        <ele>939.6</ele>
        <time>2020-10-13T11:41:58.000Z</time>
      </trkpt>
      <trkpt lat="44.56602" lon="6.15898">
        <ele>941.9</ele>
        <time>2020-10-13T11:42:01.000Z</time>
      </trkpt>
      <trkpt lat="44.56605" lon="6.15874">
        <ele>942.8</ele>
        <time>2020-10-13T11:42:04.000Z</time>
      </trkpt>
      <trkpt lat="44.56615" lon="6.15823">
        <ele>946.9</ele>
        <time>2020-10-13T11:42:10.000Z</time>
      </trkpt>
      <trkpt lat="44.56624" lon="6.15772">
        <ele>946.3</ele>
        <time>2020-10-13T11:42:16.000Z</time>
      </trkpt>
      <trkpt lat="44.56639" lon="6.15719">
        <ele>943</ele>
        <time>2020-10-13T11:42:22.000Z</time>
      </trkpt>
      <trkpt lat="44.56657" lon="6.15676">
        <ele>940.9</ele>
        <time>2020-10-13T11:42:28.000Z</time>
      </trkpt>
      <trkpt lat="44.56666" lon="6.15648">
        <ele>938.8</ele>
        <time>2020-10-13T11:42:31.000Z</time>
      </trkpt>
      <trkpt lat="44.56679" lon="6.15599">
        <ele>939.9</ele>
        <time>2020-10-13T11:42:37.000Z</time>
      </trkpt>
      <trkpt lat="44.5668" lon="6.15576">
        <ele>939.4</ele>
        <time>2020-10-13T11:42:40.000Z</time>
      </trkpt>
      <trkpt lat="44.56676" lon="6.15516">
        <ele>939.5</ele>
        <time>2020-10-13T11:42:46.000Z</time>
      </trkpt>
      <trkpt lat="44.56678" lon="6.15468">
        <ele>940.8</ele>
        <time>2020-10-13T11:42:52.000Z</time>
      </trkpt>
      <trkpt lat="44.56675" lon="6.15443">
        <ele>940.5</ele>
        <time>2020-10-13T11:42:55.000Z</time>
      </trkpt>
      <trkpt lat="44.56667" lon="6.15412">
        <ele>944</ele>
        <time>2020-10-13T11:42:58.000Z</time>
      </trkpt>
      <trkpt lat="44.56666" lon="6.15352">
        <ele>944.9</ele>
        <time>2020-10-13T11:43:04.000Z</time>
      </trkpt>
      <trkpt lat="44.56668" lon="6.1532">
        <ele>942.1</ele>
        <time>2020-10-13T11:43:07.000Z</time>
      </trkpt>
      <trkpt lat="44.56671" lon="6.15268">
        <ele>943.9</ele>
        <time>2020-10-13T11:43:13.000Z</time>
      </trkpt>
      <trkpt lat="44.56669" lon="6.15246">
        <ele>943.7</ele>
        <time>2020-10-13T11:43:16.000Z</time>
      </trkpt>
      <trkpt lat="44.56666" lon="6.152">
        <ele>940.5</ele>
        <time>2020-10-13T11:43:22.000Z</time>
      </trkpt>
      <trkpt lat="44.56666" lon="6.15183">
        <ele>940.7</ele>
        <time>2020-10-13T11:43:25.000Z</time>
      </trkpt>
      <trkpt lat="44.56675" lon="6.15133">
        <ele>940.7</ele>
        <time>2020-10-13T11:43:31.000Z</time>
      </trkpt>
      <trkpt lat="44.56686" lon="6.15101">
        <ele>939.9</ele>
        <time>2020-10-13T11:43:34.000Z</time>
      </trkpt>
      <trkpt lat="44.56715" lon="6.15066">
        <ele>934.1</ele>
        <time>2020-10-13T11:43:40.000Z</time>
      </trkpt>
      <trkpt lat="44.56726" lon="6.15042">
        <ele>928.4</ele>
        <time>2020-10-13T11:43:44.467Z</time>
      </trkpt>
      <trkpt lat="44.56742" lon="6.15007">
        <ele>930</ele>
        <time>2020-10-13T11:43:49.000Z</time>
      </trkpt>
      <trkpt lat="44.56747" lon="6.14994">
        <ele>923.6</ele>
        <time>2020-10-13T11:43:52.000Z</time>
      </trkpt>
      <trkpt lat="44.56757" lon="6.14965">
        <ele>919.4</ele>
        <time>2020-10-13T11:43:58.000Z</time>
      </trkpt>
      <trkpt lat="44.56763" lon="6.14945">
        <ele>917.6</ele>
        <time>2020-10-13T11:44:01.000Z</time>
      </trkpt>
      <trkpt lat="44.56768" lon="6.14911">
        <ele>921.1</ele>
        <time>2020-10-13T11:44:06.317Z</time>
      </trkpt>
      <trkpt lat="44.56768" lon="6.14893">
        <ele>919.2</ele>
        <time>2020-10-13T11:44:10.000Z</time>
      </trkpt>
      <trkpt lat="44.56778" lon="6.14816">
        <ele>921.4</ele>
        <time>2020-10-13T11:44:16.000Z</time>
      </trkpt>
      <trkpt lat="44.56785" lon="6.14776">
        <ele>924.7</ele>
        <time>2020-10-13T11:44:19.000Z</time>
      </trkpt>
      <trkpt lat="44.56809" lon="6.14725">
        <ele>927.2</ele>
        <time>2020-10-13T11:44:25.000Z</time>
      </trkpt>
      <trkpt lat="44.56814" lon="6.14703">
        <ele>928.1</ele>
        <time>2020-10-13T11:44:28.000Z</time>
      </trkpt>
      <trkpt lat="44.56818" lon="6.14657">
        <ele>932.8</ele>
        <time>2020-10-13T11:44:34.000Z</time>
      </trkpt>
    </trkseg>
  </trk>
</gpx>